<?xml version="1.0" encoding="UTF-8" standalone="no" ?>
<gpx xmlns="http://www.topografix.com/GPX/1/1" creator="MapSource 6.15.6" version="1.1" xmlns:xsi="http://www.w3.org/2001/XMLSchema-instance" xsi:schemaLocation="http://www.topografix.com/GPX/1/1 http://www.topografix.com/GPX/1/1/gpx.xsd">

  <metadata>
    <link href="http://www.garmin.com">
      <text>Garmin International</text>
    </link>
    <time>2009-06-29T14:41:49Z</time>
    <bounds maxlat="45.0814320" maxlon="-91.6260600" minlat="44.0279250" minlon="-93.1181010"/>
  </metadata>

  <trk>
    <name>090628_RootBeerFloatDrive</name>
    <extensions>
      <gpxx:TrackExtension xmlns:gpxx="http://www.garmin.com/xmlschemas/GpxExtensions/v3">
        <gpxx:DisplayColor>White</gpxx:DisplayColor>
      </gpxx:TrackExtension>
    </extensions>
    <trkseg>
      <trkpt lat="44.7298800" lon="-92.8271110">
        <ele>226.5300000</ele>
        <time>2009-06-28T14:10:24Z</time>
      </trkpt>
      <trkpt lat="44.7292480" lon="-92.8228360">
        <ele>224.6100000</ele>
        <time>2009-06-28T14:10:41Z</time>
      </trkpt>
      <trkpt lat="44.7287620" lon="-92.8191940">
        <ele>221.2400000</ele>
        <time>2009-06-28T14:10:53Z</time>
      </trkpt>
      <trkpt lat="44.7280050" lon="-92.8127800">
        <ele>217.8800000</ele>
        <time>2009-06-28T14:11:13Z</time>
      </trkpt>
      <trkpt lat="44.7276480" lon="-92.8069770">
        <ele>221.7200000</ele>
        <time>2009-06-28T14:11:31Z</time>
      </trkpt>
      <trkpt lat="44.7273650" lon="-92.8038140">
        <ele>228.4500000</ele>
        <time>2009-06-28T14:11:41Z</time>
      </trkpt>
      <trkpt lat="44.7262520" lon="-92.7995610">
        <ele>233.7400000</ele>
        <time>2009-06-28T14:11:55Z</time>
      </trkpt>
      <trkpt lat="44.7247170" lon="-92.7953710">
        <ele>240.4700000</ele>
        <time>2009-06-28T14:12:10Z</time>
      </trkpt>
      <trkpt lat="44.7236330" lon="-92.7933160">
        <ele>238.5400000</ele>
        <time>2009-06-28T14:12:18Z</time>
      </trkpt>
      <trkpt lat="44.7215080" lon="-92.7892750">
        <ele>255.8500000</ele>
        <time>2009-06-28T14:12:34Z</time>
      </trkpt>
      <trkpt lat="44.7195320" lon="-92.7850370">
        <ele>254.4100000</ele>
        <time>2009-06-28T14:12:50Z</time>
      </trkpt>
      <trkpt lat="44.7178290" lon="-92.7821180">
        <ele>245.7500000</ele>
        <time>2009-06-28T14:13:02Z</time>
      </trkpt>
      <trkpt lat="44.7143970" lon="-92.7772570">
        <ele>239.0200000</ele>
        <time>2009-06-28T14:13:24Z</time>
      </trkpt>
      <trkpt lat="44.7102570" lon="-92.7715520">
        <ele>240.4700000</ele>
        <time>2009-06-28T14:13:50Z</time>
      </trkpt>
      <trkpt lat="44.7064420" lon="-92.7662510">
        <ele>230.8500000</ele>
        <time>2009-06-28T14:14:14Z</time>
      </trkpt>
      <trkpt lat="44.7025840" lon="-92.7610750">
        <ele>228.4500000</ele>
        <time>2009-06-28T14:14:38Z</time>
      </trkpt>
      <trkpt lat="44.6997780" lon="-92.7585690">
        <ele>238.0600000</ele>
        <time>2009-06-28T14:14:53Z</time>
      </trkpt>
      <trkpt lat="44.6977260" lon="-92.7572880">
        <ele>231.8100000</ele>
        <time>2009-06-28T14:15:03Z</time>
      </trkpt>
      <trkpt lat="44.6959270" lon="-92.7572330">
        <ele>227.9700000</ele>
        <time>2009-06-28T14:15:11Z</time>
      </trkpt>
      <trkpt lat="44.6911080" lon="-92.7569590">
        <ele>229.4100000</ele>
        <time>2009-06-28T14:15:33Z</time>
      </trkpt>
      <trkpt lat="44.6909060" lon="-92.7568370">
        <ele>228.9300000</ele>
        <time>2009-06-28T14:15:34Z</time>
      </trkpt>
      <trkpt lat="44.6907320" lon="-92.7566820">
        <ele>228.4500000</ele>
        <time>2009-06-28T14:15:35Z</time>
      </trkpt>
      <trkpt lat="44.6905540" lon="-92.7564910">
        <ele>227.9700000</ele>
        <time>2009-06-28T14:15:36Z</time>
      </trkpt>
      <trkpt lat="44.6903770" lon="-92.7563000">
        <ele>227.9700000</ele>
        <time>2009-06-28T14:15:37Z</time>
      </trkpt>
      <trkpt lat="44.6902100" lon="-92.7561030">
        <ele>227.4900000</ele>
        <time>2009-06-28T14:15:38Z</time>
      </trkpt>
      <trkpt lat="44.6900480" lon="-92.7558880">
        <ele>227.4900000</ele>
        <time>2009-06-28T14:15:39Z</time>
      </trkpt>
      <trkpt lat="44.6872590" lon="-92.7522740">
        <ele>216.9100000</ele>
        <time>2009-06-28T14:15:56Z</time>
      </trkpt>
      <trkpt lat="44.6870640" lon="-92.7521630">
        <ele>217.4000000</ele>
        <time>2009-06-28T14:15:57Z</time>
      </trkpt>
      <trkpt lat="44.6868490" lon="-92.7520910">
        <ele>218.3600000</ele>
        <time>2009-06-28T14:15:58Z</time>
      </trkpt>
      <trkpt lat="44.6866350" lon="-92.7520200">
        <ele>218.8400000</ele>
        <time>2009-06-28T14:15:59Z</time>
      </trkpt>
      <trkpt lat="44.6864310" lon="-92.7519900">
        <ele>219.3200000</ele>
        <time>2009-06-28T14:16:00Z</time>
      </trkpt>
      <trkpt lat="44.6862120" lon="-92.7519900">
        <ele>220.7600000</ele>
        <time>2009-06-28T14:16:01Z</time>
      </trkpt>
      <trkpt lat="44.6859930" lon="-92.7519900">
        <ele>221.7200000</ele>
        <time>2009-06-28T14:16:02Z</time>
      </trkpt>
      <trkpt lat="44.6857870" lon="-92.7520360">
        <ele>223.1600000</ele>
        <time>2009-06-28T14:16:03Z</time>
      </trkpt>
      <trkpt lat="44.6855710" lon="-92.7520970">
        <ele>225.5700000</ele>
        <time>2009-06-28T14:16:04Z</time>
      </trkpt>
      <trkpt lat="44.6853550" lon="-92.7521570">
        <ele>227.9700000</ele>
        <time>2009-06-28T14:16:05Z</time>
      </trkpt>
      <trkpt lat="44.6816620" lon="-92.7532950">
        <ele>247.6800000</ele>
        <time>2009-06-28T14:16:22Z</time>
      </trkpt>
      <trkpt lat="44.6800940" lon="-92.7544990">
        <ele>249.6000000</ele>
        <time>2009-06-28T14:16:30Z</time>
      </trkpt>
      <trkpt lat="44.6790520" lon="-92.7549360">
        <ele>250.5600000</ele>
        <time>2009-06-28T14:16:35Z</time>
      </trkpt>
      <trkpt lat="44.6788400" lon="-92.7549460">
        <ele>250.5600000</ele>
        <time>2009-06-28T14:16:36Z</time>
      </trkpt>
      <trkpt lat="44.6786190" lon="-92.7548950">
        <ele>250.5600000</ele>
        <time>2009-06-28T14:16:37Z</time>
      </trkpt>
      <trkpt lat="44.6783990" lon="-92.7548440">
        <ele>250.5600000</ele>
        <time>2009-06-28T14:16:38Z</time>
      </trkpt>
      <trkpt lat="44.6781980" lon="-92.7547590">
        <ele>250.5600000</ele>
        <time>2009-06-28T14:16:39Z</time>
      </trkpt>
      <trkpt lat="44.6779920" lon="-92.7546390">
        <ele>250.0800000</ele>
        <time>2009-06-28T14:16:40Z</time>
      </trkpt>
      <trkpt lat="44.6777820" lon="-92.7545130">
        <ele>249.6000000</ele>
        <time>2009-06-28T14:16:41Z</time>
      </trkpt>
      <trkpt lat="44.6775930" lon="-92.7543230">
        <ele>248.1600000</ele>
        <time>2009-06-28T14:16:42Z</time>
      </trkpt>
      <trkpt lat="44.6774150" lon="-92.7541310">
        <ele>247.2000000</ele>
        <time>2009-06-28T14:16:43Z</time>
      </trkpt>
      <trkpt lat="44.6772440" lon="-92.7538920">
        <ele>246.2300000</ele>
        <time>2009-06-28T14:16:44Z</time>
      </trkpt>
      <trkpt lat="44.6771240" lon="-92.7536250">
        <ele>244.3100000</ele>
        <time>2009-06-28T14:16:45Z</time>
      </trkpt>
      <trkpt lat="44.6770080" lon="-92.7533550">
        <ele>242.8700000</ele>
        <time>2009-06-28T14:16:46Z</time>
      </trkpt>
      <trkpt lat="44.6757830" lon="-92.7510120">
        <ele>239.5100000</ele>
        <time>2009-06-28T14:16:55Z</time>
      </trkpt>
      <trkpt lat="44.6746120" lon="-92.7500950">
        <ele>236.6200000</ele>
        <time>2009-06-28T14:17:01Z</time>
      </trkpt>
      <trkpt lat="44.6707450" lon="-92.7476920">
        <ele>232.3000000</ele>
        <time>2009-06-28T14:17:20Z</time>
      </trkpt>
      <trkpt lat="44.6685630" lon="-92.7461350">
        <ele>234.2200000</ele>
        <time>2009-06-28T14:17:31Z</time>
      </trkpt>
      <trkpt lat="44.6662660" lon="-92.7436580">
        <ele>237.5800000</ele>
        <time>2009-06-28T14:17:44Z</time>
      </trkpt>
      <trkpt lat="44.6642310" lon="-92.7407370">
        <ele>232.7800000</ele>
        <time>2009-06-28T14:17:58Z</time>
      </trkpt>
      <trkpt lat="44.6636370" lon="-92.7399070">
        <ele>231.3300000</ele>
        <time>2009-06-28T14:18:04Z</time>
      </trkpt>
      <trkpt lat="44.6635870" lon="-92.7398450">
        <ele>231.8100000</ele>
        <time>2009-06-28T14:18:09Z</time>
      </trkpt>
      <trkpt lat="44.6635880" lon="-92.7398440">
        <ele>231.8100000</ele>
        <time>2009-06-28T14:18:10Z</time>
      </trkpt>
      <trkpt lat="44.6636090" lon="-92.7397780">
        <ele>230.3700000</ele>
        <time>2009-06-28T14:18:11Z</time>
      </trkpt>
      <trkpt lat="44.6636380" lon="-92.7396920">
        <ele>229.4100000</ele>
        <time>2009-06-28T14:18:12Z</time>
      </trkpt>
      <trkpt lat="44.6636790" lon="-92.7395700">
        <ele>228.4500000</ele>
        <time>2009-06-28T14:18:13Z</time>
      </trkpt>
      <trkpt lat="44.6637350" lon="-92.7394020">
        <ele>227.0100000</ele>
        <time>2009-06-28T14:18:14Z</time>
      </trkpt>
      <trkpt lat="44.6638570" lon="-92.7390370">
        <ele>226.0500000</ele>
        <time>2009-06-28T14:18:16Z</time>
      </trkpt>
      <trkpt lat="44.6644910" lon="-92.7374950">
        <ele>223.6400000</ele>
        <time>2009-06-28T14:18:23Z</time>
      </trkpt>
      <trkpt lat="44.6655910" lon="-92.7356650">
        <ele>224.6100000</ele>
        <time>2009-06-28T14:18:31Z</time>
      </trkpt>
      <trkpt lat="44.6676690" lon="-92.7332330">
        <ele>226.0500000</ele>
        <time>2009-06-28T14:18:43Z</time>
      </trkpt>
      <trkpt lat="44.6689010" lon="-92.7327890">
        <ele>225.0900000</ele>
        <time>2009-06-28T14:18:49Z</time>
      </trkpt>
      <trkpt lat="44.6710890" lon="-92.7322970">
        <ele>224.1200000</ele>
        <time>2009-06-28T14:18:59Z</time>
      </trkpt>
      <trkpt lat="44.6721830" lon="-92.7311930">
        <ele>224.1200000</ele>
        <time>2009-06-28T14:19:05Z</time>
      </trkpt>
      <trkpt lat="44.6727020" lon="-92.7294780">
        <ele>222.6800000</ele>
        <time>2009-06-28T14:19:11Z</time>
      </trkpt>
      <trkpt lat="44.6727360" lon="-92.7276040">
        <ele>220.2800000</ele>
        <time>2009-06-28T14:19:17Z</time>
      </trkpt>
      <trkpt lat="44.6725500" lon="-92.7201190">
        <ele>219.3200000</ele>
        <time>2009-06-28T14:19:41Z</time>
      </trkpt>
      <trkpt lat="44.6719500" lon="-92.7184790">
        <ele>220.7600000</ele>
        <time>2009-06-28T14:19:47Z</time>
      </trkpt>
      <trkpt lat="44.6705670" lon="-92.7164160">
        <ele>224.6100000</ele>
        <time>2009-06-28T14:19:56Z</time>
      </trkpt>
      <trkpt lat="44.6649720" lon="-92.7087080">
        <ele>225.5700000</ele>
        <time>2009-06-28T14:20:31Z</time>
      </trkpt>
      <trkpt lat="44.6592780" lon="-92.7007640">
        <ele>228.9300000</ele>
        <time>2009-06-28T14:21:07Z</time>
      </trkpt>
      <trkpt lat="44.6540490" lon="-92.6934680">
        <ele>228.9300000</ele>
        <time>2009-06-28T14:21:40Z</time>
      </trkpt>
      <trkpt lat="44.6485110" lon="-92.6857400">
        <ele>228.9300000</ele>
        <time>2009-06-28T14:22:15Z</time>
      </trkpt>
      <trkpt lat="44.6429570" lon="-92.6780490">
        <ele>228.4500000</ele>
        <time>2009-06-28T14:22:50Z</time>
      </trkpt>
      <trkpt lat="44.6412680" lon="-92.6765510">
        <ele>229.4100000</ele>
        <time>2009-06-28T14:22:59Z</time>
      </trkpt>
      <trkpt lat="44.6379840" lon="-92.6746040">
        <ele>228.4500000</ele>
        <time>2009-06-28T14:23:15Z</time>
      </trkpt>
      <trkpt lat="44.6331970" lon="-92.6720660">
        <ele>226.0500000</ele>
        <time>2009-06-28T14:23:38Z</time>
      </trkpt>
      <trkpt lat="44.6312610" lon="-92.6718360">
        <ele>228.4500000</ele>
        <time>2009-06-28T14:23:47Z</time>
      </trkpt>
      <trkpt lat="44.6301930" lon="-92.6717920">
        <ele>227.4900000</ele>
        <time>2009-06-28T14:23:54Z</time>
      </trkpt>
      <trkpt lat="44.6299290" lon="-92.6717820">
        <ele>226.5300000</ele>
        <time>2009-06-28T14:24:00Z</time>
      </trkpt>
      <trkpt lat="44.6295060" lon="-92.6717820">
        <ele>226.0500000</ele>
        <time>2009-06-28T14:24:06Z</time>
      </trkpt>
      <trkpt lat="44.6283970" lon="-92.6717820">
        <ele>226.0500000</ele>
        <time>2009-06-28T14:24:14Z</time>
      </trkpt>
      <trkpt lat="44.6265520" lon="-92.6717820">
        <ele>224.6100000</ele>
        <time>2009-06-28T14:24:24Z</time>
      </trkpt>
      <trkpt lat="44.6233280" lon="-92.6717820">
        <ele>224.1200000</ele>
        <time>2009-06-28T14:24:39Z</time>
      </trkpt>
      <trkpt lat="44.6188930" lon="-92.6717560">
        <ele>223.6400000</ele>
        <time>2009-06-28T14:24:59Z</time>
      </trkpt>
      <trkpt lat="44.6162250" lon="-92.6717810">
        <ele>234.7000000</ele>
        <time>2009-06-28T14:25:12Z</time>
      </trkpt>
      <trkpt lat="44.6136750" lon="-92.6721150">
        <ele>254.8900000</ele>
        <time>2009-06-28T14:25:24Z</time>
      </trkpt>
      <trkpt lat="44.6124060" lon="-92.6717960">
        <ele>268.8300000</ele>
        <time>2009-06-28T14:25:30Z</time>
      </trkpt>
      <trkpt lat="44.6105060" lon="-92.6716490">
        <ele>289.4900000</ele>
        <time>2009-06-28T14:25:39Z</time>
      </trkpt>
      <trkpt lat="44.6079600" lon="-92.6725670">
        <ele>309.2000000</ele>
        <time>2009-06-28T14:25:51Z</time>
      </trkpt>
      <trkpt lat="44.6059440" lon="-92.6728510">
        <ele>318.3300000</ele>
        <time>2009-06-28T14:26:00Z</time>
      </trkpt>
      <trkpt lat="44.6019200" lon="-92.6730910">
        <ele>324.5800000</ele>
        <time>2009-06-28T14:26:18Z</time>
      </trkpt>
      <trkpt lat="44.6007270" lon="-92.6722230">
        <ele>318.3300000</ele>
        <time>2009-06-28T14:26:24Z</time>
      </trkpt>
      <trkpt lat="44.5997120" lon="-92.6705360">
        <ele>311.6000000</ele>
        <time>2009-06-28T14:26:31Z</time>
      </trkpt>
      <trkpt lat="44.5993560" lon="-92.6701400">
        <ele>309.2000000</ele>
        <time>2009-06-28T14:26:33Z</time>
      </trkpt>
      <trkpt lat="44.5991780" lon="-92.6699490">
        <ele>308.2400000</ele>
        <time>2009-06-28T14:26:34Z</time>
      </trkpt>
      <trkpt lat="44.5989730" lon="-92.6697940">
        <ele>307.2800000</ele>
        <time>2009-06-28T14:26:35Z</time>
      </trkpt>
      <trkpt lat="44.5987540" lon="-92.6697120">
        <ele>306.3200000</ele>
        <time>2009-06-28T14:26:36Z</time>
      </trkpt>
      <trkpt lat="44.5985250" lon="-92.6696840">
        <ele>304.8800000</ele>
        <time>2009-06-28T14:26:37Z</time>
      </trkpt>
      <trkpt lat="44.5982960" lon="-92.6696890">
        <ele>303.9100000</ele>
        <time>2009-06-28T14:26:38Z</time>
      </trkpt>
      <trkpt lat="44.5980640" lon="-92.6697010">
        <ele>302.9500000</ele>
        <time>2009-06-28T14:26:39Z</time>
      </trkpt>
      <trkpt lat="44.5978330" lon="-92.6697130">
        <ele>301.9900000</ele>
        <time>2009-06-28T14:26:40Z</time>
      </trkpt>
      <trkpt lat="44.5976080" lon="-92.6697360">
        <ele>300.0700000</ele>
        <time>2009-06-28T14:26:41Z</time>
      </trkpt>
      <trkpt lat="44.5973790" lon="-92.6697890">
        <ele>298.6300000</ele>
        <time>2009-06-28T14:26:42Z</time>
      </trkpt>
      <trkpt lat="44.5966990" lon="-92.6698210">
        <ele>292.8600000</ele>
        <time>2009-06-28T14:26:45Z</time>
      </trkpt>
      <trkpt lat="44.5964640" lon="-92.6697940">
        <ele>290.9400000</ele>
        <time>2009-06-28T14:26:46Z</time>
      </trkpt>
      <trkpt lat="44.5962240" lon="-92.6697260">
        <ele>289.4900000</ele>
        <time>2009-06-28T14:26:47Z</time>
      </trkpt>
      <trkpt lat="44.5960330" lon="-92.6695450">
        <ele>287.5700000</ele>
        <time>2009-06-28T14:26:48Z</time>
      </trkpt>
      <trkpt lat="44.5952850" lon="-92.6687130">
        <ele>281.8000000</ele>
        <time>2009-06-28T14:26:52Z</time>
      </trkpt>
      <trkpt lat="44.5951010" lon="-92.6685060">
        <ele>280.3600000</ele>
        <time>2009-06-28T14:26:53Z</time>
      </trkpt>
      <trkpt lat="44.5942630" lon="-92.6680750">
        <ele>272.1900000</ele>
        <time>2009-06-28T14:26:57Z</time>
      </trkpt>
      <trkpt lat="44.5940330" lon="-92.6680610">
        <ele>269.3100000</ele>
        <time>2009-06-28T14:26:58Z</time>
      </trkpt>
      <trkpt lat="44.5938070" lon="-92.6680480">
        <ele>266.4200000</ele>
        <time>2009-06-28T14:26:59Z</time>
      </trkpt>
      <trkpt lat="44.5936160" lon="-92.6681030">
        <ele>264.0200000</ele>
        <time>2009-06-28T14:27:00Z</time>
      </trkpt>
      <trkpt lat="44.5934340" lon="-92.6681790">
        <ele>261.6200000</ele>
        <time>2009-06-28T14:27:01Z</time>
      </trkpt>
      <trkpt lat="44.5932510" lon="-92.6682940">
        <ele>259.6900000</ele>
        <time>2009-06-28T14:27:02Z</time>
      </trkpt>
      <trkpt lat="44.5930880" lon="-92.6684180">
        <ele>258.2500000</ele>
        <time>2009-06-28T14:27:03Z</time>
      </trkpt>
      <trkpt lat="44.5929320" lon="-92.6685610">
        <ele>257.2900000</ele>
        <time>2009-06-28T14:27:04Z</time>
      </trkpt>
      <trkpt lat="44.5927860" lon="-92.6686960">
        <ele>256.3300000</ele>
        <time>2009-06-28T14:27:05Z</time>
      </trkpt>
      <trkpt lat="44.5921770" lon="-92.6692560">
        <ele>255.3700000</ele>
        <time>2009-06-28T14:27:11Z</time>
      </trkpt>
      <trkpt lat="44.5920980" lon="-92.6693290">
        <ele>255.3700000</ele>
        <time>2009-06-28T14:27:16Z</time>
      </trkpt>
      <trkpt lat="44.5919840" lon="-92.6694410">
        <ele>255.3700000</ele>
        <time>2009-06-28T14:27:19Z</time>
      </trkpt>
      <trkpt lat="44.5918560" lon="-92.6694950">
        <ele>255.3700000</ele>
        <time>2009-06-28T14:27:20Z</time>
      </trkpt>
      <trkpt lat="44.5918270" lon="-92.6694130">
        <ele>254.8900000</ele>
        <time>2009-06-28T14:27:21Z</time>
      </trkpt>
      <trkpt lat="44.5917820" lon="-92.6692870">
        <ele>254.4100000</ele>
        <time>2009-06-28T14:27:22Z</time>
      </trkpt>
      <trkpt lat="44.5917290" lon="-92.6691400">
        <ele>254.4100000</ele>
        <time>2009-06-28T14:27:23Z</time>
      </trkpt>
      <trkpt lat="44.5916740" lon="-92.6689850">
        <ele>253.9300000</ele>
        <time>2009-06-28T14:27:24Z</time>
      </trkpt>
      <trkpt lat="44.5916150" lon="-92.6688220">
        <ele>253.4400000</ele>
        <time>2009-06-28T14:27:25Z</time>
      </trkpt>
      <trkpt lat="44.5910860" lon="-92.6673400">
        <ele>250.0800000</ele>
        <time>2009-06-28T14:27:32Z</time>
      </trkpt>
      <trkpt lat="44.5899270" lon="-92.6640950">
        <ele>245.2700000</ele>
        <time>2009-06-28T14:27:44Z</time>
      </trkpt>
      <trkpt lat="44.5886780" lon="-92.6615960">
        <ele>240.9500000</ele>
        <time>2009-06-28T14:27:53Z</time>
      </trkpt>
      <trkpt lat="44.5871540" lon="-92.6596790">
        <ele>236.6200000</ele>
        <time>2009-06-28T14:28:01Z</time>
      </trkpt>
      <trkpt lat="44.5840730" lon="-92.6570100">
        <ele>228.9300000</ele>
        <time>2009-06-28T14:28:15Z</time>
      </trkpt>
      <trkpt lat="44.5786800" lon="-92.6524340">
        <ele>224.1200000</ele>
        <time>2009-06-28T14:28:39Z</time>
      </trkpt>
      <trkpt lat="44.5746210" lon="-92.6491480">
        <ele>231.8100000</ele>
        <time>2009-06-28T14:28:57Z</time>
      </trkpt>
      <trkpt lat="44.5719590" lon="-92.6468810">
        <ele>247.6800000</ele>
        <time>2009-06-28T14:29:09Z</time>
      </trkpt>
      <trkpt lat="44.5706540" lon="-92.6448950">
        <ele>253.9300000</ele>
        <time>2009-06-28T14:29:17Z</time>
      </trkpt>
      <trkpt lat="44.5697210" lon="-92.6424000">
        <ele>255.8500000</ele>
        <time>2009-06-28T14:29:26Z</time>
      </trkpt>
      <trkpt lat="44.5690580" lon="-92.6391220">
        <ele>255.3700000</ele>
        <time>2009-06-28T14:29:37Z</time>
      </trkpt>
      <trkpt lat="44.5684720" lon="-92.6360890">
        <ele>256.3300000</ele>
        <time>2009-06-28T14:29:48Z</time>
      </trkpt>
      <trkpt lat="44.5676050" lon="-92.6315440">
        <ele>259.2100000</ele>
        <time>2009-06-28T14:30:04Z</time>
      </trkpt>
      <trkpt lat="44.5666840" lon="-92.6255000">
        <ele>262.5800000</ele>
        <time>2009-06-28T14:30:24Z</time>
      </trkpt>
      <trkpt lat="44.5668850" lon="-92.6227550">
        <ele>261.1400000</ele>
        <time>2009-06-28T14:30:33Z</time>
      </trkpt>
      <trkpt lat="44.5674990" lon="-92.6203580">
        <ele>259.6900000</ele>
        <time>2009-06-28T14:30:42Z</time>
      </trkpt>
      <trkpt lat="44.5685860" lon="-92.6179540">
        <ele>257.7700000</ele>
        <time>2009-06-28T14:30:52Z</time>
      </trkpt>
      <trkpt lat="44.5715900" lon="-92.6118880">
        <ele>254.8900000</ele>
        <time>2009-06-28T14:31:18Z</time>
      </trkpt>
      <trkpt lat="44.5725060" lon="-92.6087410">
        <ele>256.3300000</ele>
        <time>2009-06-28T14:31:30Z</time>
      </trkpt>
      <trkpt lat="44.5735510" lon="-92.6042150">
        <ele>248.1600000</ele>
        <time>2009-06-28T14:31:47Z</time>
      </trkpt>
      <trkpt lat="44.5734440" lon="-92.6023040">
        <ele>239.9900000</ele>
        <time>2009-06-28T14:31:54Z</time>
      </trkpt>
      <trkpt lat="44.5728470" lon="-92.6003290">
        <ele>230.3700000</ele>
        <time>2009-06-28T14:32:02Z</time>
      </trkpt>
      <trkpt lat="44.5707920" lon="-92.5950820">
        <ele>224.6100000</ele>
        <time>2009-06-28T14:32:23Z</time>
      </trkpt>
      <trkpt lat="44.5690560" lon="-92.5904080">
        <ele>228.4500000</ele>
        <time>2009-06-28T14:32:42Z</time>
      </trkpt>
      <trkpt lat="44.5684060" lon="-92.5880160">
        <ele>229.8900000</ele>
        <time>2009-06-28T14:32:53Z</time>
      </trkpt>
      <trkpt lat="44.5679010" lon="-92.5859120">
        <ele>232.3000000</ele>
        <time>2009-06-28T14:33:05Z</time>
      </trkpt>
      <trkpt lat="44.5675950" lon="-92.5846790">
        <ele>231.3300000</ele>
        <time>2009-06-28T14:33:15Z</time>
      </trkpt>
      <trkpt lat="44.5671400" lon="-92.5828510">
        <ele>229.4100000</ele>
        <time>2009-06-28T14:33:25Z</time>
      </trkpt>
      <trkpt lat="44.5663620" lon="-92.5793630">
        <ele>227.9700000</ele>
        <time>2009-06-28T14:33:40Z</time>
      </trkpt>
      <trkpt lat="44.5660810" lon="-92.5764480">
        <ele>227.0100000</ele>
        <time>2009-06-28T14:33:51Z</time>
      </trkpt>
      <trkpt lat="44.5655200" lon="-92.5718240">
        <ele>229.8900000</ele>
        <time>2009-06-28T14:34:08Z</time>
      </trkpt>
      <trkpt lat="44.5647210" lon="-92.5690560">
        <ele>231.3300000</ele>
        <time>2009-06-28T14:34:19Z</time>
      </trkpt>
      <trkpt lat="44.5642700" lon="-92.5675580">
        <ele>232.3000000</ele>
        <time>2009-06-28T14:34:27Z</time>
      </trkpt>
      <trkpt lat="44.5640540" lon="-92.5667770">
        <ele>232.7800000</ele>
        <time>2009-06-28T14:34:34Z</time>
      </trkpt>
      <trkpt lat="44.5639690" lon="-92.5664580">
        <ele>232.7800000</ele>
        <time>2009-06-28T14:34:41Z</time>
      </trkpt>
      <trkpt lat="44.5637780" lon="-92.5655610">
        <ele>230.3700000</ele>
        <time>2009-06-28T14:34:47Z</time>
      </trkpt>
      <trkpt lat="44.5633230" lon="-92.5631930">
        <ele>232.7800000</ele>
        <time>2009-06-28T14:34:57Z</time>
      </trkpt>
      <trkpt lat="44.5628050" lon="-92.5590590">
        <ele>236.1400000</ele>
        <time>2009-06-28T14:35:12Z</time>
      </trkpt>
      <trkpt lat="44.5623310" lon="-92.5553500">
        <ele>234.2200000</ele>
        <time>2009-06-28T14:35:25Z</time>
      </trkpt>
      <trkpt lat="44.5619960" lon="-92.5523450">
        <ele>232.7800000</ele>
        <time>2009-06-28T14:35:37Z</time>
      </trkpt>
      <trkpt lat="44.5619210" lon="-92.5480170">
        <ele>233.7400000</ele>
        <time>2009-06-28T14:35:55Z</time>
      </trkpt>
      <trkpt lat="44.5619840" lon="-92.5458530">
        <ele>234.7000000</ele>
        <time>2009-06-28T14:36:06Z</time>
      </trkpt>
      <trkpt lat="44.5620630" lon="-92.5452330">
        <ele>234.7000000</ele>
        <time>2009-06-28T14:36:12Z</time>
      </trkpt>
      <trkpt lat="44.5621410" lon="-92.5447890">
        <ele>231.8100000</ele>
        <time>2009-06-28T14:36:19Z</time>
      </trkpt>
      <trkpt lat="44.5626630" lon="-92.5433000">
        <ele>230.8500000</ele>
        <time>2009-06-28T14:36:29Z</time>
      </trkpt>
      <trkpt lat="44.5639320" lon="-92.5395590">
        <ele>229.4100000</ele>
        <time>2009-06-28T14:36:51Z</time>
      </trkpt>
      <trkpt lat="44.5648540" lon="-92.5369290">
        <ele>229.8900000</ele>
        <time>2009-06-28T14:37:08Z</time>
      </trkpt>
      <trkpt lat="44.5649320" lon="-92.5367420">
        <ele>229.8900000</ele>
        <time>2009-06-28T14:37:14Z</time>
      </trkpt>
      <trkpt lat="44.5649720" lon="-92.5366530">
        <ele>231.8100000</ele>
        <time>2009-06-28T14:37:44Z</time>
      </trkpt>
      <trkpt lat="44.5653330" lon="-92.5359730">
        <ele>232.7800000</ele>
        <time>2009-06-28T14:37:51Z</time>
      </trkpt>
      <trkpt lat="44.5664520" lon="-92.5345610">
        <ele>231.3300000</ele>
        <time>2009-06-28T14:38:04Z</time>
      </trkpt>
      <trkpt lat="44.5679350" lon="-92.5326270">
        <ele>227.4900000</ele>
        <time>2009-06-28T14:38:19Z</time>
      </trkpt>
      <trkpt lat="44.5680240" lon="-92.5324900">
        <ele>227.9700000</ele>
        <time>2009-06-28T14:38:20Z</time>
      </trkpt>
      <trkpt lat="44.5680790" lon="-92.5323060">
        <ele>227.9700000</ele>
        <time>2009-06-28T14:38:21Z</time>
      </trkpt>
      <trkpt lat="44.5681350" lon="-92.5321210">
        <ele>227.9700000</ele>
        <time>2009-06-28T14:38:22Z</time>
      </trkpt>
      <trkpt lat="44.5681690" lon="-92.5319410">
        <ele>227.4900000</ele>
        <time>2009-06-28T14:38:23Z</time>
      </trkpt>
      <trkpt lat="44.5682010" lon="-92.5317430">
        <ele>227.4900000</ele>
        <time>2009-06-28T14:38:24Z</time>
      </trkpt>
      <trkpt lat="44.5682290" lon="-92.5315750">
        <ele>226.0500000</ele>
        <time>2009-06-28T14:38:25Z</time>
      </trkpt>
      <trkpt lat="44.5682240" lon="-92.5313660">
        <ele>226.0500000</ele>
        <time>2009-06-28T14:38:26Z</time>
      </trkpt>
      <trkpt lat="44.5681650" lon="-92.5293790">
        <ele>225.5700000</ele>
        <time>2009-06-28T14:38:35Z</time>
      </trkpt>
      <trkpt lat="44.5680200" lon="-92.5257550">
        <ele>229.8900000</ele>
        <time>2009-06-28T14:38:49Z</time>
      </trkpt>
      <trkpt lat="44.5676880" lon="-92.5211460">
        <ele>230.3700000</ele>
        <time>2009-06-28T14:39:06Z</time>
      </trkpt>
      <trkpt lat="44.5669470" lon="-92.5170920">
        <ele>228.4500000</ele>
        <time>2009-06-28T14:39:21Z</time>
      </trkpt>
      <trkpt lat="44.5656440" lon="-92.5114040">
        <ele>234.2200000</ele>
        <time>2009-06-28T14:39:42Z</time>
      </trkpt>
      <trkpt lat="44.5643280" lon="-92.5057630">
        <ele>233.7400000</ele>
        <time>2009-06-28T14:40:01Z</time>
      </trkpt>
      <trkpt lat="44.5627860" lon="-92.4992320">
        <ele>234.7000000</ele>
        <time>2009-06-28T14:40:23Z</time>
      </trkpt>
      <trkpt lat="44.5612430" lon="-92.4951150">
        <ele>234.7000000</ele>
        <time>2009-06-28T14:40:38Z</time>
      </trkpt>
      <trkpt lat="44.5600250" lon="-92.4937730">
        <ele>234.2200000</ele>
        <time>2009-06-28T14:40:45Z</time>
      </trkpt>
      <trkpt lat="44.5591830" lon="-92.4923390">
        <ele>234.7000000</ele>
        <time>2009-06-28T14:40:51Z</time>
      </trkpt>
      <trkpt lat="44.5586630" lon="-92.4902810">
        <ele>234.2200000</ele>
        <time>2009-06-28T14:40:58Z</time>
      </trkpt>
      <trkpt lat="44.5574270" lon="-92.4852300">
        <ele>227.9700000</ele>
        <time>2009-06-28T14:41:15Z</time>
      </trkpt>
      <trkpt lat="44.5558410" lon="-92.4797260">
        <ele>234.2200000</ele>
        <time>2009-06-28T14:41:34Z</time>
      </trkpt>
      <trkpt lat="44.5552590" lon="-92.4754170">
        <ele>235.1800000</ele>
        <time>2009-06-28T14:41:48Z</time>
      </trkpt>
      <trkpt lat="44.5545470" lon="-92.4721280">
        <ele>232.7800000</ele>
        <time>2009-06-28T14:41:59Z</time>
      </trkpt>
      <trkpt lat="44.5533800" lon="-92.4691340">
        <ele>231.3300000</ele>
        <time>2009-06-28T14:42:10Z</time>
      </trkpt>
      <trkpt lat="44.5515080" lon="-92.4656390">
        <ele>229.4100000</ele>
        <time>2009-06-28T14:42:24Z</time>
      </trkpt>
      <trkpt lat="44.5499450" lon="-92.4622300">
        <ele>228.9300000</ele>
        <time>2009-06-28T14:42:37Z</time>
      </trkpt>
      <trkpt lat="44.5484510" lon="-92.4573320">
        <ele>228.9300000</ele>
        <time>2009-06-28T14:42:54Z</time>
      </trkpt>
      <trkpt lat="44.5460000" lon="-92.4496110">
        <ele>230.3700000</ele>
        <time>2009-06-28T14:43:21Z</time>
      </trkpt>
      <trkpt lat="44.5443710" lon="-92.4434490">
        <ele>229.4100000</ele>
        <time>2009-06-28T14:43:42Z</time>
      </trkpt>
      <trkpt lat="44.5439930" lon="-92.4400750">
        <ele>227.9700000</ele>
        <time>2009-06-28T14:43:53Z</time>
      </trkpt>
      <trkpt lat="44.5440690" lon="-92.4366430">
        <ele>226.5300000</ele>
        <time>2009-06-28T14:44:04Z</time>
      </trkpt>
      <trkpt lat="44.5444320" lon="-92.4297770">
        <ele>219.3200000</ele>
        <time>2009-06-28T14:44:26Z</time>
      </trkpt>
      <trkpt lat="44.5440730" lon="-92.4270170">
        <ele>219.3200000</ele>
        <time>2009-06-28T14:44:35Z</time>
      </trkpt>
      <trkpt lat="44.5431720" lon="-92.4245200">
        <ele>220.7600000</ele>
        <time>2009-06-28T14:44:44Z</time>
      </trkpt>
      <trkpt lat="44.5418030" lon="-92.4220970">
        <ele>218.3600000</ele>
        <time>2009-06-28T14:44:54Z</time>
      </trkpt>
      <trkpt lat="44.5400750" lon="-92.4201240">
        <ele>217.4000000</ele>
        <time>2009-06-28T14:45:04Z</time>
      </trkpt>
      <trkpt lat="44.5378990" lon="-92.4185110">
        <ele>219.3200000</ele>
        <time>2009-06-28T14:45:15Z</time>
      </trkpt>
      <trkpt lat="44.5320820" lon="-92.4144670">
        <ele>219.3200000</ele>
        <time>2009-06-28T14:45:44Z</time>
      </trkpt>
      <trkpt lat="44.5262900" lon="-92.4104080">
        <ele>222.2000000</ele>
        <time>2009-06-28T14:46:13Z</time>
      </trkpt>
      <trkpt lat="44.5223570" lon="-92.4074220">
        <ele>224.6100000</ele>
        <time>2009-06-28T14:46:33Z</time>
      </trkpt>
      <trkpt lat="44.5209130" lon="-92.4054850">
        <ele>226.5300000</ele>
        <time>2009-06-28T14:46:42Z</time>
      </trkpt>
      <trkpt lat="44.5198380" lon="-92.4031320">
        <ele>225.0900000</ele>
        <time>2009-06-28T14:46:51Z</time>
      </trkpt>
      <trkpt lat="44.5192240" lon="-92.4004470">
        <ele>224.1200000</ele>
        <time>2009-06-28T14:47:00Z</time>
      </trkpt>
      <trkpt lat="44.5177600" lon="-92.3922560">
        <ele>222.6800000</ele>
        <time>2009-06-28T14:47:26Z</time>
      </trkpt>
      <trkpt lat="44.5161760" lon="-92.3834560">
        <ele>223.1600000</ele>
        <time>2009-06-28T14:47:54Z</time>
      </trkpt>
      <trkpt lat="44.5147540" lon="-92.3762750">
        <ele>224.6100000</ele>
        <time>2009-06-28T14:48:17Z</time>
      </trkpt>
      <trkpt lat="44.5128930" lon="-92.3669040">
        <ele>226.5300000</ele>
        <time>2009-06-28T14:48:47Z</time>
      </trkpt>
      <trkpt lat="44.5115740" lon="-92.3602570">
        <ele>227.4900000</ele>
        <time>2009-06-28T14:49:09Z</time>
      </trkpt>
      <trkpt lat="44.5110840" lon="-92.3573380">
        <ele>227.9700000</ele>
        <time>2009-06-28T14:49:21Z</time>
      </trkpt>
      <trkpt lat="44.5100010" lon="-92.3515760">
        <ele>229.8900000</ele>
        <time>2009-06-28T14:49:45Z</time>
      </trkpt>
      <trkpt lat="44.5092840" lon="-92.3479980">
        <ele>230.8500000</ele>
        <time>2009-06-28T14:49:59Z</time>
      </trkpt>
      <trkpt lat="44.5082050" lon="-92.3421610">
        <ele>228.9300000</ele>
        <time>2009-06-28T14:50:18Z</time>
      </trkpt>
      <trkpt lat="44.5069300" lon="-92.3345890">
        <ele>225.0900000</ele>
        <time>2009-06-28T14:50:42Z</time>
      </trkpt>
      <trkpt lat="44.5067570" lon="-92.3307260">
        <ele>222.6800000</ele>
        <time>2009-06-28T14:50:54Z</time>
      </trkpt>
      <trkpt lat="44.5063340" lon="-92.3249670">
        <ele>219.3200000</ele>
        <time>2009-06-28T14:51:12Z</time>
      </trkpt>
      <trkpt lat="44.5055090" lon="-92.3226790">
        <ele>217.8800000</ele>
        <time>2009-06-28T14:51:20Z</time>
      </trkpt>
      <trkpt lat="44.5042700" lon="-92.3208020">
        <ele>215.9500000</ele>
        <time>2009-06-28T14:51:28Z</time>
      </trkpt>
      <trkpt lat="44.5009810" lon="-92.3172130">
        <ele>214.0300000</ele>
        <time>2009-06-28T14:51:46Z</time>
      </trkpt>
      <trkpt lat="44.4990930" lon="-92.3160100">
        <ele>214.0300000</ele>
        <time>2009-06-28T14:51:55Z</time>
      </trkpt>
      <trkpt lat="44.4948770" lon="-92.3142320">
        <ele>216.9100000</ele>
        <time>2009-06-28T14:52:14Z</time>
      </trkpt>
      <trkpt lat="44.4920620" lon="-92.3127510">
        <ele>219.8000000</ele>
        <time>2009-06-28T14:52:27Z</time>
      </trkpt>
      <trkpt lat="44.4872780" lon="-92.3093830">
        <ele>218.3600000</ele>
        <time>2009-06-28T14:52:50Z</time>
      </trkpt>
      <trkpt lat="44.4849160" lon="-92.3080590">
        <ele>219.8000000</ele>
        <time>2009-06-28T14:53:01Z</time>
      </trkpt>
      <trkpt lat="44.4824000" lon="-92.3064180">
        <ele>217.4000000</ele>
        <time>2009-06-28T14:53:13Z</time>
      </trkpt>
      <trkpt lat="44.4769240" lon="-92.3022030">
        <ele>214.0300000</ele>
        <time>2009-06-28T14:53:40Z</time>
      </trkpt>
      <trkpt lat="44.4720090" lon="-92.2986210">
        <ele>210.6700000</ele>
        <time>2009-06-28T14:54:04Z</time>
      </trkpt>
      <trkpt lat="44.4684590" lon="-92.2959870">
        <ele>211.1500000</ele>
        <time>2009-06-28T14:54:22Z</time>
      </trkpt>
      <trkpt lat="44.4672200" lon="-92.2945970">
        <ele>210.6700000</ele>
        <time>2009-06-28T14:54:31Z</time>
      </trkpt>
      <trkpt lat="44.4660400" lon="-92.2925230">
        <ele>209.7000000</ele>
        <time>2009-06-28T14:54:42Z</time>
      </trkpt>
      <trkpt lat="44.4644560" lon="-92.2891260">
        <ele>209.7000000</ele>
        <time>2009-06-28T14:54:57Z</time>
      </trkpt>
      <trkpt lat="44.4629800" lon="-92.2860520">
        <ele>208.2600000</ele>
        <time>2009-06-28T14:55:13Z</time>
      </trkpt>
      <trkpt lat="44.4618230" lon="-92.2843910">
        <ele>208.2600000</ele>
        <time>2009-06-28T14:55:24Z</time>
      </trkpt>
      <trkpt lat="44.4594230" lon="-92.2813940">
        <ele>209.2200000</ele>
        <time>2009-06-28T14:55:46Z</time>
      </trkpt>
      <trkpt lat="44.4575970" lon="-92.2790040">
        <ele>209.2200000</ele>
        <time>2009-06-28T14:56:04Z</time>
      </trkpt>
      <trkpt lat="44.4553410" lon="-92.2759740">
        <ele>209.7000000</ele>
        <time>2009-06-28T14:56:28Z</time>
      </trkpt>
      <trkpt lat="44.4541450" lon="-92.2743330">
        <ele>209.7000000</ele>
        <time>2009-06-28T14:56:40Z</time>
      </trkpt>
      <trkpt lat="44.4520220" lon="-92.2709390">
        <ele>209.2200000</ele>
        <time>2009-06-28T14:57:03Z</time>
      </trkpt>
      <trkpt lat="44.4500500" lon="-92.2677230">
        <ele>209.7000000</ele>
        <time>2009-06-28T14:57:25Z</time>
      </trkpt>
      <trkpt lat="44.4486230" lon="-92.2654850">
        <ele>210.6700000</ele>
        <time>2009-06-28T14:57:42Z</time>
      </trkpt>
      <trkpt lat="44.4481580" lon="-92.2647120">
        <ele>210.6700000</ele>
        <time>2009-06-28T14:57:51Z</time>
      </trkpt>
      <trkpt lat="44.4481580" lon="-92.2647120">
        <ele>210.6700000</ele>
        <time>2009-06-28T14:58:02Z</time>
      </trkpt>
      <trkpt lat="44.4479680" lon="-92.2644070">
        <ele>210.1900000</ele>
        <time>2009-06-28T14:58:12Z</time>
      </trkpt>
      <trkpt lat="44.4473580" lon="-92.2634710">
        <ele>209.2200000</ele>
        <time>2009-06-28T14:58:20Z</time>
      </trkpt>
      <trkpt lat="44.4467070" lon="-92.2625170">
        <ele>209.7000000</ele>
        <time>2009-06-28T14:58:27Z</time>
      </trkpt>
      <trkpt lat="44.4465960" lon="-92.2624260">
        <ele>210.1900000</ele>
        <time>2009-06-28T14:58:28Z</time>
      </trkpt>
      <trkpt lat="44.4464810" lon="-92.2623410">
        <ele>210.1900000</ele>
        <time>2009-06-28T14:58:29Z</time>
      </trkpt>
      <trkpt lat="44.4443990" lon="-92.2607470">
        <ele>212.5900000</ele>
        <time>2009-06-28T14:58:46Z</time>
      </trkpt>
      <trkpt lat="44.4418720" lon="-92.2583640">
        <ele>212.5900000</ele>
        <time>2009-06-28T14:59:07Z</time>
      </trkpt>
      <trkpt lat="44.4401290" lon="-92.2571200">
        <ele>213.0700000</ele>
        <time>2009-06-28T14:59:20Z</time>
      </trkpt>
      <trkpt lat="44.4384510" lon="-92.2569280">
        <ele>217.4000000</ele>
        <time>2009-06-28T14:59:30Z</time>
      </trkpt>
      <trkpt lat="44.4358310" lon="-92.2566780">
        <ele>225.5700000</ele>
        <time>2009-06-28T14:59:44Z</time>
      </trkpt>
      <trkpt lat="44.4326950" lon="-92.2562810">
        <ele>217.8800000</ele>
        <time>2009-06-28T15:00:00Z</time>
      </trkpt>
      <trkpt lat="44.4313890" lon="-92.2554770">
        <ele>212.1100000</ele>
        <time>2009-06-28T15:00:07Z</time>
      </trkpt>
      <trkpt lat="44.4302420" lon="-92.2540370">
        <ele>213.0700000</ele>
        <time>2009-06-28T15:00:15Z</time>
      </trkpt>
      <trkpt lat="44.4284040" lon="-92.2507580">
        <ele>215.9500000</ele>
        <time>2009-06-28T15:00:30Z</time>
      </trkpt>
      <trkpt lat="44.4262910" lon="-92.2470350">
        <ele>216.4300000</ele>
        <time>2009-06-28T15:00:47Z</time>
      </trkpt>
      <trkpt lat="44.4243920" lon="-92.2433500">
        <ele>217.4000000</ele>
        <time>2009-06-28T15:01:01Z</time>
      </trkpt>
      <trkpt lat="44.4237540" lon="-92.2409000">
        <ele>215.4700000</ele>
        <time>2009-06-28T15:01:09Z</time>
      </trkpt>
      <trkpt lat="44.4235420" lon="-92.2380000">
        <ele>210.6700000</ele>
        <time>2009-06-28T15:01:18Z</time>
      </trkpt>
      <trkpt lat="44.4237870" lon="-92.2334580">
        <ele>218.3600000</ele>
        <time>2009-06-28T15:01:32Z</time>
      </trkpt>
      <trkpt lat="44.4237400" lon="-92.2288910">
        <ele>220.7600000</ele>
        <time>2009-06-28T15:01:46Z</time>
      </trkpt>
      <trkpt lat="44.4232910" lon="-92.2240310">
        <ele>223.1600000</ele>
        <time>2009-06-28T15:02:01Z</time>
      </trkpt>
      <trkpt lat="44.4222580" lon="-92.2200610">
        <ele>226.0500000</ele>
        <time>2009-06-28T15:02:14Z</time>
      </trkpt>
      <trkpt lat="44.4208800" lon="-92.2162970">
        <ele>224.1200000</ele>
        <time>2009-06-28T15:02:27Z</time>
      </trkpt>
      <trkpt lat="44.4196120" lon="-92.2148310">
        <ele>219.8000000</ele>
        <time>2009-06-28T15:02:34Z</time>
      </trkpt>
      <trkpt lat="44.4181100" lon="-92.2127800">
        <ele>213.5500000</ele>
        <time>2009-06-28T15:02:43Z</time>
      </trkpt>
      <trkpt lat="44.4175440" lon="-92.2110160">
        <ele>213.0700000</ele>
        <time>2009-06-28T15:02:49Z</time>
      </trkpt>
      <trkpt lat="44.4172830" lon="-92.2084450">
        <ele>212.5900000</ele>
        <time>2009-06-28T15:02:57Z</time>
      </trkpt>
      <trkpt lat="44.4169480" lon="-92.2036000">
        <ele>223.1600000</ele>
        <time>2009-06-28T15:03:12Z</time>
      </trkpt>
      <trkpt lat="44.4167810" lon="-92.1973990">
        <ele>223.1600000</ele>
        <time>2009-06-28T15:03:31Z</time>
      </trkpt>
      <trkpt lat="44.4164840" lon="-92.1928640">
        <ele>220.7600000</ele>
        <time>2009-06-28T15:03:45Z</time>
      </trkpt>
      <trkpt lat="44.4155640" lon="-92.1898780">
        <ele>217.8800000</ele>
        <time>2009-06-28T15:03:55Z</time>
      </trkpt>
      <trkpt lat="44.4153160" lon="-92.1876320">
        <ele>222.6800000</ele>
        <time>2009-06-28T15:04:02Z</time>
      </trkpt>
      <trkpt lat="44.4148220" lon="-92.1808260">
        <ele>229.4100000</ele>
        <time>2009-06-28T15:04:23Z</time>
      </trkpt>
      <trkpt lat="44.4145320" lon="-92.1762690">
        <ele>227.9700000</ele>
        <time>2009-06-28T15:04:37Z</time>
      </trkpt>
      <trkpt lat="44.4139460" lon="-92.1738160">
        <ele>223.1600000</ele>
        <time>2009-06-28T15:04:45Z</time>
      </trkpt>
      <trkpt lat="44.4125490" lon="-92.1704200">
        <ele>213.5500000</ele>
        <time>2009-06-28T15:04:57Z</time>
      </trkpt>
      <trkpt lat="44.4111430" lon="-92.1666760">
        <ele>211.6300000</ele>
        <time>2009-06-28T15:05:10Z</time>
      </trkpt>
      <trkpt lat="44.4106440" lon="-92.1638430">
        <ele>212.1100000</ele>
        <time>2009-06-28T15:05:19Z</time>
      </trkpt>
      <trkpt lat="44.4108610" lon="-92.1619370">
        <ele>212.5900000</ele>
        <time>2009-06-28T15:05:25Z</time>
      </trkpt>
      <trkpt lat="44.4116550" lon="-92.1592390">
        <ele>213.0700000</ele>
        <time>2009-06-28T15:05:34Z</time>
      </trkpt>
      <trkpt lat="44.4121360" lon="-92.1567590">
        <ele>218.3600000</ele>
        <time>2009-06-28T15:05:42Z</time>
      </trkpt>
      <trkpt lat="44.4122710" lon="-92.1531750">
        <ele>226.0500000</ele>
        <time>2009-06-28T15:05:53Z</time>
      </trkpt>
      <trkpt lat="44.4121160" lon="-92.1495760">
        <ele>227.4900000</ele>
        <time>2009-06-28T15:06:04Z</time>
      </trkpt>
      <trkpt lat="44.4114790" lon="-92.1474820">
        <ele>217.8800000</ele>
        <time>2009-06-28T15:06:11Z</time>
      </trkpt>
      <trkpt lat="44.4107400" lon="-92.1444150">
        <ele>213.0700000</ele>
        <time>2009-06-28T15:06:21Z</time>
      </trkpt>
      <trkpt lat="44.4107520" lon="-92.1418260">
        <ele>213.0700000</ele>
        <time>2009-06-28T15:06:29Z</time>
      </trkpt>
      <trkpt lat="44.4113110" lon="-92.1387020">
        <ele>213.0700000</ele>
        <time>2009-06-28T15:06:39Z</time>
      </trkpt>
      <trkpt lat="44.4115410" lon="-92.1358240">
        <ele>223.1600000</ele>
        <time>2009-06-28T15:06:48Z</time>
      </trkpt>
      <trkpt lat="44.4114070" lon="-92.1305600">
        <ele>229.8900000</ele>
        <time>2009-06-28T15:07:04Z</time>
      </trkpt>
      <trkpt lat="44.4109850" lon="-92.1263800">
        <ele>224.6100000</ele>
        <time>2009-06-28T15:07:17Z</time>
      </trkpt>
      <trkpt lat="44.4106370" lon="-92.1228660">
        <ele>226.0500000</ele>
        <time>2009-06-28T15:07:28Z</time>
      </trkpt>
      <trkpt lat="44.4101340" lon="-92.1176910">
        <ele>229.8900000</ele>
        <time>2009-06-28T15:07:44Z</time>
      </trkpt>
      <trkpt lat="44.4093900" lon="-92.1142820">
        <ele>226.0500000</ele>
        <time>2009-06-28T15:07:55Z</time>
      </trkpt>
      <trkpt lat="44.4094230" lon="-92.1120440">
        <ele>229.8900000</ele>
        <time>2009-06-28T15:08:02Z</time>
      </trkpt>
      <trkpt lat="44.4098970" lon="-92.1085260">
        <ele>235.1800000</ele>
        <time>2009-06-28T15:08:13Z</time>
      </trkpt>
      <trkpt lat="44.4100350" lon="-92.1046090">
        <ele>233.7400000</ele>
        <time>2009-06-28T15:08:25Z</time>
      </trkpt>
      <trkpt lat="44.4097150" lon="-92.1010750">
        <ele>228.4500000</ele>
        <time>2009-06-28T15:08:36Z</time>
      </trkpt>
      <trkpt lat="44.4089010" lon="-92.0973010">
        <ele>225.0900000</ele>
        <time>2009-06-28T15:08:48Z</time>
      </trkpt>
      <trkpt lat="44.4075440" lon="-92.0914330">
        <ele>231.3300000</ele>
        <time>2009-06-28T15:09:07Z</time>
      </trkpt>
      <trkpt lat="44.4060850" lon="-92.0855800">
        <ele>235.6600000</ele>
        <time>2009-06-28T15:09:26Z</time>
      </trkpt>
      <trkpt lat="44.4048580" lon="-92.0832050">
        <ele>232.3000000</ele>
        <time>2009-06-28T15:09:35Z</time>
      </trkpt>
      <trkpt lat="44.4032670" lon="-92.0808960">
        <ele>225.5700000</ele>
        <time>2009-06-28T15:09:45Z</time>
      </trkpt>
      <trkpt lat="44.4021410" lon="-92.0788400">
        <ele>221.2400000</ele>
        <time>2009-06-28T15:09:54Z</time>
      </trkpt>
      <trkpt lat="44.3999770" lon="-92.0744970">
        <ele>227.4900000</ele>
        <time>2009-06-28T15:10:12Z</time>
      </trkpt>
      <trkpt lat="44.3979240" lon="-92.0714120">
        <ele>226.5300000</ele>
        <time>2009-06-28T15:10:25Z</time>
      </trkpt>
      <trkpt lat="44.3955240" lon="-92.0670070">
        <ele>226.5300000</ele>
        <time>2009-06-28T15:10:42Z</time>
      </trkpt>
      <trkpt lat="44.3941710" lon="-92.0652030">
        <ele>220.7600000</ele>
        <time>2009-06-28T15:10:50Z</time>
      </trkpt>
      <trkpt lat="44.3925050" lon="-92.0639810">
        <ele>214.9900000</ele>
        <time>2009-06-28T15:10:58Z</time>
      </trkpt>
      <trkpt lat="44.3890480" lon="-92.0620360">
        <ele>220.2800000</ele>
        <time>2009-06-28T15:11:14Z</time>
      </trkpt>
      <trkpt lat="44.3856490" lon="-92.0598410">
        <ele>224.6100000</ele>
        <time>2009-06-28T15:11:30Z</time>
      </trkpt>
      <trkpt lat="44.3837290" lon="-92.0580120">
        <ele>224.6100000</ele>
        <time>2009-06-28T15:11:40Z</time>
      </trkpt>
      <trkpt lat="44.3821140" lon="-92.0556790">
        <ele>222.2000000</ele>
        <time>2009-06-28T15:11:50Z</time>
      </trkpt>
      <trkpt lat="44.3774380" lon="-92.0483790">
        <ele>220.7600000</ele>
        <time>2009-06-28T15:12:20Z</time>
      </trkpt>
      <trkpt lat="44.3745050" lon="-92.0446170">
        <ele>222.2000000</ele>
        <time>2009-06-28T15:12:37Z</time>
      </trkpt>
      <trkpt lat="44.3693970" lon="-92.0384110">
        <ele>222.6800000</ele>
        <time>2009-06-28T15:13:06Z</time>
      </trkpt>
      <trkpt lat="44.3665870" lon="-92.0355110">
        <ele>221.2400000</ele>
        <time>2009-06-28T15:13:21Z</time>
      </trkpt>
      <trkpt lat="44.3640190" lon="-92.0338470">
        <ele>218.3600000</ele>
        <time>2009-06-28T15:13:33Z</time>
      </trkpt>
      <trkpt lat="44.3610530" lon="-92.0319890">
        <ele>223.1600000</ele>
        <time>2009-06-28T15:13:46Z</time>
      </trkpt>
      <trkpt lat="44.3591400" lon="-92.0299050">
        <ele>226.0500000</ele>
        <time>2009-06-28T15:13:55Z</time>
      </trkpt>
      <trkpt lat="44.3554680" lon="-92.0254100">
        <ele>222.6800000</ele>
        <time>2009-06-28T15:14:13Z</time>
      </trkpt>
      <trkpt lat="44.3538140" lon="-92.0224510">
        <ele>222.2000000</ele>
        <time>2009-06-28T15:14:23Z</time>
      </trkpt>
      <trkpt lat="44.3516490" lon="-92.0181750">
        <ele>223.1600000</ele>
        <time>2009-06-28T15:14:37Z</time>
      </trkpt>
      <trkpt lat="44.3501700" lon="-92.0165240">
        <ele>226.5300000</ele>
        <time>2009-06-28T15:14:44Z</time>
      </trkpt>
      <trkpt lat="44.3443050" lon="-92.0110560">
        <ele>222.2000000</ele>
        <time>2009-06-28T15:15:10Z</time>
      </trkpt>
      <trkpt lat="44.3392050" lon="-92.0063000">
        <ele>223.1600000</ele>
        <time>2009-06-28T15:15:33Z</time>
      </trkpt>
      <trkpt lat="44.3351010" lon="-92.0028250">
        <ele>217.4000000</ele>
        <time>2009-06-28T15:15:51Z</time>
      </trkpt>
      <trkpt lat="44.3328060" lon="-92.0018580">
        <ele>218.8400000</ele>
        <time>2009-06-28T15:16:00Z</time>
      </trkpt>
      <trkpt lat="44.3303960" lon="-92.0016820">
        <ele>218.8400000</ele>
        <time>2009-06-28T15:16:09Z</time>
      </trkpt>
      <trkpt lat="44.3234380" lon="-92.0015400">
        <ele>216.9100000</ele>
        <time>2009-06-28T15:16:35Z</time>
      </trkpt>
      <trkpt lat="44.3181060" lon="-92.0016210">
        <ele>215.4700000</ele>
        <time>2009-06-28T15:16:55Z</time>
      </trkpt>
      <trkpt lat="44.3152380" lon="-92.0024400">
        <ele>214.9900000</ele>
        <time>2009-06-28T15:17:06Z</time>
      </trkpt>
      <trkpt lat="44.3125150" lon="-92.0034650">
        <ele>217.8800000</ele>
        <time>2009-06-28T15:17:17Z</time>
      </trkpt>
      <trkpt lat="44.3089170" lon="-92.0048380">
        <ele>222.2000000</ele>
        <time>2009-06-28T15:17:31Z</time>
      </trkpt>
      <trkpt lat="44.3065700" lon="-92.0053390">
        <ele>227.4900000</ele>
        <time>2009-06-28T15:17:40Z</time>
      </trkpt>
      <trkpt lat="44.3047500" lon="-92.0048980">
        <ele>231.3300000</ele>
        <time>2009-06-28T15:17:47Z</time>
      </trkpt>
      <trkpt lat="44.3030970" lon="-92.0037470">
        <ele>232.7800000</ele>
        <time>2009-06-28T15:17:54Z</time>
      </trkpt>
      <trkpt lat="44.3014850" lon="-92.0017720">
        <ele>231.3300000</ele>
        <time>2009-06-28T15:18:02Z</time>
      </trkpt>
      <trkpt lat="44.2964910" lon="-91.9955440">
        <ele>223.6400000</ele>
        <time>2009-06-28T15:18:27Z</time>
      </trkpt>
      <trkpt lat="44.2944380" lon="-91.9938170">
        <ele>220.2800000</ele>
        <time>2009-06-28T15:18:36Z</time>
      </trkpt>
      <trkpt lat="44.2888980" lon="-91.9901010">
        <ele>226.0500000</ele>
        <time>2009-06-28T15:18:59Z</time>
      </trkpt>
      <trkpt lat="44.2868540" lon="-91.9892980">
        <ele>227.9700000</ele>
        <time>2009-06-28T15:19:07Z</time>
      </trkpt>
      <trkpt lat="44.2849870" lon="-91.9893200">
        <ele>228.9300000</ele>
        <time>2009-06-28T15:19:14Z</time>
      </trkpt>
      <trkpt lat="44.2799060" lon="-91.9894240">
        <ele>228.4500000</ele>
        <time>2009-06-28T15:19:33Z</time>
      </trkpt>
      <trkpt lat="44.2770090" lon="-91.9886540">
        <ele>224.1200000</ele>
        <time>2009-06-28T15:19:44Z</time>
      </trkpt>
      <trkpt lat="44.2709840" lon="-91.9869250">
        <ele>224.6100000</ele>
        <time>2009-06-28T15:20:07Z</time>
      </trkpt>
      <trkpt lat="44.2687210" lon="-91.9858180">
        <ele>223.6400000</ele>
        <time>2009-06-28T15:20:16Z</time>
      </trkpt>
      <trkpt lat="44.2659060" lon="-91.9836840">
        <ele>220.2800000</ele>
        <time>2009-06-28T15:20:28Z</time>
      </trkpt>
      <trkpt lat="44.2604070" lon="-91.9798880">
        <ele>224.6100000</ele>
        <time>2009-06-28T15:20:51Z</time>
      </trkpt>
      <trkpt lat="44.2543990" lon="-91.9757680">
        <ele>218.3600000</ele>
        <time>2009-06-28T15:21:16Z</time>
      </trkpt>
      <trkpt lat="44.2499010" lon="-91.9724690">
        <ele>224.1200000</ele>
        <time>2009-06-28T15:21:35Z</time>
      </trkpt>
      <trkpt lat="44.2477870" lon="-91.9701500">
        <ele>226.5300000</ele>
        <time>2009-06-28T15:21:45Z</time>
      </trkpt>
      <trkpt lat="44.2447960" lon="-91.9659070">
        <ele>223.6400000</ele>
        <time>2009-06-28T15:22:01Z</time>
      </trkpt>
      <trkpt lat="44.2409930" lon="-91.9603020">
        <ele>219.8000000</ele>
        <time>2009-06-28T15:22:22Z</time>
      </trkpt>
      <trkpt lat="44.2392130" lon="-91.9566880">
        <ele>222.2000000</ele>
        <time>2009-06-28T15:22:34Z</time>
      </trkpt>
      <trkpt lat="44.2375080" lon="-91.9539090">
        <ele>219.3200000</ele>
        <time>2009-06-28T15:22:44Z</time>
      </trkpt>
      <trkpt lat="44.2357390" lon="-91.9523080">
        <ele>215.4700000</ele>
        <time>2009-06-28T15:22:52Z</time>
      </trkpt>
      <trkpt lat="44.2323640" lon="-91.9501980">
        <ele>211.1500000</ele>
        <time>2009-06-28T15:23:06Z</time>
      </trkpt>
      <trkpt lat="44.2276260" lon="-91.9471290">
        <ele>212.1100000</ele>
        <time>2009-06-28T15:23:26Z</time>
      </trkpt>
      <trkpt lat="44.2260200" lon="-91.9453040">
        <ele>213.0700000</ele>
        <time>2009-06-28T15:23:34Z</time>
      </trkpt>
      <trkpt lat="44.2247220" lon="-91.9430250">
        <ele>211.1500000</ele>
        <time>2009-06-28T15:23:42Z</time>
      </trkpt>
      <trkpt lat="44.2236910" lon="-91.9400730">
        <ele>210.6700000</ele>
        <time>2009-06-28T15:23:51Z</time>
      </trkpt>
      <trkpt lat="44.2213840" lon="-91.9339330">
        <ele>216.9100000</ele>
        <time>2009-06-28T15:24:10Z</time>
      </trkpt>
      <trkpt lat="44.2197660" lon="-91.9315300">
        <ele>217.8800000</ele>
        <time>2009-06-28T15:24:19Z</time>
      </trkpt>
      <trkpt lat="44.2177770" lon="-91.9296620">
        <ele>215.4700000</ele>
        <time>2009-06-28T15:24:28Z</time>
      </trkpt>
      <trkpt lat="44.2135640" lon="-91.9263880">
        <ele>212.5900000</ele>
        <time>2009-06-28T15:24:46Z</time>
      </trkpt>
      <trkpt lat="44.2073380" lon="-91.9213270">
        <ele>212.1100000</ele>
        <time>2009-06-28T15:25:13Z</time>
      </trkpt>
      <trkpt lat="44.2058330" lon="-91.9192590">
        <ele>211.6300000</ele>
        <time>2009-06-28T15:25:21Z</time>
      </trkpt>
      <trkpt lat="44.2048210" lon="-91.9166710">
        <ele>212.5900000</ele>
        <time>2009-06-28T15:25:29Z</time>
      </trkpt>
      <trkpt lat="44.2041640" lon="-91.9134680">
        <ele>214.5100000</ele>
        <time>2009-06-28T15:25:38Z</time>
      </trkpt>
      <trkpt lat="44.2028210" lon="-91.9074290">
        <ele>216.4300000</ele>
        <time>2009-06-28T15:25:55Z</time>
      </trkpt>
      <trkpt lat="44.2014400" lon="-91.9009340">
        <ele>210.6700000</ele>
        <time>2009-06-28T15:26:13Z</time>
      </trkpt>
      <trkpt lat="44.2002090" lon="-91.8958610">
        <ele>210.1900000</ele>
        <time>2009-06-28T15:26:27Z</time>
      </trkpt>
      <trkpt lat="44.1999800" lon="-91.8932170">
        <ele>211.6300000</ele>
        <time>2009-06-28T15:26:34Z</time>
      </trkpt>
      <trkpt lat="44.2002640" lon="-91.8901950">
        <ele>214.0300000</ele>
        <time>2009-06-28T15:26:42Z</time>
      </trkpt>
      <trkpt lat="44.2007730" lon="-91.8856460">
        <ele>215.4700000</ele>
        <time>2009-06-28T15:26:54Z</time>
      </trkpt>
      <trkpt lat="44.2007050" lon="-91.8822660">
        <ele>214.0300000</ele>
        <time>2009-06-28T15:27:03Z</time>
      </trkpt>
      <trkpt lat="44.2001480" lon="-91.8793660">
        <ele>213.0700000</ele>
        <time>2009-06-28T15:27:11Z</time>
      </trkpt>
      <trkpt lat="44.1991770" lon="-91.8770990">
        <ele>212.5900000</ele>
        <time>2009-06-28T15:27:18Z</time>
      </trkpt>
      <trkpt lat="44.1978650" lon="-91.8751600">
        <ele>212.1100000</ele>
        <time>2009-06-28T15:27:25Z</time>
      </trkpt>
      <trkpt lat="44.1923510" lon="-91.8681990">
        <ele>214.5100000</ele>
        <time>2009-06-28T15:27:52Z</time>
      </trkpt>
      <trkpt lat="44.1910460" lon="-91.8657450">
        <ele>214.9900000</ele>
        <time>2009-06-28T15:28:00Z</time>
      </trkpt>
      <trkpt lat="44.1902050" lon="-91.8629340">
        <ele>214.5100000</ele>
        <time>2009-06-28T15:28:08Z</time>
      </trkpt>
      <trkpt lat="44.1891280" lon="-91.8586060">
        <ele>218.3600000</ele>
        <time>2009-06-28T15:28:20Z</time>
      </trkpt>
      <trkpt lat="44.1877930" lon="-91.8552600">
        <ele>221.7200000</ele>
        <time>2009-06-28T15:28:30Z</time>
      </trkpt>
      <trkpt lat="44.1860890" lon="-91.8522800">
        <ele>222.6800000</ele>
        <time>2009-06-28T15:28:40Z</time>
      </trkpt>
      <trkpt lat="44.1828760" lon="-91.8477030">
        <ele>220.7600000</ele>
        <time>2009-06-28T15:28:57Z</time>
      </trkpt>
      <trkpt lat="44.1802560" lon="-91.8449830">
        <ele>218.8400000</ele>
        <time>2009-06-28T15:29:09Z</time>
      </trkpt>
      <trkpt lat="44.1774150" lon="-91.8428010">
        <ele>217.4000000</ele>
        <time>2009-06-28T15:29:21Z</time>
      </trkpt>
      <trkpt lat="44.1734810" lon="-91.8394920">
        <ele>217.8800000</ele>
        <time>2009-06-28T15:29:38Z</time>
      </trkpt>
      <trkpt lat="44.1722440" lon="-91.8375190">
        <ele>218.8400000</ele>
        <time>2009-06-28T15:29:45Z</time>
      </trkpt>
      <trkpt lat="44.1703600" lon="-91.8338510">
        <ele>220.7600000</ele>
        <time>2009-06-28T15:29:57Z</time>
      </trkpt>
      <trkpt lat="44.1685610" lon="-91.8315280">
        <ele>217.8800000</ele>
        <time>2009-06-28T15:30:06Z</time>
      </trkpt>
      <trkpt lat="44.1673620" lon="-91.8295000">
        <ele>214.5100000</ele>
        <time>2009-06-28T15:30:13Z</time>
      </trkpt>
      <trkpt lat="44.1647420" lon="-91.8237810">
        <ele>216.9100000</ele>
        <time>2009-06-28T15:30:31Z</time>
      </trkpt>
      <trkpt lat="44.1617180" lon="-91.8175400">
        <ele>221.7200000</ele>
        <time>2009-06-28T15:30:51Z</time>
      </trkpt>
      <trkpt lat="44.1596000" lon="-91.8136330">
        <ele>219.3200000</ele>
        <time>2009-06-28T15:31:04Z</time>
      </trkpt>
      <trkpt lat="44.1559860" lon="-91.8085660">
        <ele>217.8800000</ele>
        <time>2009-06-28T15:31:23Z</time>
      </trkpt>
      <trkpt lat="44.1535510" lon="-91.8060640">
        <ele>216.9100000</ele>
        <time>2009-06-28T15:31:34Z</time>
      </trkpt>
      <trkpt lat="44.1506150" lon="-91.8027330">
        <ele>221.7200000</ele>
        <time>2009-06-28T15:31:48Z</time>
      </trkpt>
      <trkpt lat="44.1462060" lon="-91.7971340">
        <ele>223.6400000</ele>
        <time>2009-06-28T15:32:10Z</time>
      </trkpt>
      <trkpt lat="44.1421640" lon="-91.7919730">
        <ele>216.9100000</ele>
        <time>2009-06-28T15:32:30Z</time>
      </trkpt>
      <trkpt lat="44.1389990" lon="-91.7878210">
        <ele>216.4300000</ele>
        <time>2009-06-28T15:32:46Z</time>
      </trkpt>
      <trkpt lat="44.1371820" lon="-91.7862480">
        <ele>220.2800000</ele>
        <time>2009-06-28T15:32:54Z</time>
      </trkpt>
      <trkpt lat="44.1351430" lon="-91.7853260">
        <ele>219.8000000</ele>
        <time>2009-06-28T15:33:02Z</time>
      </trkpt>
      <trkpt lat="44.1318520" lon="-91.7838930">
        <ele>215.4700000</ele>
        <time>2009-06-28T15:33:15Z</time>
      </trkpt>
      <trkpt lat="44.1303710" lon="-91.7823530">
        <ele>215.4700000</ele>
        <time>2009-06-28T15:33:22Z</time>
      </trkpt>
      <trkpt lat="44.1285510" lon="-91.7796410">
        <ele>216.4300000</ele>
        <time>2009-06-28T15:33:32Z</time>
      </trkpt>
      <trkpt lat="44.1268990" lon="-91.7777670">
        <ele>215.4700000</ele>
        <time>2009-06-28T15:33:40Z</time>
      </trkpt>
      <trkpt lat="44.1240140" lon="-91.7744670">
        <ele>213.5500000</ele>
        <time>2009-06-28T15:33:54Z</time>
      </trkpt>
      <trkpt lat="44.1202510" lon="-91.7697080">
        <ele>215.4700000</ele>
        <time>2009-06-28T15:34:13Z</time>
      </trkpt>
      <trkpt lat="44.1150440" lon="-91.7633160">
        <ele>220.7600000</ele>
        <time>2009-06-28T15:34:39Z</time>
      </trkpt>
      <trkpt lat="44.1126320" lon="-91.7610800">
        <ele>221.7200000</ele>
        <time>2009-06-28T15:34:50Z</time>
      </trkpt>
      <trkpt lat="44.1092830" lon="-91.7583880">
        <ele>220.2800000</ele>
        <time>2009-06-28T15:35:05Z</time>
      </trkpt>
      <trkpt lat="44.1062120" lon="-91.7569530">
        <ele>208.7400000</ele>
        <time>2009-06-28T15:35:18Z</time>
      </trkpt>
      <trkpt lat="44.1013300" lon="-91.7548450">
        <ele>210.1900000</ele>
        <time>2009-06-28T15:35:39Z</time>
      </trkpt>
      <trkpt lat="44.0991990" lon="-91.7544320">
        <ele>209.7000000</ele>
        <time>2009-06-28T15:35:48Z</time>
      </trkpt>
      <trkpt lat="44.0943670" lon="-91.7544660">
        <ele>212.5900000</ele>
        <time>2009-06-28T15:36:09Z</time>
      </trkpt>
      <trkpt lat="44.0925500" lon="-91.7540920">
        <ele>216.4300000</ele>
        <time>2009-06-28T15:36:17Z</time>
      </trkpt>
      <trkpt lat="44.0911290" lon="-91.7530650">
        <ele>218.3600000</ele>
        <time>2009-06-28T15:36:24Z</time>
      </trkpt>
      <trkpt lat="44.0899740" lon="-91.7514880">
        <ele>219.8000000</ele>
        <time>2009-06-28T15:36:31Z</time>
      </trkpt>
      <trkpt lat="44.0892450" lon="-91.7494460">
        <ele>219.8000000</ele>
        <time>2009-06-28T15:36:38Z</time>
      </trkpt>
      <trkpt lat="44.0873140" lon="-91.7433840">
        <ele>210.1900000</ele>
        <time>2009-06-28T15:36:58Z</time>
      </trkpt>
      <trkpt lat="44.0860940" lon="-91.7412840">
        <ele>206.3400000</ele>
        <time>2009-06-28T15:37:06Z</time>
      </trkpt>
      <trkpt lat="44.0830560" lon="-91.7374680">
        <ele>206.3400000</ele>
        <time>2009-06-28T15:37:23Z</time>
      </trkpt>
      <trkpt lat="44.0805130" lon="-91.7346820">
        <ele>206.8200000</ele>
        <time>2009-06-28T15:37:37Z</time>
      </trkpt>
      <trkpt lat="44.0780210" lon="-91.7330660">
        <ele>216.4300000</ele>
        <time>2009-06-28T15:37:49Z</time>
      </trkpt>
      <trkpt lat="44.0751980" lon="-91.7308900">
        <ele>219.3200000</ele>
        <time>2009-06-28T15:38:03Z</time>
      </trkpt>
      <trkpt lat="44.0719920" lon="-91.7276400">
        <ele>215.4700000</ele>
        <time>2009-06-28T15:38:20Z</time>
      </trkpt>
      <trkpt lat="44.0686740" lon="-91.7238830">
        <ele>213.0700000</ele>
        <time>2009-06-28T15:38:38Z</time>
      </trkpt>
      <trkpt lat="44.0675150" lon="-91.7215270">
        <ele>214.5100000</ele>
        <time>2009-06-28T15:38:47Z</time>
      </trkpt>
      <trkpt lat="44.0663200" lon="-91.7179580">
        <ele>214.5100000</ele>
        <time>2009-06-28T15:39:00Z</time>
      </trkpt>
      <trkpt lat="44.0647520" lon="-91.7139380">
        <ele>214.0300000</ele>
        <time>2009-06-28T15:39:15Z</time>
      </trkpt>
      <trkpt lat="44.0624360" lon="-91.7084330">
        <ele>213.0700000</ele>
        <time>2009-06-28T15:39:37Z</time>
      </trkpt>
      <trkpt lat="44.0614780" lon="-91.7062000">
        <ele>211.6300000</ele>
        <time>2009-06-28T15:39:48Z</time>
      </trkpt>
      <trkpt lat="44.0604310" lon="-91.7037570">
        <ele>211.6300000</ele>
        <time>2009-06-28T15:39:59Z</time>
      </trkpt>
      <trkpt lat="44.0579430" lon="-91.6978960">
        <ele>216.4300000</ele>
        <time>2009-06-28T15:40:22Z</time>
      </trkpt>
      <trkpt lat="44.0555530" lon="-91.6922740">
        <ele>215.4700000</ele>
        <time>2009-06-28T15:40:45Z</time>
      </trkpt>
      <trkpt lat="44.0546500" lon="-91.6901860">
        <ele>215.9500000</ele>
        <time>2009-06-28T15:40:56Z</time>
      </trkpt>
      <trkpt lat="44.0544860" lon="-91.6898350">
        <ele>217.4000000</ele>
        <time>2009-06-28T15:41:02Z</time>
      </trkpt>
      <trkpt lat="44.0544360" lon="-91.6897290">
        <ele>213.5500000</ele>
        <time>2009-06-28T15:41:08Z</time>
      </trkpt>
      <trkpt lat="44.0542550" lon="-91.6896770">
        <ele>213.0700000</ele>
        <time>2009-06-28T15:41:09Z</time>
      </trkpt>
      <trkpt lat="44.0542060" lon="-91.6897230">
        <ele>212.5900000</ele>
        <time>2009-06-28T15:41:10Z</time>
      </trkpt>
      <trkpt lat="44.0541490" lon="-91.6897770">
        <ele>212.1100000</ele>
        <time>2009-06-28T15:41:11Z</time>
      </trkpt>
      <trkpt lat="44.0540870" lon="-91.6898350">
        <ele>211.1500000</ele>
        <time>2009-06-28T15:41:12Z</time>
      </trkpt>
      <trkpt lat="44.0540210" lon="-91.6898970">
        <ele>210.6700000</ele>
        <time>2009-06-28T15:41:13Z</time>
      </trkpt>
      <trkpt lat="44.0537710" lon="-91.6901310">
        <ele>209.2200000</ele>
        <time>2009-06-28T15:41:17Z</time>
      </trkpt>
      <trkpt lat="44.0537280" lon="-91.6901720">
        <ele>209.2200000</ele>
        <time>2009-06-28T15:41:18Z</time>
      </trkpt>
      <trkpt lat="44.0537770" lon="-91.6904610">
        <ele>209.2200000</ele>
        <time>2009-06-28T15:41:19Z</time>
      </trkpt>
      <trkpt lat="44.0538060" lon="-91.6905290">
        <ele>208.7400000</ele>
        <time>2009-06-28T15:41:20Z</time>
      </trkpt>
      <trkpt lat="44.0538300" lon="-91.6905850">
        <ele>208.2600000</ele>
        <time>2009-06-28T15:41:21Z</time>
      </trkpt>
      <trkpt lat="44.0538470" lon="-91.6906260">
        <ele>208.2600000</ele>
        <time>2009-06-28T15:41:22Z</time>
      </trkpt>
      <trkpt lat="44.0540600" lon="-91.6911230">
        <ele>208.2600000</ele>
        <time>2009-06-28T15:41:23Z</time>
      </trkpt>
      <trkpt lat="44.0540600" lon="-91.6911230">
        <ele>208.2600000</ele>
        <time>2009-06-28T15:41:24Z</time>
      </trkpt>
      <trkpt lat="44.0540600" lon="-91.6911230">
        <ele>208.2600000</ele>
        <time>2009-06-28T15:41:25Z</time>
      </trkpt>
      <trkpt lat="44.0540600" lon="-91.6911230">
        <ele>208.2600000</ele>
        <time>2009-06-28T15:41:26Z</time>
      </trkpt>
      <trkpt lat="44.0540600" lon="-91.6911230">
        <ele>208.2600000</ele>
        <time>2009-06-28T15:41:27Z</time>
      </trkpt>
      <trkpt lat="44.0540600" lon="-91.6911230">
        <ele>208.2600000</ele>
        <time>2009-06-28T15:41:28Z</time>
      </trkpt>
      <trkpt lat="44.0540600" lon="-91.6911230">
        <ele>207.7800000</ele>
        <time>2009-06-28T15:41:29Z</time>
      </trkpt>
      <trkpt lat="44.0540600" lon="-91.6911230">
        <ele>207.7800000</ele>
        <time>2009-06-28T15:41:30Z</time>
      </trkpt>
      <trkpt lat="44.0540600" lon="-91.6911230">
        <ele>202.0100000</ele>
        <time>2009-06-28T15:41:50Z</time>
      </trkpt>
      <trkpt lat="44.0540600" lon="-91.6911230">
        <ele>201.5300000</ele>
        <time>2009-06-28T15:42:06Z</time>
      </trkpt>
      <trkpt lat="44.0541450" lon="-91.6910900">
        <ele>202.9800000</ele>
        <time>2009-06-28T15:53:00Z</time>
      </trkpt>
      <trkpt lat="44.0541300" lon="-91.6910560">
        <ele>194.8000000</ele>
        <time>2009-06-28T15:53:52Z</time>
      </trkpt>
      <trkpt lat="44.0539350" lon="-91.6916020">
        <ele>195.2800000</ele>
        <time>2009-06-28T15:54:00Z</time>
      </trkpt>
      <trkpt lat="44.0538830" lon="-91.6916670">
        <ele>195.2800000</ele>
        <time>2009-06-28T15:54:01Z</time>
      </trkpt>
      <trkpt lat="44.0538260" lon="-91.6917390">
        <ele>195.2800000</ele>
        <time>2009-06-28T15:54:02Z</time>
      </trkpt>
      <trkpt lat="44.0531880" lon="-91.6923240">
        <ele>195.7700000</ele>
        <time>2009-06-28T15:54:13Z</time>
      </trkpt>
      <trkpt lat="44.0531040" lon="-91.6924010">
        <ele>196.7300000</ele>
        <time>2009-06-28T15:54:17Z</time>
      </trkpt>
      <trkpt lat="44.0530780" lon="-91.6924240">
        <ele>197.2100000</ele>
        <time>2009-06-28T15:54:18Z</time>
      </trkpt>
      <trkpt lat="44.0529330" lon="-91.6920660">
        <ele>196.7300000</ele>
        <time>2009-06-28T15:54:22Z</time>
      </trkpt>
      <trkpt lat="44.0528050" lon="-91.6915300">
        <ele>197.2100000</ele>
        <time>2009-06-28T15:54:30Z</time>
      </trkpt>
      <trkpt lat="44.0528150" lon="-91.6914900">
        <ele>198.6500000</ele>
        <time>2009-06-28T15:54:47Z</time>
      </trkpt>
      <trkpt lat="44.0527500" lon="-91.6913410">
        <ele>198.1700000</ele>
        <time>2009-06-28T15:54:54Z</time>
      </trkpt>
      <trkpt lat="44.0526950" lon="-91.6911270">
        <ele>199.1300000</ele>
        <time>2009-06-28T15:54:56Z</time>
      </trkpt>
      <trkpt lat="44.0527380" lon="-91.6910880">
        <ele>199.1300000</ele>
        <time>2009-06-28T15:54:57Z</time>
      </trkpt>
      <trkpt lat="44.0528210" lon="-91.6910110">
        <ele>199.6100000</ele>
        <time>2009-06-28T15:54:58Z</time>
      </trkpt>
      <trkpt lat="44.0529120" lon="-91.6909270">
        <ele>199.6100000</ele>
        <time>2009-06-28T15:54:59Z</time>
      </trkpt>
      <trkpt lat="44.0530060" lon="-91.6908400">
        <ele>199.6100000</ele>
        <time>2009-06-28T15:55:00Z</time>
      </trkpt>
      <trkpt lat="44.0539100" lon="-91.6900010">
        <ele>200.0900000</ele>
        <time>2009-06-28T15:55:09Z</time>
      </trkpt>
      <trkpt lat="44.0540660" lon="-91.6898550">
        <ele>200.5700000</ele>
        <time>2009-06-28T15:55:11Z</time>
      </trkpt>
      <trkpt lat="44.0541380" lon="-91.6897870">
        <ele>200.0900000</ele>
        <time>2009-06-28T15:55:12Z</time>
      </trkpt>
      <trkpt lat="44.0542010" lon="-91.6897280">
        <ele>200.0900000</ele>
        <time>2009-06-28T15:55:13Z</time>
      </trkpt>
      <trkpt lat="44.0542250" lon="-91.6893030">
        <ele>200.0900000</ele>
        <time>2009-06-28T15:55:14Z</time>
      </trkpt>
      <trkpt lat="44.0541640" lon="-91.6891780">
        <ele>199.6100000</ele>
        <time>2009-06-28T15:55:15Z</time>
      </trkpt>
      <trkpt lat="44.0540110" lon="-91.6888680">
        <ele>199.6100000</ele>
        <time>2009-06-28T15:55:17Z</time>
      </trkpt>
      <trkpt lat="44.0539220" lon="-91.6886860">
        <ele>199.6100000</ele>
        <time>2009-06-28T15:55:18Z</time>
      </trkpt>
      <trkpt lat="44.0527480" lon="-91.6863030">
        <ele>200.0900000</ele>
        <time>2009-06-28T15:55:30Z</time>
      </trkpt>
      <trkpt lat="44.0510650" lon="-91.6829230">
        <ele>200.5700000</ele>
        <time>2009-06-28T15:55:46Z</time>
      </trkpt>
      <trkpt lat="44.0483490" lon="-91.6775970">
        <ele>201.5300000</ele>
        <time>2009-06-28T15:56:11Z</time>
      </trkpt>
      <trkpt lat="44.0479580" lon="-91.6767960">
        <ele>201.5300000</ele>
        <time>2009-06-28T15:56:17Z</time>
      </trkpt>
      <trkpt lat="44.0478650" lon="-91.6765970">
        <ele>202.0100000</ele>
        <time>2009-06-28T15:56:23Z</time>
      </trkpt>
      <trkpt lat="44.0477730" lon="-91.6764050">
        <ele>202.9800000</ele>
        <time>2009-06-28T15:56:49Z</time>
      </trkpt>
      <trkpt lat="44.0473360" lon="-91.6755610">
        <ele>202.4900000</ele>
        <time>2009-06-28T15:56:55Z</time>
      </trkpt>
      <trkpt lat="44.0465620" lon="-91.6740660">
        <ele>201.5300000</ele>
        <time>2009-06-28T15:57:05Z</time>
      </trkpt>
      <trkpt lat="44.0465170" lon="-91.6739760">
        <ele>201.5300000</ele>
        <time>2009-06-28T15:57:06Z</time>
      </trkpt>
      <trkpt lat="44.0464820" lon="-91.6739060">
        <ele>201.5300000</ele>
        <time>2009-06-28T15:57:07Z</time>
      </trkpt>
      <trkpt lat="44.0463310" lon="-91.6740030">
        <ele>201.5300000</ele>
        <time>2009-06-28T15:57:08Z</time>
      </trkpt>
      <trkpt lat="44.0462570" lon="-91.6740090">
        <ele>201.5300000</ele>
        <time>2009-06-28T15:57:09Z</time>
      </trkpt>
      <trkpt lat="44.0464170" lon="-91.6737770">
        <ele>201.5300000</ele>
        <time>2009-06-28T15:57:10Z</time>
      </trkpt>
      <trkpt lat="44.0449910" lon="-91.6740990">
        <ele>200.5700000</ele>
        <time>2009-06-28T15:57:21Z</time>
      </trkpt>
      <trkpt lat="44.0442330" lon="-91.6741630">
        <ele>203.9400000</ele>
        <time>2009-06-28T15:57:29Z</time>
      </trkpt>
      <trkpt lat="44.0441570" lon="-91.6741710">
        <ele>204.9000000</ele>
        <time>2009-06-28T15:57:30Z</time>
      </trkpt>
      <trkpt lat="44.0440180" lon="-91.6741820">
        <ele>205.8600000</ele>
        <time>2009-06-28T15:57:32Z</time>
      </trkpt>
      <trkpt lat="44.0440340" lon="-91.6738710">
        <ele>205.3800000</ele>
        <time>2009-06-28T15:57:33Z</time>
      </trkpt>
      <trkpt lat="44.0440070" lon="-91.6737660">
        <ele>205.3800000</ele>
        <time>2009-06-28T15:57:34Z</time>
      </trkpt>
      <trkpt lat="44.0439810" lon="-91.6736200">
        <ele>205.8600000</ele>
        <time>2009-06-28T15:57:35Z</time>
      </trkpt>
      <trkpt lat="44.0439520" lon="-91.6734620">
        <ele>205.8600000</ele>
        <time>2009-06-28T15:57:36Z</time>
      </trkpt>
      <trkpt lat="44.0436170" lon="-91.6716230">
        <ele>208.7400000</ele>
        <time>2009-06-28T15:57:47Z</time>
      </trkpt>
      <trkpt lat="44.0435170" lon="-91.6708600">
        <ele>211.1500000</ele>
        <time>2009-06-28T15:57:52Z</time>
      </trkpt>
      <trkpt lat="44.0432690" lon="-91.6686130">
        <ele>213.0700000</ele>
        <time>2009-06-28T15:58:06Z</time>
      </trkpt>
      <trkpt lat="44.0428000" lon="-91.6669960">
        <ele>212.1100000</ele>
        <time>2009-06-28T15:58:17Z</time>
      </trkpt>
      <trkpt lat="44.0424820" lon="-91.6651120">
        <ele>211.6300000</ele>
        <time>2009-06-28T15:58:28Z</time>
      </trkpt>
      <trkpt lat="44.0418870" lon="-91.6636310">
        <ele>208.2600000</ele>
        <time>2009-06-28T15:58:38Z</time>
      </trkpt>
      <trkpt lat="44.0410000" lon="-91.6613590">
        <ele>207.7800000</ele>
        <time>2009-06-28T15:58:53Z</time>
      </trkpt>
      <trkpt lat="44.0401400" lon="-91.6592900">
        <ele>212.1100000</ele>
        <time>2009-06-28T15:59:06Z</time>
      </trkpt>
      <trkpt lat="44.0390270" lon="-91.6569620">
        <ele>205.8600000</ele>
        <time>2009-06-28T15:59:21Z</time>
      </trkpt>
      <trkpt lat="44.0380840" lon="-91.6546810">
        <ele>201.5300000</ele>
        <time>2009-06-28T15:59:35Z</time>
      </trkpt>
      <trkpt lat="44.0373940" lon="-91.6529070">
        <ele>202.4900000</ele>
        <time>2009-06-28T15:59:47Z</time>
      </trkpt>
      <trkpt lat="44.0372010" lon="-91.6524120">
        <ele>202.9800000</ele>
        <time>2009-06-28T15:59:54Z</time>
      </trkpt>
      <trkpt lat="44.0370470" lon="-91.6519430">
        <ele>202.4900000</ele>
        <time>2009-06-28T16:00:03Z</time>
      </trkpt>
      <trkpt lat="44.0372210" lon="-91.6506000">
        <ele>203.9400000</ele>
        <time>2009-06-28T16:00:13Z</time>
      </trkpt>
      <trkpt lat="44.0371740" lon="-91.6504340">
        <ele>204.4200000</ele>
        <time>2009-06-28T16:00:15Z</time>
      </trkpt>
      <trkpt lat="44.0371540" lon="-91.6503610">
        <ele>204.4200000</ele>
        <time>2009-06-28T16:00:16Z</time>
      </trkpt>
      <trkpt lat="44.0371320" lon="-91.6502860">
        <ele>204.4200000</ele>
        <time>2009-06-28T16:00:17Z</time>
      </trkpt>
      <trkpt lat="44.0371180" lon="-91.6502420">
        <ele>205.3800000</ele>
        <time>2009-06-28T16:00:18Z</time>
      </trkpt>
      <trkpt lat="44.0366120" lon="-91.6505590">
        <ele>205.3800000</ele>
        <time>2009-06-28T16:00:19Z</time>
      </trkpt>
      <trkpt lat="44.0365360" lon="-91.6505970">
        <ele>206.3400000</ele>
        <time>2009-06-28T16:00:20Z</time>
      </trkpt>
      <trkpt lat="44.0364820" lon="-91.6506730">
        <ele>206.8200000</ele>
        <time>2009-06-28T16:00:21Z</time>
      </trkpt>
      <trkpt lat="44.0364340" lon="-91.6507840">
        <ele>206.8200000</ele>
        <time>2009-06-28T16:00:22Z</time>
      </trkpt>
      <trkpt lat="44.0363850" lon="-91.6508990">
        <ele>206.3400000</ele>
        <time>2009-06-28T16:00:23Z</time>
      </trkpt>
      <trkpt lat="44.0363840" lon="-91.6510390">
        <ele>206.8200000</ele>
        <time>2009-06-28T16:00:24Z</time>
      </trkpt>
      <trkpt lat="44.0363890" lon="-91.6511850">
        <ele>207.7800000</ele>
        <time>2009-06-28T16:00:25Z</time>
      </trkpt>
      <trkpt lat="44.0363940" lon="-91.6513410">
        <ele>208.7400000</ele>
        <time>2009-06-28T16:00:26Z</time>
      </trkpt>
      <trkpt lat="44.0363990" lon="-91.6514990">
        <ele>210.1900000</ele>
        <time>2009-06-28T16:00:27Z</time>
      </trkpt>
      <trkpt lat="44.0363270" lon="-91.6531500">
        <ele>224.1200000</ele>
        <time>2009-06-28T16:00:37Z</time>
      </trkpt>
      <trkpt lat="44.0362000" lon="-91.6536800">
        <ele>228.4500000</ele>
        <time>2009-06-28T16:00:40Z</time>
      </trkpt>
      <trkpt lat="44.0361600" lon="-91.6538390">
        <ele>230.3700000</ele>
        <time>2009-06-28T16:00:41Z</time>
      </trkpt>
      <trkpt lat="44.0358690" lon="-91.6544210">
        <ele>237.5800000</ele>
        <time>2009-06-28T16:00:45Z</time>
      </trkpt>
      <trkpt lat="44.0357860" lon="-91.6544990">
        <ele>239.0200000</ele>
        <time>2009-06-28T16:00:46Z</time>
      </trkpt>
      <trkpt lat="44.0356870" lon="-91.6545860">
        <ele>240.4700000</ele>
        <time>2009-06-28T16:00:47Z</time>
      </trkpt>
      <trkpt lat="44.0355900" lon="-91.6546710">
        <ele>241.9100000</ele>
        <time>2009-06-28T16:00:48Z</time>
      </trkpt>
      <trkpt lat="44.0355130" lon="-91.6547310">
        <ele>243.8300000</ele>
        <time>2009-06-28T16:00:49Z</time>
      </trkpt>
      <trkpt lat="44.0353930" lon="-91.6547310">
        <ele>244.7900000</ele>
        <time>2009-06-28T16:00:50Z</time>
      </trkpt>
      <trkpt lat="44.0352760" lon="-91.6547310">
        <ele>245.7500000</ele>
        <time>2009-06-28T16:00:51Z</time>
      </trkpt>
      <trkpt lat="44.0351660" lon="-91.6547290">
        <ele>246.2300000</ele>
        <time>2009-06-28T16:00:52Z</time>
      </trkpt>
      <trkpt lat="44.0350470" lon="-91.6547090">
        <ele>246.7200000</ele>
        <time>2009-06-28T16:00:53Z</time>
      </trkpt>
      <trkpt lat="44.0349280" lon="-91.6546890">
        <ele>247.6800000</ele>
        <time>2009-06-28T16:00:54Z</time>
      </trkpt>
      <trkpt lat="44.0348120" lon="-91.6546160">
        <ele>248.1600000</ele>
        <time>2009-06-28T16:00:55Z</time>
      </trkpt>
      <trkpt lat="44.0346960" lon="-91.6545380">
        <ele>249.1200000</ele>
        <time>2009-06-28T16:00:56Z</time>
      </trkpt>
      <trkpt lat="44.0345770" lon="-91.6544590">
        <ele>249.6000000</ele>
        <time>2009-06-28T16:00:57Z</time>
      </trkpt>
      <trkpt lat="44.0332780" lon="-91.6539020">
        <ele>262.5800000</ele>
        <time>2009-06-28T16:01:07Z</time>
      </trkpt>
      <trkpt lat="44.0330420" lon="-91.6539030">
        <ele>265.4600000</ele>
        <time>2009-06-28T16:01:09Z</time>
      </trkpt>
      <trkpt lat="44.0329270" lon="-91.6539490">
        <ele>266.4200000</ele>
        <time>2009-06-28T16:01:10Z</time>
      </trkpt>
      <trkpt lat="44.0328400" lon="-91.6540290">
        <ele>267.8600000</ele>
        <time>2009-06-28T16:01:11Z</time>
      </trkpt>
      <trkpt lat="44.0327230" lon="-91.6541580">
        <ele>270.2700000</ele>
        <time>2009-06-28T16:01:12Z</time>
      </trkpt>
      <trkpt lat="44.0326230" lon="-91.6542700">
        <ele>273.6300000</ele>
        <time>2009-06-28T16:01:13Z</time>
      </trkpt>
      <trkpt lat="44.0325210" lon="-91.6543830">
        <ele>275.0700000</ele>
        <time>2009-06-28T16:01:14Z</time>
      </trkpt>
      <trkpt lat="44.0324560" lon="-91.6545360">
        <ele>276.0400000</ele>
        <time>2009-06-28T16:01:15Z</time>
      </trkpt>
      <trkpt lat="44.0323910" lon="-91.6546940">
        <ele>277.4800000</ele>
        <time>2009-06-28T16:01:16Z</time>
      </trkpt>
      <trkpt lat="44.0323260" lon="-91.6548530">
        <ele>278.4400000</ele>
        <time>2009-06-28T16:01:17Z</time>
      </trkpt>
      <trkpt lat="44.0320920" lon="-91.6552960">
        <ele>283.2500000</ele>
        <time>2009-06-28T16:01:20Z</time>
      </trkpt>
      <trkpt lat="44.0319970" lon="-91.6554300">
        <ele>284.6900000</ele>
        <time>2009-06-28T16:01:21Z</time>
      </trkpt>
      <trkpt lat="44.0319060" lon="-91.6555570">
        <ele>286.1300000</ele>
        <time>2009-06-28T16:01:22Z</time>
      </trkpt>
      <trkpt lat="44.0317970" lon="-91.6556660">
        <ele>287.5700000</ele>
        <time>2009-06-28T16:01:23Z</time>
      </trkpt>
      <trkpt lat="44.0316900" lon="-91.6557690">
        <ele>288.5300000</ele>
        <time>2009-06-28T16:01:24Z</time>
      </trkpt>
      <trkpt lat="44.0315720" lon="-91.6558530">
        <ele>290.4600000</ele>
        <time>2009-06-28T16:01:25Z</time>
      </trkpt>
      <trkpt lat="44.0314540" lon="-91.6559380">
        <ele>291.9000000</ele>
        <time>2009-06-28T16:01:26Z</time>
      </trkpt>
      <trkpt lat="44.0313360" lon="-91.6560000">
        <ele>293.3400000</ele>
        <time>2009-06-28T16:01:27Z</time>
      </trkpt>
      <trkpt lat="44.0312110" lon="-91.6560470">
        <ele>295.2600000</ele>
        <time>2009-06-28T16:01:28Z</time>
      </trkpt>
      <trkpt lat="44.0310870" lon="-91.6560930">
        <ele>297.1800000</ele>
        <time>2009-06-28T16:01:29Z</time>
      </trkpt>
      <trkpt lat="44.0309580" lon="-91.6561420">
        <ele>297.6700000</ele>
        <time>2009-06-28T16:01:30Z</time>
      </trkpt>
      <trkpt lat="44.0305950" lon="-91.6562930">
        <ele>303.4300000</ele>
        <time>2009-06-28T16:01:33Z</time>
      </trkpt>
      <trkpt lat="44.0304800" lon="-91.6563500">
        <ele>305.3600000</ele>
        <time>2009-06-28T16:01:34Z</time>
      </trkpt>
      <trkpt lat="44.0304040" lon="-91.6564680">
        <ele>307.2800000</ele>
        <time>2009-06-28T16:01:35Z</time>
      </trkpt>
      <trkpt lat="44.0303290" lon="-91.6566180">
        <ele>309.6800000</ele>
        <time>2009-06-28T16:01:36Z</time>
      </trkpt>
      <trkpt lat="44.0302580" lon="-91.6568050">
        <ele>310.6400000</ele>
        <time>2009-06-28T16:01:37Z</time>
      </trkpt>
      <trkpt lat="44.0302000" lon="-91.6570170">
        <ele>312.0900000</ele>
        <time>2009-06-28T16:01:38Z</time>
      </trkpt>
      <trkpt lat="44.0301630" lon="-91.6572240">
        <ele>313.5300000</ele>
        <time>2009-06-28T16:01:39Z</time>
      </trkpt>
      <trkpt lat="44.0301910" lon="-91.6574160">
        <ele>315.4500000</ele>
        <time>2009-06-28T16:01:40Z</time>
      </trkpt>
      <trkpt lat="44.0302180" lon="-91.6576080">
        <ele>316.4100000</ele>
        <time>2009-06-28T16:01:41Z</time>
      </trkpt>
      <trkpt lat="44.0302460" lon="-91.6577990">
        <ele>317.3700000</ele>
        <time>2009-06-28T16:01:42Z</time>
      </trkpt>
      <trkpt lat="44.0302730" lon="-91.6579930">
        <ele>318.8100000</ele>
        <time>2009-06-28T16:01:43Z</time>
      </trkpt>
      <trkpt lat="44.0303280" lon="-91.6583790">
        <ele>322.1800000</ele>
        <time>2009-06-28T16:01:45Z</time>
      </trkpt>
      <trkpt lat="44.0303050" lon="-91.6585290">
        <ele>323.1400000</ele>
        <time>2009-06-28T16:01:46Z</time>
      </trkpt>
      <trkpt lat="44.0302810" lon="-91.6586840">
        <ele>323.6200000</ele>
        <time>2009-06-28T16:01:47Z</time>
      </trkpt>
      <trkpt lat="44.0302560" lon="-91.6588510">
        <ele>325.0600000</ele>
        <time>2009-06-28T16:01:48Z</time>
      </trkpt>
      <trkpt lat="44.0302220" lon="-91.6589980">
        <ele>326.9900000</ele>
        <time>2009-06-28T16:01:49Z</time>
      </trkpt>
      <trkpt lat="44.0301740" lon="-91.6591430">
        <ele>327.9500000</ele>
        <time>2009-06-28T16:01:50Z</time>
      </trkpt>
      <trkpt lat="44.0301150" lon="-91.6592640">
        <ele>329.3900000</ele>
        <time>2009-06-28T16:01:51Z</time>
      </trkpt>
      <trkpt lat="44.0300410" lon="-91.6593870">
        <ele>330.3500000</ele>
        <time>2009-06-28T16:01:52Z</time>
      </trkpt>
      <trkpt lat="44.0299540" lon="-91.6594830">
        <ele>332.2700000</ele>
        <time>2009-06-28T16:01:53Z</time>
      </trkpt>
      <trkpt lat="44.0298560" lon="-91.6595810">
        <ele>333.7100000</ele>
        <time>2009-06-28T16:01:54Z</time>
      </trkpt>
      <trkpt lat="44.0297570" lon="-91.6596800">
        <ele>334.6800000</ele>
        <time>2009-06-28T16:01:55Z</time>
      </trkpt>
      <trkpt lat="44.0296460" lon="-91.6597420">
        <ele>335.1600000</ele>
        <time>2009-06-28T16:01:56Z</time>
      </trkpt>
      <trkpt lat="44.0295250" lon="-91.6597900">
        <ele>335.6400000</ele>
        <time>2009-06-28T16:01:57Z</time>
      </trkpt>
      <trkpt lat="44.0294120" lon="-91.6598090">
        <ele>336.1200000</ele>
        <time>2009-06-28T16:01:58Z</time>
      </trkpt>
      <trkpt lat="44.0292970" lon="-91.6598260">
        <ele>336.6000000</ele>
        <time>2009-06-28T16:01:59Z</time>
      </trkpt>
      <trkpt lat="44.0291930" lon="-91.6598410">
        <ele>337.5600000</ele>
        <time>2009-06-28T16:02:00Z</time>
      </trkpt>
      <trkpt lat="44.0289460" lon="-91.6598760">
        <ele>337.5600000</ele>
        <time>2009-06-28T16:02:03Z</time>
      </trkpt>
      <trkpt lat="44.0288970" lon="-91.6598960">
        <ele>336.6000000</ele>
        <time>2009-06-28T16:02:04Z</time>
      </trkpt>
      <trkpt lat="44.0288690" lon="-91.6599240">
        <ele>337.5600000</ele>
        <time>2009-06-28T16:02:05Z</time>
      </trkpt>
      <trkpt lat="44.0287990" lon="-91.6598060">
        <ele>338.0400000</ele>
        <time>2009-06-28T16:02:06Z</time>
      </trkpt>
      <trkpt lat="44.0287510" lon="-91.6597270">
        <ele>337.5600000</ele>
        <time>2009-06-28T16:02:07Z</time>
      </trkpt>
      <trkpt lat="44.0286710" lon="-91.6596450">
        <ele>338.5200000</ele>
        <time>2009-06-28T16:02:08Z</time>
      </trkpt>
      <trkpt lat="44.0281920" lon="-91.6592030">
        <ele>343.3300000</ele>
        <time>2009-06-28T16:02:14Z</time>
      </trkpt>
      <trkpt lat="44.0281400" lon="-91.6591080">
        <ele>344.7700000</ele>
        <time>2009-06-28T16:02:15Z</time>
      </trkpt>
      <trkpt lat="44.0280950" lon="-91.6590170">
        <ele>345.7300000</ele>
        <time>2009-06-28T16:02:16Z</time>
      </trkpt>
      <trkpt lat="44.0280710" lon="-91.6589110">
        <ele>347.1700000</ele>
        <time>2009-06-28T16:02:17Z</time>
      </trkpt>
      <trkpt lat="44.0280460" lon="-91.6588090">
        <ele>348.1300000</ele>
        <time>2009-06-28T16:02:18Z</time>
      </trkpt>
      <trkpt lat="44.0280230" lon="-91.6587090">
        <ele>349.5800000</ele>
        <time>2009-06-28T16:02:19Z</time>
      </trkpt>
      <trkpt lat="44.0279990" lon="-91.6586070">
        <ele>350.5400000</ele>
        <time>2009-06-28T16:02:20Z</time>
      </trkpt>
      <trkpt lat="44.0279750" lon="-91.6585050">
        <ele>351.9800000</ele>
        <time>2009-06-28T16:02:21Z</time>
      </trkpt>
      <trkpt lat="44.0279510" lon="-91.6584010">
        <ele>352.9400000</ele>
        <time>2009-06-28T16:02:22Z</time>
      </trkpt>
      <trkpt lat="44.0279250" lon="-91.6582930">
        <ele>353.9000000</ele>
        <time>2009-06-28T16:02:23Z</time>
      </trkpt>
      <trkpt lat="44.0279360" lon="-91.6581790">
        <ele>354.8600000</ele>
        <time>2009-06-28T16:02:24Z</time>
      </trkpt>
      <trkpt lat="44.0279490" lon="-91.6580520">
        <ele>356.3100000</ele>
        <time>2009-06-28T16:02:25Z</time>
      </trkpt>
      <trkpt lat="44.0279630" lon="-91.6579170">
        <ele>356.7900000</ele>
        <time>2009-06-28T16:02:26Z</time>
      </trkpt>
      <trkpt lat="44.0279820" lon="-91.6577800">
        <ele>357.2700000</ele>
        <time>2009-06-28T16:02:27Z</time>
      </trkpt>
      <trkpt lat="44.0283130" lon="-91.6557270">
        <ele>361.1100000</ele>
        <time>2009-06-28T16:02:40Z</time>
      </trkpt>
      <trkpt lat="44.0284800" lon="-91.6550580">
        <ele>360.6300000</ele>
        <time>2009-06-28T16:02:45Z</time>
      </trkpt>
      <trkpt lat="44.0285400" lon="-91.6549530">
        <ele>360.6300000</ele>
        <time>2009-06-28T16:02:46Z</time>
      </trkpt>
      <trkpt lat="44.0286010" lon="-91.6548540">
        <ele>360.6300000</ele>
        <time>2009-06-28T16:02:47Z</time>
      </trkpt>
      <trkpt lat="44.0286660" lon="-91.6547560">
        <ele>360.1500000</ele>
        <time>2009-06-28T16:02:48Z</time>
      </trkpt>
      <trkpt lat="44.0287310" lon="-91.6546600">
        <ele>359.6700000</ele>
        <time>2009-06-28T16:02:49Z</time>
      </trkpt>
      <trkpt lat="44.0287960" lon="-91.6545620">
        <ele>359.6700000</ele>
        <time>2009-06-28T16:02:50Z</time>
      </trkpt>
      <trkpt lat="44.0294380" lon="-91.6540620">
        <ele>359.1900000</ele>
        <time>2009-06-28T16:02:57Z</time>
      </trkpt>
      <trkpt lat="44.0296510" lon="-91.6539640">
        <ele>359.1900000</ele>
        <time>2009-06-28T16:02:59Z</time>
      </trkpt>
      <trkpt lat="44.0297580" lon="-91.6539140">
        <ele>359.6700000</ele>
        <time>2009-06-28T16:03:00Z</time>
      </trkpt>
      <trkpt lat="44.0306310" lon="-91.6534840">
        <ele>361.1100000</ele>
        <time>2009-06-28T16:03:08Z</time>
      </trkpt>
      <trkpt lat="44.0307090" lon="-91.6533770">
        <ele>361.5900000</ele>
        <time>2009-06-28T16:03:09Z</time>
      </trkpt>
      <trkpt lat="44.0307740" lon="-91.6532590">
        <ele>361.5900000</ele>
        <time>2009-06-28T16:03:10Z</time>
      </trkpt>
      <trkpt lat="44.0308380" lon="-91.6531430">
        <ele>361.5900000</ele>
        <time>2009-06-28T16:03:11Z</time>
      </trkpt>
      <trkpt lat="44.0308900" lon="-91.6530190">
        <ele>362.0700000</ele>
        <time>2009-06-28T16:03:12Z</time>
      </trkpt>
      <trkpt lat="44.0309020" lon="-91.6528750">
        <ele>362.0700000</ele>
        <time>2009-06-28T16:03:13Z</time>
      </trkpt>
      <trkpt lat="44.0309150" lon="-91.6527310">
        <ele>362.5500000</ele>
        <time>2009-06-28T16:03:14Z</time>
      </trkpt>
      <trkpt lat="44.0309700" lon="-91.6520900">
        <ele>363.5200000</ele>
        <time>2009-06-28T16:03:19Z</time>
      </trkpt>
      <trkpt lat="44.0309720" lon="-91.6520700">
        <ele>363.5200000</ele>
        <time>2009-06-28T16:03:20Z</time>
      </trkpt>
      <trkpt lat="44.0309720" lon="-91.6520700">
        <ele>363.5200000</ele>
        <time>2009-06-28T16:03:21Z</time>
      </trkpt>
      <trkpt lat="44.0309720" lon="-91.6520700">
        <ele>363.5200000</ele>
        <time>2009-06-28T16:03:22Z</time>
      </trkpt>
      <trkpt lat="44.0309720" lon="-91.6520700">
        <ele>362.5500000</ele>
        <time>2009-06-28T16:03:24Z</time>
      </trkpt>
      <trkpt lat="44.0314310" lon="-91.6514920">
        <ele>361.5900000</ele>
        <time>2009-06-28T16:03:26Z</time>
      </trkpt>
      <trkpt lat="44.0315290" lon="-91.6514240">
        <ele>361.1100000</ele>
        <time>2009-06-28T16:03:27Z</time>
      </trkpt>
      <trkpt lat="44.0316290" lon="-91.6513550">
        <ele>360.6300000</ele>
        <time>2009-06-28T16:03:28Z</time>
      </trkpt>
      <trkpt lat="44.0317280" lon="-91.6512860">
        <ele>360.1500000</ele>
        <time>2009-06-28T16:03:29Z</time>
      </trkpt>
      <trkpt lat="44.0318280" lon="-91.6512170">
        <ele>359.6700000</ele>
        <time>2009-06-28T16:03:30Z</time>
      </trkpt>
      <trkpt lat="44.0319270" lon="-91.6511490">
        <ele>359.1900000</ele>
        <time>2009-06-28T16:03:31Z</time>
      </trkpt>
      <trkpt lat="44.0320250" lon="-91.6511100">
        <ele>358.7100000</ele>
        <time>2009-06-28T16:03:32Z</time>
      </trkpt>
      <trkpt lat="44.0324420" lon="-91.6510870">
        <ele>355.8300000</ele>
        <time>2009-06-28T16:03:36Z</time>
      </trkpt>
      <trkpt lat="44.0325390" lon="-91.6511190">
        <ele>355.3400000</ele>
        <time>2009-06-28T16:03:37Z</time>
      </trkpt>
      <trkpt lat="44.0326310" lon="-91.6511500">
        <ele>354.8600000</ele>
        <time>2009-06-28T16:03:38Z</time>
      </trkpt>
      <trkpt lat="44.0328960" lon="-91.6513140">
        <ele>355.3400000</ele>
        <time>2009-06-28T16:03:42Z</time>
      </trkpt>
      <trkpt lat="44.0333600" lon="-91.6514430">
        <ele>357.2700000</ele>
        <time>2009-06-28T16:03:53Z</time>
      </trkpt>
      <trkpt lat="44.0334250" lon="-91.6514330">
        <ele>357.7500000</ele>
        <time>2009-06-28T16:03:58Z</time>
      </trkpt>
      <trkpt lat="44.0334350" lon="-91.6514350">
        <ele>358.2300000</ele>
        <time>2009-06-28T16:04:01Z</time>
      </trkpt>
      <trkpt lat="44.0334180" lon="-91.6515320">
        <ele>363.0400000</ele>
        <time>2009-06-28T16:04:12Z</time>
      </trkpt>
      <trkpt lat="44.0334130" lon="-91.6515270">
        <ele>364.4800000</ele>
        <time>2009-06-28T16:04:18Z</time>
      </trkpt>
      <trkpt lat="44.0304810" lon="-91.6535780">
        <ele>364.4800000</ele>
        <time>2009-06-28T16:16:28Z</time>
      </trkpt>
      <trkpt lat="44.0302000" lon="-91.6537090">
        <ele>361.5900000</ele>
        <time>2009-06-28T16:16:31Z</time>
      </trkpt>
      <trkpt lat="44.0289380" lon="-91.6544300">
        <ele>357.2700000</ele>
        <time>2009-06-28T16:16:43Z</time>
      </trkpt>
      <trkpt lat="44.0285860" lon="-91.6548760">
        <ele>361.5900000</ele>
        <time>2009-06-28T16:16:48Z</time>
      </trkpt>
      <trkpt lat="44.0285320" lon="-91.6549680">
        <ele>362.5500000</ele>
        <time>2009-06-28T16:16:49Z</time>
      </trkpt>
      <trkpt lat="44.0284750" lon="-91.6550670">
        <ele>363.0400000</ele>
        <time>2009-06-28T16:16:50Z</time>
      </trkpt>
      <trkpt lat="44.0284170" lon="-91.6551690">
        <ele>363.0400000</ele>
        <time>2009-06-28T16:16:51Z</time>
      </trkpt>
      <trkpt lat="44.0283810" lon="-91.6553060">
        <ele>364.0000000</ele>
        <time>2009-06-28T16:16:52Z</time>
      </trkpt>
      <trkpt lat="44.0283600" lon="-91.6554360">
        <ele>364.0000000</ele>
        <time>2009-06-28T16:16:53Z</time>
      </trkpt>
      <trkpt lat="44.0283390" lon="-91.6555680">
        <ele>364.4800000</ele>
        <time>2009-06-28T16:16:54Z</time>
      </trkpt>
      <trkpt lat="44.0279540" lon="-91.6580030">
        <ele>367.3600000</ele>
        <time>2009-06-28T16:17:11Z</time>
      </trkpt>
      <trkpt lat="44.0279530" lon="-91.6584110">
        <ele>365.4400000</ele>
        <time>2009-06-28T16:17:14Z</time>
      </trkpt>
      <trkpt lat="44.0279830" lon="-91.6585380">
        <ele>364.4800000</ele>
        <time>2009-06-28T16:17:15Z</time>
      </trkpt>
      <trkpt lat="44.0280140" lon="-91.6586690">
        <ele>363.5200000</ele>
        <time>2009-06-28T16:17:16Z</time>
      </trkpt>
      <trkpt lat="44.0280450" lon="-91.6588030">
        <ele>362.5500000</ele>
        <time>2009-06-28T16:17:17Z</time>
      </trkpt>
      <trkpt lat="44.0280760" lon="-91.6589360">
        <ele>361.5900000</ele>
        <time>2009-06-28T16:17:18Z</time>
      </trkpt>
      <trkpt lat="44.0281140" lon="-91.6590580">
        <ele>360.1500000</ele>
        <time>2009-06-28T16:17:19Z</time>
      </trkpt>
      <trkpt lat="44.0281710" lon="-91.6591720">
        <ele>359.1900000</ele>
        <time>2009-06-28T16:17:20Z</time>
      </trkpt>
      <trkpt lat="44.0282430" lon="-91.6592500">
        <ele>358.2300000</ele>
        <time>2009-06-28T16:17:21Z</time>
      </trkpt>
      <trkpt lat="44.0283160" lon="-91.6593180">
        <ele>357.2700000</ele>
        <time>2009-06-28T16:17:22Z</time>
      </trkpt>
      <trkpt lat="44.0284510" lon="-91.6594420">
        <ele>354.3800000</ele>
        <time>2009-06-28T16:17:24Z</time>
      </trkpt>
      <trkpt lat="44.0285170" lon="-91.6595030">
        <ele>353.4200000</ele>
        <time>2009-06-28T16:17:25Z</time>
      </trkpt>
      <trkpt lat="44.0288930" lon="-91.6599000">
        <ele>348.1300000</ele>
        <time>2009-06-28T16:17:33Z</time>
      </trkpt>
      <trkpt lat="44.0289120" lon="-91.6598810">
        <ele>347.6500000</ele>
        <time>2009-06-28T16:17:34Z</time>
      </trkpt>
      <trkpt lat="44.0289720" lon="-91.6598720">
        <ele>347.1700000</ele>
        <time>2009-06-28T16:17:35Z</time>
      </trkpt>
      <trkpt lat="44.0294880" lon="-91.6597990">
        <ele>343.8100000</ele>
        <time>2009-06-28T16:17:40Z</time>
      </trkpt>
      <trkpt lat="44.0296120" lon="-91.6597560">
        <ele>343.3300000</ele>
        <time>2009-06-28T16:17:41Z</time>
      </trkpt>
      <trkpt lat="44.0297390" lon="-91.6596980">
        <ele>341.8900000</ele>
        <time>2009-06-28T16:17:42Z</time>
      </trkpt>
      <trkpt lat="44.0298460" lon="-91.6595900">
        <ele>340.4400000</ele>
        <time>2009-06-28T16:17:43Z</time>
      </trkpt>
      <trkpt lat="44.0299560" lon="-91.6594810">
        <ele>339.0000000</ele>
        <time>2009-06-28T16:17:44Z</time>
      </trkpt>
      <trkpt lat="44.0300580" lon="-91.6593590">
        <ele>337.0800000</ele>
        <time>2009-06-28T16:17:45Z</time>
      </trkpt>
      <trkpt lat="44.0301460" lon="-91.6592120">
        <ele>334.6800000</ele>
        <time>2009-06-28T16:17:46Z</time>
      </trkpt>
      <trkpt lat="44.0302090" lon="-91.6590360">
        <ele>332.7500000</ele>
        <time>2009-06-28T16:17:47Z</time>
      </trkpt>
      <trkpt lat="44.0302560" lon="-91.6588460">
        <ele>330.3500000</ele>
        <time>2009-06-28T16:17:48Z</time>
      </trkpt>
      <trkpt lat="44.0302880" lon="-91.6586430">
        <ele>328.4300000</ele>
        <time>2009-06-28T16:17:49Z</time>
      </trkpt>
      <trkpt lat="44.0303180" lon="-91.6584430">
        <ele>326.0200000</ele>
        <time>2009-06-28T16:17:50Z</time>
      </trkpt>
      <trkpt lat="44.0303090" lon="-91.6582440">
        <ele>324.5800000</ele>
        <time>2009-06-28T16:17:51Z</time>
      </trkpt>
      <trkpt lat="44.0302840" lon="-91.6580690">
        <ele>323.1400000</ele>
        <time>2009-06-28T16:17:52Z</time>
      </trkpt>
      <trkpt lat="44.0302620" lon="-91.6579110">
        <ele>321.2200000</ele>
        <time>2009-06-28T16:17:53Z</time>
      </trkpt>
      <trkpt lat="44.0302400" lon="-91.6577630">
        <ele>319.7800000</ele>
        <time>2009-06-28T16:17:54Z</time>
      </trkpt>
      <trkpt lat="44.0301980" lon="-91.6574640">
        <ele>316.4100000</ele>
        <time>2009-06-28T16:17:56Z</time>
      </trkpt>
      <trkpt lat="44.0301760" lon="-91.6573140">
        <ele>314.4900000</ele>
        <time>2009-06-28T16:17:57Z</time>
      </trkpt>
      <trkpt lat="44.0301590" lon="-91.6571670">
        <ele>313.0500000</ele>
        <time>2009-06-28T16:17:58Z</time>
      </trkpt>
      <trkpt lat="44.0301990" lon="-91.6570210">
        <ele>311.1200000</ele>
        <time>2009-06-28T16:17:59Z</time>
      </trkpt>
      <trkpt lat="44.0302410" lon="-91.6568680">
        <ele>309.2000000</ele>
        <time>2009-06-28T16:18:00Z</time>
      </trkpt>
      <trkpt lat="44.0302840" lon="-91.6567090">
        <ele>307.7600000</ele>
        <time>2009-06-28T16:18:01Z</time>
      </trkpt>
      <trkpt lat="44.0303470" lon="-91.6565820">
        <ele>306.3200000</ele>
        <time>2009-06-28T16:18:02Z</time>
      </trkpt>
      <trkpt lat="44.0304170" lon="-91.6564430">
        <ele>305.8400000</ele>
        <time>2009-06-28T16:18:03Z</time>
      </trkpt>
      <trkpt lat="44.0304870" lon="-91.6563470">
        <ele>305.3600000</ele>
        <time>2009-06-28T16:18:04Z</time>
      </trkpt>
      <trkpt lat="44.0306030" lon="-91.6562890">
        <ele>304.8800000</ele>
        <time>2009-06-28T16:18:05Z</time>
      </trkpt>
      <trkpt lat="44.0307230" lon="-91.6562300">
        <ele>304.3900000</ele>
        <time>2009-06-28T16:18:06Z</time>
      </trkpt>
      <trkpt lat="44.0308510" lon="-91.6561820">
        <ele>303.4300000</ele>
        <time>2009-06-28T16:18:07Z</time>
      </trkpt>
      <trkpt lat="44.0309890" lon="-91.6561300">
        <ele>302.9500000</ele>
        <time>2009-06-28T16:18:08Z</time>
      </trkpt>
      <trkpt lat="44.0311260" lon="-91.6560790">
        <ele>302.4700000</ele>
        <time>2009-06-28T16:18:09Z</time>
      </trkpt>
      <trkpt lat="44.0320100" lon="-91.6554130">
        <ele>292.3800000</ele>
        <time>2009-06-28T16:18:16Z</time>
      </trkpt>
      <trkpt lat="44.0321030" lon="-91.6552800">
        <ele>289.9700000</ele>
        <time>2009-06-28T16:18:17Z</time>
      </trkpt>
      <trkpt lat="44.0321950" lon="-91.6551480">
        <ele>288.5300000</ele>
        <time>2009-06-28T16:18:18Z</time>
      </trkpt>
      <trkpt lat="44.0322670" lon="-91.6549940">
        <ele>286.6100000</ele>
        <time>2009-06-28T16:18:19Z</time>
      </trkpt>
      <trkpt lat="44.0323350" lon="-91.6548300">
        <ele>285.1700000</ele>
        <time>2009-06-28T16:18:20Z</time>
      </trkpt>
      <trkpt lat="44.0323990" lon="-91.6546740">
        <ele>283.7300000</ele>
        <time>2009-06-28T16:18:21Z</time>
      </trkpt>
      <trkpt lat="44.0326100" lon="-91.6542850">
        <ele>278.9200000</ele>
        <time>2009-06-28T16:18:24Z</time>
      </trkpt>
      <trkpt lat="44.0327000" lon="-91.6541840">
        <ele>277.4800000</ele>
        <time>2009-06-28T16:18:25Z</time>
      </trkpt>
      <trkpt lat="44.0327950" lon="-91.6540790">
        <ele>276.0400000</ele>
        <time>2009-06-28T16:18:26Z</time>
      </trkpt>
      <trkpt lat="44.0328880" lon="-91.6539750">
        <ele>274.5900000</ele>
        <time>2009-06-28T16:18:27Z</time>
      </trkpt>
      <trkpt lat="44.0329950" lon="-91.6539220">
        <ele>273.6300000</ele>
        <time>2009-06-28T16:18:28Z</time>
      </trkpt>
      <trkpt lat="44.0331180" lon="-91.6538730">
        <ele>272.6700000</ele>
        <time>2009-06-28T16:18:29Z</time>
      </trkpt>
      <trkpt lat="44.0332430" lon="-91.6538950">
        <ele>271.2300000</ele>
        <time>2009-06-28T16:18:30Z</time>
      </trkpt>
      <trkpt lat="44.0333610" lon="-91.6539170">
        <ele>269.7900000</ele>
        <time>2009-06-28T16:18:31Z</time>
      </trkpt>
      <trkpt lat="44.0334740" lon="-91.6539370">
        <ele>267.8600000</ele>
        <time>2009-06-28T16:18:32Z</time>
      </trkpt>
      <trkpt lat="44.0337180" lon="-91.6540140">
        <ele>264.0200000</ele>
        <time>2009-06-28T16:18:34Z</time>
      </trkpt>
      <trkpt lat="44.0349030" lon="-91.6546770">
        <ele>252.9600000</ele>
        <time>2009-06-28T16:18:44Z</time>
      </trkpt>
      <trkpt lat="44.0351490" lon="-91.6547260">
        <ele>251.5200000</ele>
        <time>2009-06-28T16:18:46Z</time>
      </trkpt>
      <trkpt lat="44.0352700" lon="-91.6547310">
        <ele>250.0800000</ele>
        <time>2009-06-28T16:18:47Z</time>
      </trkpt>
      <trkpt lat="44.0354010" lon="-91.6547310">
        <ele>248.6400000</ele>
        <time>2009-06-28T16:18:48Z</time>
      </trkpt>
      <trkpt lat="44.0355380" lon="-91.6547160">
        <ele>246.7200000</ele>
        <time>2009-06-28T16:18:49Z</time>
      </trkpt>
      <trkpt lat="44.0356630" lon="-91.6546070">
        <ele>245.2700000</ele>
        <time>2009-06-28T16:18:50Z</time>
      </trkpt>
      <trkpt lat="44.0357790" lon="-91.6545050">
        <ele>244.3100000</ele>
        <time>2009-06-28T16:18:51Z</time>
      </trkpt>
      <trkpt lat="44.0358870" lon="-91.6543850">
        <ele>242.8700000</ele>
        <time>2009-06-28T16:18:52Z</time>
      </trkpt>
      <trkpt lat="44.0359690" lon="-91.6542220">
        <ele>240.4700000</ele>
        <time>2009-06-28T16:18:53Z</time>
      </trkpt>
      <trkpt lat="44.0360510" lon="-91.6540570">
        <ele>238.0600000</ele>
        <time>2009-06-28T16:18:54Z</time>
      </trkpt>
      <trkpt lat="44.0361310" lon="-91.6538970">
        <ele>235.6600000</ele>
        <time>2009-06-28T16:18:55Z</time>
      </trkpt>
      <trkpt lat="44.0362370" lon="-91.6535280">
        <ele>232.3000000</ele>
        <time>2009-06-28T16:18:57Z</time>
      </trkpt>
      <trkpt lat="44.0362800" lon="-91.6533450">
        <ele>230.8500000</ele>
        <time>2009-06-28T16:18:58Z</time>
      </trkpt>
      <trkpt lat="44.0363650" lon="-91.6529910">
        <ele>227.9700000</ele>
        <time>2009-06-28T16:19:00Z</time>
      </trkpt>
      <trkpt lat="44.0363860" lon="-91.6528070">
        <ele>226.5300000</ele>
        <time>2009-06-28T16:19:01Z</time>
      </trkpt>
      <trkpt lat="44.0363970" lon="-91.6526310">
        <ele>225.0900000</ele>
        <time>2009-06-28T16:19:02Z</time>
      </trkpt>
      <trkpt lat="44.0364070" lon="-91.6524590">
        <ele>223.1600000</ele>
        <time>2009-06-28T16:19:03Z</time>
      </trkpt>
      <trkpt lat="44.0364170" lon="-91.6522890">
        <ele>221.7200000</ele>
        <time>2009-06-28T16:19:04Z</time>
      </trkpt>
      <trkpt lat="44.0364000" lon="-91.6508630">
        <ele>207.7800000</ele>
        <time>2009-06-28T16:19:13Z</time>
      </trkpt>
      <trkpt lat="44.0364510" lon="-91.6507450">
        <ele>206.8200000</ele>
        <time>2009-06-28T16:19:14Z</time>
      </trkpt>
      <trkpt lat="44.0365080" lon="-91.6506110">
        <ele>205.8600000</ele>
        <time>2009-06-28T16:19:16Z</time>
      </trkpt>
      <trkpt lat="44.0365370" lon="-91.6505970">
        <ele>205.3800000</ele>
        <time>2009-06-28T16:19:17Z</time>
      </trkpt>
      <trkpt lat="44.0365740" lon="-91.6505780">
        <ele>204.9000000</ele>
        <time>2009-06-28T16:19:18Z</time>
      </trkpt>
      <trkpt lat="44.0366010" lon="-91.6505640">
        <ele>204.4200000</ele>
        <time>2009-06-28T16:19:19Z</time>
      </trkpt>
      <trkpt lat="44.0366210" lon="-91.6505550">
        <ele>204.4200000</ele>
        <time>2009-06-28T16:19:20Z</time>
      </trkpt>
      <trkpt lat="44.0366400" lon="-91.6505450">
        <ele>203.9400000</ele>
        <time>2009-06-28T16:19:21Z</time>
      </trkpt>
      <trkpt lat="44.0366600" lon="-91.6505350">
        <ele>203.4600000</ele>
        <time>2009-06-28T16:19:22Z</time>
      </trkpt>
      <trkpt lat="44.0366890" lon="-91.6505210">
        <ele>202.9800000</ele>
        <time>2009-06-28T16:19:23Z</time>
      </trkpt>
      <trkpt lat="44.0367740" lon="-91.6505310">
        <ele>203.4600000</ele>
        <time>2009-06-28T16:19:24Z</time>
      </trkpt>
      <trkpt lat="44.0367940" lon="-91.6506480">
        <ele>204.4200000</ele>
        <time>2009-06-28T16:19:25Z</time>
      </trkpt>
      <trkpt lat="44.0368110" lon="-91.6507440">
        <ele>204.9000000</ele>
        <time>2009-06-28T16:19:26Z</time>
      </trkpt>
      <trkpt lat="44.0368320" lon="-91.6508660">
        <ele>205.3800000</ele>
        <time>2009-06-28T16:19:27Z</time>
      </trkpt>
      <trkpt lat="44.0368570" lon="-91.6510110">
        <ele>204.4200000</ele>
        <time>2009-06-28T16:19:28Z</time>
      </trkpt>
      <trkpt lat="44.0369680" lon="-91.6516550">
        <ele>202.9800000</ele>
        <time>2009-06-28T16:19:32Z</time>
      </trkpt>
      <trkpt lat="44.0370910" lon="-91.6520870">
        <ele>200.5700000</ele>
        <time>2009-06-28T16:19:38Z</time>
      </trkpt>
      <trkpt lat="44.0371880" lon="-91.6522650">
        <ele>201.5300000</ele>
        <time>2009-06-28T16:19:41Z</time>
      </trkpt>
      <trkpt lat="44.0372810" lon="-91.6522140">
        <ele>200.0900000</ele>
        <time>2009-06-28T16:19:44Z</time>
      </trkpt>
      <trkpt lat="44.0372810" lon="-91.6522140">
        <ele>198.1700000</ele>
        <time>2009-06-28T16:19:57Z</time>
      </trkpt>
      <trkpt lat="44.0374930" lon="-91.6520990">
        <ele>193.8400000</ele>
        <time>2009-06-28T16:20:57Z</time>
      </trkpt>
      <trkpt lat="44.0384950" lon="-91.6515240">
        <ele>193.8400000</ele>
        <time>2009-06-28T16:21:07Z</time>
      </trkpt>
      <trkpt lat="44.0398800" lon="-91.6507880">
        <ele>194.8000000</ele>
        <time>2009-06-28T16:21:20Z</time>
      </trkpt>
      <trkpt lat="44.0418860" lon="-91.6497470">
        <ele>194.3200000</ele>
        <time>2009-06-28T16:21:36Z</time>
      </trkpt>
      <trkpt lat="44.0440740" lon="-91.6485750">
        <ele>192.4000000</ele>
        <time>2009-06-28T16:21:55Z</time>
      </trkpt>
      <trkpt lat="44.0443960" lon="-91.6484210">
        <ele>190.4800000</ele>
        <time>2009-06-28T16:22:01Z</time>
      </trkpt>
      <trkpt lat="44.0446440" lon="-91.6482310">
        <ele>190.9600000</ele>
        <time>2009-06-28T16:22:08Z</time>
      </trkpt>
      <trkpt lat="44.0446300" lon="-91.6481830">
        <ele>191.4400000</ele>
        <time>2009-06-28T16:22:09Z</time>
      </trkpt>
      <trkpt lat="44.0446090" lon="-91.6481110">
        <ele>191.4400000</ele>
        <time>2009-06-28T16:22:10Z</time>
      </trkpt>
      <trkpt lat="44.0445800" lon="-91.6480120">
        <ele>190.9600000</ele>
        <time>2009-06-28T16:22:11Z</time>
      </trkpt>
      <trkpt lat="44.0445480" lon="-91.6479000">
        <ele>190.9600000</ele>
        <time>2009-06-28T16:22:12Z</time>
      </trkpt>
      <trkpt lat="44.0441640" lon="-91.6465660">
        <ele>189.0400000</ele>
        <time>2009-06-28T16:22:21Z</time>
      </trkpt>
      <trkpt lat="44.0434430" lon="-91.6439590">
        <ele>189.0400000</ele>
        <time>2009-06-28T16:22:38Z</time>
      </trkpt>
      <trkpt lat="44.0432110" lon="-91.6431870">
        <ele>189.0400000</ele>
        <time>2009-06-28T16:22:46Z</time>
      </trkpt>
      <trkpt lat="44.0431210" lon="-91.6428680">
        <ele>197.6900000</ele>
        <time>2009-06-28T16:22:53Z</time>
      </trkpt>
      <trkpt lat="44.0428700" lon="-91.6419200">
        <ele>202.0100000</ele>
        <time>2009-06-28T16:23:00Z</time>
      </trkpt>
      <trkpt lat="44.0421200" lon="-91.6392550">
        <ele>198.1700000</ele>
        <time>2009-06-28T16:23:17Z</time>
      </trkpt>
      <trkpt lat="44.0410590" lon="-91.6355650">
        <ele>199.1300000</ele>
        <time>2009-06-28T16:23:41Z</time>
      </trkpt>
      <trkpt lat="44.0402200" lon="-91.6325790">
        <ele>193.8400000</ele>
        <time>2009-06-28T16:23:58Z</time>
      </trkpt>
      <trkpt lat="44.0395340" lon="-91.6301390">
        <ele>190.9600000</ele>
        <time>2009-06-28T16:24:12Z</time>
      </trkpt>
      <trkpt lat="44.0386450" lon="-91.6269100">
        <ele>189.5200000</ele>
        <time>2009-06-28T16:24:30Z</time>
      </trkpt>
      <trkpt lat="44.0384410" lon="-91.6261840">
        <ele>192.8800000</ele>
        <time>2009-06-28T16:24:37Z</time>
      </trkpt>
      <trkpt lat="44.0384330" lon="-91.6261530">
        <ele>193.8400000</ele>
        <time>2009-06-28T16:24:38Z</time>
      </trkpt>
      <trkpt lat="44.0385820" lon="-91.6260600">
        <ele>197.6900000</ele>
        <time>2009-06-28T16:24:44Z</time>
      </trkpt>
      <trkpt lat="44.0386750" lon="-91.6261240">
        <ele>196.2500000</ele>
        <time>2009-06-28T16:24:56Z</time>
      </trkpt>
      <trkpt lat="44.0386500" lon="-91.6261480">
        <ele>196.2500000</ele>
        <time>2009-06-28T16:25:28Z</time>
      </trkpt>
      <trkpt lat="44.0386400" lon="-91.6261000">
        <ele>204.4200000</ele>
        <time>2009-06-28T17:13:19Z</time>
      </trkpt>
      <trkpt lat="44.0385170" lon="-91.6261920">
        <ele>200.5700000</ele>
        <time>2009-06-28T17:13:28Z</time>
      </trkpt>
      <trkpt lat="44.0384740" lon="-91.6263000">
        <ele>196.7300000</ele>
        <time>2009-06-28T17:13:32Z</time>
      </trkpt>
      <trkpt lat="44.0384940" lon="-91.6263720">
        <ele>197.2100000</ele>
        <time>2009-06-28T17:13:33Z</time>
      </trkpt>
      <trkpt lat="44.0385180" lon="-91.6264560">
        <ele>197.2100000</ele>
        <time>2009-06-28T17:13:34Z</time>
      </trkpt>
      <trkpt lat="44.0385420" lon="-91.6265420">
        <ele>197.6900000</ele>
        <time>2009-06-28T17:13:35Z</time>
      </trkpt>
      <trkpt lat="44.0385650" lon="-91.6266220">
        <ele>197.6900000</ele>
        <time>2009-06-28T17:13:36Z</time>
      </trkpt>
      <trkpt lat="44.0385830" lon="-91.6266890">
        <ele>197.6900000</ele>
        <time>2009-06-28T17:13:37Z</time>
      </trkpt>
      <trkpt lat="44.0385990" lon="-91.6267460">
        <ele>197.6900000</ele>
        <time>2009-06-28T17:13:38Z</time>
      </trkpt>
      <trkpt lat="44.0386210" lon="-91.6268230">
        <ele>202.4900000</ele>
        <time>2009-06-28T17:13:46Z</time>
      </trkpt>
      <trkpt lat="44.0386450" lon="-91.6269080">
        <ele>213.0700000</ele>
        <time>2009-06-28T17:14:12Z</time>
      </trkpt>
      <trkpt lat="44.0386630" lon="-91.6269720">
        <ele>214.5100000</ele>
        <time>2009-06-28T17:14:21Z</time>
      </trkpt>
      <trkpt lat="44.0387330" lon="-91.6272290">
        <ele>215.4700000</ele>
        <time>2009-06-28T17:14:30Z</time>
      </trkpt>
      <trkpt lat="44.0390460" lon="-91.6284030">
        <ele>217.8800000</ele>
        <time>2009-06-28T17:14:41Z</time>
      </trkpt>
      <trkpt lat="44.0395640" lon="-91.6302460">
        <ele>219.3200000</ele>
        <time>2009-06-28T17:14:54Z</time>
      </trkpt>
      <trkpt lat="44.0402650" lon="-91.6327400">
        <ele>219.8000000</ele>
        <time>2009-06-28T17:15:10Z</time>
      </trkpt>
      <trkpt lat="44.0406540" lon="-91.6341220">
        <ele>219.3200000</ele>
        <time>2009-06-28T17:15:21Z</time>
      </trkpt>
      <trkpt lat="44.0411190" lon="-91.6357780">
        <ele>218.3600000</ele>
        <time>2009-06-28T17:15:34Z</time>
      </trkpt>
      <trkpt lat="44.0418020" lon="-91.6381480">
        <ele>219.3200000</ele>
        <time>2009-06-28T17:15:52Z</time>
      </trkpt>
      <trkpt lat="44.0424620" lon="-91.6404810">
        <ele>220.7600000</ele>
        <time>2009-06-28T17:16:08Z</time>
      </trkpt>
      <trkpt lat="44.0430320" lon="-91.6425330">
        <ele>219.3200000</ele>
        <time>2009-06-28T17:16:23Z</time>
      </trkpt>
      <trkpt lat="44.0431260" lon="-91.6428860">
        <ele>219.8000000</ele>
        <time>2009-06-28T17:16:30Z</time>
      </trkpt>
      <trkpt lat="44.0433160" lon="-91.6429260">
        <ele>218.3600000</ele>
        <time>2009-06-28T17:16:34Z</time>
      </trkpt>
      <trkpt lat="44.0433630" lon="-91.6428990">
        <ele>218.3600000</ele>
        <time>2009-06-28T17:16:35Z</time>
      </trkpt>
      <trkpt lat="44.0434210" lon="-91.6428660">
        <ele>218.3600000</ele>
        <time>2009-06-28T17:16:36Z</time>
      </trkpt>
      <trkpt lat="44.0434860" lon="-91.6428290">
        <ele>217.8800000</ele>
        <time>2009-06-28T17:16:37Z</time>
      </trkpt>
      <trkpt lat="44.0435630" lon="-91.6427850">
        <ele>217.8800000</ele>
        <time>2009-06-28T17:16:38Z</time>
      </trkpt>
      <trkpt lat="44.0444610" lon="-91.6422780">
        <ele>215.9500000</ele>
        <time>2009-06-28T17:16:47Z</time>
      </trkpt>
      <trkpt lat="44.0455870" lon="-91.6416640">
        <ele>214.9900000</ele>
        <time>2009-06-28T17:16:58Z</time>
      </trkpt>
      <trkpt lat="44.0477710" lon="-91.6405000">
        <ele>215.9500000</ele>
        <time>2009-06-28T17:17:17Z</time>
      </trkpt>
      <trkpt lat="44.0487510" lon="-91.6399650">
        <ele>217.4000000</ele>
        <time>2009-06-28T17:17:28Z</time>
      </trkpt>
      <trkpt lat="44.0489570" lon="-91.6398560">
        <ele>217.8800000</ele>
        <time>2009-06-28T17:17:39Z</time>
      </trkpt>
      <trkpt lat="44.0490860" lon="-91.6397890">
        <ele>217.8800000</ele>
        <time>2009-06-28T17:17:46Z</time>
      </trkpt>
      <trkpt lat="44.0493650" lon="-91.6396440">
        <ele>216.4300000</ele>
        <time>2009-06-28T17:18:04Z</time>
      </trkpt>
      <trkpt lat="44.0502830" lon="-91.6391440">
        <ele>215.9500000</ele>
        <time>2009-06-28T17:18:14Z</time>
      </trkpt>
      <trkpt lat="44.0506680" lon="-91.6389270">
        <ele>216.9100000</ele>
        <time>2009-06-28T17:18:22Z</time>
      </trkpt>
      <trkpt lat="44.0506680" lon="-91.6389270">
        <ele>213.5500000</ele>
        <time>2009-06-28T17:18:43Z</time>
      </trkpt>
      <trkpt lat="44.0508970" lon="-91.6388010">
        <ele>211.6300000</ele>
        <time>2009-06-28T17:18:58Z</time>
      </trkpt>
      <trkpt lat="44.0517400" lon="-91.6383610">
        <ele>212.5900000</ele>
        <time>2009-06-28T17:19:07Z</time>
      </trkpt>
      <trkpt lat="44.0518020" lon="-91.6383290">
        <ele>212.1100000</ele>
        <time>2009-06-28T17:19:08Z</time>
      </trkpt>
      <trkpt lat="44.0518450" lon="-91.6385480">
        <ele>212.1100000</ele>
        <time>2009-06-28T17:19:09Z</time>
      </trkpt>
      <trkpt lat="44.0518770" lon="-91.6386620">
        <ele>212.1100000</ele>
        <time>2009-06-28T17:19:10Z</time>
      </trkpt>
      <trkpt lat="44.0519110" lon="-91.6387830">
        <ele>212.1100000</ele>
        <time>2009-06-28T17:19:11Z</time>
      </trkpt>
      <trkpt lat="44.0519470" lon="-91.6389090">
        <ele>212.1100000</ele>
        <time>2009-06-28T17:19:12Z</time>
      </trkpt>
      <trkpt lat="44.0524610" lon="-91.6407060">
        <ele>213.0700000</ele>
        <time>2009-06-28T17:19:24Z</time>
      </trkpt>
      <trkpt lat="44.0526810" lon="-91.6415170">
        <ele>216.4300000</ele>
        <time>2009-06-28T17:19:32Z</time>
      </trkpt>
      <trkpt lat="44.0527430" lon="-91.6417560">
        <ele>219.8000000</ele>
        <time>2009-06-28T17:19:42Z</time>
      </trkpt>
      <trkpt lat="44.0528540" lon="-91.6421870">
        <ele>221.7200000</ele>
        <time>2009-06-28T17:19:56Z</time>
      </trkpt>
      <trkpt lat="44.0528740" lon="-91.6422620">
        <ele>221.7200000</ele>
        <time>2009-06-28T17:19:58Z</time>
      </trkpt>
      <trkpt lat="44.0530460" lon="-91.6422890">
        <ele>221.2400000</ele>
        <time>2009-06-28T17:19:59Z</time>
      </trkpt>
      <trkpt lat="44.0531130" lon="-91.6422510">
        <ele>220.7600000</ele>
        <time>2009-06-28T17:20:00Z</time>
      </trkpt>
      <trkpt lat="44.0531890" lon="-91.6422070">
        <ele>220.7600000</ele>
        <time>2009-06-28T17:20:01Z</time>
      </trkpt>
      <trkpt lat="44.0532760" lon="-91.6421570">
        <ele>220.7600000</ele>
        <time>2009-06-28T17:20:02Z</time>
      </trkpt>
      <trkpt lat="44.0542370" lon="-91.6416300">
        <ele>224.6100000</ele>
        <time>2009-06-28T17:20:09Z</time>
      </trkpt>
      <trkpt lat="44.0565290" lon="-91.6404260">
        <ele>233.7400000</ele>
        <time>2009-06-28T17:20:24Z</time>
      </trkpt>
      <trkpt lat="44.0578380" lon="-91.6397330">
        <ele>232.3000000</ele>
        <time>2009-06-28T17:20:35Z</time>
      </trkpt>
      <trkpt lat="44.0595030" lon="-91.6388480">
        <ele>224.6100000</ele>
        <time>2009-06-28T17:20:46Z</time>
      </trkpt>
      <trkpt lat="44.0622250" lon="-91.6374030">
        <ele>216.9100000</ele>
        <time>2009-06-28T17:21:01Z</time>
      </trkpt>
      <trkpt lat="44.0657650" lon="-91.6355200">
        <ele>215.4700000</ele>
        <time>2009-06-28T17:21:19Z</time>
      </trkpt>
      <trkpt lat="44.0687640" lon="-91.6339430">
        <ele>214.0300000</ele>
        <time>2009-06-28T17:21:35Z</time>
      </trkpt>
      <trkpt lat="44.0714480" lon="-91.6325330">
        <ele>218.8400000</ele>
        <time>2009-06-28T17:21:51Z</time>
      </trkpt>
      <trkpt lat="44.0721030" lon="-91.6321860">
        <ele>219.8000000</ele>
        <time>2009-06-28T17:21:57Z</time>
      </trkpt>
      <trkpt lat="44.0721620" lon="-91.6321530">
        <ele>219.8000000</ele>
        <time>2009-06-28T17:22:03Z</time>
      </trkpt>
      <trkpt lat="44.0723730" lon="-91.6320360">
        <ele>219.8000000</ele>
        <time>2009-06-28T17:22:14Z</time>
      </trkpt>
      <trkpt lat="44.0730330" lon="-91.6316740">
        <ele>219.8000000</ele>
        <time>2009-06-28T17:22:23Z</time>
      </trkpt>
      <trkpt lat="44.0731690" lon="-91.6315930">
        <ele>218.3600000</ele>
        <time>2009-06-28T17:22:30Z</time>
      </trkpt>
      <trkpt lat="44.0732970" lon="-91.6315160">
        <ele>218.3600000</ele>
        <time>2009-06-28T17:23:35Z</time>
      </trkpt>
      <trkpt lat="44.0733720" lon="-91.6314710">
        <ele>218.8400000</ele>
        <time>2009-06-28T17:23:36Z</time>
      </trkpt>
      <trkpt lat="44.0734080" lon="-91.6314570">
        <ele>218.8400000</ele>
        <time>2009-06-28T17:23:37Z</time>
      </trkpt>
      <trkpt lat="44.0734460" lon="-91.6317090">
        <ele>218.8400000</ele>
        <time>2009-06-28T17:23:38Z</time>
      </trkpt>
      <trkpt lat="44.0734840" lon="-91.6318330">
        <ele>218.3600000</ele>
        <time>2009-06-28T17:23:39Z</time>
      </trkpt>
      <trkpt lat="44.0735260" lon="-91.6319710">
        <ele>218.3600000</ele>
        <time>2009-06-28T17:23:40Z</time>
      </trkpt>
      <trkpt lat="44.0735670" lon="-91.6321110">
        <ele>217.8800000</ele>
        <time>2009-06-28T17:23:41Z</time>
      </trkpt>
      <trkpt lat="44.0738180" lon="-91.6330190">
        <ele>214.0300000</ele>
        <time>2009-06-28T17:23:50Z</time>
      </trkpt>
      <trkpt lat="44.0740500" lon="-91.6338560">
        <ele>214.0300000</ele>
        <time>2009-06-28T17:23:57Z</time>
      </trkpt>
      <trkpt lat="44.0745040" lon="-91.6354820">
        <ele>212.5900000</ele>
        <time>2009-06-28T17:24:06Z</time>
      </trkpt>
      <trkpt lat="44.0750760" lon="-91.6374020">
        <ele>211.6300000</ele>
        <time>2009-06-28T17:24:15Z</time>
      </trkpt>
      <trkpt lat="44.0755780" lon="-91.6389940">
        <ele>209.7000000</ele>
        <time>2009-06-28T17:24:23Z</time>
      </trkpt>
      <trkpt lat="44.0761830" lon="-91.6409140">
        <ele>208.7400000</ele>
        <time>2009-06-28T17:24:31Z</time>
      </trkpt>
      <trkpt lat="44.0772830" lon="-91.6437040">
        <ele>207.3000000</ele>
        <time>2009-06-28T17:24:42Z</time>
      </trkpt>
      <trkpt lat="44.0789420" lon="-91.6466990">
        <ele>207.3000000</ele>
        <time>2009-06-28T17:24:55Z</time>
      </trkpt>
      <trkpt lat="44.0811430" lon="-91.6506590">
        <ele>207.3000000</ele>
        <time>2009-06-28T17:25:11Z</time>
      </trkpt>
      <trkpt lat="44.0830790" lon="-91.6541260">
        <ele>204.9000000</ele>
        <time>2009-06-28T17:25:25Z</time>
      </trkpt>
      <trkpt lat="44.0849040" lon="-91.6578570">
        <ele>206.3400000</ele>
        <time>2009-06-28T17:25:39Z</time>
      </trkpt>
      <trkpt lat="44.0864990" lon="-91.6616620">
        <ele>210.6700000</ele>
        <time>2009-06-28T17:25:52Z</time>
      </trkpt>
      <trkpt lat="44.0876870" lon="-91.6634790">
        <ele>210.6700000</ele>
        <time>2009-06-28T17:26:00Z</time>
      </trkpt>
      <trkpt lat="44.0895290" lon="-91.6654030">
        <ele>209.7000000</ele>
        <time>2009-06-28T17:26:11Z</time>
      </trkpt>
      <trkpt lat="44.0920810" lon="-91.6676030">
        <ele>207.3000000</ele>
        <time>2009-06-28T17:26:24Z</time>
      </trkpt>
      <trkpt lat="44.0934700" lon="-91.6695570">
        <ele>206.3400000</ele>
        <time>2009-06-28T17:26:32Z</time>
      </trkpt>
      <trkpt lat="44.0945970" lon="-91.6720650">
        <ele>206.3400000</ele>
        <time>2009-06-28T17:26:41Z</time>
      </trkpt>
      <trkpt lat="44.0956190" lon="-91.6751270">
        <ele>210.6700000</ele>
        <time>2009-06-28T17:26:51Z</time>
      </trkpt>
      <trkpt lat="44.0967350" lon="-91.6769440">
        <ele>212.1100000</ele>
        <time>2009-06-28T17:26:58Z</time>
      </trkpt>
      <trkpt lat="44.0984180" lon="-91.6789800">
        <ele>205.8600000</ele>
        <time>2009-06-28T17:27:08Z</time>
      </trkpt>
      <trkpt lat="44.1011250" lon="-91.6821990">
        <ele>203.9400000</ele>
        <time>2009-06-28T17:27:24Z</time>
      </trkpt>
      <trkpt lat="44.1046500" lon="-91.6862470">
        <ele>208.7400000</ele>
        <time>2009-06-28T17:27:43Z</time>
      </trkpt>
      <trkpt lat="44.1068100" lon="-91.6877470">
        <ele>205.8600000</ele>
        <time>2009-06-28T17:27:53Z</time>
      </trkpt>
      <trkpt lat="44.1109030" lon="-91.6901560">
        <ele>205.3800000</ele>
        <time>2009-06-28T17:28:12Z</time>
      </trkpt>
      <trkpt lat="44.1155110" lon="-91.6928630">
        <ele>207.7800000</ele>
        <time>2009-06-28T17:28:34Z</time>
      </trkpt>
      <trkpt lat="44.1170890" lon="-91.6943720">
        <ele>209.7000000</ele>
        <time>2009-06-28T17:28:43Z</time>
      </trkpt>
      <trkpt lat="44.1183730" lon="-91.6964370">
        <ele>209.2200000</ele>
        <time>2009-06-28T17:28:52Z</time>
      </trkpt>
      <trkpt lat="44.1196490" lon="-91.6996510">
        <ele>210.1900000</ele>
        <time>2009-06-28T17:29:04Z</time>
      </trkpt>
      <trkpt lat="44.1212100" lon="-91.7034110">
        <ele>209.7000000</ele>
        <time>2009-06-28T17:29:19Z</time>
      </trkpt>
      <trkpt lat="44.1224770" lon="-91.7063580">
        <ele>211.1500000</ele>
        <time>2009-06-28T17:29:33Z</time>
      </trkpt>
      <trkpt lat="44.1242410" lon="-91.7100270">
        <ele>214.9900000</ele>
        <time>2009-06-28T17:29:52Z</time>
      </trkpt>
      <trkpt lat="44.1252320" lon="-91.7116090">
        <ele>210.6700000</ele>
        <time>2009-06-28T17:30:05Z</time>
      </trkpt>
      <trkpt lat="44.1257240" lon="-91.7123930">
        <ele>208.7400000</ele>
        <time>2009-06-28T17:30:13Z</time>
      </trkpt>
      <trkpt lat="44.1266230" lon="-91.7135060">
        <ele>208.2600000</ele>
        <time>2009-06-28T17:30:22Z</time>
      </trkpt>
      <trkpt lat="44.1277270" lon="-91.7144240">
        <ele>207.3000000</ele>
        <time>2009-06-28T17:30:33Z</time>
      </trkpt>
      <trkpt lat="44.1281800" lon="-91.7147900">
        <ele>203.9400000</ele>
        <time>2009-06-28T17:30:42Z</time>
      </trkpt>
      <trkpt lat="44.1287830" lon="-91.7152720">
        <ele>202.4900000</ele>
        <time>2009-06-28T17:30:53Z</time>
      </trkpt>
      <trkpt lat="44.1299930" lon="-91.7162570">
        <ele>203.9400000</ele>
        <time>2009-06-28T17:31:08Z</time>
      </trkpt>
      <trkpt lat="44.1300740" lon="-91.7163350">
        <ele>204.4200000</ele>
        <time>2009-06-28T17:31:09Z</time>
      </trkpt>
      <trkpt lat="44.1301370" lon="-91.7164490">
        <ele>204.9000000</ele>
        <time>2009-06-28T17:31:10Z</time>
      </trkpt>
      <trkpt lat="44.1302060" lon="-91.7165590">
        <ele>205.3800000</ele>
        <time>2009-06-28T17:31:11Z</time>
      </trkpt>
      <trkpt lat="44.1313940" lon="-91.7184100">
        <ele>206.8200000</ele>
        <time>2009-06-28T17:31:28Z</time>
      </trkpt>
      <trkpt lat="44.1315540" lon="-91.7186550">
        <ele>205.8600000</ele>
        <time>2009-06-28T17:31:31Z</time>
      </trkpt>
      <trkpt lat="44.1315980" lon="-91.7187230">
        <ele>205.8600000</ele>
        <time>2009-06-28T17:31:32Z</time>
      </trkpt>
      <trkpt lat="44.1316260" lon="-91.7187640">
        <ele>206.3400000</ele>
        <time>2009-06-28T17:31:33Z</time>
      </trkpt>
      <trkpt lat="44.1316280" lon="-91.7187680">
        <ele>206.3400000</ele>
        <time>2009-06-28T17:31:34Z</time>
      </trkpt>
      <trkpt lat="44.1317450" lon="-91.7185900">
        <ele>206.3400000</ele>
        <time>2009-06-28T17:31:35Z</time>
      </trkpt>
      <trkpt lat="44.1317850" lon="-91.7184980">
        <ele>206.8200000</ele>
        <time>2009-06-28T17:31:36Z</time>
      </trkpt>
      <trkpt lat="44.1318370" lon="-91.7183790">
        <ele>207.3000000</ele>
        <time>2009-06-28T17:31:37Z</time>
      </trkpt>
      <trkpt lat="44.1322740" lon="-91.7172740">
        <ele>211.6300000</ele>
        <time>2009-06-28T17:31:46Z</time>
      </trkpt>
      <trkpt lat="44.1327700" lon="-91.7161630">
        <ele>216.9100000</ele>
        <time>2009-06-28T17:31:57Z</time>
      </trkpt>
      <trkpt lat="44.1328760" lon="-91.7159300">
        <ele>218.3600000</ele>
        <time>2009-06-28T17:31:59Z</time>
      </trkpt>
      <trkpt lat="44.1329370" lon="-91.7158430">
        <ele>218.8400000</ele>
        <time>2009-06-28T17:32:00Z</time>
      </trkpt>
      <trkpt lat="44.1330140" lon="-91.7157620">
        <ele>219.3200000</ele>
        <time>2009-06-28T17:32:01Z</time>
      </trkpt>
      <trkpt lat="44.1339530" lon="-91.7148120">
        <ele>226.5300000</ele>
        <time>2009-06-28T17:32:14Z</time>
      </trkpt>
      <trkpt lat="44.1340450" lon="-91.7147560">
        <ele>227.0100000</ele>
        <time>2009-06-28T17:32:15Z</time>
      </trkpt>
      <trkpt lat="44.1351980" lon="-91.7140510">
        <ele>237.1000000</ele>
        <time>2009-06-28T17:32:26Z</time>
      </trkpt>
      <trkpt lat="44.1363570" lon="-91.7129450">
        <ele>251.0400000</ele>
        <time>2009-06-28T17:32:38Z</time>
      </trkpt>
      <trkpt lat="44.1365630" lon="-91.7127580">
        <ele>253.4400000</ele>
        <time>2009-06-28T17:32:40Z</time>
      </trkpt>
      <trkpt lat="44.1366390" lon="-91.7126140">
        <ele>254.8900000</ele>
        <time>2009-06-28T17:32:41Z</time>
      </trkpt>
      <trkpt lat="44.1367170" lon="-91.7124660">
        <ele>255.8500000</ele>
        <time>2009-06-28T17:32:42Z</time>
      </trkpt>
      <trkpt lat="44.1376810" lon="-91.7109250">
        <ele>268.3500000</ele>
        <time>2009-06-28T17:32:53Z</time>
      </trkpt>
      <trkpt lat="44.1380480" lon="-91.7101180">
        <ele>275.0700000</ele>
        <time>2009-06-28T17:32:58Z</time>
      </trkpt>
      <trkpt lat="44.1380810" lon="-91.7099090">
        <ele>276.5200000</ele>
        <time>2009-06-28T17:32:59Z</time>
      </trkpt>
      <trkpt lat="44.1381150" lon="-91.7096960">
        <ele>277.0000000</ele>
        <time>2009-06-28T17:33:00Z</time>
      </trkpt>
      <trkpt lat="44.1381490" lon="-91.7094780">
        <ele>278.4400000</ele>
        <time>2009-06-28T17:33:01Z</time>
      </trkpt>
      <trkpt lat="44.1381840" lon="-91.7092570">
        <ele>280.3600000</ele>
        <time>2009-06-28T17:33:02Z</time>
      </trkpt>
      <trkpt lat="44.1383030" lon="-91.7082070">
        <ele>290.4600000</ele>
        <time>2009-06-28T17:33:07Z</time>
      </trkpt>
      <trkpt lat="44.1382920" lon="-91.7080060">
        <ele>291.9000000</ele>
        <time>2009-06-28T17:33:08Z</time>
      </trkpt>
      <trkpt lat="44.1382190" lon="-91.7078350">
        <ele>293.3400000</ele>
        <time>2009-06-28T17:33:09Z</time>
      </trkpt>
      <trkpt lat="44.1381380" lon="-91.7076850">
        <ele>293.8200000</ele>
        <time>2009-06-28T17:33:10Z</time>
      </trkpt>
      <trkpt lat="44.1380120" lon="-91.7075250">
        <ele>293.8200000</ele>
        <time>2009-06-28T17:33:11Z</time>
      </trkpt>
      <trkpt lat="44.1378920" lon="-91.7073720">
        <ele>294.3000000</ele>
        <time>2009-06-28T17:33:12Z</time>
      </trkpt>
      <trkpt lat="44.1377750" lon="-91.7072220">
        <ele>294.7800000</ele>
        <time>2009-06-28T17:33:13Z</time>
      </trkpt>
      <trkpt lat="44.1371580" lon="-91.7063490">
        <ele>304.3900000</ele>
        <time>2009-06-28T17:33:19Z</time>
      </trkpt>
      <trkpt lat="44.1370860" lon="-91.7061680">
        <ele>305.8400000</ele>
        <time>2009-06-28T17:33:20Z</time>
      </trkpt>
      <trkpt lat="44.1370480" lon="-91.7059780">
        <ele>307.2800000</ele>
        <time>2009-06-28T17:33:21Z</time>
      </trkpt>
      <trkpt lat="44.1370290" lon="-91.7057690">
        <ele>308.7200000</ele>
        <time>2009-06-28T17:33:22Z</time>
      </trkpt>
      <trkpt lat="44.1370240" lon="-91.7055760">
        <ele>310.1600000</ele>
        <time>2009-06-28T17:33:23Z</time>
      </trkpt>
      <trkpt lat="44.1370570" lon="-91.7053670">
        <ele>312.0900000</ele>
        <time>2009-06-28T17:33:24Z</time>
      </trkpt>
      <trkpt lat="44.1370910" lon="-91.7051520">
        <ele>313.5300000</ele>
        <time>2009-06-28T17:33:25Z</time>
      </trkpt>
      <trkpt lat="44.1371260" lon="-91.7049280">
        <ele>315.9300000</ele>
        <time>2009-06-28T17:33:26Z</time>
      </trkpt>
      <trkpt lat="44.1371940" lon="-91.7047280">
        <ele>317.8500000</ele>
        <time>2009-06-28T17:33:27Z</time>
      </trkpt>
      <trkpt lat="44.1373080" lon="-91.7045330">
        <ele>319.7800000</ele>
        <time>2009-06-28T17:33:28Z</time>
      </trkpt>
      <trkpt lat="44.1374240" lon="-91.7043340">
        <ele>321.2200000</ele>
        <time>2009-06-28T17:33:29Z</time>
      </trkpt>
      <trkpt lat="44.1375350" lon="-91.7041430">
        <ele>322.6600000</ele>
        <time>2009-06-28T17:33:30Z</time>
      </trkpt>
      <trkpt lat="44.1380890" lon="-91.7029250">
        <ele>333.7100000</ele>
        <time>2009-06-28T17:33:36Z</time>
      </trkpt>
      <trkpt lat="44.1381580" lon="-91.7026490">
        <ele>336.6000000</ele>
        <time>2009-06-28T17:33:37Z</time>
      </trkpt>
      <trkpt lat="44.1385970" lon="-91.7003800">
        <ele>355.8300000</ele>
        <time>2009-06-28T17:33:46Z</time>
      </trkpt>
      <trkpt lat="44.1389840" lon="-91.6979420">
        <ele>368.3200000</ele>
        <time>2009-06-28T17:33:56Z</time>
      </trkpt>
      <trkpt lat="44.1392070" lon="-91.6949450">
        <ele>373.6100000</ele>
        <time>2009-06-28T17:34:06Z</time>
      </trkpt>
      <trkpt lat="44.1391720" lon="-91.6927590">
        <ele>371.6900000</ele>
        <time>2009-06-28T17:34:13Z</time>
      </trkpt>
      <trkpt lat="44.1390520" lon="-91.6925030">
        <ele>368.8000000</ele>
        <time>2009-06-28T17:34:14Z</time>
      </trkpt>
      <trkpt lat="44.1389100" lon="-91.6922350">
        <ele>367.8400000</ele>
        <time>2009-06-28T17:34:15Z</time>
      </trkpt>
      <trkpt lat="44.1387740" lon="-91.6919800">
        <ele>366.8800000</ele>
        <time>2009-06-28T17:34:16Z</time>
      </trkpt>
      <trkpt lat="44.1385970" lon="-91.6917830">
        <ele>365.9200000</ele>
        <time>2009-06-28T17:34:17Z</time>
      </trkpt>
      <trkpt lat="44.1384230" lon="-91.6915900">
        <ele>364.9600000</ele>
        <time>2009-06-28T17:34:18Z</time>
      </trkpt>
      <trkpt lat="44.1382470" lon="-91.6914170">
        <ele>364.0000000</ele>
        <time>2009-06-28T17:34:19Z</time>
      </trkpt>
      <trkpt lat="44.1380710" lon="-91.6912490">
        <ele>363.0400000</ele>
        <time>2009-06-28T17:34:20Z</time>
      </trkpt>
      <trkpt lat="44.1362980" lon="-91.6893500">
        <ele>359.6700000</ele>
        <time>2009-06-28T17:34:31Z</time>
      </trkpt>
      <trkpt lat="44.1361640" lon="-91.6891090">
        <ele>360.1500000</ele>
        <time>2009-06-28T17:34:32Z</time>
      </trkpt>
      <trkpt lat="44.1360620" lon="-91.6888460">
        <ele>360.6300000</ele>
        <time>2009-06-28T17:34:33Z</time>
      </trkpt>
      <trkpt lat="44.1359830" lon="-91.6885670">
        <ele>361.1100000</ele>
        <time>2009-06-28T17:34:34Z</time>
      </trkpt>
      <trkpt lat="44.1359400" lon="-91.6882550">
        <ele>361.5900000</ele>
        <time>2009-06-28T17:34:35Z</time>
      </trkpt>
      <trkpt lat="44.1358970" lon="-91.6879410">
        <ele>362.0700000</ele>
        <time>2009-06-28T17:34:36Z</time>
      </trkpt>
      <trkpt lat="44.1358570" lon="-91.6876400">
        <ele>362.5500000</ele>
        <time>2009-06-28T17:34:37Z</time>
      </trkpt>
      <trkpt lat="44.1358680" lon="-91.6873170">
        <ele>363.0400000</ele>
        <time>2009-06-28T17:34:38Z</time>
      </trkpt>
      <trkpt lat="44.1358780" lon="-91.6869910">
        <ele>364.0000000</ele>
        <time>2009-06-28T17:34:39Z</time>
      </trkpt>
      <trkpt lat="44.1358880" lon="-91.6866620">
        <ele>364.9600000</ele>
        <time>2009-06-28T17:34:40Z</time>
      </trkpt>
      <trkpt lat="44.1361230" lon="-91.6818720">
        <ele>378.9000000</ele>
        <time>2009-06-28T17:34:55Z</time>
      </trkpt>
      <trkpt lat="44.1364110" lon="-91.6783960">
        <ele>386.1100000</ele>
        <time>2009-06-28T17:35:06Z</time>
      </trkpt>
      <trkpt lat="44.1369990" lon="-91.6764330">
        <ele>387.5500000</ele>
        <time>2009-06-28T17:35:12Z</time>
      </trkpt>
      <trkpt lat="44.1383160" lon="-91.6735440">
        <ele>387.0700000</ele>
        <time>2009-06-28T17:35:22Z</time>
      </trkpt>
      <trkpt lat="44.1384750" lon="-91.6733220">
        <ele>388.0300000</ele>
        <time>2009-06-28T17:35:23Z</time>
      </trkpt>
      <trkpt lat="44.1386320" lon="-91.6731180">
        <ele>388.5100000</ele>
        <time>2009-06-28T17:35:24Z</time>
      </trkpt>
      <trkpt lat="44.1388260" lon="-91.6729600">
        <ele>389.4700000</ele>
        <time>2009-06-28T17:35:25Z</time>
      </trkpt>
      <trkpt lat="44.1390210" lon="-91.6728000">
        <ele>389.4700000</ele>
        <time>2009-06-28T17:35:26Z</time>
      </trkpt>
      <trkpt lat="44.1392330" lon="-91.6726960">
        <ele>389.4700000</ele>
        <time>2009-06-28T17:35:27Z</time>
      </trkpt>
      <trkpt lat="44.1394710" lon="-91.6726140">
        <ele>389.9500000</ele>
        <time>2009-06-28T17:35:28Z</time>
      </trkpt>
      <trkpt lat="44.1397140" lon="-91.6725530">
        <ele>389.9500000</ele>
        <time>2009-06-28T17:35:29Z</time>
      </trkpt>
      <trkpt lat="44.1399580" lon="-91.6725410">
        <ele>389.4700000</ele>
        <time>2009-06-28T17:35:30Z</time>
      </trkpt>
      <trkpt lat="44.1402010" lon="-91.6725410">
        <ele>388.9900000</ele>
        <time>2009-06-28T17:35:31Z</time>
      </trkpt>
      <trkpt lat="44.1404430" lon="-91.6725410">
        <ele>388.0300000</ele>
        <time>2009-06-28T17:35:32Z</time>
      </trkpt>
      <trkpt lat="44.1419920" lon="-91.6724560">
        <ele>385.1500000</ele>
        <time>2009-06-28T17:35:39Z</time>
      </trkpt>
      <trkpt lat="44.1421890" lon="-91.6723680">
        <ele>385.1500000</ele>
        <time>2009-06-28T17:35:40Z</time>
      </trkpt>
      <trkpt lat="44.1423740" lon="-91.6722440">
        <ele>384.1800000</ele>
        <time>2009-06-28T17:35:41Z</time>
      </trkpt>
      <trkpt lat="44.1425680" lon="-91.6721150">
        <ele>383.2200000</ele>
        <time>2009-06-28T17:35:42Z</time>
      </trkpt>
      <trkpt lat="44.1427630" lon="-91.6719850">
        <ele>382.2600000</ele>
        <time>2009-06-28T17:35:43Z</time>
      </trkpt>
      <trkpt lat="44.1429210" lon="-91.6717770">
        <ele>381.7800000</ele>
        <time>2009-06-28T17:35:44Z</time>
      </trkpt>
      <trkpt lat="44.1430760" lon="-91.6715560">
        <ele>380.8200000</ele>
        <time>2009-06-28T17:35:45Z</time>
      </trkpt>
      <trkpt lat="44.1432290" lon="-91.6713120">
        <ele>380.3400000</ele>
        <time>2009-06-28T17:35:46Z</time>
      </trkpt>
      <trkpt lat="44.1433350" lon="-91.6710430">
        <ele>379.3800000</ele>
        <time>2009-06-28T17:35:47Z</time>
      </trkpt>
      <trkpt lat="44.1434440" lon="-91.6707560">
        <ele>378.9000000</ele>
        <time>2009-06-28T17:35:48Z</time>
      </trkpt>
      <trkpt lat="44.1435530" lon="-91.6704700">
        <ele>378.4200000</ele>
        <time>2009-06-28T17:35:49Z</time>
      </trkpt>
      <trkpt lat="44.1436410" lon="-91.6701800">
        <ele>378.4200000</ele>
        <time>2009-06-28T17:35:50Z</time>
      </trkpt>
      <trkpt lat="44.1448070" lon="-91.6659470">
        <ele>375.0500000</ele>
        <time>2009-06-28T17:36:05Z</time>
      </trkpt>
      <trkpt lat="44.1459240" lon="-91.6619150">
        <ele>368.3200000</ele>
        <time>2009-06-28T17:36:20Z</time>
      </trkpt>
      <trkpt lat="44.1471430" lon="-91.6577300">
        <ele>376.4900000</ele>
        <time>2009-06-28T17:36:35Z</time>
      </trkpt>
      <trkpt lat="44.1473950" lon="-91.6572310">
        <ele>376.9700000</ele>
        <time>2009-06-28T17:36:37Z</time>
      </trkpt>
      <trkpt lat="44.1475290" lon="-91.6569900">
        <ele>377.4500000</ele>
        <time>2009-06-28T17:36:38Z</time>
      </trkpt>
      <trkpt lat="44.1476650" lon="-91.6567770">
        <ele>376.4900000</ele>
        <time>2009-06-28T17:36:39Z</time>
      </trkpt>
      <trkpt lat="44.1478260" lon="-91.6565930">
        <ele>376.4900000</ele>
        <time>2009-06-28T17:36:40Z</time>
      </trkpt>
      <trkpt lat="44.1479840" lon="-91.6564340">
        <ele>376.4900000</ele>
        <time>2009-06-28T17:36:41Z</time>
      </trkpt>
      <trkpt lat="44.1481540" lon="-91.6562920">
        <ele>376.4900000</ele>
        <time>2009-06-28T17:36:42Z</time>
      </trkpt>
      <trkpt lat="44.1483210" lon="-91.6561530">
        <ele>376.0100000</ele>
        <time>2009-06-28T17:36:43Z</time>
      </trkpt>
      <trkpt lat="44.1495550" lon="-91.6554570">
        <ele>370.7300000</ele>
        <time>2009-06-28T17:36:50Z</time>
      </trkpt>
      <trkpt lat="44.1506730" lon="-91.6550150">
        <ele>369.7600000</ele>
        <time>2009-06-28T17:36:56Z</time>
      </trkpt>
      <trkpt lat="44.1508600" lon="-91.6549880">
        <ele>370.2400000</ele>
        <time>2009-06-28T17:36:57Z</time>
      </trkpt>
      <trkpt lat="44.1510580" lon="-91.6549880">
        <ele>370.2400000</ele>
        <time>2009-06-28T17:36:58Z</time>
      </trkpt>
      <trkpt lat="44.1512620" lon="-91.6549880">
        <ele>370.7300000</ele>
        <time>2009-06-28T17:36:59Z</time>
      </trkpt>
      <trkpt lat="44.1514560" lon="-91.6550360">
        <ele>370.7300000</ele>
        <time>2009-06-28T17:37:00Z</time>
      </trkpt>
      <trkpt lat="44.1516520" lon="-91.6551230">
        <ele>370.7300000</ele>
        <time>2009-06-28T17:37:01Z</time>
      </trkpt>
      <trkpt lat="44.1518430" lon="-91.6552200">
        <ele>371.6900000</ele>
        <time>2009-06-28T17:37:02Z</time>
      </trkpt>
      <trkpt lat="44.1520330" lon="-91.6553250">
        <ele>372.6500000</ele>
        <time>2009-06-28T17:37:03Z</time>
      </trkpt>
      <trkpt lat="44.1522010" lon="-91.6554540">
        <ele>373.6100000</ele>
        <time>2009-06-28T17:37:04Z</time>
      </trkpt>
      <trkpt lat="44.1523530" lon="-91.6556280">
        <ele>374.0900000</ele>
        <time>2009-06-28T17:37:05Z</time>
      </trkpt>
      <trkpt lat="44.1525060" lon="-91.6558150">
        <ele>374.5700000</ele>
        <time>2009-06-28T17:37:06Z</time>
      </trkpt>
      <trkpt lat="44.1526520" lon="-91.6560020">
        <ele>375.0500000</ele>
        <time>2009-06-28T17:37:07Z</time>
      </trkpt>
      <trkpt lat="44.1527820" lon="-91.6562360">
        <ele>375.5300000</ele>
        <time>2009-06-28T17:37:08Z</time>
      </trkpt>
      <trkpt lat="44.1528920" lon="-91.6564720">
        <ele>375.5300000</ele>
        <time>2009-06-28T17:37:09Z</time>
      </trkpt>
      <trkpt lat="44.1529900" lon="-91.6567420">
        <ele>376.0100000</ele>
        <time>2009-06-28T17:37:10Z</time>
      </trkpt>
      <trkpt lat="44.1530900" lon="-91.6570170">
        <ele>376.0100000</ele>
        <time>2009-06-28T17:37:11Z</time>
      </trkpt>
      <trkpt lat="44.1531910" lon="-91.6572950">
        <ele>376.0100000</ele>
        <time>2009-06-28T17:37:12Z</time>
      </trkpt>
      <trkpt lat="44.1542630" lon="-91.6608670">
        <ele>369.2800000</ele>
        <time>2009-06-28T17:37:25Z</time>
      </trkpt>
      <trkpt lat="44.1554980" lon="-91.6643050">
        <ele>365.9200000</ele>
        <time>2009-06-28T17:37:38Z</time>
      </trkpt>
      <trkpt lat="44.1569600" lon="-91.6666890">
        <ele>367.8400000</ele>
        <time>2009-06-28T17:37:48Z</time>
      </trkpt>
      <trkpt lat="44.1572950" lon="-91.6671010">
        <ele>367.3600000</ele>
        <time>2009-06-28T17:37:50Z</time>
      </trkpt>
      <trkpt lat="44.1574980" lon="-91.6672670">
        <ele>367.3600000</ele>
        <time>2009-06-28T17:37:51Z</time>
      </trkpt>
      <trkpt lat="44.1577010" lon="-91.6674340">
        <ele>367.3600000</ele>
        <time>2009-06-28T17:37:52Z</time>
      </trkpt>
      <trkpt lat="44.1579600" lon="-91.6675130">
        <ele>367.3600000</ele>
        <time>2009-06-28T17:37:53Z</time>
      </trkpt>
      <trkpt lat="44.1582120" lon="-91.6675910">
        <ele>365.9200000</ele>
        <time>2009-06-28T17:37:54Z</time>
      </trkpt>
      <trkpt lat="44.1584860" lon="-91.6676060">
        <ele>365.4400000</ele>
        <time>2009-06-28T17:37:55Z</time>
      </trkpt>
      <trkpt lat="44.1587540" lon="-91.6675650">
        <ele>365.4400000</ele>
        <time>2009-06-28T17:37:56Z</time>
      </trkpt>
      <trkpt lat="44.1589930" lon="-91.6674740">
        <ele>365.9200000</ele>
        <time>2009-06-28T17:37:57Z</time>
      </trkpt>
      <trkpt lat="44.1592050" lon="-91.6673390">
        <ele>366.4000000</ele>
        <time>2009-06-28T17:37:58Z</time>
      </trkpt>
      <trkpt lat="44.1594100" lon="-91.6672090">
        <ele>367.3600000</ele>
        <time>2009-06-28T17:37:59Z</time>
      </trkpt>
      <trkpt lat="44.1595930" lon="-91.6670220">
        <ele>367.8400000</ele>
        <time>2009-06-28T17:38:00Z</time>
      </trkpt>
      <trkpt lat="44.1597570" lon="-91.6668240">
        <ele>367.3600000</ele>
        <time>2009-06-28T17:38:01Z</time>
      </trkpt>
      <trkpt lat="44.1599150" lon="-91.6666110">
        <ele>366.8800000</ele>
        <time>2009-06-28T17:38:02Z</time>
      </trkpt>
      <trkpt lat="44.1600800" lon="-91.6663890">
        <ele>366.4000000</ele>
        <time>2009-06-28T17:38:03Z</time>
      </trkpt>
      <trkpt lat="44.1609280" lon="-91.6653630">
        <ele>363.5200000</ele>
        <time>2009-06-28T17:38:08Z</time>
      </trkpt>
      <trkpt lat="44.1611220" lon="-91.6652050">
        <ele>363.0400000</ele>
        <time>2009-06-28T17:38:09Z</time>
      </trkpt>
      <trkpt lat="44.1613180" lon="-91.6651120">
        <ele>362.5500000</ele>
        <time>2009-06-28T17:38:10Z</time>
      </trkpt>
      <trkpt lat="44.1615320" lon="-91.6650410">
        <ele>362.5500000</ele>
        <time>2009-06-28T17:38:11Z</time>
      </trkpt>
      <trkpt lat="44.1617390" lon="-91.6649900">
        <ele>363.0400000</ele>
        <time>2009-06-28T17:38:12Z</time>
      </trkpt>
      <trkpt lat="44.1619590" lon="-91.6650040">
        <ele>364.0000000</ele>
        <time>2009-06-28T17:38:13Z</time>
      </trkpt>
      <trkpt lat="44.1621780" lon="-91.6650180">
        <ele>364.9600000</ele>
        <time>2009-06-28T17:38:14Z</time>
      </trkpt>
      <trkpt lat="44.1624020" lon="-91.6650360">
        <ele>366.4000000</ele>
        <time>2009-06-28T17:38:15Z</time>
      </trkpt>
      <trkpt lat="44.1640320" lon="-91.6652800">
        <ele>371.6900000</ele>
        <time>2009-06-28T17:38:22Z</time>
      </trkpt>
      <trkpt lat="44.1642630" lon="-91.6651960">
        <ele>371.6900000</ele>
        <time>2009-06-28T17:38:23Z</time>
      </trkpt>
      <trkpt lat="44.1644870" lon="-91.6651130">
        <ele>372.1700000</ele>
        <time>2009-06-28T17:38:24Z</time>
      </trkpt>
      <trkpt lat="44.1646920" lon="-91.6649620">
        <ele>372.1700000</ele>
        <time>2009-06-28T17:38:25Z</time>
      </trkpt>
      <trkpt lat="44.1648980" lon="-91.6648110">
        <ele>371.6900000</ele>
        <time>2009-06-28T17:38:26Z</time>
      </trkpt>
      <trkpt lat="44.1651020" lon="-91.6646620">
        <ele>371.6900000</ele>
        <time>2009-06-28T17:38:27Z</time>
      </trkpt>
      <trkpt lat="44.1652610" lon="-91.6644480">
        <ele>371.2100000</ele>
        <time>2009-06-28T17:38:28Z</time>
      </trkpt>
      <trkpt lat="44.1654240" lon="-91.6642130">
        <ele>371.2100000</ele>
        <time>2009-06-28T17:38:29Z</time>
      </trkpt>
      <trkpt lat="44.1655810" lon="-91.6639740">
        <ele>371.2100000</ele>
        <time>2009-06-28T17:38:30Z</time>
      </trkpt>
      <trkpt lat="44.1657350" lon="-91.6637260">
        <ele>371.2100000</ele>
        <time>2009-06-28T17:38:31Z</time>
      </trkpt>
      <trkpt lat="44.1679730" lon="-91.6604820">
        <ele>376.4900000</ele>
        <time>2009-06-28T17:38:45Z</time>
      </trkpt>
      <trkpt lat="44.1686930" lon="-91.6597090">
        <ele>374.5700000</ele>
        <time>2009-06-28T17:38:49Z</time>
      </trkpt>
      <trkpt lat="44.1688950" lon="-91.6595430">
        <ele>374.0900000</ele>
        <time>2009-06-28T17:38:50Z</time>
      </trkpt>
      <trkpt lat="44.1691050" lon="-91.6594530">
        <ele>373.6100000</ele>
        <time>2009-06-28T17:38:51Z</time>
      </trkpt>
      <trkpt lat="44.1693220" lon="-91.6593630">
        <ele>373.6100000</ele>
        <time>2009-06-28T17:38:52Z</time>
      </trkpt>
      <trkpt lat="44.1695320" lon="-91.6593090">
        <ele>373.6100000</ele>
        <time>2009-06-28T17:38:53Z</time>
      </trkpt>
      <trkpt lat="44.1697580" lon="-91.6592800">
        <ele>374.0900000</ele>
        <time>2009-06-28T17:38:54Z</time>
      </trkpt>
      <trkpt lat="44.1699780" lon="-91.6593070">
        <ele>374.5700000</ele>
        <time>2009-06-28T17:38:55Z</time>
      </trkpt>
      <trkpt lat="44.1702070" lon="-91.6593520">
        <ele>374.5700000</ele>
        <time>2009-06-28T17:38:56Z</time>
      </trkpt>
      <trkpt lat="44.1704440" lon="-91.6594200">
        <ele>374.0900000</ele>
        <time>2009-06-28T17:38:57Z</time>
      </trkpt>
      <trkpt lat="44.1706840" lon="-91.6594890">
        <ele>372.6500000</ele>
        <time>2009-06-28T17:38:58Z</time>
      </trkpt>
      <trkpt lat="44.1721720" lon="-91.6596570">
        <ele>374.0900000</ele>
        <time>2009-06-28T17:39:04Z</time>
      </trkpt>
      <trkpt lat="44.1738810" lon="-91.6595310">
        <ele>379.3800000</ele>
        <time>2009-06-28T17:39:12Z</time>
      </trkpt>
      <trkpt lat="44.1740920" lon="-91.6594560">
        <ele>379.8600000</ele>
        <time>2009-06-28T17:39:13Z</time>
      </trkpt>
      <trkpt lat="44.1742990" lon="-91.6593550">
        <ele>379.8600000</ele>
        <time>2009-06-28T17:39:14Z</time>
      </trkpt>
      <trkpt lat="44.1745020" lon="-91.6592090">
        <ele>380.3400000</ele>
        <time>2009-06-28T17:39:15Z</time>
      </trkpt>
      <trkpt lat="44.1746930" lon="-91.6590250">
        <ele>380.8200000</ele>
        <time>2009-06-28T17:39:16Z</time>
      </trkpt>
      <trkpt lat="44.1748710" lon="-91.6588190">
        <ele>381.3000000</ele>
        <time>2009-06-28T17:39:17Z</time>
      </trkpt>
      <trkpt lat="44.1750260" lon="-91.6585710">
        <ele>381.3000000</ele>
        <time>2009-06-28T17:39:18Z</time>
      </trkpt>
      <trkpt lat="44.1751520" lon="-91.6583030">
        <ele>381.7800000</ele>
        <time>2009-06-28T17:39:19Z</time>
      </trkpt>
      <trkpt lat="44.1752800" lon="-91.6580260">
        <ele>381.7800000</ele>
        <time>2009-06-28T17:39:20Z</time>
      </trkpt>
      <trkpt lat="44.1754060" lon="-91.6577510">
        <ele>381.7800000</ele>
        <time>2009-06-28T17:39:21Z</time>
      </trkpt>
      <trkpt lat="44.1755310" lon="-91.6574790">
        <ele>381.7800000</ele>
        <time>2009-06-28T17:39:22Z</time>
      </trkpt>
      <trkpt lat="44.1760720" lon="-91.6564720">
        <ele>380.8200000</ele>
        <time>2009-06-28T17:39:26Z</time>
      </trkpt>
      <trkpt lat="44.1762470" lon="-91.6562690">
        <ele>380.8200000</ele>
        <time>2009-06-28T17:39:27Z</time>
      </trkpt>
      <trkpt lat="44.1764370" lon="-91.6560790">
        <ele>380.3400000</ele>
        <time>2009-06-28T17:39:28Z</time>
      </trkpt>
      <trkpt lat="44.1766290" lon="-91.6558870">
        <ele>379.8600000</ele>
        <time>2009-06-28T17:39:29Z</time>
      </trkpt>
      <trkpt lat="44.1768220" lon="-91.6556950">
        <ele>378.9000000</ele>
        <time>2009-06-28T17:39:30Z</time>
      </trkpt>
      <trkpt lat="44.1784250" lon="-91.6544900">
        <ele>376.9700000</ele>
        <time>2009-06-28T17:39:38Z</time>
      </trkpt>
      <trkpt lat="44.1786350" lon="-91.6544220">
        <ele>376.9700000</ele>
        <time>2009-06-28T17:39:39Z</time>
      </trkpt>
      <trkpt lat="44.1788530" lon="-91.6543980">
        <ele>376.4900000</ele>
        <time>2009-06-28T17:39:40Z</time>
      </trkpt>
      <trkpt lat="44.1790670" lon="-91.6543930">
        <ele>376.4900000</ele>
        <time>2009-06-28T17:39:41Z</time>
      </trkpt>
      <trkpt lat="44.1792860" lon="-91.6544020">
        <ele>376.4900000</ele>
        <time>2009-06-28T17:39:42Z</time>
      </trkpt>
      <trkpt lat="44.1819390" lon="-91.6542940">
        <ele>374.0900000</ele>
        <time>2009-06-28T17:39:54Z</time>
      </trkpt>
      <trkpt lat="44.1833920" lon="-91.6534730">
        <ele>372.1700000</ele>
        <time>2009-06-28T17:40:01Z</time>
      </trkpt>
      <trkpt lat="44.1848440" lon="-91.6525520">
        <ele>374.0900000</ele>
        <time>2009-06-28T17:40:08Z</time>
      </trkpt>
      <trkpt lat="44.1850790" lon="-91.6524970">
        <ele>374.0900000</ele>
        <time>2009-06-28T17:40:09Z</time>
      </trkpt>
      <trkpt lat="44.1876330" lon="-91.6521530">
        <ele>375.0500000</ele>
        <time>2009-06-28T17:40:20Z</time>
      </trkpt>
      <trkpt lat="44.1890020" lon="-91.6526140">
        <ele>375.0500000</ele>
        <time>2009-06-28T17:40:26Z</time>
      </trkpt>
      <trkpt lat="44.1909390" lon="-91.6540330">
        <ele>382.2600000</ele>
        <time>2009-06-28T17:40:36Z</time>
      </trkpt>
      <trkpt lat="44.1919620" lon="-91.6552610">
        <ele>378.9000000</ele>
        <time>2009-06-28T17:40:42Z</time>
      </trkpt>
      <trkpt lat="44.1921470" lon="-91.6554310">
        <ele>378.4200000</ele>
        <time>2009-06-28T17:40:43Z</time>
      </trkpt>
      <trkpt lat="44.1923590" lon="-91.6555370">
        <ele>377.9400000</ele>
        <time>2009-06-28T17:40:44Z</time>
      </trkpt>
      <trkpt lat="44.1925740" lon="-91.6556310">
        <ele>377.4500000</ele>
        <time>2009-06-28T17:40:45Z</time>
      </trkpt>
      <trkpt lat="44.1927950" lon="-91.6557140">
        <ele>376.9700000</ele>
        <time>2009-06-28T17:40:46Z</time>
      </trkpt>
      <trkpt lat="44.1930170" lon="-91.6557260">
        <ele>376.4900000</ele>
        <time>2009-06-28T17:40:47Z</time>
      </trkpt>
      <trkpt lat="44.1932480" lon="-91.6557350">
        <ele>376.0100000</ele>
        <time>2009-06-28T17:40:48Z</time>
      </trkpt>
      <trkpt lat="44.1934830" lon="-91.6557440">
        <ele>375.0500000</ele>
        <time>2009-06-28T17:40:49Z</time>
      </trkpt>
      <trkpt lat="44.1951300" lon="-91.6562230">
        <ele>371.2100000</ele>
        <time>2009-06-28T17:40:56Z</time>
      </trkpt>
      <trkpt lat="44.1974360" lon="-91.6570620">
        <ele>364.9600000</ele>
        <time>2009-06-28T17:41:06Z</time>
      </trkpt>
      <trkpt lat="44.2001770" lon="-91.6571690">
        <ele>368.8000000</ele>
        <time>2009-06-28T17:41:18Z</time>
      </trkpt>
      <trkpt lat="44.2021870" lon="-91.6576430">
        <ele>368.8000000</ele>
        <time>2009-06-28T17:41:27Z</time>
      </trkpt>
      <trkpt lat="44.2028350" lon="-91.6576560">
        <ele>369.7600000</ele>
        <time>2009-06-28T17:41:30Z</time>
      </trkpt>
      <trkpt lat="44.2030380" lon="-91.6575760">
        <ele>370.7300000</ele>
        <time>2009-06-28T17:41:31Z</time>
      </trkpt>
      <trkpt lat="44.2032410" lon="-91.6574740">
        <ele>371.6900000</ele>
        <time>2009-06-28T17:41:32Z</time>
      </trkpt>
      <trkpt lat="44.2034280" lon="-91.6573750">
        <ele>372.6500000</ele>
        <time>2009-06-28T17:41:33Z</time>
      </trkpt>
      <trkpt lat="44.2035960" lon="-91.6572460">
        <ele>373.1300000</ele>
        <time>2009-06-28T17:41:34Z</time>
      </trkpt>
      <trkpt lat="44.2037530" lon="-91.6571260">
        <ele>373.1300000</ele>
        <time>2009-06-28T17:41:35Z</time>
      </trkpt>
      <trkpt lat="44.2039100" lon="-91.6570060">
        <ele>373.6100000</ele>
        <time>2009-06-28T17:41:36Z</time>
      </trkpt>
      <trkpt lat="44.2053590" lon="-91.6560590">
        <ele>372.1700000</ele>
        <time>2009-06-28T17:41:46Z</time>
      </trkpt>
      <trkpt lat="44.2065420" lon="-91.6557080">
        <ele>371.2100000</ele>
        <time>2009-06-28T17:41:55Z</time>
      </trkpt>
      <trkpt lat="44.2068230" lon="-91.6556210">
        <ele>371.6900000</ele>
        <time>2009-06-28T17:41:58Z</time>
      </trkpt>
      <trkpt lat="44.2068720" lon="-91.6556000">
        <ele>371.6900000</ele>
        <time>2009-06-28T17:41:59Z</time>
      </trkpt>
      <trkpt lat="44.2068150" lon="-91.6558270">
        <ele>371.6900000</ele>
        <time>2009-06-28T17:42:00Z</time>
      </trkpt>
      <trkpt lat="44.2068240" lon="-91.6559240">
        <ele>371.2100000</ele>
        <time>2009-06-28T17:42:01Z</time>
      </trkpt>
      <trkpt lat="44.2068350" lon="-91.6560450">
        <ele>371.2100000</ele>
        <time>2009-06-28T17:42:02Z</time>
      </trkpt>
      <trkpt lat="44.2068470" lon="-91.6561650">
        <ele>371.2100000</ele>
        <time>2009-06-28T17:42:03Z</time>
      </trkpt>
      <trkpt lat="44.2068820" lon="-91.6573470">
        <ele>368.3200000</ele>
        <time>2009-06-28T17:42:11Z</time>
      </trkpt>
      <trkpt lat="44.2068660" lon="-91.6574760">
        <ele>366.8800000</ele>
        <time>2009-06-28T17:42:12Z</time>
      </trkpt>
      <trkpt lat="44.2068150" lon="-91.6576010">
        <ele>365.9200000</ele>
        <time>2009-06-28T17:42:13Z</time>
      </trkpt>
      <trkpt lat="44.2067650" lon="-91.6577280">
        <ele>365.4400000</ele>
        <time>2009-06-28T17:42:14Z</time>
      </trkpt>
      <trkpt lat="44.2067120" lon="-91.6578600">
        <ele>364.0000000</ele>
        <time>2009-06-28T17:42:15Z</time>
      </trkpt>
      <trkpt lat="44.2066320" lon="-91.6579580">
        <ele>362.0700000</ele>
        <time>2009-06-28T17:42:16Z</time>
      </trkpt>
      <trkpt lat="44.2065430" lon="-91.6580650">
        <ele>360.1500000</ele>
        <time>2009-06-28T17:42:17Z</time>
      </trkpt>
      <trkpt lat="44.2063400" lon="-91.6585030">
        <ele>354.8600000</ele>
        <time>2009-06-28T17:42:20Z</time>
      </trkpt>
      <trkpt lat="44.2063240" lon="-91.6586970">
        <ele>352.9400000</ele>
        <time>2009-06-28T17:42:21Z</time>
      </trkpt>
      <trkpt lat="44.2063240" lon="-91.6589070">
        <ele>351.5000000</ele>
        <time>2009-06-28T17:42:22Z</time>
      </trkpt>
      <trkpt lat="44.2063290" lon="-91.6591230">
        <ele>349.5800000</ele>
        <time>2009-06-28T17:42:23Z</time>
      </trkpt>
      <trkpt lat="44.2063370" lon="-91.6593470">
        <ele>347.1700000</ele>
        <time>2009-06-28T17:42:24Z</time>
      </trkpt>
      <trkpt lat="44.2065390" lon="-91.6614480">
        <ele>327.9500000</ele>
        <time>2009-06-28T17:42:33Z</time>
      </trkpt>
      <trkpt lat="44.2070290" lon="-91.6633620">
        <ele>308.2400000</ele>
        <time>2009-06-28T17:42:42Z</time>
      </trkpt>
      <trkpt lat="44.2079800" lon="-91.6649620">
        <ele>289.4900000</ele>
        <time>2009-06-28T17:42:50Z</time>
      </trkpt>
      <trkpt lat="44.2081530" lon="-91.6654370">
        <ele>286.1300000</ele>
        <time>2009-06-28T17:42:52Z</time>
      </trkpt>
      <trkpt lat="44.2082150" lon="-91.6656930">
        <ele>284.6900000</ele>
        <time>2009-06-28T17:42:53Z</time>
      </trkpt>
      <trkpt lat="44.2082530" lon="-91.6659610">
        <ele>283.7300000</ele>
        <time>2009-06-28T17:42:54Z</time>
      </trkpt>
      <trkpt lat="44.2082880" lon="-91.6662170">
        <ele>281.8000000</ele>
        <time>2009-06-28T17:42:55Z</time>
      </trkpt>
      <trkpt lat="44.2083240" lon="-91.6664740">
        <ele>280.3600000</ele>
        <time>2009-06-28T17:42:56Z</time>
      </trkpt>
      <trkpt lat="44.2084660" lon="-91.6688840">
        <ele>272.1900000</ele>
        <time>2009-06-28T17:43:06Z</time>
      </trkpt>
      <trkpt lat="44.2083580" lon="-91.6716070">
        <ele>263.0600000</ele>
        <time>2009-06-28T17:43:17Z</time>
      </trkpt>
      <trkpt lat="44.2085840" lon="-91.6743430">
        <ele>252.4800000</ele>
        <time>2009-06-28T17:43:28Z</time>
      </trkpt>
      <trkpt lat="44.2092010" lon="-91.6761560">
        <ele>246.2300000</ele>
        <time>2009-06-28T17:43:37Z</time>
      </trkpt>
      <trkpt lat="44.2095430" lon="-91.6765970">
        <ele>241.9100000</ele>
        <time>2009-06-28T17:43:41Z</time>
      </trkpt>
      <trkpt lat="44.2095430" lon="-91.6767020">
        <ele>240.9500000</ele>
        <time>2009-06-28T17:43:42Z</time>
      </trkpt>
      <trkpt lat="44.2095350" lon="-91.6768020">
        <ele>239.9900000</ele>
        <time>2009-06-28T17:43:43Z</time>
      </trkpt>
      <trkpt lat="44.2094490" lon="-91.6769360">
        <ele>238.5400000</ele>
        <time>2009-06-28T17:43:44Z</time>
      </trkpt>
      <trkpt lat="44.2093460" lon="-91.6770980">
        <ele>237.5800000</ele>
        <time>2009-06-28T17:43:45Z</time>
      </trkpt>
      <trkpt lat="44.2092310" lon="-91.6773310">
        <ele>237.1000000</ele>
        <time>2009-06-28T17:43:46Z</time>
      </trkpt>
      <trkpt lat="44.2091990" lon="-91.6776350">
        <ele>237.1000000</ele>
        <time>2009-06-28T17:43:47Z</time>
      </trkpt>
      <trkpt lat="44.2092080" lon="-91.6778660">
        <ele>237.1000000</ele>
        <time>2009-06-28T17:43:48Z</time>
      </trkpt>
      <trkpt lat="44.2092430" lon="-91.6780570">
        <ele>237.1000000</ele>
        <time>2009-06-28T17:43:49Z</time>
      </trkpt>
      <trkpt lat="44.2092810" lon="-91.6782570">
        <ele>236.6200000</ele>
        <time>2009-06-28T17:43:50Z</time>
      </trkpt>
      <trkpt lat="44.2093180" lon="-91.6784590">
        <ele>236.1400000</ele>
        <time>2009-06-28T17:43:51Z</time>
      </trkpt>
      <trkpt lat="44.2096300" lon="-91.6801370">
        <ele>237.5800000</ele>
        <time>2009-06-28T17:44:00Z</time>
      </trkpt>
      <trkpt lat="44.2097470" lon="-91.6808660">
        <ele>239.0200000</ele>
        <time>2009-06-28T17:44:08Z</time>
      </trkpt>
      <trkpt lat="44.2097200" lon="-91.6809720">
        <ele>239.9900000</ele>
        <time>2009-06-28T17:44:09Z</time>
      </trkpt>
      <trkpt lat="44.2096920" lon="-91.6810860">
        <ele>240.4700000</ele>
        <time>2009-06-28T17:44:10Z</time>
      </trkpt>
      <trkpt lat="44.2096610" lon="-91.6811810">
        <ele>240.9500000</ele>
        <time>2009-06-28T17:44:11Z</time>
      </trkpt>
      <trkpt lat="44.2095700" lon="-91.6813020">
        <ele>241.4300000</ele>
        <time>2009-06-28T17:44:12Z</time>
      </trkpt>
      <trkpt lat="44.2094680" lon="-91.6813970">
        <ele>241.9100000</ele>
        <time>2009-06-28T17:44:13Z</time>
      </trkpt>
      <trkpt lat="44.2093290" lon="-91.6815050">
        <ele>242.8700000</ele>
        <time>2009-06-28T17:44:14Z</time>
      </trkpt>
      <trkpt lat="44.2091930" lon="-91.6816100">
        <ele>243.8300000</ele>
        <time>2009-06-28T17:44:15Z</time>
      </trkpt>
      <trkpt lat="44.2079610" lon="-91.6823550">
        <ele>247.6800000</ele>
        <time>2009-06-28T17:44:25Z</time>
      </trkpt>
      <trkpt lat="44.2065980" lon="-91.6825670">
        <ele>248.6400000</ele>
        <time>2009-06-28T17:44:35Z</time>
      </trkpt>
      <trkpt lat="44.2060620" lon="-91.6827490">
        <ele>249.1200000</ele>
        <time>2009-06-28T17:44:39Z</time>
      </trkpt>
      <trkpt lat="44.2059180" lon="-91.6827310">
        <ele>249.6000000</ele>
        <time>2009-06-28T17:44:40Z</time>
      </trkpt>
      <trkpt lat="44.2057610" lon="-91.6827110">
        <ele>250.0800000</ele>
        <time>2009-06-28T17:44:41Z</time>
      </trkpt>
      <trkpt lat="44.2039150" lon="-91.6826610">
        <ele>251.0400000</ele>
        <time>2009-06-28T17:44:52Z</time>
      </trkpt>
      <trkpt lat="44.2009260" lon="-91.6825990">
        <ele>249.6000000</ele>
        <time>2009-06-28T17:45:09Z</time>
      </trkpt>
      <trkpt lat="44.1992930" lon="-91.6829370">
        <ele>251.0400000</ele>
        <time>2009-06-28T17:45:18Z</time>
      </trkpt>
      <trkpt lat="44.1973750" lon="-91.6842210">
        <ele>247.6800000</ele>
        <time>2009-06-28T17:45:29Z</time>
      </trkpt>
      <trkpt lat="44.1957170" lon="-91.6862820">
        <ele>238.5400000</ele>
        <time>2009-06-28T17:45:40Z</time>
      </trkpt>
      <trkpt lat="44.1955330" lon="-91.6863840">
        <ele>238.5400000</ele>
        <time>2009-06-28T17:45:41Z</time>
      </trkpt>
      <trkpt lat="44.1953480" lon="-91.6864870">
        <ele>239.0200000</ele>
        <time>2009-06-28T17:45:42Z</time>
      </trkpt>
      <trkpt lat="44.1934700" lon="-91.6872210">
        <ele>237.1000000</ele>
        <time>2009-06-28T17:45:52Z</time>
      </trkpt>
      <trkpt lat="44.1901650" lon="-91.6872560">
        <ele>232.3000000</ele>
        <time>2009-06-28T17:46:08Z</time>
      </trkpt>
      <trkpt lat="44.1888560" lon="-91.6876240">
        <ele>241.9100000</ele>
        <time>2009-06-28T17:46:15Z</time>
      </trkpt>
      <trkpt lat="44.1883270" lon="-91.6878340">
        <ele>245.7500000</ele>
        <time>2009-06-28T17:46:18Z</time>
      </trkpt>
      <trkpt lat="44.1872250" lon="-91.6881810">
        <ele>249.1200000</ele>
        <time>2009-06-28T17:46:24Z</time>
      </trkpt>
      <trkpt lat="44.1870410" lon="-91.6882390">
        <ele>249.1200000</ele>
        <time>2009-06-28T17:46:25Z</time>
      </trkpt>
      <trkpt lat="44.1868720" lon="-91.6883600">
        <ele>249.6000000</ele>
        <time>2009-06-28T17:46:26Z</time>
      </trkpt>
      <trkpt lat="44.1867290" lon="-91.6885660">
        <ele>249.1200000</ele>
        <time>2009-06-28T17:46:27Z</time>
      </trkpt>
      <trkpt lat="44.1866180" lon="-91.6888040">
        <ele>249.1200000</ele>
        <time>2009-06-28T17:46:28Z</time>
      </trkpt>
      <trkpt lat="44.1865120" lon="-91.6890290">
        <ele>249.1200000</ele>
        <time>2009-06-28T17:46:29Z</time>
      </trkpt>
      <trkpt lat="44.1864030" lon="-91.6892630">
        <ele>249.6000000</ele>
        <time>2009-06-28T17:46:30Z</time>
      </trkpt>
      <trkpt lat="44.1857750" lon="-91.6908310">
        <ele>249.1200000</ele>
        <time>2009-06-28T17:46:36Z</time>
      </trkpt>
      <trkpt lat="44.1857160" lon="-91.6911240">
        <ele>250.0800000</ele>
        <time>2009-06-28T17:46:37Z</time>
      </trkpt>
      <trkpt lat="44.1849990" lon="-91.6934770">
        <ele>256.3300000</ele>
        <time>2009-06-28T17:46:46Z</time>
      </trkpt>
      <trkpt lat="44.1847280" lon="-91.6945420">
        <ele>256.3300000</ele>
        <time>2009-06-28T17:46:50Z</time>
      </trkpt>
      <trkpt lat="44.1846200" lon="-91.6947810">
        <ele>256.3300000</ele>
        <time>2009-06-28T17:46:51Z</time>
      </trkpt>
      <trkpt lat="44.1844890" lon="-91.6950230">
        <ele>254.8900000</ele>
        <time>2009-06-28T17:46:52Z</time>
      </trkpt>
      <trkpt lat="44.1831990" lon="-91.6969760">
        <ele>250.5600000</ele>
        <time>2009-06-28T17:47:01Z</time>
      </trkpt>
      <trkpt lat="44.1826320" lon="-91.6973380">
        <ele>250.0800000</ele>
        <time>2009-06-28T17:47:04Z</time>
      </trkpt>
      <trkpt lat="44.1824160" lon="-91.6973260">
        <ele>250.0800000</ele>
        <time>2009-06-28T17:47:05Z</time>
      </trkpt>
      <trkpt lat="44.1822020" lon="-91.6973030">
        <ele>250.0800000</ele>
        <time>2009-06-28T17:47:06Z</time>
      </trkpt>
      <trkpt lat="44.1819760" lon="-91.6972780">
        <ele>250.0800000</ele>
        <time>2009-06-28T17:47:07Z</time>
      </trkpt>
      <trkpt lat="44.1817460" lon="-91.6972710">
        <ele>249.1200000</ele>
        <time>2009-06-28T17:47:08Z</time>
      </trkpt>
      <trkpt lat="44.1800920" lon="-91.6974410">
        <ele>237.5800000</ele>
        <time>2009-06-28T17:47:15Z</time>
      </trkpt>
      <trkpt lat="44.1769370" lon="-91.6974820">
        <ele>220.2800000</ele>
        <time>2009-06-28T17:47:29Z</time>
      </trkpt>
      <trkpt lat="44.1742520" lon="-91.6975020">
        <ele>223.6400000</ele>
        <time>2009-06-28T17:47:41Z</time>
      </trkpt>
      <trkpt lat="44.1715700" lon="-91.6975960">
        <ele>223.1600000</ele>
        <time>2009-06-28T17:47:54Z</time>
      </trkpt>
      <trkpt lat="44.1707660" lon="-91.6976890">
        <ele>221.2400000</ele>
        <time>2009-06-28T17:47:58Z</time>
      </trkpt>
      <trkpt lat="44.1705700" lon="-91.6976370">
        <ele>221.2400000</ele>
        <time>2009-06-28T17:47:59Z</time>
      </trkpt>
      <trkpt lat="44.1703660" lon="-91.6975580">
        <ele>220.2800000</ele>
        <time>2009-06-28T17:48:00Z</time>
      </trkpt>
      <trkpt lat="44.1695050" lon="-91.6973890">
        <ele>217.8800000</ele>
        <time>2009-06-28T17:48:04Z</time>
      </trkpt>
      <trkpt lat="44.1693090" lon="-91.6974530">
        <ele>217.4000000</ele>
        <time>2009-06-28T17:48:05Z</time>
      </trkpt>
      <trkpt lat="44.1691230" lon="-91.6975440">
        <ele>216.9100000</ele>
        <time>2009-06-28T17:48:06Z</time>
      </trkpt>
      <trkpt lat="44.1689360" lon="-91.6976770">
        <ele>216.4300000</ele>
        <time>2009-06-28T17:48:07Z</time>
      </trkpt>
      <trkpt lat="44.1687640" lon="-91.6978740">
        <ele>215.9500000</ele>
        <time>2009-06-28T17:48:08Z</time>
      </trkpt>
      <trkpt lat="44.1686130" lon="-91.6981020">
        <ele>214.9900000</ele>
        <time>2009-06-28T17:48:09Z</time>
      </trkpt>
      <trkpt lat="44.1685070" lon="-91.6983790">
        <ele>214.5100000</ele>
        <time>2009-06-28T17:48:10Z</time>
      </trkpt>
      <trkpt lat="44.1684230" lon="-91.6986940">
        <ele>214.0300000</ele>
        <time>2009-06-28T17:48:11Z</time>
      </trkpt>
      <trkpt lat="44.1684030" lon="-91.6990240">
        <ele>213.5500000</ele>
        <time>2009-06-28T17:48:12Z</time>
      </trkpt>
      <trkpt lat="44.1683890" lon="-91.6993210">
        <ele>212.5900000</ele>
        <time>2009-06-28T17:48:13Z</time>
      </trkpt>
      <trkpt lat="44.1684070" lon="-91.6996130">
        <ele>212.1100000</ele>
        <time>2009-06-28T17:48:14Z</time>
      </trkpt>
      <trkpt lat="44.1684240" lon="-91.6999030">
        <ele>212.1100000</ele>
        <time>2009-06-28T17:48:15Z</time>
      </trkpt>
      <trkpt lat="44.1684410" lon="-91.7001900">
        <ele>212.1100000</ele>
        <time>2009-06-28T17:48:16Z</time>
      </trkpt>
      <trkpt lat="44.1687310" lon="-91.7022590">
        <ele>213.0700000</ele>
        <time>2009-06-28T17:48:24Z</time>
      </trkpt>
      <trkpt lat="44.1688760" lon="-91.7031770">
        <ele>214.0300000</ele>
        <time>2009-06-28T17:48:28Z</time>
      </trkpt>
      <trkpt lat="44.1689000" lon="-91.7034220">
        <ele>214.0300000</ele>
        <time>2009-06-28T17:48:29Z</time>
      </trkpt>
      <trkpt lat="44.1688320" lon="-91.7036500">
        <ele>213.5500000</ele>
        <time>2009-06-28T17:48:30Z</time>
      </trkpt>
      <trkpt lat="44.1687260" lon="-91.7039600">
        <ele>214.0300000</ele>
        <time>2009-06-28T17:48:31Z</time>
      </trkpt>
      <trkpt lat="44.1685670" lon="-91.7041870">
        <ele>214.0300000</ele>
        <time>2009-06-28T17:48:32Z</time>
      </trkpt>
      <trkpt lat="44.1684030" lon="-91.7044210">
        <ele>214.0300000</ele>
        <time>2009-06-28T17:48:33Z</time>
      </trkpt>
      <trkpt lat="44.1682420" lon="-91.7046490">
        <ele>213.5500000</ele>
        <time>2009-06-28T17:48:34Z</time>
      </trkpt>
      <trkpt lat="44.1680890" lon="-91.7048670">
        <ele>213.5500000</ele>
        <time>2009-06-28T17:48:35Z</time>
      </trkpt>
      <trkpt lat="44.1673650" lon="-91.7057920">
        <ele>212.1100000</ele>
        <time>2009-06-28T17:48:40Z</time>
      </trkpt>
      <trkpt lat="44.1672150" lon="-91.7059420">
        <ele>212.1100000</ele>
        <time>2009-06-28T17:48:41Z</time>
      </trkpt>
      <trkpt lat="44.1670400" lon="-91.7060440">
        <ele>212.1100000</ele>
        <time>2009-06-28T17:48:42Z</time>
      </trkpt>
      <trkpt lat="44.1668600" lon="-91.7061250">
        <ele>212.1100000</ele>
        <time>2009-06-28T17:48:43Z</time>
      </trkpt>
      <trkpt lat="44.1666790" lon="-91.7061920">
        <ele>212.1100000</ele>
        <time>2009-06-28T17:48:44Z</time>
      </trkpt>
      <trkpt lat="44.1646440" lon="-91.7069420">
        <ele>211.1500000</ele>
        <time>2009-06-28T17:48:55Z</time>
      </trkpt>
      <trkpt lat="44.1642990" lon="-91.7071850">
        <ele>211.6300000</ele>
        <time>2009-06-28T17:48:57Z</time>
      </trkpt>
      <trkpt lat="44.1641570" lon="-91.7073740">
        <ele>212.1100000</ele>
        <time>2009-06-28T17:48:58Z</time>
      </trkpt>
      <trkpt lat="44.1640180" lon="-91.7075720">
        <ele>212.1100000</ele>
        <time>2009-06-28T17:48:59Z</time>
      </trkpt>
      <trkpt lat="44.1638490" lon="-91.7077330">
        <ele>211.6300000</ele>
        <time>2009-06-28T17:49:00Z</time>
      </trkpt>
      <trkpt lat="44.1636630" lon="-91.7077980">
        <ele>211.6300000</ele>
        <time>2009-06-28T17:49:01Z</time>
      </trkpt>
      <trkpt lat="44.1634730" lon="-91.7078330">
        <ele>211.1500000</ele>
        <time>2009-06-28T17:49:02Z</time>
      </trkpt>
      <trkpt lat="44.1632820" lon="-91.7078670">
        <ele>211.1500000</ele>
        <time>2009-06-28T17:49:03Z</time>
      </trkpt>
      <trkpt lat="44.1621130" lon="-91.7080150">
        <ele>216.4300000</ele>
        <time>2009-06-28T17:49:10Z</time>
      </trkpt>
      <trkpt lat="44.1608000" lon="-91.7078620">
        <ele>226.0500000</ele>
        <time>2009-06-28T17:49:18Z</time>
      </trkpt>
      <trkpt lat="44.1596320" lon="-91.7080070">
        <ele>234.7000000</ele>
        <time>2009-06-28T17:49:25Z</time>
      </trkpt>
      <trkpt lat="44.1588320" lon="-91.7083700">
        <ele>241.4300000</ele>
        <time>2009-06-28T17:49:33Z</time>
      </trkpt>
      <trkpt lat="44.1579810" lon="-91.7086500">
        <ele>245.7500000</ele>
        <time>2009-06-28T17:49:41Z</time>
      </trkpt>
      <trkpt lat="44.1574700" lon="-91.7087100">
        <ele>245.7500000</ele>
        <time>2009-06-28T17:49:46Z</time>
      </trkpt>
      <trkpt lat="44.1574310" lon="-91.7087150">
        <ele>244.7900000</ele>
        <time>2009-06-28T17:49:47Z</time>
      </trkpt>
      <trkpt lat="44.1574540" lon="-91.7088560">
        <ele>243.8300000</ele>
        <time>2009-06-28T17:49:48Z</time>
      </trkpt>
      <trkpt lat="44.1575030" lon="-91.7089810">
        <ele>243.3500000</ele>
        <time>2009-06-28T17:49:49Z</time>
      </trkpt>
      <trkpt lat="44.1575590" lon="-91.7091270">
        <ele>241.9100000</ele>
        <time>2009-06-28T17:49:50Z</time>
      </trkpt>
      <trkpt lat="44.1576220" lon="-91.7092880">
        <ele>240.9500000</ele>
        <time>2009-06-28T17:49:51Z</time>
      </trkpt>
      <trkpt lat="44.1576800" lon="-91.7094360">
        <ele>239.0200000</ele>
        <time>2009-06-28T17:49:52Z</time>
      </trkpt>
      <trkpt lat="44.1577250" lon="-91.7096090">
        <ele>237.5800000</ele>
        <time>2009-06-28T17:49:53Z</time>
      </trkpt>
      <trkpt lat="44.1577580" lon="-91.7097760">
        <ele>236.1400000</ele>
        <time>2009-06-28T17:49:54Z</time>
      </trkpt>
      <trkpt lat="44.1577870" lon="-91.7099200">
        <ele>234.7000000</ele>
        <time>2009-06-28T17:49:55Z</time>
      </trkpt>
      <trkpt lat="44.1577460" lon="-91.7100210">
        <ele>233.7400000</ele>
        <time>2009-06-28T17:49:56Z</time>
      </trkpt>
      <trkpt lat="44.1576970" lon="-91.7101460">
        <ele>232.3000000</ele>
        <time>2009-06-28T17:49:57Z</time>
      </trkpt>
      <trkpt lat="44.1576440" lon="-91.7102770">
        <ele>231.8100000</ele>
        <time>2009-06-28T17:49:58Z</time>
      </trkpt>
      <trkpt lat="44.1575930" lon="-91.7103880">
        <ele>230.8500000</ele>
        <time>2009-06-28T17:49:59Z</time>
      </trkpt>
      <trkpt lat="44.1575200" lon="-91.7105170">
        <ele>230.3700000</ele>
        <time>2009-06-28T17:50:00Z</time>
      </trkpt>
      <trkpt lat="44.1574300" lon="-91.7106730">
        <ele>228.4500000</ele>
        <time>2009-06-28T17:50:01Z</time>
      </trkpt>
      <trkpt lat="44.1570400" lon="-91.7119310">
        <ele>224.6100000</ele>
        <time>2009-06-28T17:50:08Z</time>
      </trkpt>
      <trkpt lat="44.1570240" lon="-91.7121260">
        <ele>226.5300000</ele>
        <time>2009-06-28T17:50:09Z</time>
      </trkpt>
      <trkpt lat="44.1570550" lon="-91.7123360">
        <ele>227.9700000</ele>
        <time>2009-06-28T17:50:10Z</time>
      </trkpt>
      <trkpt lat="44.1571350" lon="-91.7125330">
        <ele>229.4100000</ele>
        <time>2009-06-28T17:50:11Z</time>
      </trkpt>
      <trkpt lat="44.1572190" lon="-91.7127380">
        <ele>231.3300000</ele>
        <time>2009-06-28T17:50:12Z</time>
      </trkpt>
      <trkpt lat="44.1573110" lon="-91.7129620">
        <ele>234.7000000</ele>
        <time>2009-06-28T17:50:13Z</time>
      </trkpt>
      <trkpt lat="44.1577960" lon="-91.7147200">
        <ele>238.5400000</ele>
        <time>2009-06-28T17:50:22Z</time>
      </trkpt>
      <trkpt lat="44.1578900" lon="-91.7153320">
        <ele>239.9900000</ele>
        <time>2009-06-28T17:50:25Z</time>
      </trkpt>
      <trkpt lat="44.1579010" lon="-91.7155430">
        <ele>239.9900000</ele>
        <time>2009-06-28T17:50:26Z</time>
      </trkpt>
      <trkpt lat="44.1579130" lon="-91.7157470">
        <ele>239.9900000</ele>
        <time>2009-06-28T17:50:27Z</time>
      </trkpt>
      <trkpt lat="44.1578470" lon="-91.7161080">
        <ele>239.9900000</ele>
        <time>2009-06-28T17:50:29Z</time>
      </trkpt>
      <trkpt lat="44.1578010" lon="-91.7162350">
        <ele>240.4700000</ele>
        <time>2009-06-28T17:50:30Z</time>
      </trkpt>
      <trkpt lat="44.1577120" lon="-91.7163810">
        <ele>240.4700000</ele>
        <time>2009-06-28T17:50:31Z</time>
      </trkpt>
      <trkpt lat="44.1576210" lon="-91.7164650">
        <ele>240.4700000</ele>
        <time>2009-06-28T17:50:32Z</time>
      </trkpt>
      <trkpt lat="44.1575060" lon="-91.7165570">
        <ele>239.9900000</ele>
        <time>2009-06-28T17:50:33Z</time>
      </trkpt>
      <trkpt lat="44.1573940" lon="-91.7166460">
        <ele>239.5100000</ele>
        <time>2009-06-28T17:50:34Z</time>
      </trkpt>
      <trkpt lat="44.1572880" lon="-91.7167310">
        <ele>239.5100000</ele>
        <time>2009-06-28T17:50:35Z</time>
      </trkpt>
      <trkpt lat="44.1569310" lon="-91.7171990">
        <ele>237.5800000</ele>
        <time>2009-06-28T17:50:39Z</time>
      </trkpt>
      <trkpt lat="44.1568900" lon="-91.7172970">
        <ele>237.5800000</ele>
        <time>2009-06-28T17:50:40Z</time>
      </trkpt>
      <trkpt lat="44.1569090" lon="-91.7174720">
        <ele>237.5800000</ele>
        <time>2009-06-28T17:50:41Z</time>
      </trkpt>
      <trkpt lat="44.1569290" lon="-91.7176450">
        <ele>237.1000000</ele>
        <time>2009-06-28T17:50:42Z</time>
      </trkpt>
      <trkpt lat="44.1570030" lon="-91.7177600">
        <ele>236.1400000</ele>
        <time>2009-06-28T17:50:43Z</time>
      </trkpt>
      <trkpt lat="44.1570940" lon="-91.7179020">
        <ele>237.5800000</ele>
        <time>2009-06-28T17:50:44Z</time>
      </trkpt>
      <trkpt lat="44.1571770" lon="-91.7180310">
        <ele>237.5800000</ele>
        <time>2009-06-28T17:50:45Z</time>
      </trkpt>
      <trkpt lat="44.1572790" lon="-91.7181890">
        <ele>237.1000000</ele>
        <time>2009-06-28T17:50:46Z</time>
      </trkpt>
      <trkpt lat="44.1573750" lon="-91.7183780">
        <ele>236.1400000</ele>
        <time>2009-06-28T17:50:47Z</time>
      </trkpt>
      <trkpt lat="44.1575350" lon="-91.7188140">
        <ele>237.5800000</ele>
        <time>2009-06-28T17:50:49Z</time>
      </trkpt>
      <trkpt lat="44.1575480" lon="-91.7190330">
        <ele>237.5800000</ele>
        <time>2009-06-28T17:50:50Z</time>
      </trkpt>
      <trkpt lat="44.1575610" lon="-91.7192610">
        <ele>238.0600000</ele>
        <time>2009-06-28T17:50:51Z</time>
      </trkpt>
      <trkpt lat="44.1575720" lon="-91.7194830">
        <ele>238.5400000</ele>
        <time>2009-06-28T17:50:52Z</time>
      </trkpt>
      <trkpt lat="44.1575720" lon="-91.7197040">
        <ele>239.0200000</ele>
        <time>2009-06-28T17:50:53Z</time>
      </trkpt>
      <trkpt lat="44.1575720" lon="-91.7199200">
        <ele>239.0200000</ele>
        <time>2009-06-28T17:50:54Z</time>
      </trkpt>
      <trkpt lat="44.1575320" lon="-91.7201230">
        <ele>239.5100000</ele>
        <time>2009-06-28T17:50:55Z</time>
      </trkpt>
      <trkpt lat="44.1572910" lon="-91.7210250">
        <ele>240.9500000</ele>
        <time>2009-06-28T17:51:00Z</time>
      </trkpt>
      <trkpt lat="44.1571960" lon="-91.7211580">
        <ele>240.9500000</ele>
        <time>2009-06-28T17:51:01Z</time>
      </trkpt>
      <trkpt lat="44.1570870" lon="-91.7213060">
        <ele>239.9900000</ele>
        <time>2009-06-28T17:51:02Z</time>
      </trkpt>
      <trkpt lat="44.1569650" lon="-91.7214270">
        <ele>239.5100000</ele>
        <time>2009-06-28T17:51:03Z</time>
      </trkpt>
      <trkpt lat="44.1568450" lon="-91.7215480">
        <ele>239.0200000</ele>
        <time>2009-06-28T17:51:04Z</time>
      </trkpt>
      <trkpt lat="44.1564480" lon="-91.7222500">
        <ele>239.9900000</ele>
        <time>2009-06-28T17:51:09Z</time>
      </trkpt>
      <trkpt lat="44.1564210" lon="-91.7224400">
        <ele>239.9900000</ele>
        <time>2009-06-28T17:51:10Z</time>
      </trkpt>
      <trkpt lat="44.1564180" lon="-91.7226290">
        <ele>239.9900000</ele>
        <time>2009-06-28T17:51:11Z</time>
      </trkpt>
      <trkpt lat="44.1564250" lon="-91.7228300">
        <ele>239.5100000</ele>
        <time>2009-06-28T17:51:12Z</time>
      </trkpt>
      <trkpt lat="44.1564320" lon="-91.7230370">
        <ele>238.5400000</ele>
        <time>2009-06-28T17:51:13Z</time>
      </trkpt>
      <trkpt lat="44.1564270" lon="-91.7249330">
        <ele>233.7400000</ele>
        <time>2009-06-28T17:51:22Z</time>
      </trkpt>
      <trkpt lat="44.1564440" lon="-91.7251380">
        <ele>232.7800000</ele>
        <time>2009-06-28T17:51:23Z</time>
      </trkpt>
      <trkpt lat="44.1564830" lon="-91.7253360">
        <ele>231.3300000</ele>
        <time>2009-06-28T17:51:24Z</time>
      </trkpt>
      <trkpt lat="44.1565740" lon="-91.7255180">
        <ele>229.8900000</ele>
        <time>2009-06-28T17:51:25Z</time>
      </trkpt>
      <trkpt lat="44.1566740" lon="-91.7256940">
        <ele>227.9700000</ele>
        <time>2009-06-28T17:51:26Z</time>
      </trkpt>
      <trkpt lat="44.1567880" lon="-91.7258890">
        <ele>227.0100000</ele>
        <time>2009-06-28T17:51:27Z</time>
      </trkpt>
      <trkpt lat="44.1572730" lon="-91.7272180">
        <ele>215.9500000</ele>
        <time>2009-06-28T17:51:34Z</time>
      </trkpt>
      <trkpt lat="44.1574250" lon="-91.7279530">
        <ele>209.7000000</ele>
        <time>2009-06-28T17:51:38Z</time>
      </trkpt>
      <trkpt lat="44.1574380" lon="-91.7281490">
        <ele>208.7400000</ele>
        <time>2009-06-28T17:51:39Z</time>
      </trkpt>
      <trkpt lat="44.1575290" lon="-91.7296850">
        <ele>214.9900000</ele>
        <time>2009-06-28T17:51:48Z</time>
      </trkpt>
      <trkpt lat="44.1575810" lon="-91.7310880">
        <ele>215.4700000</ele>
        <time>2009-06-28T17:51:55Z</time>
      </trkpt>
      <trkpt lat="44.1576360" lon="-91.7322170">
        <ele>214.9900000</ele>
        <time>2009-06-28T17:52:01Z</time>
      </trkpt>
      <trkpt lat="44.1575820" lon="-91.7323780">
        <ele>214.5100000</ele>
        <time>2009-06-28T17:52:02Z</time>
      </trkpt>
      <trkpt lat="44.1575270" lon="-91.7325440">
        <ele>214.5100000</ele>
        <time>2009-06-28T17:52:03Z</time>
      </trkpt>
      <trkpt lat="44.1574860" lon="-91.7326650">
        <ele>214.0300000</ele>
        <time>2009-06-28T17:52:04Z</time>
      </trkpt>
      <trkpt lat="44.1573700" lon="-91.7328090">
        <ele>213.0700000</ele>
        <time>2009-06-28T17:52:05Z</time>
      </trkpt>
      <trkpt lat="44.1572520" lon="-91.7329540">
        <ele>212.1100000</ele>
        <time>2009-06-28T17:52:06Z</time>
      </trkpt>
      <trkpt lat="44.1571300" lon="-91.7331050">
        <ele>211.6300000</ele>
        <time>2009-06-28T17:52:07Z</time>
      </trkpt>
      <trkpt lat="44.1567550" lon="-91.7335690">
        <ele>209.2200000</ele>
        <time>2009-06-28T17:52:10Z</time>
      </trkpt>
      <trkpt lat="44.1560380" lon="-91.7348420">
        <ele>210.6700000</ele>
        <time>2009-06-28T17:52:18Z</time>
      </trkpt>
      <trkpt lat="44.1558010" lon="-91.7352890">
        <ele>216.4300000</ele>
        <time>2009-06-28T17:52:22Z</time>
      </trkpt>
      <trkpt lat="44.1557720" lon="-91.7354050">
        <ele>218.8400000</ele>
        <time>2009-06-28T17:52:23Z</time>
      </trkpt>
      <trkpt lat="44.1557700" lon="-91.7355370">
        <ele>221.7200000</ele>
        <time>2009-06-28T17:52:24Z</time>
      </trkpt>
      <trkpt lat="44.1558030" lon="-91.7356500">
        <ele>224.6100000</ele>
        <time>2009-06-28T17:52:25Z</time>
      </trkpt>
      <trkpt lat="44.1558690" lon="-91.7357810">
        <ele>227.0100000</ele>
        <time>2009-06-28T17:52:26Z</time>
      </trkpt>
      <trkpt lat="44.1559460" lon="-91.7359290">
        <ele>229.4100000</ele>
        <time>2009-06-28T17:52:27Z</time>
      </trkpt>
      <trkpt lat="44.1560340" lon="-91.7360980">
        <ele>231.8100000</ele>
        <time>2009-06-28T17:52:28Z</time>
      </trkpt>
      <trkpt lat="44.1561280" lon="-91.7362770">
        <ele>234.2200000</ele>
        <time>2009-06-28T17:52:29Z</time>
      </trkpt>
      <trkpt lat="44.1566360" lon="-91.7377110">
        <ele>245.2700000</ele>
        <time>2009-06-28T17:52:37Z</time>
      </trkpt>
      <trkpt lat="44.1566490" lon="-91.7378970">
        <ele>245.2700000</ele>
        <time>2009-06-28T17:52:38Z</time>
      </trkpt>
      <trkpt lat="44.1566630" lon="-91.7380880">
        <ele>245.7500000</ele>
        <time>2009-06-28T17:52:39Z</time>
      </trkpt>
      <trkpt lat="44.1566580" lon="-91.7382470">
        <ele>246.2300000</ele>
        <time>2009-06-28T17:52:40Z</time>
      </trkpt>
      <trkpt lat="44.1566090" lon="-91.7384260">
        <ele>246.7200000</ele>
        <time>2009-06-28T17:52:41Z</time>
      </trkpt>
      <trkpt lat="44.1565590" lon="-91.7386060">
        <ele>247.2000000</ele>
        <time>2009-06-28T17:52:42Z</time>
      </trkpt>
      <trkpt lat="44.1565100" lon="-91.7387850">
        <ele>247.6800000</ele>
        <time>2009-06-28T17:52:43Z</time>
      </trkpt>
      <trkpt lat="44.1563280" lon="-91.7395100">
        <ele>247.2000000</ele>
        <time>2009-06-28T17:52:47Z</time>
      </trkpt>
      <trkpt lat="44.1563280" lon="-91.7396930">
        <ele>246.7200000</ele>
        <time>2009-06-28T17:52:48Z</time>
      </trkpt>
      <trkpt lat="44.1563280" lon="-91.7398750">
        <ele>246.7200000</ele>
        <time>2009-06-28T17:52:49Z</time>
      </trkpt>
      <trkpt lat="44.1563990" lon="-91.7400070">
        <ele>246.7200000</ele>
        <time>2009-06-28T17:52:50Z</time>
      </trkpt>
      <trkpt lat="44.1564750" lon="-91.7401460">
        <ele>247.2000000</ele>
        <time>2009-06-28T17:52:51Z</time>
      </trkpt>
      <trkpt lat="44.1565480" lon="-91.7402820">
        <ele>247.6800000</ele>
        <time>2009-06-28T17:52:52Z</time>
      </trkpt>
      <trkpt lat="44.1566230" lon="-91.7404200">
        <ele>248.6400000</ele>
        <time>2009-06-28T17:52:53Z</time>
      </trkpt>
      <trkpt lat="44.1569650" lon="-91.7411450">
        <ele>251.5200000</ele>
        <time>2009-06-28T17:52:59Z</time>
      </trkpt>
      <trkpt lat="44.1569430" lon="-91.7412330">
        <ele>251.5200000</ele>
        <time>2009-06-28T17:53:00Z</time>
      </trkpt>
      <trkpt lat="44.1569290" lon="-91.7412910">
        <ele>251.5200000</ele>
        <time>2009-06-28T17:53:01Z</time>
      </trkpt>
      <trkpt lat="44.1568880" lon="-91.7413320">
        <ele>252.0000000</ele>
        <time>2009-06-28T17:53:02Z</time>
      </trkpt>
      <trkpt lat="44.1568000" lon="-91.7414200">
        <ele>251.0400000</ele>
        <time>2009-06-28T17:53:03Z</time>
      </trkpt>
      <trkpt lat="44.1567190" lon="-91.7413840">
        <ele>250.5600000</ele>
        <time>2009-06-28T17:53:04Z</time>
      </trkpt>
      <trkpt lat="44.1566310" lon="-91.7413460">
        <ele>250.0800000</ele>
        <time>2009-06-28T17:53:05Z</time>
      </trkpt>
      <trkpt lat="44.1565670" lon="-91.7413180">
        <ele>250.5600000</ele>
        <time>2009-06-28T17:53:06Z</time>
      </trkpt>
      <trkpt lat="44.1564580" lon="-91.7412690">
        <ele>250.0800000</ele>
        <time>2009-06-28T17:53:07Z</time>
      </trkpt>
      <trkpt lat="44.1562740" lon="-91.7411880">
        <ele>249.1200000</ele>
        <time>2009-06-28T17:53:08Z</time>
      </trkpt>
      <trkpt lat="44.1561210" lon="-91.7411210">
        <ele>248.6400000</ele>
        <time>2009-06-28T17:53:09Z</time>
      </trkpt>
      <trkpt lat="44.1559500" lon="-91.7410460">
        <ele>248.6400000</ele>
        <time>2009-06-28T17:53:10Z</time>
      </trkpt>
      <trkpt lat="44.1551240" lon="-91.7407060">
        <ele>242.3900000</ele>
        <time>2009-06-28T17:53:15Z</time>
      </trkpt>
      <trkpt lat="44.1549680" lon="-91.7406910">
        <ele>240.9500000</ele>
        <time>2009-06-28T17:53:16Z</time>
      </trkpt>
      <trkpt lat="44.1543220" lon="-91.7407500">
        <ele>228.4500000</ele>
        <time>2009-06-28T17:53:22Z</time>
      </trkpt>
      <trkpt lat="44.1539620" lon="-91.7407830">
        <ele>215.4700000</ele>
        <time>2009-06-28T17:53:29Z</time>
      </trkpt>
      <trkpt lat="44.1535060" lon="-91.7408320">
        <ele>202.0100000</ele>
        <time>2009-06-28T17:53:38Z</time>
      </trkpt>
      <trkpt lat="44.1532000" lon="-91.7408830">
        <ele>193.8400000</ele>
        <time>2009-06-28T17:53:46Z</time>
      </trkpt>
      <trkpt lat="44.1529930" lon="-91.7409780">
        <ele>194.8000000</ele>
        <time>2009-06-28T17:53:53Z</time>
      </trkpt>
      <trkpt lat="44.1530140" lon="-91.7411270">
        <ele>194.8000000</ele>
        <time>2009-06-28T17:53:54Z</time>
      </trkpt>
      <trkpt lat="44.1530530" lon="-91.7411440">
        <ele>194.8000000</ele>
        <time>2009-06-28T17:53:55Z</time>
      </trkpt>
      <trkpt lat="44.1531060" lon="-91.7411660">
        <ele>196.2500000</ele>
        <time>2009-06-28T17:53:56Z</time>
      </trkpt>
      <trkpt lat="44.1531740" lon="-91.7411950">
        <ele>197.6900000</ele>
        <time>2009-06-28T17:53:57Z</time>
      </trkpt>
      <trkpt lat="44.1537920" lon="-91.7414580">
        <ele>202.0100000</ele>
        <time>2009-06-28T17:54:02Z</time>
      </trkpt>
      <trkpt lat="44.1554870" lon="-91.7423460">
        <ele>209.2200000</ele>
        <time>2009-06-28T17:54:15Z</time>
      </trkpt>
      <trkpt lat="44.1558990" lon="-91.7428280">
        <ele>206.8200000</ele>
        <time>2009-06-28T17:54:19Z</time>
      </trkpt>
      <trkpt lat="44.1566840" lon="-91.7440930">
        <ele>202.9800000</ele>
        <time>2009-06-28T17:54:29Z</time>
      </trkpt>
      <trkpt lat="44.1574790" lon="-91.7450170">
        <ele>199.1300000</ele>
        <time>2009-06-28T17:54:39Z</time>
      </trkpt>
      <trkpt lat="44.1587190" lon="-91.7463660">
        <ele>195.7700000</ele>
        <time>2009-06-28T17:54:50Z</time>
      </trkpt>
      <trkpt lat="44.1600250" lon="-91.7476500">
        <ele>197.6900000</ele>
        <time>2009-06-28T17:54:58Z</time>
      </trkpt>
      <trkpt lat="44.1617780" lon="-91.7486730">
        <ele>201.0500000</ele>
        <time>2009-06-28T17:55:08Z</time>
      </trkpt>
      <trkpt lat="44.1632100" lon="-91.7491600">
        <ele>202.9800000</ele>
        <time>2009-06-28T17:55:17Z</time>
      </trkpt>
      <trkpt lat="44.1641920" lon="-91.7491570">
        <ele>202.9800000</ele>
        <time>2009-06-28T17:55:25Z</time>
      </trkpt>
      <trkpt lat="44.1651410" lon="-91.7487960">
        <ele>202.9800000</ele>
        <time>2009-06-28T17:55:32Z</time>
      </trkpt>
      <trkpt lat="44.1661270" lon="-91.7477640">
        <ele>200.5700000</ele>
        <time>2009-06-28T17:55:40Z</time>
      </trkpt>
      <trkpt lat="44.1665760" lon="-91.7468230">
        <ele>201.5300000</ele>
        <time>2009-06-28T17:55:45Z</time>
      </trkpt>
      <trkpt lat="44.1666530" lon="-91.7466250">
        <ele>201.5300000</ele>
        <time>2009-06-28T17:55:46Z</time>
      </trkpt>
      <trkpt lat="44.1670630" lon="-91.7455370">
        <ele>201.5300000</ele>
        <time>2009-06-28T17:55:52Z</time>
      </trkpt>
      <trkpt lat="44.1670900" lon="-91.7453490">
        <ele>201.5300000</ele>
        <time>2009-06-28T17:55:53Z</time>
      </trkpt>
      <trkpt lat="44.1670920" lon="-91.7451540">
        <ele>201.5300000</ele>
        <time>2009-06-28T17:55:54Z</time>
      </trkpt>
      <trkpt lat="44.1670810" lon="-91.7449460">
        <ele>201.5300000</ele>
        <time>2009-06-28T17:55:55Z</time>
      </trkpt>
      <trkpt lat="44.1670690" lon="-91.7447260">
        <ele>201.5300000</ele>
        <time>2009-06-28T17:55:56Z</time>
      </trkpt>
      <trkpt lat="44.1670550" lon="-91.7444990">
        <ele>201.5300000</ele>
        <time>2009-06-28T17:55:57Z</time>
      </trkpt>
      <trkpt lat="44.1665920" lon="-91.7427450">
        <ele>200.0900000</ele>
        <time>2009-06-28T17:56:05Z</time>
      </trkpt>
      <trkpt lat="44.1664610" lon="-91.7423190">
        <ele>200.0900000</ele>
        <time>2009-06-28T17:56:07Z</time>
      </trkpt>
      <trkpt lat="44.1663980" lon="-91.7421120">
        <ele>200.0900000</ele>
        <time>2009-06-28T17:56:08Z</time>
      </trkpt>
      <trkpt lat="44.1663580" lon="-91.7418630">
        <ele>200.5700000</ele>
        <time>2009-06-28T17:56:09Z</time>
      </trkpt>
      <trkpt lat="44.1663400" lon="-91.7416360">
        <ele>200.5700000</ele>
        <time>2009-06-28T17:56:10Z</time>
      </trkpt>
      <trkpt lat="44.1663480" lon="-91.7413340">
        <ele>200.5700000</ele>
        <time>2009-06-28T17:56:11Z</time>
      </trkpt>
      <trkpt lat="44.1664340" lon="-91.7410450">
        <ele>201.0500000</ele>
        <time>2009-06-28T17:56:12Z</time>
      </trkpt>
      <trkpt lat="44.1666350" lon="-91.7408120">
        <ele>201.0500000</ele>
        <time>2009-06-28T17:56:13Z</time>
      </trkpt>
      <trkpt lat="44.1667850" lon="-91.7406620">
        <ele>201.5300000</ele>
        <time>2009-06-28T17:56:14Z</time>
      </trkpt>
      <trkpt lat="44.1669870" lon="-91.7405720">
        <ele>202.0100000</ele>
        <time>2009-06-28T17:56:15Z</time>
      </trkpt>
      <trkpt lat="44.1671820" lon="-91.7405450">
        <ele>202.0100000</ele>
        <time>2009-06-28T17:56:16Z</time>
      </trkpt>
      <trkpt lat="44.1673790" lon="-91.7405260">
        <ele>202.0100000</ele>
        <time>2009-06-28T17:56:17Z</time>
      </trkpt>
      <trkpt lat="44.1675570" lon="-91.7405090">
        <ele>202.4900000</ele>
        <time>2009-06-28T17:56:18Z</time>
      </trkpt>
      <trkpt lat="44.1677360" lon="-91.7404920">
        <ele>202.4900000</ele>
        <time>2009-06-28T17:56:19Z</time>
      </trkpt>
      <trkpt lat="44.1691280" lon="-91.7403920">
        <ele>202.9800000</ele>
        <time>2009-06-28T17:56:27Z</time>
      </trkpt>
      <trkpt lat="44.1692760" lon="-91.7404620">
        <ele>202.4900000</ele>
        <time>2009-06-28T17:56:28Z</time>
      </trkpt>
      <trkpt lat="44.1694250" lon="-91.7405540">
        <ele>202.4900000</ele>
        <time>2009-06-28T17:56:29Z</time>
      </trkpt>
      <trkpt lat="44.1695730" lon="-91.7406460">
        <ele>202.0100000</ele>
        <time>2009-06-28T17:56:30Z</time>
      </trkpt>
      <trkpt lat="44.1697250" lon="-91.7407400">
        <ele>201.5300000</ele>
        <time>2009-06-28T17:56:31Z</time>
      </trkpt>
      <trkpt lat="44.1707710" lon="-91.7410970">
        <ele>203.9400000</ele>
        <time>2009-06-28T17:56:37Z</time>
      </trkpt>
      <trkpt lat="44.1712520" lon="-91.7413080">
        <ele>204.9000000</ele>
        <time>2009-06-28T17:56:40Z</time>
      </trkpt>
      <trkpt lat="44.1713990" lon="-91.7414080">
        <ele>204.9000000</ele>
        <time>2009-06-28T17:56:41Z</time>
      </trkpt>
      <trkpt lat="44.1715470" lon="-91.7415260">
        <ele>204.9000000</ele>
        <time>2009-06-28T17:56:42Z</time>
      </trkpt>
      <trkpt lat="44.1732990" lon="-91.7429150">
        <ele>210.1900000</ele>
        <time>2009-06-28T17:56:55Z</time>
      </trkpt>
      <trkpt lat="44.1737850" lon="-91.7433010">
        <ele>211.6300000</ele>
        <time>2009-06-28T17:56:59Z</time>
      </trkpt>
      <trkpt lat="44.1740910" lon="-91.7433630">
        <ele>213.0700000</ele>
        <time>2009-06-28T17:57:01Z</time>
      </trkpt>
      <trkpt lat="44.1743680" lon="-91.7434900">
        <ele>213.5500000</ele>
        <time>2009-06-28T17:57:03Z</time>
      </trkpt>
      <trkpt lat="44.1744510" lon="-91.7435130">
        <ele>214.0300000</ele>
        <time>2009-06-28T17:57:04Z</time>
      </trkpt>
      <trkpt lat="44.1745400" lon="-91.7434470">
        <ele>214.5100000</ele>
        <time>2009-06-28T17:57:05Z</time>
      </trkpt>
      <trkpt lat="44.1746080" lon="-91.7433950">
        <ele>215.4700000</ele>
        <time>2009-06-28T17:57:06Z</time>
      </trkpt>
      <trkpt lat="44.1746100" lon="-91.7432500">
        <ele>216.4300000</ele>
        <time>2009-06-28T17:57:07Z</time>
      </trkpt>
      <trkpt lat="44.1745460" lon="-91.7431130">
        <ele>217.4000000</ele>
        <time>2009-06-28T17:57:08Z</time>
      </trkpt>
      <trkpt lat="44.1744650" lon="-91.7429740">
        <ele>218.8400000</ele>
        <time>2009-06-28T17:57:09Z</time>
      </trkpt>
      <trkpt lat="44.1743740" lon="-91.7428180">
        <ele>219.8000000</ele>
        <time>2009-06-28T17:57:10Z</time>
      </trkpt>
      <trkpt lat="44.1740470" lon="-91.7422580">
        <ele>222.2000000</ele>
        <time>2009-06-28T17:57:14Z</time>
      </trkpt>
      <trkpt lat="44.1740090" lon="-91.7421180">
        <ele>221.7200000</ele>
        <time>2009-06-28T17:57:15Z</time>
      </trkpt>
      <trkpt lat="44.1740090" lon="-91.7419570">
        <ele>221.7200000</ele>
        <time>2009-06-28T17:57:16Z</time>
      </trkpt>
      <trkpt lat="44.1740090" lon="-91.7418030">
        <ele>221.7200000</ele>
        <time>2009-06-28T17:57:17Z</time>
      </trkpt>
      <trkpt lat="44.1740090" lon="-91.7416520">
        <ele>221.7200000</ele>
        <time>2009-06-28T17:57:18Z</time>
      </trkpt>
      <trkpt lat="44.1740090" lon="-91.7414960">
        <ele>222.6800000</ele>
        <time>2009-06-28T17:57:19Z</time>
      </trkpt>
      <trkpt lat="44.1740410" lon="-91.7412170">
        <ele>224.1200000</ele>
        <time>2009-06-28T17:57:21Z</time>
      </trkpt>
      <trkpt lat="44.1740970" lon="-91.7410850">
        <ele>223.1600000</ele>
        <time>2009-06-28T17:57:22Z</time>
      </trkpt>
      <trkpt lat="44.1741590" lon="-91.7409400">
        <ele>224.1200000</ele>
        <time>2009-06-28T17:57:23Z</time>
      </trkpt>
      <trkpt lat="44.1742260" lon="-91.7407840">
        <ele>225.0900000</ele>
        <time>2009-06-28T17:57:24Z</time>
      </trkpt>
      <trkpt lat="44.1742940" lon="-91.7406250">
        <ele>226.0500000</ele>
        <time>2009-06-28T17:57:25Z</time>
      </trkpt>
      <trkpt lat="44.1745100" lon="-91.7395850">
        <ele>231.8100000</ele>
        <time>2009-06-28T17:57:32Z</time>
      </trkpt>
      <trkpt lat="44.1745360" lon="-91.7389420">
        <ele>237.1000000</ele>
        <time>2009-06-28T17:57:37Z</time>
      </trkpt>
      <trkpt lat="44.1745780" lon="-91.7388290">
        <ele>237.5800000</ele>
        <time>2009-06-28T17:57:38Z</time>
      </trkpt>
      <trkpt lat="44.1746230" lon="-91.7387090">
        <ele>239.0200000</ele>
        <time>2009-06-28T17:57:39Z</time>
      </trkpt>
      <trkpt lat="44.1746850" lon="-91.7385950">
        <ele>240.4700000</ele>
        <time>2009-06-28T17:57:40Z</time>
      </trkpt>
      <trkpt lat="44.1747660" lon="-91.7385050">
        <ele>242.3900000</ele>
        <time>2009-06-28T17:57:41Z</time>
      </trkpt>
      <trkpt lat="44.1748500" lon="-91.7384140">
        <ele>243.8300000</ele>
        <time>2009-06-28T17:57:42Z</time>
      </trkpt>
      <trkpt lat="44.1749360" lon="-91.7383190">
        <ele>245.2700000</ele>
        <time>2009-06-28T17:57:43Z</time>
      </trkpt>
      <trkpt lat="44.1761110" lon="-91.7370260">
        <ele>258.7300000</ele>
        <time>2009-06-28T17:57:56Z</time>
      </trkpt>
      <trkpt lat="44.1774570" lon="-91.7357810">
        <ele>272.6700000</ele>
        <time>2009-06-28T17:58:08Z</time>
      </trkpt>
      <trkpt lat="44.1782070" lon="-91.7351180">
        <ele>283.7300000</ele>
        <time>2009-06-28T17:58:15Z</time>
      </trkpt>
      <trkpt lat="44.1783020" lon="-91.7349940">
        <ele>285.1700000</ele>
        <time>2009-06-28T17:58:16Z</time>
      </trkpt>
      <trkpt lat="44.1783790" lon="-91.7348340">
        <ele>286.6100000</ele>
        <time>2009-06-28T17:58:17Z</time>
      </trkpt>
      <trkpt lat="44.1784360" lon="-91.7346280">
        <ele>288.0500000</ele>
        <time>2009-06-28T17:58:18Z</time>
      </trkpt>
      <trkpt lat="44.1784600" lon="-91.7344320">
        <ele>289.9700000</ele>
        <time>2009-06-28T17:58:19Z</time>
      </trkpt>
      <trkpt lat="44.1784810" lon="-91.7342380">
        <ele>291.4200000</ele>
        <time>2009-06-28T17:58:20Z</time>
      </trkpt>
      <trkpt lat="44.1784970" lon="-91.7340510">
        <ele>291.4200000</ele>
        <time>2009-06-28T17:58:21Z</time>
      </trkpt>
      <trkpt lat="44.1785130" lon="-91.7338710">
        <ele>291.9000000</ele>
        <time>2009-06-28T17:58:22Z</time>
      </trkpt>
      <trkpt lat="44.1786730" lon="-91.7331270">
        <ele>297.6700000</ele>
        <time>2009-06-28T17:58:28Z</time>
      </trkpt>
      <trkpt lat="44.1788670" lon="-91.7332460">
        <ele>297.6700000</ele>
        <time>2009-06-28T17:58:31Z</time>
      </trkpt>
      <trkpt lat="44.1789490" lon="-91.7333520">
        <ele>297.1800000</ele>
        <time>2009-06-28T17:58:32Z</time>
      </trkpt>
      <trkpt lat="44.1790480" lon="-91.7334790">
        <ele>296.7000000</ele>
        <time>2009-06-28T17:58:33Z</time>
      </trkpt>
      <trkpt lat="44.1791770" lon="-91.7336120">
        <ele>296.7000000</ele>
        <time>2009-06-28T17:58:34Z</time>
      </trkpt>
      <trkpt lat="44.1793160" lon="-91.7336910">
        <ele>298.1500000</ele>
        <time>2009-06-28T17:58:35Z</time>
      </trkpt>
      <trkpt lat="44.1794470" lon="-91.7336720">
        <ele>299.1100000</ele>
        <time>2009-06-28T17:58:36Z</time>
      </trkpt>
      <trkpt lat="44.1795790" lon="-91.7336540">
        <ele>300.0700000</ele>
        <time>2009-06-28T17:58:37Z</time>
      </trkpt>
      <trkpt lat="44.1796580" lon="-91.7335940">
        <ele>301.5100000</ele>
        <time>2009-06-28T17:58:38Z</time>
      </trkpt>
      <trkpt lat="44.1797540" lon="-91.7335140">
        <ele>301.9900000</ele>
        <time>2009-06-28T17:58:39Z</time>
      </trkpt>
      <trkpt lat="44.1798470" lon="-91.7334360">
        <ele>303.4300000</ele>
        <time>2009-06-28T17:58:40Z</time>
      </trkpt>
      <trkpt lat="44.1799360" lon="-91.7333620">
        <ele>305.3600000</ele>
        <time>2009-06-28T17:58:41Z</time>
      </trkpt>
      <trkpt lat="44.1800220" lon="-91.7332910">
        <ele>306.3200000</ele>
        <time>2009-06-28T17:58:42Z</time>
      </trkpt>
      <trkpt lat="44.1801090" lon="-91.7332160">
        <ele>307.7600000</ele>
        <time>2009-06-28T17:58:43Z</time>
      </trkpt>
      <trkpt lat="44.1801820" lon="-91.7331240">
        <ele>309.2000000</ele>
        <time>2009-06-28T17:58:44Z</time>
      </trkpt>
      <trkpt lat="44.1802550" lon="-91.7330330">
        <ele>311.1200000</ele>
        <time>2009-06-28T17:58:45Z</time>
      </trkpt>
      <trkpt lat="44.1803150" lon="-91.7328880">
        <ele>312.0900000</ele>
        <time>2009-06-28T17:58:46Z</time>
      </trkpt>
      <trkpt lat="44.1803610" lon="-91.7327370">
        <ele>313.0500000</ele>
        <time>2009-06-28T17:58:47Z</time>
      </trkpt>
      <trkpt lat="44.1803740" lon="-91.7325930">
        <ele>314.0100000</ele>
        <time>2009-06-28T17:58:48Z</time>
      </trkpt>
      <trkpt lat="44.1803860" lon="-91.7324460">
        <ele>314.4900000</ele>
        <time>2009-06-28T17:58:49Z</time>
      </trkpt>
      <trkpt lat="44.1803980" lon="-91.7322990">
        <ele>315.4500000</ele>
        <time>2009-06-28T17:58:50Z</time>
      </trkpt>
      <trkpt lat="44.1804100" lon="-91.7321550">
        <ele>316.4100000</ele>
        <time>2009-06-28T17:58:51Z</time>
      </trkpt>
      <trkpt lat="44.1804820" lon="-91.7316150">
        <ele>318.8100000</ele>
        <time>2009-06-28T17:58:55Z</time>
      </trkpt>
      <trkpt lat="44.1806180" lon="-91.7314640">
        <ele>321.2200000</ele>
        <time>2009-06-28T17:58:57Z</time>
      </trkpt>
      <trkpt lat="44.1808750" lon="-91.7313350">
        <ele>322.6600000</ele>
        <time>2009-06-28T17:59:00Z</time>
      </trkpt>
      <trkpt lat="44.1809980" lon="-91.7312740">
        <ele>322.6600000</ele>
        <time>2009-06-28T17:59:01Z</time>
      </trkpt>
      <trkpt lat="44.1810700" lon="-91.7312490">
        <ele>324.5800000</ele>
        <time>2009-06-28T17:59:02Z</time>
      </trkpt>
      <trkpt lat="44.1811600" lon="-91.7312490">
        <ele>325.5400000</ele>
        <time>2009-06-28T17:59:03Z</time>
      </trkpt>
      <trkpt lat="44.1810470" lon="-91.7312490">
        <ele>326.5000000</ele>
        <time>2009-06-28T17:59:04Z</time>
      </trkpt>
      <trkpt lat="44.1810470" lon="-91.7312490">
        <ele>326.9900000</ele>
        <time>2009-06-28T17:59:05Z</time>
      </trkpt>
      <trkpt lat="44.1810470" lon="-91.7312490">
        <ele>327.9500000</ele>
        <time>2009-06-28T17:59:06Z</time>
      </trkpt>
      <trkpt lat="44.1814410" lon="-91.7316370">
        <ele>328.4300000</ele>
        <time>2009-06-28T17:59:07Z</time>
      </trkpt>
      <trkpt lat="44.1815130" lon="-91.7317630">
        <ele>328.9100000</ele>
        <time>2009-06-28T17:59:08Z</time>
      </trkpt>
      <trkpt lat="44.1816270" lon="-91.7318710">
        <ele>330.3500000</ele>
        <time>2009-06-28T17:59:09Z</time>
      </trkpt>
      <trkpt lat="44.1817370" lon="-91.7318460">
        <ele>330.8300000</ele>
        <time>2009-06-28T17:59:10Z</time>
      </trkpt>
      <trkpt lat="44.1817880" lon="-91.7317780">
        <ele>330.8300000</ele>
        <time>2009-06-28T17:59:11Z</time>
      </trkpt>
      <trkpt lat="44.1818270" lon="-91.7316810">
        <ele>332.7500000</ele>
        <time>2009-06-28T17:59:12Z</time>
      </trkpt>
      <trkpt lat="44.1818810" lon="-91.7315450">
        <ele>333.7100000</ele>
        <time>2009-06-28T17:59:13Z</time>
      </trkpt>
      <trkpt lat="44.1819460" lon="-91.7313850">
        <ele>335.6400000</ele>
        <time>2009-06-28T17:59:14Z</time>
      </trkpt>
      <trkpt lat="44.1820160" lon="-91.7312070">
        <ele>337.0800000</ele>
        <time>2009-06-28T17:59:15Z</time>
      </trkpt>
      <trkpt lat="44.1820820" lon="-91.7310430">
        <ele>339.4800000</ele>
        <time>2009-06-28T17:59:16Z</time>
      </trkpt>
      <trkpt lat="44.1823220" lon="-91.7305750">
        <ele>344.2900000</ele>
        <time>2009-06-28T17:59:19Z</time>
      </trkpt>
      <trkpt lat="44.1824210" lon="-91.7304400">
        <ele>346.6900000</ele>
        <time>2009-06-28T17:59:20Z</time>
      </trkpt>
      <trkpt lat="44.1829620" lon="-91.7294010">
        <ele>360.1500000</ele>
        <time>2009-06-28T17:59:27Z</time>
      </trkpt>
      <trkpt lat="44.1830630" lon="-91.7292760">
        <ele>362.0700000</ele>
        <time>2009-06-28T17:59:28Z</time>
      </trkpt>
      <trkpt lat="44.1831770" lon="-91.7291620">
        <ele>364.0000000</ele>
        <time>2009-06-28T17:59:29Z</time>
      </trkpt>
      <trkpt lat="44.1832950" lon="-91.7290440">
        <ele>366.4000000</ele>
        <time>2009-06-28T17:59:30Z</time>
      </trkpt>
      <trkpt lat="44.1834150" lon="-91.7289260">
        <ele>368.8000000</ele>
        <time>2009-06-28T17:59:31Z</time>
      </trkpt>
      <trkpt lat="44.1843480" lon="-91.7281630">
        <ele>377.4500000</ele>
        <time>2009-06-28T17:59:38Z</time>
      </trkpt>
      <trkpt lat="44.1858190" lon="-91.7263710">
        <ele>371.2100000</ele>
        <time>2009-06-28T17:59:49Z</time>
      </trkpt>
      <trkpt lat="44.1870270" lon="-91.7247510">
        <ele>372.1700000</ele>
        <time>2009-06-28T17:59:57Z</time>
      </trkpt>
      <trkpt lat="44.1873400" lon="-91.7244320">
        <ele>373.1300000</ele>
        <time>2009-06-28T17:59:59Z</time>
      </trkpt>
      <trkpt lat="44.1875130" lon="-91.7243110">
        <ele>374.5700000</ele>
        <time>2009-06-28T18:00:00Z</time>
      </trkpt>
      <trkpt lat="44.1876800" lon="-91.7242040">
        <ele>373.6100000</ele>
        <time>2009-06-28T18:00:01Z</time>
      </trkpt>
      <trkpt lat="44.1878670" lon="-91.7241520">
        <ele>372.1700000</ele>
        <time>2009-06-28T18:00:02Z</time>
      </trkpt>
      <trkpt lat="44.1880560" lon="-91.7241000">
        <ele>371.2100000</ele>
        <time>2009-06-28T18:00:03Z</time>
      </trkpt>
      <trkpt lat="44.1897810" lon="-91.7238540">
        <ele>367.8400000</ele>
        <time>2009-06-28T18:00:12Z</time>
      </trkpt>
      <trkpt lat="44.1925050" lon="-91.7237820">
        <ele>370.2400000</ele>
        <time>2009-06-28T18:00:26Z</time>
      </trkpt>
      <trkpt lat="44.1926970" lon="-91.7237500">
        <ele>370.7300000</ele>
        <time>2009-06-28T18:00:27Z</time>
      </trkpt>
      <trkpt lat="44.1928890" lon="-91.7236880">
        <ele>370.7300000</ele>
        <time>2009-06-28T18:00:28Z</time>
      </trkpt>
      <trkpt lat="44.1930600" lon="-91.7235710">
        <ele>370.7300000</ele>
        <time>2009-06-28T18:00:29Z</time>
      </trkpt>
      <trkpt lat="44.1931800" lon="-91.7234120">
        <ele>370.7300000</ele>
        <time>2009-06-28T18:00:30Z</time>
      </trkpt>
      <trkpt lat="44.1932760" lon="-91.7231920">
        <ele>370.2400000</ele>
        <time>2009-06-28T18:00:31Z</time>
      </trkpt>
      <trkpt lat="44.1933740" lon="-91.7229680">
        <ele>370.2400000</ele>
        <time>2009-06-28T18:00:32Z</time>
      </trkpt>
      <trkpt lat="44.1934600" lon="-91.7227430">
        <ele>369.2800000</ele>
        <time>2009-06-28T18:00:33Z</time>
      </trkpt>
      <trkpt lat="44.1934940" lon="-91.7224830">
        <ele>368.3200000</ele>
        <time>2009-06-28T18:00:34Z</time>
      </trkpt>
      <trkpt lat="44.1934990" lon="-91.7222140">
        <ele>367.3600000</ele>
        <time>2009-06-28T18:00:35Z</time>
      </trkpt>
      <trkpt lat="44.1935040" lon="-91.7219440">
        <ele>366.8800000</ele>
        <time>2009-06-28T18:00:36Z</time>
      </trkpt>
      <trkpt lat="44.1935080" lon="-91.7216750">
        <ele>365.9200000</ele>
        <time>2009-06-28T18:00:37Z</time>
      </trkpt>
      <trkpt lat="44.1935350" lon="-91.7201530">
        <ele>364.9600000</ele>
        <time>2009-06-28T18:00:43Z</time>
      </trkpt>
      <trkpt lat="44.1935940" lon="-91.7199290">
        <ele>364.9600000</ele>
        <time>2009-06-28T18:00:44Z</time>
      </trkpt>
      <trkpt lat="44.1936850" lon="-91.7197280">
        <ele>364.9600000</ele>
        <time>2009-06-28T18:00:45Z</time>
      </trkpt>
      <trkpt lat="44.1938160" lon="-91.7195790">
        <ele>364.9600000</ele>
        <time>2009-06-28T18:00:46Z</time>
      </trkpt>
      <trkpt lat="44.1939810" lon="-91.7194850">
        <ele>365.4400000</ele>
        <time>2009-06-28T18:00:47Z</time>
      </trkpt>
      <trkpt lat="44.1941840" lon="-91.7194140">
        <ele>364.9600000</ele>
        <time>2009-06-28T18:00:48Z</time>
      </trkpt>
      <trkpt lat="44.1944000" lon="-91.7193390">
        <ele>364.0000000</ele>
        <time>2009-06-28T18:00:49Z</time>
      </trkpt>
      <trkpt lat="44.1946130" lon="-91.7192650">
        <ele>364.4800000</ele>
        <time>2009-06-28T18:00:50Z</time>
      </trkpt>
      <trkpt lat="44.1948230" lon="-91.7191920">
        <ele>364.9600000</ele>
        <time>2009-06-28T18:00:51Z</time>
      </trkpt>
      <trkpt lat="44.1954400" lon="-91.7189030">
        <ele>361.1100000</ele>
        <time>2009-06-28T18:00:54Z</time>
      </trkpt>
      <trkpt lat="44.1956250" lon="-91.7187670">
        <ele>360.6300000</ele>
        <time>2009-06-28T18:00:55Z</time>
      </trkpt>
      <trkpt lat="44.1958020" lon="-91.7185720">
        <ele>360.1500000</ele>
        <time>2009-06-28T18:00:56Z</time>
      </trkpt>
      <trkpt lat="44.1959770" lon="-91.7183790">
        <ele>359.6700000</ele>
        <time>2009-06-28T18:00:57Z</time>
      </trkpt>
      <trkpt lat="44.1961400" lon="-91.7181770">
        <ele>359.6700000</ele>
        <time>2009-06-28T18:00:58Z</time>
      </trkpt>
      <trkpt lat="44.1962280" lon="-91.7179090">
        <ele>360.1500000</ele>
        <time>2009-06-28T18:00:59Z</time>
      </trkpt>
      <trkpt lat="44.1962920" lon="-91.7176430">
        <ele>360.6300000</ele>
        <time>2009-06-28T18:01:00Z</time>
      </trkpt>
      <trkpt lat="44.1963270" lon="-91.7173450">
        <ele>361.5900000</ele>
        <time>2009-06-28T18:01:01Z</time>
      </trkpt>
      <trkpt lat="44.1963600" lon="-91.7170650">
        <ele>362.0700000</ele>
        <time>2009-06-28T18:01:02Z</time>
      </trkpt>
      <trkpt lat="44.1963540" lon="-91.7167890">
        <ele>362.5500000</ele>
        <time>2009-06-28T18:01:03Z</time>
      </trkpt>
      <trkpt lat="44.1963350" lon="-91.7165050">
        <ele>362.5500000</ele>
        <time>2009-06-28T18:01:04Z</time>
      </trkpt>
      <trkpt lat="44.1962480" lon="-91.7136960">
        <ele>363.5200000</ele>
        <time>2009-06-28T18:01:14Z</time>
      </trkpt>
      <trkpt lat="44.1963060" lon="-91.7134470">
        <ele>363.5200000</ele>
        <time>2009-06-28T18:01:15Z</time>
      </trkpt>
      <trkpt lat="44.1963820" lon="-91.7131960">
        <ele>363.5200000</ele>
        <time>2009-06-28T18:01:16Z</time>
      </trkpt>
      <trkpt lat="44.1964580" lon="-91.7129460">
        <ele>363.5200000</ele>
        <time>2009-06-28T18:01:17Z</time>
      </trkpt>
      <trkpt lat="44.1969760" lon="-91.7118870">
        <ele>367.8400000</ele>
        <time>2009-06-28T18:01:22Z</time>
      </trkpt>
      <trkpt lat="44.1971320" lon="-91.7117310">
        <ele>367.8400000</ele>
        <time>2009-06-28T18:01:23Z</time>
      </trkpt>
      <trkpt lat="44.1973040" lon="-91.7116060">
        <ele>366.8800000</ele>
        <time>2009-06-28T18:01:24Z</time>
      </trkpt>
      <trkpt lat="44.1975180" lon="-91.7115410">
        <ele>367.3600000</ele>
        <time>2009-06-28T18:01:25Z</time>
      </trkpt>
      <trkpt lat="44.1977380" lon="-91.7115140">
        <ele>367.8400000</ele>
        <time>2009-06-28T18:01:26Z</time>
      </trkpt>
      <trkpt lat="44.1979590" lon="-91.7114860">
        <ele>368.3200000</ele>
        <time>2009-06-28T18:01:27Z</time>
      </trkpt>
      <trkpt lat="44.1981810" lon="-91.7114500">
        <ele>368.8000000</ele>
        <time>2009-06-28T18:01:28Z</time>
      </trkpt>
      <trkpt lat="44.1993820" lon="-91.7108880">
        <ele>368.3200000</ele>
        <time>2009-06-28T18:01:34Z</time>
      </trkpt>
      <trkpt lat="44.2013630" lon="-91.7094980">
        <ele>366.8800000</ele>
        <time>2009-06-28T18:01:45Z</time>
      </trkpt>
      <trkpt lat="44.2020650" lon="-91.7090590">
        <ele>367.8400000</ele>
        <time>2009-06-28T18:01:49Z</time>
      </trkpt>
      <trkpt lat="44.2021990" lon="-91.7088910">
        <ele>368.3200000</ele>
        <time>2009-06-28T18:01:50Z</time>
      </trkpt>
      <trkpt lat="44.2023210" lon="-91.7086940">
        <ele>368.3200000</ele>
        <time>2009-06-28T18:01:51Z</time>
      </trkpt>
      <trkpt lat="44.2024060" lon="-91.7084550">
        <ele>369.2800000</ele>
        <time>2009-06-28T18:01:52Z</time>
      </trkpt>
      <trkpt lat="44.2024230" lon="-91.7081800">
        <ele>369.7600000</ele>
        <time>2009-06-28T18:01:53Z</time>
      </trkpt>
      <trkpt lat="44.2024280" lon="-91.7079030">
        <ele>369.7600000</ele>
        <time>2009-06-28T18:01:54Z</time>
      </trkpt>
      <trkpt lat="44.2024340" lon="-91.7076190">
        <ele>369.7600000</ele>
        <time>2009-06-28T18:01:55Z</time>
      </trkpt>
      <trkpt lat="44.2024390" lon="-91.7073340">
        <ele>369.7600000</ele>
        <time>2009-06-28T18:01:56Z</time>
      </trkpt>
      <trkpt lat="44.2026400" lon="-91.7051870">
        <ele>369.7600000</ele>
        <time>2009-06-28T18:02:04Z</time>
      </trkpt>
      <trkpt lat="44.2027490" lon="-91.7049680">
        <ele>369.7600000</ele>
        <time>2009-06-28T18:02:05Z</time>
      </trkpt>
      <trkpt lat="44.2028750" lon="-91.7047660">
        <ele>370.2400000</ele>
        <time>2009-06-28T18:02:06Z</time>
      </trkpt>
      <trkpt lat="44.2030070" lon="-91.7045590">
        <ele>370.7300000</ele>
        <time>2009-06-28T18:02:07Z</time>
      </trkpt>
      <trkpt lat="44.2031400" lon="-91.7043520">
        <ele>371.2100000</ele>
        <time>2009-06-28T18:02:08Z</time>
      </trkpt>
      <trkpt lat="44.2045110" lon="-91.7026310">
        <ele>370.7300000</ele>
        <time>2009-06-28T18:02:18Z</time>
      </trkpt>
      <trkpt lat="44.2063190" lon="-91.7005740">
        <ele>370.2400000</ele>
        <time>2009-06-28T18:02:31Z</time>
      </trkpt>
      <trkpt lat="44.2080700" lon="-91.6980860">
        <ele>373.1300000</ele>
        <time>2009-06-28T18:02:45Z</time>
      </trkpt>
      <trkpt lat="44.2082470" lon="-91.6980160">
        <ele>372.6500000</ele>
        <time>2009-06-28T18:02:46Z</time>
      </trkpt>
      <trkpt lat="44.2084210" lon="-91.6979530">
        <ele>373.6100000</ele>
        <time>2009-06-28T18:02:47Z</time>
      </trkpt>
      <trkpt lat="44.2086020" lon="-91.6979000">
        <ele>374.0900000</ele>
        <time>2009-06-28T18:02:48Z</time>
      </trkpt>
      <trkpt lat="44.2087950" lon="-91.6978820">
        <ele>374.5700000</ele>
        <time>2009-06-28T18:02:49Z</time>
      </trkpt>
      <trkpt lat="44.2089800" lon="-91.6978650">
        <ele>375.5300000</ele>
        <time>2009-06-28T18:02:50Z</time>
      </trkpt>
      <trkpt lat="44.2104350" lon="-91.6982430">
        <ele>376.0100000</ele>
        <time>2009-06-28T18:02:58Z</time>
      </trkpt>
      <trkpt lat="44.2107540" lon="-91.6985130">
        <ele>376.4900000</ele>
        <time>2009-06-28T18:03:00Z</time>
      </trkpt>
      <trkpt lat="44.2109170" lon="-91.6986530">
        <ele>376.9700000</ele>
        <time>2009-06-28T18:03:01Z</time>
      </trkpt>
      <trkpt lat="44.2110710" lon="-91.6987960">
        <ele>376.9700000</ele>
        <time>2009-06-28T18:03:02Z</time>
      </trkpt>
      <trkpt lat="44.2117670" lon="-91.6995710">
        <ele>379.8600000</ele>
        <time>2009-06-28T18:03:07Z</time>
      </trkpt>
      <trkpt lat="44.2119230" lon="-91.6996520">
        <ele>379.8600000</ele>
        <time>2009-06-28T18:03:08Z</time>
      </trkpt>
      <trkpt lat="44.2120750" lon="-91.6997110">
        <ele>379.8600000</ele>
        <time>2009-06-28T18:03:09Z</time>
      </trkpt>
      <trkpt lat="44.2122460" lon="-91.6997300">
        <ele>379.8600000</ele>
        <time>2009-06-28T18:03:10Z</time>
      </trkpt>
      <trkpt lat="44.2124230" lon="-91.6997500">
        <ele>379.8600000</ele>
        <time>2009-06-28T18:03:11Z</time>
      </trkpt>
      <trkpt lat="44.2126030" lon="-91.6997700">
        <ele>379.3800000</ele>
        <time>2009-06-28T18:03:12Z</time>
      </trkpt>
      <trkpt lat="44.2127830" lon="-91.6997900">
        <ele>378.9000000</ele>
        <time>2009-06-28T18:03:13Z</time>
      </trkpt>
      <trkpt lat="44.2142200" lon="-91.6998630">
        <ele>372.6500000</ele>
        <time>2009-06-28T18:03:21Z</time>
      </trkpt>
      <trkpt lat="44.2144100" lon="-91.6999370">
        <ele>372.1700000</ele>
        <time>2009-06-28T18:03:22Z</time>
      </trkpt>
      <trkpt lat="44.2145690" lon="-91.7000830">
        <ele>371.6900000</ele>
        <time>2009-06-28T18:03:23Z</time>
      </trkpt>
      <trkpt lat="44.2147310" lon="-91.7002310">
        <ele>371.2100000</ele>
        <time>2009-06-28T18:03:24Z</time>
      </trkpt>
      <trkpt lat="44.2148930" lon="-91.7003800">
        <ele>370.7300000</ele>
        <time>2009-06-28T18:03:25Z</time>
      </trkpt>
      <trkpt lat="44.2150390" lon="-91.7005520">
        <ele>370.7300000</ele>
        <time>2009-06-28T18:03:26Z</time>
      </trkpt>
      <trkpt lat="44.2151840" lon="-91.7007280">
        <ele>370.2400000</ele>
        <time>2009-06-28T18:03:27Z</time>
      </trkpt>
      <trkpt lat="44.2158910" lon="-91.7014810">
        <ele>369.2800000</ele>
        <time>2009-06-28T18:03:32Z</time>
      </trkpt>
      <trkpt lat="44.2160580" lon="-91.7015810">
        <ele>369.2800000</ele>
        <time>2009-06-28T18:03:33Z</time>
      </trkpt>
      <trkpt lat="44.2162280" lon="-91.7016470">
        <ele>368.8000000</ele>
        <time>2009-06-28T18:03:34Z</time>
      </trkpt>
      <trkpt lat="44.2164100" lon="-91.7016700">
        <ele>368.8000000</ele>
        <time>2009-06-28T18:03:35Z</time>
      </trkpt>
      <trkpt lat="44.2165920" lon="-91.7016540">
        <ele>368.8000000</ele>
        <time>2009-06-28T18:03:36Z</time>
      </trkpt>
      <trkpt lat="44.2167840" lon="-91.7016030">
        <ele>368.8000000</ele>
        <time>2009-06-28T18:03:37Z</time>
      </trkpt>
      <trkpt lat="44.2169720" lon="-91.7015530">
        <ele>369.2800000</ele>
        <time>2009-06-28T18:03:38Z</time>
      </trkpt>
      <trkpt lat="44.2171570" lon="-91.7015010">
        <ele>369.7600000</ele>
        <time>2009-06-28T18:03:39Z</time>
      </trkpt>
      <trkpt lat="44.2173390" lon="-91.7014230">
        <ele>370.2400000</ele>
        <time>2009-06-28T18:03:40Z</time>
      </trkpt>
      <trkpt lat="44.2175010" lon="-91.7013180">
        <ele>371.2100000</ele>
        <time>2009-06-28T18:03:41Z</time>
      </trkpt>
      <trkpt lat="44.2179320" lon="-91.7008870">
        <ele>372.1700000</ele>
        <time>2009-06-28T18:03:44Z</time>
      </trkpt>
      <trkpt lat="44.2180840" lon="-91.7007350">
        <ele>371.6900000</ele>
        <time>2009-06-28T18:03:45Z</time>
      </trkpt>
      <trkpt lat="44.2182020" lon="-91.7005430">
        <ele>371.6900000</ele>
        <time>2009-06-28T18:03:46Z</time>
      </trkpt>
      <trkpt lat="44.2183160" lon="-91.7003200">
        <ele>371.6900000</ele>
        <time>2009-06-28T18:03:47Z</time>
      </trkpt>
      <trkpt lat="44.2184300" lon="-91.7000980">
        <ele>372.1700000</ele>
        <time>2009-06-28T18:03:48Z</time>
      </trkpt>
      <trkpt lat="44.2195750" lon="-91.6980860">
        <ele>369.2800000</ele>
        <time>2009-06-28T18:03:58Z</time>
      </trkpt>
      <trkpt lat="44.2207120" lon="-91.6971710">
        <ele>371.6900000</ele>
        <time>2009-06-28T18:04:05Z</time>
      </trkpt>
      <trkpt lat="44.2219850" lon="-91.6970070">
        <ele>374.5700000</ele>
        <time>2009-06-28T18:04:13Z</time>
      </trkpt>
      <trkpt lat="44.2239160" lon="-91.6969770">
        <ele>376.0100000</ele>
        <time>2009-06-28T18:04:24Z</time>
      </trkpt>
      <trkpt lat="44.2262130" lon="-91.6969090">
        <ele>373.6100000</ele>
        <time>2009-06-28T18:04:38Z</time>
      </trkpt>
      <trkpt lat="44.2276510" lon="-91.6970950">
        <ele>373.6100000</ele>
        <time>2009-06-28T18:04:47Z</time>
      </trkpt>
      <trkpt lat="44.2284660" lon="-91.6974750">
        <ele>372.1700000</ele>
        <time>2009-06-28T18:04:53Z</time>
      </trkpt>
      <trkpt lat="44.2286190" lon="-91.6974750">
        <ele>371.6900000</ele>
        <time>2009-06-28T18:04:54Z</time>
      </trkpt>
      <trkpt lat="44.2287660" lon="-91.6974500">
        <ele>371.6900000</ele>
        <time>2009-06-28T18:04:55Z</time>
      </trkpt>
      <trkpt lat="44.2289200" lon="-91.6974050">
        <ele>371.6900000</ele>
        <time>2009-06-28T18:04:56Z</time>
      </trkpt>
      <trkpt lat="44.2290760" lon="-91.6973590">
        <ele>372.1700000</ele>
        <time>2009-06-28T18:04:57Z</time>
      </trkpt>
      <trkpt lat="44.2292350" lon="-91.6973120">
        <ele>372.1700000</ele>
        <time>2009-06-28T18:04:58Z</time>
      </trkpt>
      <trkpt lat="44.2301850" lon="-91.6968350">
        <ele>376.0100000</ele>
        <time>2009-06-28T18:05:05Z</time>
      </trkpt>
      <trkpt lat="44.2302980" lon="-91.6967710">
        <ele>376.0100000</ele>
        <time>2009-06-28T18:05:06Z</time>
      </trkpt>
      <trkpt lat="44.2319290" lon="-91.6968880">
        <ele>371.6900000</ele>
        <time>2009-06-28T18:05:18Z</time>
      </trkpt>
      <trkpt lat="44.2323410" lon="-91.6969650">
        <ele>367.8400000</ele>
        <time>2009-06-28T18:05:21Z</time>
      </trkpt>
      <trkpt lat="44.2324730" lon="-91.6970310">
        <ele>366.4000000</ele>
        <time>2009-06-28T18:05:22Z</time>
      </trkpt>
      <trkpt lat="44.2325790" lon="-91.6971420">
        <ele>364.9600000</ele>
        <time>2009-06-28T18:05:23Z</time>
      </trkpt>
      <trkpt lat="44.2326780" lon="-91.6972660">
        <ele>363.0400000</ele>
        <time>2009-06-28T18:05:24Z</time>
      </trkpt>
      <trkpt lat="44.2327660" lon="-91.6974200">
        <ele>361.1100000</ele>
        <time>2009-06-28T18:05:25Z</time>
      </trkpt>
      <trkpt lat="44.2328460" lon="-91.6975600">
        <ele>359.1900000</ele>
        <time>2009-06-28T18:05:26Z</time>
      </trkpt>
      <trkpt lat="44.2328980" lon="-91.6977320">
        <ele>357.2700000</ele>
        <time>2009-06-28T18:05:27Z</time>
      </trkpt>
      <trkpt lat="44.2329570" lon="-91.6979220">
        <ele>354.8600000</ele>
        <time>2009-06-28T18:05:28Z</time>
      </trkpt>
      <trkpt lat="44.2330180" lon="-91.6981220">
        <ele>352.4600000</ele>
        <time>2009-06-28T18:05:29Z</time>
      </trkpt>
      <trkpt lat="44.2337060" lon="-91.7009220">
        <ele>326.5000000</ele>
        <time>2009-06-28T18:05:42Z</time>
      </trkpt>
      <trkpt lat="44.2337830" lon="-91.7014790">
        <ele>321.7000000</ele>
        <time>2009-06-28T18:05:45Z</time>
      </trkpt>
      <trkpt lat="44.2337780" lon="-91.7016600">
        <ele>320.7400000</ele>
        <time>2009-06-28T18:05:46Z</time>
      </trkpt>
      <trkpt lat="44.2337570" lon="-91.7018450">
        <ele>320.2600000</ele>
        <time>2009-06-28T18:05:47Z</time>
      </trkpt>
      <trkpt lat="44.2337300" lon="-91.7020370">
        <ele>318.8100000</ele>
        <time>2009-06-28T18:05:48Z</time>
      </trkpt>
      <trkpt lat="44.2336960" lon="-91.7022340">
        <ele>316.8900000</ele>
        <time>2009-06-28T18:05:49Z</time>
      </trkpt>
      <trkpt lat="44.2333120" lon="-91.7040600">
        <ele>306.3200000</ele>
        <time>2009-06-28T18:05:58Z</time>
      </trkpt>
      <trkpt lat="44.2325220" lon="-91.7059650">
        <ele>294.7800000</ele>
        <time>2009-06-28T18:06:08Z</time>
      </trkpt>
      <trkpt lat="44.2324340" lon="-91.7065310">
        <ele>291.9000000</ele>
        <time>2009-06-28T18:06:11Z</time>
      </trkpt>
      <trkpt lat="44.2324210" lon="-91.7067410">
        <ele>290.4600000</ele>
        <time>2009-06-28T18:06:12Z</time>
      </trkpt>
      <trkpt lat="44.2324080" lon="-91.7069560">
        <ele>289.4900000</ele>
        <time>2009-06-28T18:06:13Z</time>
      </trkpt>
      <trkpt lat="44.2323950" lon="-91.7071820">
        <ele>289.4900000</ele>
        <time>2009-06-28T18:06:14Z</time>
      </trkpt>
      <trkpt lat="44.2323810" lon="-91.7074180">
        <ele>288.0500000</ele>
        <time>2009-06-28T18:06:15Z</time>
      </trkpt>
      <trkpt lat="44.2323670" lon="-91.7076410">
        <ele>287.0900000</ele>
        <time>2009-06-28T18:06:16Z</time>
      </trkpt>
      <trkpt lat="44.2323540" lon="-91.7078640">
        <ele>286.1300000</ele>
        <time>2009-06-28T18:06:17Z</time>
      </trkpt>
      <trkpt lat="44.2323310" lon="-91.7089630">
        <ele>278.9200000</ele>
        <time>2009-06-28T18:06:22Z</time>
      </trkpt>
      <trkpt lat="44.2323730" lon="-91.7091700">
        <ele>277.4800000</ele>
        <time>2009-06-28T18:06:23Z</time>
      </trkpt>
      <trkpt lat="44.2328910" lon="-91.7113420">
        <ele>266.9000000</ele>
        <time>2009-06-28T18:06:34Z</time>
      </trkpt>
      <trkpt lat="44.2329540" lon="-91.7115310">
        <ele>265.9400000</ele>
        <time>2009-06-28T18:06:35Z</time>
      </trkpt>
      <trkpt lat="44.2330200" lon="-91.7117290">
        <ele>264.5000000</ele>
        <time>2009-06-28T18:06:36Z</time>
      </trkpt>
      <trkpt lat="44.2331060" lon="-91.7119250">
        <ele>263.5400000</ele>
        <time>2009-06-28T18:06:37Z</time>
      </trkpt>
      <trkpt lat="44.2332150" lon="-91.7121020">
        <ele>262.1000000</ele>
        <time>2009-06-28T18:06:38Z</time>
      </trkpt>
      <trkpt lat="44.2333250" lon="-91.7122810">
        <ele>260.1700000</ele>
        <time>2009-06-28T18:06:39Z</time>
      </trkpt>
      <trkpt lat="44.2334550" lon="-91.7124480">
        <ele>257.7700000</ele>
        <time>2009-06-28T18:06:40Z</time>
      </trkpt>
      <trkpt lat="44.2338980" lon="-91.7127890">
        <ele>252.0000000</ele>
        <time>2009-06-28T18:06:43Z</time>
      </trkpt>
      <trkpt lat="44.2340110" lon="-91.7129360">
        <ele>250.0800000</ele>
        <time>2009-06-28T18:06:44Z</time>
      </trkpt>
      <trkpt lat="44.2340860" lon="-91.7131060">
        <ele>249.1200000</ele>
        <time>2009-06-28T18:06:45Z</time>
      </trkpt>
      <trkpt lat="44.2341330" lon="-91.7132540">
        <ele>247.2000000</ele>
        <time>2009-06-28T18:06:46Z</time>
      </trkpt>
      <trkpt lat="44.2341330" lon="-91.7134520">
        <ele>244.7900000</ele>
        <time>2009-06-28T18:06:47Z</time>
      </trkpt>
      <trkpt lat="44.2340890" lon="-91.7136420">
        <ele>242.8700000</ele>
        <time>2009-06-28T18:06:48Z</time>
      </trkpt>
      <trkpt lat="44.2340290" lon="-91.7138630">
        <ele>240.9500000</ele>
        <time>2009-06-28T18:06:49Z</time>
      </trkpt>
      <trkpt lat="44.2339570" lon="-91.7141250">
        <ele>239.5100000</ele>
        <time>2009-06-28T18:06:50Z</time>
      </trkpt>
      <trkpt lat="44.2338850" lon="-91.7143850">
        <ele>239.9900000</ele>
        <time>2009-06-28T18:06:51Z</time>
      </trkpt>
      <trkpt lat="44.2335320" lon="-91.7157800">
        <ele>239.9900000</ele>
        <time>2009-06-28T18:06:57Z</time>
      </trkpt>
      <trkpt lat="44.2335320" lon="-91.7160040">
        <ele>239.9900000</ele>
        <time>2009-06-28T18:06:58Z</time>
      </trkpt>
      <trkpt lat="44.2335320" lon="-91.7162280">
        <ele>239.5100000</ele>
        <time>2009-06-28T18:06:59Z</time>
      </trkpt>
      <trkpt lat="44.2335430" lon="-91.7180530">
        <ele>245.2700000</ele>
        <time>2009-06-28T18:07:08Z</time>
      </trkpt>
      <trkpt lat="44.2335290" lon="-91.7199440">
        <ele>245.2700000</ele>
        <time>2009-06-28T18:07:18Z</time>
      </trkpt>
      <trkpt lat="44.2335580" lon="-91.7212550">
        <ele>245.2700000</ele>
        <time>2009-06-28T18:07:27Z</time>
      </trkpt>
      <trkpt lat="44.2333070" lon="-91.7230830">
        <ele>241.4300000</ele>
        <time>2009-06-28T18:07:37Z</time>
      </trkpt>
      <trkpt lat="44.2326330" lon="-91.7247600">
        <ele>244.7900000</ele>
        <time>2009-06-28T18:07:47Z</time>
      </trkpt>
      <trkpt lat="44.2316390" lon="-91.7265350">
        <ele>241.4300000</ele>
        <time>2009-06-28T18:07:57Z</time>
      </trkpt>
      <trkpt lat="44.2311200" lon="-91.7270980">
        <ele>242.8700000</ele>
        <time>2009-06-28T18:08:01Z</time>
      </trkpt>
      <trkpt lat="44.2309670" lon="-91.7272060">
        <ele>243.3500000</ele>
        <time>2009-06-28T18:08:02Z</time>
      </trkpt>
      <trkpt lat="44.2294420" lon="-91.7284680">
        <ele>242.3900000</ele>
        <time>2009-06-28T18:08:12Z</time>
      </trkpt>
      <trkpt lat="44.2274090" lon="-91.7301510">
        <ele>241.4300000</ele>
        <time>2009-06-28T18:08:25Z</time>
      </trkpt>
      <trkpt lat="44.2256850" lon="-91.7311250">
        <ele>238.0600000</ele>
        <time>2009-06-28T18:08:36Z</time>
      </trkpt>
      <trkpt lat="44.2240240" lon="-91.7322340">
        <ele>222.6800000</ele>
        <time>2009-06-28T18:08:46Z</time>
      </trkpt>
      <trkpt lat="44.2227600" lon="-91.7330120">
        <ele>217.4000000</ele>
        <time>2009-06-28T18:08:54Z</time>
      </trkpt>
      <trkpt lat="44.2227180" lon="-91.7331640">
        <ele>217.4000000</ele>
        <time>2009-06-28T18:08:55Z</time>
      </trkpt>
      <trkpt lat="44.2226760" lon="-91.7333200">
        <ele>216.9100000</ele>
        <time>2009-06-28T18:08:56Z</time>
      </trkpt>
      <trkpt lat="44.2226330" lon="-91.7334760">
        <ele>216.4300000</ele>
        <time>2009-06-28T18:08:57Z</time>
      </trkpt>
      <trkpt lat="44.2226320" lon="-91.7336470">
        <ele>216.4300000</ele>
        <time>2009-06-28T18:08:58Z</time>
      </trkpt>
      <trkpt lat="44.2226320" lon="-91.7338330">
        <ele>216.4300000</ele>
        <time>2009-06-28T18:08:59Z</time>
      </trkpt>
      <trkpt lat="44.2226880" lon="-91.7340280">
        <ele>215.9500000</ele>
        <time>2009-06-28T18:09:00Z</time>
      </trkpt>
      <trkpt lat="44.2227830" lon="-91.7341410">
        <ele>215.9500000</ele>
        <time>2009-06-28T18:09:01Z</time>
      </trkpt>
      <trkpt lat="44.2228930" lon="-91.7342270">
        <ele>217.8800000</ele>
        <time>2009-06-28T18:09:02Z</time>
      </trkpt>
      <trkpt lat="44.2230100" lon="-91.7343180">
        <ele>218.8400000</ele>
        <time>2009-06-28T18:09:03Z</time>
      </trkpt>
      <trkpt lat="44.2231310" lon="-91.7344120">
        <ele>218.8400000</ele>
        <time>2009-06-28T18:09:04Z</time>
      </trkpt>
      <trkpt lat="44.2238850" lon="-91.7352130">
        <ele>218.8400000</ele>
        <time>2009-06-28T18:09:11Z</time>
      </trkpt>
      <trkpt lat="44.2239550" lon="-91.7353550">
        <ele>218.3600000</ele>
        <time>2009-06-28T18:09:12Z</time>
      </trkpt>
      <trkpt lat="44.2240150" lon="-91.7356340">
        <ele>217.8800000</ele>
        <time>2009-06-28T18:09:14Z</time>
      </trkpt>
      <trkpt lat="44.2240460" lon="-91.7357860">
        <ele>217.8800000</ele>
        <time>2009-06-28T18:09:15Z</time>
      </trkpt>
      <trkpt lat="44.2240750" lon="-91.7359310">
        <ele>217.8800000</ele>
        <time>2009-06-28T18:09:16Z</time>
      </trkpt>
      <trkpt lat="44.2241400" lon="-91.7360940">
        <ele>216.9100000</ele>
        <time>2009-06-28T18:09:17Z</time>
      </trkpt>
      <trkpt lat="44.2242020" lon="-91.7361970">
        <ele>215.9500000</ele>
        <time>2009-06-28T18:09:18Z</time>
      </trkpt>
      <trkpt lat="44.2242660" lon="-91.7363040">
        <ele>215.9500000</ele>
        <time>2009-06-28T18:09:19Z</time>
      </trkpt>
      <trkpt lat="44.2243280" lon="-91.7364070">
        <ele>215.9500000</ele>
        <time>2009-06-28T18:09:20Z</time>
      </trkpt>
      <trkpt lat="44.2243840" lon="-91.7365010">
        <ele>214.9900000</ele>
        <time>2009-06-28T18:09:21Z</time>
      </trkpt>
      <trkpt lat="44.2244420" lon="-91.7365980">
        <ele>214.5100000</ele>
        <time>2009-06-28T18:09:22Z</time>
      </trkpt>
      <trkpt lat="44.2244910" lon="-91.7366980">
        <ele>214.9900000</ele>
        <time>2009-06-28T18:09:23Z</time>
      </trkpt>
      <trkpt lat="44.2245320" lon="-91.7368220">
        <ele>214.9900000</ele>
        <time>2009-06-28T18:09:24Z</time>
      </trkpt>
      <trkpt lat="44.2245660" lon="-91.7369420">
        <ele>214.5100000</ele>
        <time>2009-06-28T18:09:25Z</time>
      </trkpt>
      <trkpt lat="44.2245830" lon="-91.7370900">
        <ele>213.5500000</ele>
        <time>2009-06-28T18:09:26Z</time>
      </trkpt>
      <trkpt lat="44.2246010" lon="-91.7372550">
        <ele>214.5100000</ele>
        <time>2009-06-28T18:09:27Z</time>
      </trkpt>
      <trkpt lat="44.2245710" lon="-91.7374050">
        <ele>214.0300000</ele>
        <time>2009-06-28T18:09:28Z</time>
      </trkpt>
      <trkpt lat="44.2245200" lon="-91.7375580">
        <ele>213.0700000</ele>
        <time>2009-06-28T18:09:29Z</time>
      </trkpt>
      <trkpt lat="44.2244670" lon="-91.7377180">
        <ele>212.5900000</ele>
        <time>2009-06-28T18:09:30Z</time>
      </trkpt>
      <trkpt lat="44.2244110" lon="-91.7378620">
        <ele>211.6300000</ele>
        <time>2009-06-28T18:09:31Z</time>
      </trkpt>
      <trkpt lat="44.2243380" lon="-91.7380080">
        <ele>212.5900000</ele>
        <time>2009-06-28T18:09:32Z</time>
      </trkpt>
      <trkpt lat="44.2242630" lon="-91.7381580">
        <ele>212.5900000</ele>
        <time>2009-06-28T18:09:33Z</time>
      </trkpt>
      <trkpt lat="44.2241870" lon="-91.7383090">
        <ele>212.5900000</ele>
        <time>2009-06-28T18:09:34Z</time>
      </trkpt>
      <trkpt lat="44.2234590" lon="-91.7398580">
        <ele>218.8400000</ele>
        <time>2009-06-28T18:09:44Z</time>
      </trkpt>
      <trkpt lat="44.2234230" lon="-91.7400410">
        <ele>219.3200000</ele>
        <time>2009-06-28T18:09:45Z</time>
      </trkpt>
      <trkpt lat="44.2233860" lon="-91.7402250">
        <ele>219.8000000</ele>
        <time>2009-06-28T18:09:46Z</time>
      </trkpt>
      <trkpt lat="44.2233550" lon="-91.7404020">
        <ele>220.7600000</ele>
        <time>2009-06-28T18:09:47Z</time>
      </trkpt>
      <trkpt lat="44.2233350" lon="-91.7405910">
        <ele>221.2400000</ele>
        <time>2009-06-28T18:09:48Z</time>
      </trkpt>
      <trkpt lat="44.2233130" lon="-91.7407840">
        <ele>221.7200000</ele>
        <time>2009-06-28T18:09:49Z</time>
      </trkpt>
      <trkpt lat="44.2232920" lon="-91.7409750">
        <ele>222.2000000</ele>
        <time>2009-06-28T18:09:50Z</time>
      </trkpt>
      <trkpt lat="44.2232650" lon="-91.7411530">
        <ele>223.1600000</ele>
        <time>2009-06-28T18:09:51Z</time>
      </trkpt>
      <trkpt lat="44.2232110" lon="-91.7413150">
        <ele>223.6400000</ele>
        <time>2009-06-28T18:09:52Z</time>
      </trkpt>
      <trkpt lat="44.2228670" lon="-91.7423770">
        <ele>220.2800000</ele>
        <time>2009-06-28T18:09:58Z</time>
      </trkpt>
      <trkpt lat="44.2228420" lon="-91.7425730">
        <ele>219.3200000</ele>
        <time>2009-06-28T18:09:59Z</time>
      </trkpt>
      <trkpt lat="44.2228350" lon="-91.7427850">
        <ele>217.8800000</ele>
        <time>2009-06-28T18:10:00Z</time>
      </trkpt>
      <trkpt lat="44.2227470" lon="-91.7438410">
        <ele>211.6300000</ele>
        <time>2009-06-28T18:10:05Z</time>
      </trkpt>
      <trkpt lat="44.2226900" lon="-91.7440290">
        <ele>210.6700000</ele>
        <time>2009-06-28T18:10:06Z</time>
      </trkpt>
      <trkpt lat="44.2226320" lon="-91.7442230">
        <ele>209.7000000</ele>
        <time>2009-06-28T18:10:07Z</time>
      </trkpt>
      <trkpt lat="44.2221750" lon="-91.7453520">
        <ele>206.8200000</ele>
        <time>2009-06-28T18:10:13Z</time>
      </trkpt>
      <trkpt lat="44.2219140" lon="-91.7456460">
        <ele>206.3400000</ele>
        <time>2009-06-28T18:10:15Z</time>
      </trkpt>
      <trkpt lat="44.2217590" lon="-91.7457480">
        <ele>205.8600000</ele>
        <time>2009-06-28T18:10:16Z</time>
      </trkpt>
      <trkpt lat="44.2203260" lon="-91.7466920">
        <ele>203.9400000</ele>
        <time>2009-06-28T18:10:25Z</time>
      </trkpt>
      <trkpt lat="44.2198740" lon="-91.7473540">
        <ele>204.9000000</ele>
        <time>2009-06-28T18:10:29Z</time>
      </trkpt>
      <trkpt lat="44.2198040" lon="-91.7475930">
        <ele>205.3800000</ele>
        <time>2009-06-28T18:10:30Z</time>
      </trkpt>
      <trkpt lat="44.2197320" lon="-91.7478390">
        <ele>205.8600000</ele>
        <time>2009-06-28T18:10:31Z</time>
      </trkpt>
      <trkpt lat="44.2190260" lon="-91.7492810">
        <ele>206.8200000</ele>
        <time>2009-06-28T18:10:38Z</time>
      </trkpt>
      <trkpt lat="44.2185210" lon="-91.7502330">
        <ele>205.8600000</ele>
        <time>2009-06-28T18:10:43Z</time>
      </trkpt>
      <trkpt lat="44.2184580" lon="-91.7504540">
        <ele>205.8600000</ele>
        <time>2009-06-28T18:10:44Z</time>
      </trkpt>
      <trkpt lat="44.2184210" lon="-91.7506770">
        <ele>205.8600000</ele>
        <time>2009-06-28T18:10:45Z</time>
      </trkpt>
      <trkpt lat="44.2183880" lon="-91.7508770">
        <ele>205.3800000</ele>
        <time>2009-06-28T18:10:46Z</time>
      </trkpt>
      <trkpt lat="44.2183730" lon="-91.7510280">
        <ele>205.3800000</ele>
        <time>2009-06-28T18:10:47Z</time>
      </trkpt>
      <trkpt lat="44.2183420" lon="-91.7513750">
        <ele>204.9000000</ele>
        <time>2009-06-28T18:10:52Z</time>
      </trkpt>
      <trkpt lat="44.2182860" lon="-91.7520180">
        <ele>203.9400000</ele>
        <time>2009-06-28T18:11:03Z</time>
      </trkpt>
      <trkpt lat="44.2182260" lon="-91.7527130">
        <ele>202.4900000</ele>
        <time>2009-06-28T18:11:14Z</time>
      </trkpt>
      <trkpt lat="44.2182180" lon="-91.7528070">
        <ele>202.4900000</ele>
        <time>2009-06-28T18:11:16Z</time>
      </trkpt>
      <trkpt lat="44.2183010" lon="-91.7529230">
        <ele>202.4900000</ele>
        <time>2009-06-28T18:11:17Z</time>
      </trkpt>
      <trkpt lat="44.2183780" lon="-91.7529620">
        <ele>202.4900000</ele>
        <time>2009-06-28T18:11:18Z</time>
      </trkpt>
      <trkpt lat="44.2184740" lon="-91.7530090">
        <ele>202.0100000</ele>
        <time>2009-06-28T18:11:19Z</time>
      </trkpt>
      <trkpt lat="44.2185840" lon="-91.7530650">
        <ele>201.5300000</ele>
        <time>2009-06-28T18:11:20Z</time>
      </trkpt>
      <trkpt lat="44.2193580" lon="-91.7535300">
        <ele>202.0100000</ele>
        <time>2009-06-28T18:11:25Z</time>
      </trkpt>
      <trkpt lat="44.2206710" lon="-91.7545060">
        <ele>202.4900000</ele>
        <time>2009-06-28T18:11:32Z</time>
      </trkpt>
      <trkpt lat="44.2222660" lon="-91.7550740">
        <ele>205.8600000</ele>
        <time>2009-06-28T18:11:40Z</time>
      </trkpt>
      <trkpt lat="44.2245210" lon="-91.7559310">
        <ele>207.3000000</ele>
        <time>2009-06-28T18:11:51Z</time>
      </trkpt>
      <trkpt lat="44.2265940" lon="-91.7569450">
        <ele>207.3000000</ele>
        <time>2009-06-28T18:12:01Z</time>
      </trkpt>
      <trkpt lat="44.2290470" lon="-91.7582260">
        <ele>205.3800000</ele>
        <time>2009-06-28T18:12:13Z</time>
      </trkpt>
      <trkpt lat="44.2299080" lon="-91.7584410">
        <ele>205.8600000</ele>
        <time>2009-06-28T18:12:17Z</time>
      </trkpt>
      <trkpt lat="44.2301200" lon="-91.7584430">
        <ele>205.3800000</ele>
        <time>2009-06-28T18:12:18Z</time>
      </trkpt>
      <trkpt lat="44.2303400" lon="-91.7583940">
        <ele>205.3800000</ele>
        <time>2009-06-28T18:12:19Z</time>
      </trkpt>
      <trkpt lat="44.2305550" lon="-91.7583310">
        <ele>205.3800000</ele>
        <time>2009-06-28T18:12:20Z</time>
      </trkpt>
      <trkpt lat="44.2307770" lon="-91.7582500">
        <ele>205.8600000</ele>
        <time>2009-06-28T18:12:21Z</time>
      </trkpt>
      <trkpt lat="44.2324290" lon="-91.7574530">
        <ele>209.7000000</ele>
        <time>2009-06-28T18:12:29Z</time>
      </trkpt>
      <trkpt lat="44.2327710" lon="-91.7570920">
        <ele>209.2200000</ele>
        <time>2009-06-28T18:12:31Z</time>
      </trkpt>
      <trkpt lat="44.2335120" lon="-91.7564080">
        <ele>209.2200000</ele>
        <time>2009-06-28T18:12:35Z</time>
      </trkpt>
      <trkpt lat="44.2337240" lon="-91.7563020">
        <ele>209.7000000</ele>
        <time>2009-06-28T18:12:36Z</time>
      </trkpt>
      <trkpt lat="44.2339420" lon="-91.7562350">
        <ele>210.1900000</ele>
        <time>2009-06-28T18:12:37Z</time>
      </trkpt>
      <trkpt lat="44.2341620" lon="-91.7561860">
        <ele>210.6700000</ele>
        <time>2009-06-28T18:12:38Z</time>
      </trkpt>
      <trkpt lat="44.2343750" lon="-91.7561830">
        <ele>211.6300000</ele>
        <time>2009-06-28T18:12:39Z</time>
      </trkpt>
      <trkpt lat="44.2345830" lon="-91.7561870">
        <ele>212.5900000</ele>
        <time>2009-06-28T18:12:40Z</time>
      </trkpt>
      <trkpt lat="44.2347990" lon="-91.7562350">
        <ele>213.0700000</ele>
        <time>2009-06-28T18:12:41Z</time>
      </trkpt>
      <trkpt lat="44.2349990" lon="-91.7562900">
        <ele>213.5500000</ele>
        <time>2009-06-28T18:12:42Z</time>
      </trkpt>
      <trkpt lat="44.2352010" lon="-91.7563770">
        <ele>214.5100000</ele>
        <time>2009-06-28T18:12:43Z</time>
      </trkpt>
      <trkpt lat="44.2354010" lon="-91.7564620">
        <ele>214.9900000</ele>
        <time>2009-06-28T18:12:44Z</time>
      </trkpt>
      <trkpt lat="44.2362970" lon="-91.7570590">
        <ele>216.4300000</ele>
        <time>2009-06-28T18:12:49Z</time>
      </trkpt>
      <trkpt lat="44.2364510" lon="-91.7572130">
        <ele>217.8800000</ele>
        <time>2009-06-28T18:12:50Z</time>
      </trkpt>
      <trkpt lat="44.2365730" lon="-91.7574170">
        <ele>218.3600000</ele>
        <time>2009-06-28T18:12:51Z</time>
      </trkpt>
      <trkpt lat="44.2366980" lon="-91.7576250">
        <ele>219.3200000</ele>
        <time>2009-06-28T18:12:52Z</time>
      </trkpt>
      <trkpt lat="44.2368220" lon="-91.7578320">
        <ele>219.8000000</ele>
        <time>2009-06-28T18:12:53Z</time>
      </trkpt>
      <trkpt lat="44.2369480" lon="-91.7580410">
        <ele>221.7200000</ele>
        <time>2009-06-28T18:12:54Z</time>
      </trkpt>
      <trkpt lat="44.2370530" lon="-91.7582620">
        <ele>222.6800000</ele>
        <time>2009-06-28T18:12:55Z</time>
      </trkpt>
      <trkpt lat="44.2388610" lon="-91.7617810">
        <ele>230.8500000</ele>
        <time>2009-06-28T18:13:11Z</time>
      </trkpt>
      <trkpt lat="44.2404450" lon="-91.7635720">
        <ele>228.9300000</ele>
        <time>2009-06-28T18:13:21Z</time>
      </trkpt>
      <trkpt lat="44.2406380" lon="-91.7636830">
        <ele>228.9300000</ele>
        <time>2009-06-28T18:13:22Z</time>
      </trkpt>
      <trkpt lat="44.2408400" lon="-91.7637620">
        <ele>228.9300000</ele>
        <time>2009-06-28T18:13:23Z</time>
      </trkpt>
      <trkpt lat="44.2410470" lon="-91.7638280">
        <ele>228.9300000</ele>
        <time>2009-06-28T18:13:24Z</time>
      </trkpt>
      <trkpt lat="44.2412730" lon="-91.7638610">
        <ele>228.9300000</ele>
        <time>2009-06-28T18:13:25Z</time>
      </trkpt>
      <trkpt lat="44.2414990" lon="-91.7638930">
        <ele>228.9300000</ele>
        <time>2009-06-28T18:13:26Z</time>
      </trkpt>
      <trkpt lat="44.2452030" lon="-91.7644440">
        <ele>214.5100000</ele>
        <time>2009-06-28T18:13:43Z</time>
      </trkpt>
      <trkpt lat="44.2463040" lon="-91.7651940">
        <ele>214.0300000</ele>
        <time>2009-06-28T18:13:49Z</time>
      </trkpt>
      <trkpt lat="44.2483160" lon="-91.7667490">
        <ele>215.9500000</ele>
        <time>2009-06-28T18:14:00Z</time>
      </trkpt>
      <trkpt lat="44.2500580" lon="-91.7673290">
        <ele>218.3600000</ele>
        <time>2009-06-28T18:14:09Z</time>
      </trkpt>
      <trkpt lat="44.2520350" lon="-91.7680350">
        <ele>220.2800000</ele>
        <time>2009-06-28T18:14:19Z</time>
      </trkpt>
      <trkpt lat="44.2553410" lon="-91.7693330">
        <ele>221.7200000</ele>
        <time>2009-06-28T18:14:36Z</time>
      </trkpt>
      <trkpt lat="44.2555520" lon="-91.7693440">
        <ele>221.7200000</ele>
        <time>2009-06-28T18:14:37Z</time>
      </trkpt>
      <trkpt lat="44.2557670" lon="-91.7692810">
        <ele>222.2000000</ele>
        <time>2009-06-28T18:14:38Z</time>
      </trkpt>
      <trkpt lat="44.2559850" lon="-91.7692170">
        <ele>222.6800000</ele>
        <time>2009-06-28T18:14:39Z</time>
      </trkpt>
      <trkpt lat="44.2562050" lon="-91.7691520">
        <ele>223.1600000</ele>
        <time>2009-06-28T18:14:40Z</time>
      </trkpt>
      <trkpt lat="44.2564140" lon="-91.7690240">
        <ele>222.6800000</ele>
        <time>2009-06-28T18:14:41Z</time>
      </trkpt>
      <trkpt lat="44.2565900" lon="-91.7688570">
        <ele>220.2800000</ele>
        <time>2009-06-28T18:14:42Z</time>
      </trkpt>
      <trkpt lat="44.2567590" lon="-91.7686590">
        <ele>219.8000000</ele>
        <time>2009-06-28T18:14:43Z</time>
      </trkpt>
      <trkpt lat="44.2569280" lon="-91.7684610">
        <ele>219.3200000</ele>
        <time>2009-06-28T18:14:44Z</time>
      </trkpt>
      <trkpt lat="44.2570970" lon="-91.7682630">
        <ele>218.8400000</ele>
        <time>2009-06-28T18:14:45Z</time>
      </trkpt>
      <trkpt lat="44.2579610" lon="-91.7673630">
        <ele>218.8400000</ele>
        <time>2009-06-28T18:14:50Z</time>
      </trkpt>
      <trkpt lat="44.2581580" lon="-91.7672320">
        <ele>218.8400000</ele>
        <time>2009-06-28T18:14:51Z</time>
      </trkpt>
      <trkpt lat="44.2608180" lon="-91.7656960">
        <ele>223.1600000</ele>
        <time>2009-06-28T18:15:04Z</time>
      </trkpt>
      <trkpt lat="44.2628780" lon="-91.7645880">
        <ele>235.6600000</ele>
        <time>2009-06-28T18:15:14Z</time>
      </trkpt>
      <trkpt lat="44.2640550" lon="-91.7631520">
        <ele>238.0600000</ele>
        <time>2009-06-28T18:15:21Z</time>
      </trkpt>
      <trkpt lat="44.2662670" lon="-91.7602680">
        <ele>240.9500000</ele>
        <time>2009-06-28T18:15:35Z</time>
      </trkpt>
      <trkpt lat="44.2690780" lon="-91.7568470">
        <ele>239.0200000</ele>
        <time>2009-06-28T18:15:52Z</time>
      </trkpt>
      <trkpt lat="44.2703960" lon="-91.7563860">
        <ele>237.5800000</ele>
        <time>2009-06-28T18:15:58Z</time>
      </trkpt>
      <trkpt lat="44.2745860" lon="-91.7555960">
        <ele>226.5300000</ele>
        <time>2009-06-28T18:16:16Z</time>
      </trkpt>
      <trkpt lat="44.2785940" lon="-91.7548400">
        <ele>224.6100000</ele>
        <time>2009-06-28T18:16:34Z</time>
      </trkpt>
      <trkpt lat="44.2816780" lon="-91.7543400">
        <ele>229.8900000</ele>
        <time>2009-06-28T18:16:48Z</time>
      </trkpt>
      <trkpt lat="44.2857560" lon="-91.7538980">
        <ele>227.4900000</ele>
        <time>2009-06-28T18:17:06Z</time>
      </trkpt>
      <trkpt lat="44.2880390" lon="-91.7538320">
        <ele>222.6800000</ele>
        <time>2009-06-28T18:17:16Z</time>
      </trkpt>
      <trkpt lat="44.2882690" lon="-91.7539240">
        <ele>222.6800000</ele>
        <time>2009-06-28T18:17:17Z</time>
      </trkpt>
      <trkpt lat="44.2905610" lon="-91.7548370">
        <ele>224.6100000</ele>
        <time>2009-06-28T18:17:27Z</time>
      </trkpt>
      <trkpt lat="44.2947080" lon="-91.7564880">
        <ele>234.7000000</ele>
        <time>2009-06-28T18:17:46Z</time>
      </trkpt>
      <trkpt lat="44.2991260" lon="-91.7582650">
        <ele>239.5100000</ele>
        <time>2009-06-28T18:18:06Z</time>
      </trkpt>
      <trkpt lat="44.3011080" lon="-91.7594550">
        <ele>239.0200000</ele>
        <time>2009-06-28T18:18:16Z</time>
      </trkpt>
      <trkpt lat="44.3042890" lon="-91.7618600">
        <ele>225.5700000</ele>
        <time>2009-06-28T18:18:32Z</time>
      </trkpt>
      <trkpt lat="44.3061040" lon="-91.7623630">
        <ele>229.8900000</ele>
        <time>2009-06-28T18:18:40Z</time>
      </trkpt>
      <trkpt lat="44.3074270" lon="-91.7626910">
        <ele>232.3000000</ele>
        <time>2009-06-28T18:18:46Z</time>
      </trkpt>
      <trkpt lat="44.3076140" lon="-91.7628060">
        <ele>232.7800000</ele>
        <time>2009-06-28T18:18:47Z</time>
      </trkpt>
      <trkpt lat="44.3077910" lon="-91.7629970">
        <ele>232.7800000</ele>
        <time>2009-06-28T18:18:48Z</time>
      </trkpt>
      <trkpt lat="44.3079590" lon="-91.7631780">
        <ele>232.7800000</ele>
        <time>2009-06-28T18:18:49Z</time>
      </trkpt>
      <trkpt lat="44.3081260" lon="-91.7633590">
        <ele>232.7800000</ele>
        <time>2009-06-28T18:18:50Z</time>
      </trkpt>
      <trkpt lat="44.3097490" lon="-91.7651130">
        <ele>228.9300000</ele>
        <time>2009-06-28T18:19:01Z</time>
      </trkpt>
      <trkpt lat="44.3119320" lon="-91.7674110">
        <ele>230.3700000</ele>
        <time>2009-06-28T18:19:16Z</time>
      </trkpt>
      <trkpt lat="44.3140530" lon="-91.7697910">
        <ele>232.7800000</ele>
        <time>2009-06-28T18:19:31Z</time>
      </trkpt>
      <trkpt lat="44.3153340" lon="-91.7712430">
        <ele>232.7800000</ele>
        <time>2009-06-28T18:19:42Z</time>
      </trkpt>
      <trkpt lat="44.3157940" lon="-91.7717270">
        <ele>231.8100000</ele>
        <time>2009-06-28T18:19:47Z</time>
      </trkpt>
      <trkpt lat="44.3158440" lon="-91.7717610">
        <ele>231.8100000</ele>
        <time>2009-06-28T18:19:48Z</time>
      </trkpt>
      <trkpt lat="44.3159910" lon="-91.7717520">
        <ele>231.3300000</ele>
        <time>2009-06-28T18:19:49Z</time>
      </trkpt>
      <trkpt lat="44.3161080" lon="-91.7717360">
        <ele>231.3300000</ele>
        <time>2009-06-28T18:19:50Z</time>
      </trkpt>
      <trkpt lat="44.3162330" lon="-91.7717170">
        <ele>231.8100000</ele>
        <time>2009-06-28T18:19:51Z</time>
      </trkpt>
      <trkpt lat="44.3163550" lon="-91.7716530">
        <ele>232.3000000</ele>
        <time>2009-06-28T18:19:52Z</time>
      </trkpt>
      <trkpt lat="44.3164750" lon="-91.7715900">
        <ele>232.7800000</ele>
        <time>2009-06-28T18:19:53Z</time>
      </trkpt>
      <trkpt lat="44.3180290" lon="-91.7709700">
        <ele>237.5800000</ele>
        <time>2009-06-28T18:20:04Z</time>
      </trkpt>
      <trkpt lat="44.3198240" lon="-91.7706450">
        <ele>235.6600000</ele>
        <time>2009-06-28T18:20:14Z</time>
      </trkpt>
      <trkpt lat="44.3216280" lon="-91.7704510">
        <ele>222.6800000</ele>
        <time>2009-06-28T18:20:25Z</time>
      </trkpt>
      <trkpt lat="44.3234700" lon="-91.7702530">
        <ele>216.4300000</ele>
        <time>2009-06-28T18:20:35Z</time>
      </trkpt>
      <trkpt lat="44.3265870" lon="-91.7699190">
        <ele>227.9700000</ele>
        <time>2009-06-28T18:20:51Z</time>
      </trkpt>
      <trkpt lat="44.3289680" lon="-91.7700500">
        <ele>230.3700000</ele>
        <time>2009-06-28T18:21:03Z</time>
      </trkpt>
      <trkpt lat="44.3312870" lon="-91.7708980">
        <ele>234.2200000</ele>
        <time>2009-06-28T18:21:14Z</time>
      </trkpt>
      <trkpt lat="44.3342330" lon="-91.7721060">
        <ele>239.9900000</ele>
        <time>2009-06-28T18:21:28Z</time>
      </trkpt>
      <trkpt lat="44.3371570" lon="-91.7736800">
        <ele>225.0900000</ele>
        <time>2009-06-28T18:21:42Z</time>
      </trkpt>
      <trkpt lat="44.3393260" lon="-91.7744550">
        <ele>215.9500000</ele>
        <time>2009-06-28T18:21:52Z</time>
      </trkpt>
      <trkpt lat="44.3427940" lon="-91.7750640">
        <ele>208.7400000</ele>
        <time>2009-06-28T18:22:08Z</time>
      </trkpt>
      <trkpt lat="44.3466220" lon="-91.7755090">
        <ele>207.3000000</ele>
        <time>2009-06-28T18:22:26Z</time>
      </trkpt>
      <trkpt lat="44.3482060" lon="-91.7749000">
        <ele>224.1200000</ele>
        <time>2009-06-28T18:22:33Z</time>
      </trkpt>
      <trkpt lat="44.3504870" lon="-91.7729340">
        <ele>251.0400000</ele>
        <time>2009-06-28T18:22:44Z</time>
      </trkpt>
      <trkpt lat="44.3534190" lon="-91.7697890">
        <ele>252.0000000</ele>
        <time>2009-06-28T18:22:59Z</time>
      </trkpt>
      <trkpt lat="44.3556170" lon="-91.7679620">
        <ele>251.0400000</ele>
        <time>2009-06-28T18:23:09Z</time>
      </trkpt>
      <trkpt lat="44.3592470" lon="-91.7657060">
        <ele>253.4400000</ele>
        <time>2009-06-28T18:23:25Z</time>
      </trkpt>
      <trkpt lat="44.3615360" lon="-91.7640160">
        <ele>259.2100000</ele>
        <time>2009-06-28T18:23:35Z</time>
      </trkpt>
      <trkpt lat="44.3651070" lon="-91.7612090">
        <ele>260.1700000</ele>
        <time>2009-06-28T18:23:51Z</time>
      </trkpt>
      <trkpt lat="44.3670000" lon="-91.7593140">
        <ele>261.6200000</ele>
        <time>2009-06-28T18:24:01Z</time>
      </trkpt>
      <trkpt lat="44.3671410" lon="-91.7590330">
        <ele>261.6200000</ele>
        <time>2009-06-28T18:24:02Z</time>
      </trkpt>
      <trkpt lat="44.3680420" lon="-91.7574930">
        <ele>262.5800000</ele>
        <time>2009-06-28T18:24:08Z</time>
      </trkpt>
      <trkpt lat="44.3682510" lon="-91.7573360">
        <ele>263.0600000</ele>
        <time>2009-06-28T18:24:09Z</time>
      </trkpt>
      <trkpt lat="44.3684630" lon="-91.7571770">
        <ele>262.5800000</ele>
        <time>2009-06-28T18:24:10Z</time>
      </trkpt>
      <trkpt lat="44.3686830" lon="-91.7570120">
        <ele>262.5800000</ele>
        <time>2009-06-28T18:24:11Z</time>
      </trkpt>
      <trkpt lat="44.3689040" lon="-91.7568470">
        <ele>263.5400000</ele>
        <time>2009-06-28T18:24:12Z</time>
      </trkpt>
      <trkpt lat="44.3708750" lon="-91.7554400">
        <ele>264.0200000</ele>
        <time>2009-06-28T18:24:21Z</time>
      </trkpt>
      <trkpt lat="44.3722280" lon="-91.7550820">
        <ele>271.2300000</ele>
        <time>2009-06-28T18:24:27Z</time>
      </trkpt>
      <trkpt lat="44.3728820" lon="-91.7548590">
        <ele>271.7100000</ele>
        <time>2009-06-28T18:24:30Z</time>
      </trkpt>
      <trkpt lat="44.3730810" lon="-91.7547030">
        <ele>269.7900000</ele>
        <time>2009-06-28T18:24:31Z</time>
      </trkpt>
      <trkpt lat="44.3732810" lon="-91.7545450">
        <ele>268.8300000</ele>
        <time>2009-06-28T18:24:32Z</time>
      </trkpt>
      <trkpt lat="44.3734700" lon="-91.7543880">
        <ele>268.3500000</ele>
        <time>2009-06-28T18:24:33Z</time>
      </trkpt>
      <trkpt lat="44.3736490" lon="-91.7542020">
        <ele>266.9000000</ele>
        <time>2009-06-28T18:24:34Z</time>
      </trkpt>
      <trkpt lat="44.3750720" lon="-91.7527170">
        <ele>265.4600000</ele>
        <time>2009-06-28T18:24:43Z</time>
      </trkpt>
      <trkpt lat="44.3769090" lon="-91.7510240">
        <ele>266.4200000</ele>
        <time>2009-06-28T18:24:55Z</time>
      </trkpt>
      <trkpt lat="44.3771080" lon="-91.7510010">
        <ele>266.4200000</ele>
        <time>2009-06-28T18:24:56Z</time>
      </trkpt>
      <trkpt lat="44.3773210" lon="-91.7509760">
        <ele>266.9000000</ele>
        <time>2009-06-28T18:24:57Z</time>
      </trkpt>
      <trkpt lat="44.3775370" lon="-91.7509510">
        <ele>266.9000000</ele>
        <time>2009-06-28T18:24:58Z</time>
      </trkpt>
      <trkpt lat="44.3777450" lon="-91.7509270">
        <ele>266.4200000</ele>
        <time>2009-06-28T18:24:59Z</time>
      </trkpt>
      <trkpt lat="44.3795730" lon="-91.7508660">
        <ele>263.0600000</ele>
        <time>2009-06-28T18:25:09Z</time>
      </trkpt>
      <trkpt lat="44.3817970" lon="-91.7508320">
        <ele>259.2100000</ele>
        <time>2009-06-28T18:25:22Z</time>
      </trkpt>
      <trkpt lat="44.3841740" lon="-91.7508180">
        <ele>256.8100000</ele>
        <time>2009-06-28T18:25:35Z</time>
      </trkpt>
      <trkpt lat="44.3866720" lon="-91.7507560">
        <ele>256.8100000</ele>
        <time>2009-06-28T18:25:51Z</time>
      </trkpt>
      <trkpt lat="44.3869860" lon="-91.7506960">
        <ele>256.8100000</ele>
        <time>2009-06-28T18:25:53Z</time>
      </trkpt>
      <trkpt lat="44.3871580" lon="-91.7506100">
        <ele>257.2900000</ele>
        <time>2009-06-28T18:25:54Z</time>
      </trkpt>
      <trkpt lat="44.3873160" lon="-91.7504570">
        <ele>257.7700000</ele>
        <time>2009-06-28T18:25:55Z</time>
      </trkpt>
      <trkpt lat="44.3874440" lon="-91.7502390">
        <ele>258.2500000</ele>
        <time>2009-06-28T18:25:56Z</time>
      </trkpt>
      <trkpt lat="44.3875440" lon="-91.7499880">
        <ele>258.2500000</ele>
        <time>2009-06-28T18:25:57Z</time>
      </trkpt>
      <trkpt lat="44.3876480" lon="-91.7497270">
        <ele>258.7300000</ele>
        <time>2009-06-28T18:25:58Z</time>
      </trkpt>
      <trkpt lat="44.3877440" lon="-91.7494510">
        <ele>259.2100000</ele>
        <time>2009-06-28T18:25:59Z</time>
      </trkpt>
      <trkpt lat="44.3878420" lon="-91.7491670">
        <ele>259.6900000</ele>
        <time>2009-06-28T18:26:00Z</time>
      </trkpt>
      <trkpt lat="44.3886860" lon="-91.7473270">
        <ele>262.5800000</ele>
        <time>2009-06-28T18:26:07Z</time>
      </trkpt>
      <trkpt lat="44.3900990" lon="-91.7453930">
        <ele>264.9800000</ele>
        <time>2009-06-28T18:26:16Z</time>
      </trkpt>
      <trkpt lat="44.3917030" lon="-91.7427820">
        <ele>268.3500000</ele>
        <time>2009-06-28T18:26:28Z</time>
      </trkpt>
      <trkpt lat="44.3925310" lon="-91.7405930">
        <ele>268.8300000</ele>
        <time>2009-06-28T18:26:36Z</time>
      </trkpt>
      <trkpt lat="44.3936210" lon="-91.7370550">
        <ele>270.2700000</ele>
        <time>2009-06-28T18:26:48Z</time>
      </trkpt>
      <trkpt lat="44.3944830" lon="-91.7336770">
        <ele>272.6700000</ele>
        <time>2009-06-28T18:27:00Z</time>
      </trkpt>
      <trkpt lat="44.3956230" lon="-91.7302300">
        <ele>273.1500000</ele>
        <time>2009-06-28T18:27:13Z</time>
      </trkpt>
      <trkpt lat="44.3969590" lon="-91.7281190">
        <ele>276.5200000</ele>
        <time>2009-06-28T18:27:22Z</time>
      </trkpt>
      <trkpt lat="44.3985170" lon="-91.7262500">
        <ele>277.9600000</ele>
        <time>2009-06-28T18:27:31Z</time>
      </trkpt>
      <trkpt lat="44.4002680" lon="-91.7238820">
        <ele>283.2500000</ele>
        <time>2009-06-28T18:27:42Z</time>
      </trkpt>
      <trkpt lat="44.4010280" lon="-91.7220780">
        <ele>282.2800000</ele>
        <time>2009-06-28T18:27:49Z</time>
      </trkpt>
      <trkpt lat="44.4020110" lon="-91.7204370">
        <ele>282.7700000</ele>
        <time>2009-06-28T18:27:57Z</time>
      </trkpt>
      <trkpt lat="44.4028480" lon="-91.7186360">
        <ele>286.1300000</ele>
        <time>2009-06-28T18:28:04Z</time>
      </trkpt>
      <trkpt lat="44.4034770" lon="-91.7167300">
        <ele>287.0900000</ele>
        <time>2009-06-28T18:28:11Z</time>
      </trkpt>
      <trkpt lat="44.4046220" lon="-91.7146380">
        <ele>288.5300000</ele>
        <time>2009-06-28T18:28:20Z</time>
      </trkpt>
      <trkpt lat="44.4066640" lon="-91.7110080">
        <ele>295.2600000</ele>
        <time>2009-06-28T18:28:36Z</time>
      </trkpt>
      <trkpt lat="44.4075170" lon="-91.7092710">
        <ele>292.8600000</ele>
        <time>2009-06-28T18:28:43Z</time>
      </trkpt>
      <trkpt lat="44.4076860" lon="-91.7091310">
        <ele>292.8600000</ele>
        <time>2009-06-28T18:28:44Z</time>
      </trkpt>
      <trkpt lat="44.4078770" lon="-91.7090080">
        <ele>292.3800000</ele>
        <time>2009-06-28T18:28:45Z</time>
      </trkpt>
      <trkpt lat="44.4080650" lon="-91.7089310">
        <ele>291.9000000</ele>
        <time>2009-06-28T18:28:46Z</time>
      </trkpt>
      <trkpt lat="44.4082620" lon="-91.7089210">
        <ele>290.9400000</ele>
        <time>2009-06-28T18:28:47Z</time>
      </trkpt>
      <trkpt lat="44.4084870" lon="-91.7089100">
        <ele>289.9700000</ele>
        <time>2009-06-28T18:28:48Z</time>
      </trkpt>
      <trkpt lat="44.4086940" lon="-91.7089000">
        <ele>289.4900000</ele>
        <time>2009-06-28T18:28:49Z</time>
      </trkpt>
      <trkpt lat="44.4089170" lon="-91.7088780">
        <ele>289.4900000</ele>
        <time>2009-06-28T18:28:50Z</time>
      </trkpt>
      <trkpt lat="44.4096900" lon="-91.7084830">
        <ele>289.9700000</ele>
        <time>2009-06-28T18:28:54Z</time>
      </trkpt>
      <trkpt lat="44.4098420" lon="-91.7083530">
        <ele>289.9700000</ele>
        <time>2009-06-28T18:28:55Z</time>
      </trkpt>
      <trkpt lat="44.4099620" lon="-91.7081590">
        <ele>289.0100000</ele>
        <time>2009-06-28T18:28:56Z</time>
      </trkpt>
      <trkpt lat="44.4100820" lon="-91.7079640">
        <ele>290.9400000</ele>
        <time>2009-06-28T18:28:57Z</time>
      </trkpt>
      <trkpt lat="44.4101850" lon="-91.7077760">
        <ele>291.9000000</ele>
        <time>2009-06-28T18:28:58Z</time>
      </trkpt>
      <trkpt lat="44.4102550" lon="-91.7075510">
        <ele>292.8600000</ele>
        <time>2009-06-28T18:28:59Z</time>
      </trkpt>
      <trkpt lat="44.4103280" lon="-91.7073190">
        <ele>293.3400000</ele>
        <time>2009-06-28T18:29:00Z</time>
      </trkpt>
      <trkpt lat="44.4103870" lon="-91.7070710">
        <ele>293.8200000</ele>
        <time>2009-06-28T18:29:01Z</time>
      </trkpt>
      <trkpt lat="44.4103870" lon="-91.7068140">
        <ele>293.8200000</ele>
        <time>2009-06-28T18:29:02Z</time>
      </trkpt>
      <trkpt lat="44.4103870" lon="-91.7065480">
        <ele>294.7800000</ele>
        <time>2009-06-28T18:29:03Z</time>
      </trkpt>
      <trkpt lat="44.4103460" lon="-91.7062950">
        <ele>295.2600000</ele>
        <time>2009-06-28T18:29:04Z</time>
      </trkpt>
      <trkpt lat="44.4102980" lon="-91.7060230">
        <ele>295.7400000</ele>
        <time>2009-06-28T18:29:05Z</time>
      </trkpt>
      <trkpt lat="44.4102490" lon="-91.7057450">
        <ele>296.7000000</ele>
        <time>2009-06-28T18:29:06Z</time>
      </trkpt>
      <trkpt lat="44.4094950" lon="-91.7022870">
        <ele>301.5100000</ele>
        <time>2009-06-28T18:29:18Z</time>
      </trkpt>
      <trkpt lat="44.4090560" lon="-91.6989670">
        <ele>304.8800000</ele>
        <time>2009-06-28T18:29:29Z</time>
      </trkpt>
      <trkpt lat="44.4092280" lon="-91.6958880">
        <ele>307.7600000</ele>
        <time>2009-06-28T18:29:39Z</time>
      </trkpt>
      <trkpt lat="44.4097820" lon="-91.6934340">
        <ele>307.2800000</ele>
        <time>2009-06-28T18:29:47Z</time>
      </trkpt>
      <trkpt lat="44.4110250" lon="-91.6896240">
        <ele>307.7600000</ele>
        <time>2009-06-28T18:30:00Z</time>
      </trkpt>
      <trkpt lat="44.4118730" lon="-91.6874560">
        <ele>310.1600000</ele>
        <time>2009-06-28T18:30:08Z</time>
      </trkpt>
      <trkpt lat="44.4123260" lon="-91.6858830">
        <ele>311.1200000</ele>
        <time>2009-06-28T18:30:14Z</time>
      </trkpt>
      <trkpt lat="44.4124450" lon="-91.6856960">
        <ele>311.1200000</ele>
        <time>2009-06-28T18:30:15Z</time>
      </trkpt>
      <trkpt lat="44.4126050" lon="-91.6855390">
        <ele>311.6000000</ele>
        <time>2009-06-28T18:30:16Z</time>
      </trkpt>
      <trkpt lat="44.4127980" lon="-91.6854100">
        <ele>311.6000000</ele>
        <time>2009-06-28T18:30:17Z</time>
      </trkpt>
      <trkpt lat="44.4129980" lon="-91.6852840">
        <ele>311.6000000</ele>
        <time>2009-06-28T18:30:18Z</time>
      </trkpt>
      <trkpt lat="44.4132030" lon="-91.6851540">
        <ele>311.6000000</ele>
        <time>2009-06-28T18:30:19Z</time>
      </trkpt>
      <trkpt lat="44.4134050" lon="-91.6850270">
        <ele>312.0900000</ele>
        <time>2009-06-28T18:30:20Z</time>
      </trkpt>
      <trkpt lat="44.4151820" lon="-91.6838170">
        <ele>314.0100000</ele>
        <time>2009-06-28T18:30:30Z</time>
      </trkpt>
      <trkpt lat="44.4161220" lon="-91.6825740">
        <ele>314.9700000</ele>
        <time>2009-06-28T18:30:36Z</time>
      </trkpt>
      <trkpt lat="44.4170570" lon="-91.6807630">
        <ele>316.8900000</ele>
        <time>2009-06-28T18:30:43Z</time>
      </trkpt>
      <trkpt lat="44.4179010" lon="-91.6785300">
        <ele>320.2600000</ele>
        <time>2009-06-28T18:30:51Z</time>
      </trkpt>
      <trkpt lat="44.4182240" lon="-91.6776950">
        <ele>320.2600000</ele>
        <time>2009-06-28T18:30:54Z</time>
      </trkpt>
      <trkpt lat="44.4183520" lon="-91.6774260">
        <ele>319.7800000</ele>
        <time>2009-06-28T18:30:55Z</time>
      </trkpt>
      <trkpt lat="44.4194150" lon="-91.6759380">
        <ele>318.8100000</ele>
        <time>2009-06-28T18:31:02Z</time>
      </trkpt>
      <trkpt lat="44.4208330" lon="-91.6737500">
        <ele>320.2600000</ele>
        <time>2009-06-28T18:31:12Z</time>
      </trkpt>
      <trkpt lat="44.4218850" lon="-91.6723810">
        <ele>321.2200000</ele>
        <time>2009-06-28T18:31:19Z</time>
      </trkpt>
      <trkpt lat="44.4220790" lon="-91.6722210">
        <ele>321.2200000</ele>
        <time>2009-06-28T18:31:20Z</time>
      </trkpt>
      <trkpt lat="44.4227740" lon="-91.6715720">
        <ele>322.1800000</ele>
        <time>2009-06-28T18:31:24Z</time>
      </trkpt>
      <trkpt lat="44.4228800" lon="-91.6713500">
        <ele>322.6600000</ele>
        <time>2009-06-28T18:31:25Z</time>
      </trkpt>
      <trkpt lat="44.4229820" lon="-91.6711200">
        <ele>323.6200000</ele>
        <time>2009-06-28T18:31:26Z</time>
      </trkpt>
      <trkpt lat="44.4230830" lon="-91.6708930">
        <ele>321.7000000</ele>
        <time>2009-06-28T18:31:27Z</time>
      </trkpt>
      <trkpt lat="44.4232230" lon="-91.6707160">
        <ele>322.6600000</ele>
        <time>2009-06-28T18:31:28Z</time>
      </trkpt>
      <trkpt lat="44.4233990" lon="-91.6705910">
        <ele>322.1800000</ele>
        <time>2009-06-28T18:31:29Z</time>
      </trkpt>
      <trkpt lat="44.4235670" lon="-91.6705440">
        <ele>322.1800000</ele>
        <time>2009-06-28T18:31:30Z</time>
      </trkpt>
      <trkpt lat="44.4237430" lon="-91.6705180">
        <ele>321.7000000</ele>
        <time>2009-06-28T18:31:31Z</time>
      </trkpt>
      <trkpt lat="44.4239420" lon="-91.6704960">
        <ele>322.1800000</ele>
        <time>2009-06-28T18:31:32Z</time>
      </trkpt>
      <trkpt lat="44.4241820" lon="-91.6704720">
        <ele>323.1400000</ele>
        <time>2009-06-28T18:31:33Z</time>
      </trkpt>
      <trkpt lat="44.4244050" lon="-91.6704550">
        <ele>324.1000000</ele>
        <time>2009-06-28T18:31:34Z</time>
      </trkpt>
      <trkpt lat="44.4251480" lon="-91.6703950">
        <ele>328.9100000</ele>
        <time>2009-06-28T18:31:38Z</time>
      </trkpt>
      <trkpt lat="44.4252830" lon="-91.6702790">
        <ele>330.3500000</ele>
        <time>2009-06-28T18:31:39Z</time>
      </trkpt>
      <trkpt lat="44.4254340" lon="-91.6701470">
        <ele>331.3100000</ele>
        <time>2009-06-28T18:31:40Z</time>
      </trkpt>
      <trkpt lat="44.4255780" lon="-91.6700090">
        <ele>332.7500000</ele>
        <time>2009-06-28T18:31:41Z</time>
      </trkpt>
      <trkpt lat="44.4257210" lon="-91.6698670">
        <ele>334.6800000</ele>
        <time>2009-06-28T18:31:42Z</time>
      </trkpt>
      <trkpt lat="44.4258630" lon="-91.6697250">
        <ele>337.0800000</ele>
        <time>2009-06-28T18:31:43Z</time>
      </trkpt>
      <trkpt lat="44.4263140" lon="-91.6693190">
        <ele>343.8100000</ele>
        <time>2009-06-28T18:31:46Z</time>
      </trkpt>
      <trkpt lat="44.4264730" lon="-91.6692400">
        <ele>345.2500000</ele>
        <time>2009-06-28T18:31:47Z</time>
      </trkpt>
      <trkpt lat="44.4266190" lon="-91.6692540">
        <ele>347.6500000</ele>
        <time>2009-06-28T18:31:48Z</time>
      </trkpt>
      <trkpt lat="44.4267910" lon="-91.6692750">
        <ele>349.5800000</ele>
        <time>2009-06-28T18:31:49Z</time>
      </trkpt>
      <trkpt lat="44.4269930" lon="-91.6693640">
        <ele>350.0600000</ele>
        <time>2009-06-28T18:31:50Z</time>
      </trkpt>
      <trkpt lat="44.4271940" lon="-91.6694650">
        <ele>351.0200000</ele>
        <time>2009-06-28T18:31:51Z</time>
      </trkpt>
      <trkpt lat="44.4273960" lon="-91.6695660">
        <ele>351.9800000</ele>
        <time>2009-06-28T18:31:52Z</time>
      </trkpt>
      <trkpt lat="44.4278120" lon="-91.6696440">
        <ele>354.8600000</ele>
        <time>2009-06-28T18:31:54Z</time>
      </trkpt>
      <trkpt lat="44.4280180" lon="-91.6696500">
        <ele>355.8300000</ele>
        <time>2009-06-28T18:31:55Z</time>
      </trkpt>
      <trkpt lat="44.4282220" lon="-91.6696090">
        <ele>356.7900000</ele>
        <time>2009-06-28T18:31:56Z</time>
      </trkpt>
      <trkpt lat="44.4284180" lon="-91.6695700">
        <ele>357.7500000</ele>
        <time>2009-06-28T18:31:57Z</time>
      </trkpt>
      <trkpt lat="44.4286110" lon="-91.6695310">
        <ele>358.2300000</ele>
        <time>2009-06-28T18:31:58Z</time>
      </trkpt>
      <trkpt lat="44.4293320" lon="-91.6694670">
        <ele>360.1500000</ele>
        <time>2009-06-28T18:32:02Z</time>
      </trkpt>
      <trkpt lat="44.4295070" lon="-91.6695660">
        <ele>360.1500000</ele>
        <time>2009-06-28T18:32:03Z</time>
      </trkpt>
      <trkpt lat="44.4296870" lon="-91.6696670">
        <ele>360.6300000</ele>
        <time>2009-06-28T18:32:04Z</time>
      </trkpt>
      <trkpt lat="44.4306970" lon="-91.6701660">
        <ele>358.2300000</ele>
        <time>2009-06-28T18:32:10Z</time>
      </trkpt>
      <trkpt lat="44.4308200" lon="-91.6703230">
        <ele>356.7900000</ele>
        <time>2009-06-28T18:32:11Z</time>
      </trkpt>
      <trkpt lat="44.4309420" lon="-91.6705120">
        <ele>355.8300000</ele>
        <time>2009-06-28T18:32:12Z</time>
      </trkpt>
      <trkpt lat="44.4310610" lon="-91.6706970">
        <ele>355.3400000</ele>
        <time>2009-06-28T18:32:13Z</time>
      </trkpt>
      <trkpt lat="44.4311960" lon="-91.6708630">
        <ele>354.8600000</ele>
        <time>2009-06-28T18:32:14Z</time>
      </trkpt>
      <trkpt lat="44.4313330" lon="-91.6709960">
        <ele>353.4200000</ele>
        <time>2009-06-28T18:32:15Z</time>
      </trkpt>
      <trkpt lat="44.4315070" lon="-91.6710250">
        <ele>351.9800000</ele>
        <time>2009-06-28T18:32:16Z</time>
      </trkpt>
      <trkpt lat="44.4316810" lon="-91.6710240">
        <ele>349.1000000</ele>
        <time>2009-06-28T18:32:17Z</time>
      </trkpt>
      <trkpt lat="44.4318550" lon="-91.6709980">
        <ele>347.1700000</ele>
        <time>2009-06-28T18:32:18Z</time>
      </trkpt>
      <trkpt lat="44.4320260" lon="-91.6709710">
        <ele>345.7300000</ele>
        <time>2009-06-28T18:32:19Z</time>
      </trkpt>
      <trkpt lat="44.4321940" lon="-91.6709640">
        <ele>342.3700000</ele>
        <time>2009-06-28T18:32:20Z</time>
      </trkpt>
      <trkpt lat="44.4323580" lon="-91.6710000">
        <ele>340.4400000</ele>
        <time>2009-06-28T18:32:21Z</time>
      </trkpt>
      <trkpt lat="44.4325260" lon="-91.6710380">
        <ele>339.0000000</ele>
        <time>2009-06-28T18:32:22Z</time>
      </trkpt>
      <trkpt lat="44.4326720" lon="-91.6711330">
        <ele>336.6000000</ele>
        <time>2009-06-28T18:32:23Z</time>
      </trkpt>
      <trkpt lat="44.4328140" lon="-91.6712500">
        <ele>334.6800000</ele>
        <time>2009-06-28T18:32:24Z</time>
      </trkpt>
      <trkpt lat="44.4329270" lon="-91.6714240">
        <ele>332.7500000</ele>
        <time>2009-06-28T18:32:25Z</time>
      </trkpt>
      <trkpt lat="44.4330390" lon="-91.6715960">
        <ele>330.8300000</ele>
        <time>2009-06-28T18:32:26Z</time>
      </trkpt>
      <trkpt lat="44.4331500" lon="-91.6717660">
        <ele>328.9100000</ele>
        <time>2009-06-28T18:32:27Z</time>
      </trkpt>
      <trkpt lat="44.4333720" lon="-91.6720830">
        <ele>326.0200000</ele>
        <time>2009-06-28T18:32:29Z</time>
      </trkpt>
      <trkpt lat="44.4335090" lon="-91.6721630">
        <ele>325.0600000</ele>
        <time>2009-06-28T18:32:30Z</time>
      </trkpt>
      <trkpt lat="44.4336390" lon="-91.6722380">
        <ele>324.1000000</ele>
        <time>2009-06-28T18:32:31Z</time>
      </trkpt>
      <trkpt lat="44.4337630" lon="-91.6723100">
        <ele>323.1400000</ele>
        <time>2009-06-28T18:32:32Z</time>
      </trkpt>
      <trkpt lat="44.4338830" lon="-91.6723800">
        <ele>322.6600000</ele>
        <time>2009-06-28T18:32:33Z</time>
      </trkpt>
      <trkpt lat="44.4341930" lon="-91.6725920">
        <ele>321.2200000</ele>
        <time>2009-06-28T18:32:36Z</time>
      </trkpt>
      <trkpt lat="44.4342520" lon="-91.6726910">
        <ele>323.6200000</ele>
        <time>2009-06-28T18:32:37Z</time>
      </trkpt>
      <trkpt lat="44.4342930" lon="-91.6727690">
        <ele>324.1000000</ele>
        <time>2009-06-28T18:32:38Z</time>
      </trkpt>
      <trkpt lat="44.4343140" lon="-91.6728800">
        <ele>324.1000000</ele>
        <time>2009-06-28T18:32:39Z</time>
      </trkpt>
      <trkpt lat="44.4343350" lon="-91.6729940">
        <ele>324.1000000</ele>
        <time>2009-06-28T18:32:40Z</time>
      </trkpt>
      <trkpt lat="44.4343560" lon="-91.6731040">
        <ele>325.0600000</ele>
        <time>2009-06-28T18:32:41Z</time>
      </trkpt>
      <trkpt lat="44.4343740" lon="-91.6732010">
        <ele>326.0200000</ele>
        <time>2009-06-28T18:32:42Z</time>
      </trkpt>
      <trkpt lat="44.4346470" lon="-91.6741920">
        <ele>325.5400000</ele>
        <time>2009-06-28T18:32:52Z</time>
      </trkpt>
      <trkpt lat="44.4347100" lon="-91.6742910">
        <ele>325.5400000</ele>
        <time>2009-06-28T18:32:53Z</time>
      </trkpt>
      <trkpt lat="44.4347740" lon="-91.6743890">
        <ele>326.0200000</ele>
        <time>2009-06-28T18:32:54Z</time>
      </trkpt>
      <trkpt lat="44.4353790" lon="-91.6754350">
        <ele>326.0200000</ele>
        <time>2009-06-28T18:33:03Z</time>
      </trkpt>
      <trkpt lat="44.4354750" lon="-91.6755540">
        <ele>324.5800000</ele>
        <time>2009-06-28T18:33:04Z</time>
      </trkpt>
      <trkpt lat="44.4355730" lon="-91.6756750">
        <ele>323.1400000</ele>
        <time>2009-06-28T18:33:05Z</time>
      </trkpt>
      <trkpt lat="44.4356690" lon="-91.6757930">
        <ele>322.1800000</ele>
        <time>2009-06-28T18:33:06Z</time>
      </trkpt>
      <trkpt lat="44.4357640" lon="-91.6759090">
        <ele>320.7400000</ele>
        <time>2009-06-28T18:33:07Z</time>
      </trkpt>
      <trkpt lat="44.4358590" lon="-91.6760260">
        <ele>319.7800000</ele>
        <time>2009-06-28T18:33:08Z</time>
      </trkpt>
      <trkpt lat="44.4359420" lon="-91.6761480">
        <ele>318.3300000</ele>
        <time>2009-06-28T18:33:09Z</time>
      </trkpt>
      <trkpt lat="44.4360100" lon="-91.6762940">
        <ele>317.3700000</ele>
        <time>2009-06-28T18:33:10Z</time>
      </trkpt>
      <trkpt lat="44.4360780" lon="-91.6764380">
        <ele>315.9300000</ele>
        <time>2009-06-28T18:33:11Z</time>
      </trkpt>
      <trkpt lat="44.4361420" lon="-91.6765760">
        <ele>314.4900000</ele>
        <time>2009-06-28T18:33:12Z</time>
      </trkpt>
      <trkpt lat="44.4362560" lon="-91.6767870">
        <ele>312.0900000</ele>
        <time>2009-06-28T18:33:14Z</time>
      </trkpt>
      <trkpt lat="44.4363230" lon="-91.6768640">
        <ele>311.1200000</ele>
        <time>2009-06-28T18:33:15Z</time>
      </trkpt>
      <trkpt lat="44.4363870" lon="-91.6769390">
        <ele>309.6800000</ele>
        <time>2009-06-28T18:33:16Z</time>
      </trkpt>
      <trkpt lat="44.4364470" lon="-91.6770090">
        <ele>308.7200000</ele>
        <time>2009-06-28T18:33:17Z</time>
      </trkpt>
      <trkpt lat="44.4365010" lon="-91.6770500">
        <ele>307.2800000</ele>
        <time>2009-06-28T18:33:18Z</time>
      </trkpt>
      <trkpt lat="44.4365730" lon="-91.6770600">
        <ele>305.8400000</ele>
        <time>2009-06-28T18:33:19Z</time>
      </trkpt>
      <trkpt lat="44.4366510" lon="-91.6770710">
        <ele>304.8800000</ele>
        <time>2009-06-28T18:33:20Z</time>
      </trkpt>
      <trkpt lat="44.4367350" lon="-91.6770830">
        <ele>303.4300000</ele>
        <time>2009-06-28T18:33:21Z</time>
      </trkpt>
      <trkpt lat="44.4368320" lon="-91.6770970">
        <ele>302.4700000</ele>
        <time>2009-06-28T18:33:22Z</time>
      </trkpt>
      <trkpt lat="44.4369420" lon="-91.6771130">
        <ele>301.0300000</ele>
        <time>2009-06-28T18:33:23Z</time>
      </trkpt>
      <trkpt lat="44.4370620" lon="-91.6771300">
        <ele>300.0700000</ele>
        <time>2009-06-28T18:33:24Z</time>
      </trkpt>
      <trkpt lat="44.4371790" lon="-91.6772320">
        <ele>298.6300000</ele>
        <time>2009-06-28T18:33:25Z</time>
      </trkpt>
      <trkpt lat="44.4372930" lon="-91.6773460">
        <ele>296.7000000</ele>
        <time>2009-06-28T18:33:26Z</time>
      </trkpt>
      <trkpt lat="44.4374110" lon="-91.6774600">
        <ele>295.7400000</ele>
        <time>2009-06-28T18:33:27Z</time>
      </trkpt>
      <trkpt lat="44.4375310" lon="-91.6775730">
        <ele>294.3000000</ele>
        <time>2009-06-28T18:33:28Z</time>
      </trkpt>
      <trkpt lat="44.4376520" lon="-91.6776870">
        <ele>292.8600000</ele>
        <time>2009-06-28T18:33:29Z</time>
      </trkpt>
      <trkpt lat="44.4377720" lon="-91.6778000">
        <ele>290.9400000</ele>
        <time>2009-06-28T18:33:30Z</time>
      </trkpt>
      <trkpt lat="44.4378900" lon="-91.6779120">
        <ele>289.9700000</ele>
        <time>2009-06-28T18:33:31Z</time>
      </trkpt>
      <trkpt lat="44.4380070" lon="-91.6780220">
        <ele>288.5300000</ele>
        <time>2009-06-28T18:33:32Z</time>
      </trkpt>
      <trkpt lat="44.4381150" lon="-91.6781270">
        <ele>287.0900000</ele>
        <time>2009-06-28T18:33:33Z</time>
      </trkpt>
      <trkpt lat="44.4382090" lon="-91.6782730">
        <ele>285.1700000</ele>
        <time>2009-06-28T18:33:34Z</time>
      </trkpt>
      <trkpt lat="44.4383060" lon="-91.6784210">
        <ele>283.7300000</ele>
        <time>2009-06-28T18:33:35Z</time>
      </trkpt>
      <trkpt lat="44.4384040" lon="-91.6785720">
        <ele>282.2800000</ele>
        <time>2009-06-28T18:33:36Z</time>
      </trkpt>
      <trkpt lat="44.4395980" lon="-91.6800820">
        <ele>271.2300000</ele>
        <time>2009-06-28T18:33:47Z</time>
      </trkpt>
      <trkpt lat="44.4397260" lon="-91.6801430">
        <ele>270.7500000</ele>
        <time>2009-06-28T18:33:48Z</time>
      </trkpt>
      <trkpt lat="44.4398570" lon="-91.6801990">
        <ele>269.7900000</ele>
        <time>2009-06-28T18:33:49Z</time>
      </trkpt>
      <trkpt lat="44.4399790" lon="-91.6802340">
        <ele>269.3100000</ele>
        <time>2009-06-28T18:33:50Z</time>
      </trkpt>
      <trkpt lat="44.4401100" lon="-91.6802560">
        <ele>268.8300000</ele>
        <time>2009-06-28T18:33:51Z</time>
      </trkpt>
      <trkpt lat="44.4402430" lon="-91.6802780">
        <ele>268.8300000</ele>
        <time>2009-06-28T18:33:52Z</time>
      </trkpt>
      <trkpt lat="44.4403790" lon="-91.6803000">
        <ele>268.8300000</ele>
        <time>2009-06-28T18:33:53Z</time>
      </trkpt>
      <trkpt lat="44.4410560" lon="-91.6804310">
        <ele>269.3100000</ele>
        <time>2009-06-28T18:33:58Z</time>
      </trkpt>
      <trkpt lat="44.4411580" lon="-91.6805440">
        <ele>269.3100000</ele>
        <time>2009-06-28T18:33:59Z</time>
      </trkpt>
      <trkpt lat="44.4412610" lon="-91.6806690">
        <ele>269.3100000</ele>
        <time>2009-06-28T18:34:00Z</time>
      </trkpt>
      <trkpt lat="44.4413670" lon="-91.6807980">
        <ele>269.3100000</ele>
        <time>2009-06-28T18:34:01Z</time>
      </trkpt>
      <trkpt lat="44.4414640" lon="-91.6809210">
        <ele>269.3100000</ele>
        <time>2009-06-28T18:34:02Z</time>
      </trkpt>
      <trkpt lat="44.4415520" lon="-91.6810810">
        <ele>269.3100000</ele>
        <time>2009-06-28T18:34:03Z</time>
      </trkpt>
      <trkpt lat="44.4416430" lon="-91.6812460">
        <ele>269.3100000</ele>
        <time>2009-06-28T18:34:04Z</time>
      </trkpt>
      <trkpt lat="44.4425770" lon="-91.6826910">
        <ele>266.4200000</ele>
        <time>2009-06-28T18:34:12Z</time>
      </trkpt>
      <trkpt lat="44.4444380" lon="-91.6848330">
        <ele>263.5400000</ele>
        <time>2009-06-28T18:34:26Z</time>
      </trkpt>
      <trkpt lat="44.4460800" lon="-91.6860390">
        <ele>261.6200000</ele>
        <time>2009-06-28T18:34:37Z</time>
      </trkpt>
      <trkpt lat="44.4473700" lon="-91.6869800">
        <ele>260.6500000</ele>
        <time>2009-06-28T18:34:48Z</time>
      </trkpt>
      <trkpt lat="44.4486070" lon="-91.6878280">
        <ele>260.1700000</ele>
        <time>2009-06-28T18:34:56Z</time>
      </trkpt>
      <trkpt lat="44.4509010" lon="-91.6893720">
        <ele>257.2900000</ele>
        <time>2009-06-28T18:35:09Z</time>
      </trkpt>
      <trkpt lat="44.4536570" lon="-91.6914470">
        <ele>256.3300000</ele>
        <time>2009-06-28T18:35:24Z</time>
      </trkpt>
      <trkpt lat="44.4559640" lon="-91.6936870">
        <ele>254.8900000</ele>
        <time>2009-06-28T18:35:38Z</time>
      </trkpt>
      <trkpt lat="44.4586100" lon="-91.6963100">
        <ele>254.8900000</ele>
        <time>2009-06-28T18:35:55Z</time>
      </trkpt>
      <trkpt lat="44.4610300" lon="-91.6985370">
        <ele>254.4100000</ele>
        <time>2009-06-28T18:36:10Z</time>
      </trkpt>
      <trkpt lat="44.4632430" lon="-91.7002370">
        <ele>253.4400000</ele>
        <time>2009-06-28T18:36:22Z</time>
      </trkpt>
      <trkpt lat="44.4634570" lon="-91.7002840">
        <ele>253.4400000</ele>
        <time>2009-06-28T18:36:23Z</time>
      </trkpt>
      <trkpt lat="44.4636660" lon="-91.7003070">
        <ele>253.4400000</ele>
        <time>2009-06-28T18:36:24Z</time>
      </trkpt>
      <trkpt lat="44.4638840" lon="-91.7003070">
        <ele>253.4400000</ele>
        <time>2009-06-28T18:36:25Z</time>
      </trkpt>
      <trkpt lat="44.4641000" lon="-91.7003070">
        <ele>253.4400000</ele>
        <time>2009-06-28T18:36:26Z</time>
      </trkpt>
      <trkpt lat="44.4654450" lon="-91.7002530">
        <ele>253.9300000</ele>
        <time>2009-06-28T18:36:33Z</time>
      </trkpt>
      <trkpt lat="44.4656130" lon="-91.7001810">
        <ele>253.9300000</ele>
        <time>2009-06-28T18:36:34Z</time>
      </trkpt>
      <trkpt lat="44.4657040" lon="-91.7000500">
        <ele>254.4100000</ele>
        <time>2009-06-28T18:36:35Z</time>
      </trkpt>
      <trkpt lat="44.4657380" lon="-91.6998120">
        <ele>253.4400000</ele>
        <time>2009-06-28T18:36:36Z</time>
      </trkpt>
      <trkpt lat="44.4657470" lon="-91.6995790">
        <ele>253.4400000</ele>
        <time>2009-06-28T18:36:37Z</time>
      </trkpt>
      <trkpt lat="44.4657470" lon="-91.6993230">
        <ele>253.4400000</ele>
        <time>2009-06-28T18:36:38Z</time>
      </trkpt>
      <trkpt lat="44.4657470" lon="-91.6990580">
        <ele>253.4400000</ele>
        <time>2009-06-28T18:36:39Z</time>
      </trkpt>
      <trkpt lat="44.4657470" lon="-91.6961240">
        <ele>252.9600000</ele>
        <time>2009-06-28T18:36:50Z</time>
      </trkpt>
      <trkpt lat="44.4657470" lon="-91.6926690">
        <ele>251.0400000</ele>
        <time>2009-06-28T18:37:02Z</time>
      </trkpt>
      <trkpt lat="44.4657450" lon="-91.6912180">
        <ele>249.6000000</ele>
        <time>2009-06-28T18:37:09Z</time>
      </trkpt>
      <trkpt lat="44.4657210" lon="-91.6887160">
        <ele>248.6400000</ele>
        <time>2009-06-28T18:37:19Z</time>
      </trkpt>
      <trkpt lat="44.4656870" lon="-91.6853150">
        <ele>250.0800000</ele>
        <time>2009-06-28T18:37:32Z</time>
      </trkpt>
      <trkpt lat="44.4656830" lon="-91.6812350">
        <ele>250.0800000</ele>
        <time>2009-06-28T18:37:47Z</time>
      </trkpt>
      <trkpt lat="44.4657170" lon="-91.6788170">
        <ele>251.0400000</ele>
        <time>2009-06-28T18:37:58Z</time>
      </trkpt>
      <trkpt lat="44.4657410" lon="-91.6771440">
        <ele>252.0000000</ele>
        <time>2009-06-28T18:38:10Z</time>
      </trkpt>
      <trkpt lat="44.4657460" lon="-91.6767590">
        <ele>253.9300000</ele>
        <time>2009-06-28T18:38:20Z</time>
      </trkpt>
      <trkpt lat="44.4657470" lon="-91.6766610">
        <ele>253.9300000</ele>
        <time>2009-06-28T18:38:21Z</time>
      </trkpt>
      <trkpt lat="44.4657490" lon="-91.6766280">
        <ele>253.9300000</ele>
        <time>2009-06-28T18:38:22Z</time>
      </trkpt>
      <trkpt lat="44.4659520" lon="-91.6766840">
        <ele>253.9300000</ele>
        <time>2009-06-28T18:38:23Z</time>
      </trkpt>
      <trkpt lat="44.4660260" lon="-91.6766930">
        <ele>253.4400000</ele>
        <time>2009-06-28T18:38:24Z</time>
      </trkpt>
      <trkpt lat="44.4661250" lon="-91.6767040">
        <ele>252.9600000</ele>
        <time>2009-06-28T18:38:25Z</time>
      </trkpt>
      <trkpt lat="44.4662420" lon="-91.6767180">
        <ele>253.4400000</ele>
        <time>2009-06-28T18:38:26Z</time>
      </trkpt>
      <trkpt lat="44.4663670" lon="-91.6767320">
        <ele>253.9300000</ele>
        <time>2009-06-28T18:38:27Z</time>
      </trkpt>
      <trkpt lat="44.4673530" lon="-91.6769440">
        <ele>248.1600000</ele>
        <time>2009-06-28T18:38:37Z</time>
      </trkpt>
      <trkpt lat="44.4674080" lon="-91.6769610">
        <ele>248.1600000</ele>
        <time>2009-06-28T18:38:44Z</time>
      </trkpt>
      <trkpt lat="44.4675840" lon="-91.6770170">
        <ele>247.2000000</ele>
        <time>2009-06-28T18:38:55Z</time>
      </trkpt>
      <trkpt lat="44.4675840" lon="-91.6770170">
        <ele>246.7200000</ele>
        <time>2009-06-28T18:38:58Z</time>
      </trkpt>
      <trkpt lat="44.4675920" lon="-91.6770200">
        <ele>246.7200000</ele>
        <time>2009-06-28T18:38:59Z</time>
      </trkpt>
      <trkpt lat="44.4675800" lon="-91.6770160">
        <ele>246.7200000</ele>
        <time>2009-06-28T18:39:00Z</time>
      </trkpt>
      <trkpt lat="44.4675630" lon="-91.6770100">
        <ele>246.7200000</ele>
        <time>2009-06-28T18:39:01Z</time>
      </trkpt>
      <trkpt lat="44.4675440" lon="-91.6770040">
        <ele>246.7200000</ele>
        <time>2009-06-28T18:39:02Z</time>
      </trkpt>
      <trkpt lat="44.4674380" lon="-91.6766130">
        <ele>244.7900000</ele>
        <time>2009-06-28T18:39:15Z</time>
      </trkpt>
      <trkpt lat="44.4674480" lon="-91.6765800">
        <ele>242.8700000</ele>
        <time>2009-06-28T18:39:37Z</time>
      </trkpt>
      <trkpt lat="44.4674680" lon="-91.6765680">
        <ele>246.7200000</ele>
        <time>2009-06-28T18:39:55Z</time>
      </trkpt>
      <trkpt lat="44.4674620" lon="-91.6765170">
        <ele>252.4800000</ele>
        <time>2009-06-28T18:52:40Z</time>
      </trkpt>
      <trkpt lat="44.4674780" lon="-91.6765050">
        <ele>251.5200000</ele>
        <time>2009-06-28T18:52:46Z</time>
      </trkpt>
      <trkpt lat="44.4675400" lon="-91.6766020">
        <ele>248.6400000</ele>
        <time>2009-06-28T18:52:51Z</time>
      </trkpt>
      <trkpt lat="44.4675360" lon="-91.6770020">
        <ele>247.6800000</ele>
        <time>2009-06-28T18:52:56Z</time>
      </trkpt>
      <trkpt lat="44.4675770" lon="-91.6770150">
        <ele>247.6800000</ele>
        <time>2009-06-28T18:52:57Z</time>
      </trkpt>
      <trkpt lat="44.4676240" lon="-91.6770300">
        <ele>248.1600000</ele>
        <time>2009-06-28T18:52:58Z</time>
      </trkpt>
      <trkpt lat="44.4677370" lon="-91.6770420">
        <ele>248.6400000</ele>
        <time>2009-06-28T18:53:00Z</time>
      </trkpt>
      <trkpt lat="44.4678080" lon="-91.6770360">
        <ele>248.6400000</ele>
        <time>2009-06-28T18:53:01Z</time>
      </trkpt>
      <trkpt lat="44.4679050" lon="-91.6770270">
        <ele>248.6400000</ele>
        <time>2009-06-28T18:53:02Z</time>
      </trkpt>
      <trkpt lat="44.4690100" lon="-91.6769610">
        <ele>250.5600000</ele>
        <time>2009-06-28T18:53:13Z</time>
      </trkpt>
      <trkpt lat="44.4697570" lon="-91.6768200">
        <ele>251.5200000</ele>
        <time>2009-06-28T18:53:23Z</time>
      </trkpt>
      <trkpt lat="44.4706240" lon="-91.6767350">
        <ele>249.6000000</ele>
        <time>2009-06-28T18:53:32Z</time>
      </trkpt>
      <trkpt lat="44.4707260" lon="-91.6767460">
        <ele>249.6000000</ele>
        <time>2009-06-28T18:53:33Z</time>
      </trkpt>
      <trkpt lat="44.4708130" lon="-91.6768190">
        <ele>248.6400000</ele>
        <time>2009-06-28T18:53:34Z</time>
      </trkpt>
      <trkpt lat="44.4709250" lon="-91.6769120">
        <ele>248.1600000</ele>
        <time>2009-06-28T18:53:35Z</time>
      </trkpt>
      <trkpt lat="44.4710390" lon="-91.6770080">
        <ele>247.6800000</ele>
        <time>2009-06-28T18:53:36Z</time>
      </trkpt>
      <trkpt lat="44.4711540" lon="-91.6771030">
        <ele>246.7200000</ele>
        <time>2009-06-28T18:53:37Z</time>
      </trkpt>
      <trkpt lat="44.4727440" lon="-91.6784640">
        <ele>243.3500000</ele>
        <time>2009-06-28T18:53:50Z</time>
      </trkpt>
      <trkpt lat="44.4741590" lon="-91.6797080">
        <ele>244.3100000</ele>
        <time>2009-06-28T18:53:59Z</time>
      </trkpt>
      <trkpt lat="44.4771000" lon="-91.6822520">
        <ele>247.2000000</ele>
        <time>2009-06-28T18:54:15Z</time>
      </trkpt>
      <trkpt lat="44.4793550" lon="-91.6838260">
        <ele>248.1600000</ele>
        <time>2009-06-28T18:54:27Z</time>
      </trkpt>
      <trkpt lat="44.4818520" lon="-91.6851230">
        <ele>251.0400000</ele>
        <time>2009-06-28T18:54:41Z</time>
      </trkpt>
      <trkpt lat="44.4834700" lon="-91.6853270">
        <ele>248.6400000</ele>
        <time>2009-06-28T18:54:50Z</time>
      </trkpt>
      <trkpt lat="44.4862740" lon="-91.6852750">
        <ele>251.5200000</ele>
        <time>2009-06-28T18:55:04Z</time>
      </trkpt>
      <trkpt lat="44.4903010" lon="-91.6852010">
        <ele>246.7200000</ele>
        <time>2009-06-28T18:55:24Z</time>
      </trkpt>
      <trkpt lat="44.4929930" lon="-91.6855820">
        <ele>247.6800000</ele>
        <time>2009-06-28T18:55:37Z</time>
      </trkpt>
      <trkpt lat="44.4947060" lon="-91.6858020">
        <ele>251.5200000</ele>
        <time>2009-06-28T18:55:45Z</time>
      </trkpt>
      <trkpt lat="44.4949300" lon="-91.6857670">
        <ele>252.0000000</ele>
        <time>2009-06-28T18:55:46Z</time>
      </trkpt>
      <trkpt lat="44.4971270" lon="-91.6852760">
        <ele>255.3700000</ele>
        <time>2009-06-28T18:55:56Z</time>
      </trkpt>
      <trkpt lat="44.5003350" lon="-91.6851680">
        <ele>252.9600000</ele>
        <time>2009-06-28T18:56:11Z</time>
      </trkpt>
      <trkpt lat="44.5035850" lon="-91.6849670">
        <ele>252.9600000</ele>
        <time>2009-06-28T18:56:25Z</time>
      </trkpt>
      <trkpt lat="44.5053920" lon="-91.6840230">
        <ele>256.8100000</ele>
        <time>2009-06-28T18:56:33Z</time>
      </trkpt>
      <trkpt lat="44.5077740" lon="-91.6828390">
        <ele>260.6500000</ele>
        <time>2009-06-28T18:56:44Z</time>
      </trkpt>
      <trkpt lat="44.5079900" lon="-91.6828080">
        <ele>261.1400000</ele>
        <time>2009-06-28T18:56:45Z</time>
      </trkpt>
      <trkpt lat="44.5081990" lon="-91.6828190">
        <ele>261.6200000</ele>
        <time>2009-06-28T18:56:46Z</time>
      </trkpt>
      <trkpt lat="44.5084100" lon="-91.6828520">
        <ele>262.5800000</ele>
        <time>2009-06-28T18:56:47Z</time>
      </trkpt>
      <trkpt lat="44.5086160" lon="-91.6828850">
        <ele>263.5400000</ele>
        <time>2009-06-28T18:56:48Z</time>
      </trkpt>
      <trkpt lat="44.5088180" lon="-91.6829170">
        <ele>264.9800000</ele>
        <time>2009-06-28T18:56:49Z</time>
      </trkpt>
      <trkpt lat="44.5090080" lon="-91.6829820">
        <ele>266.4200000</ele>
        <time>2009-06-28T18:56:50Z</time>
      </trkpt>
      <trkpt lat="44.5091950" lon="-91.6830780">
        <ele>267.3800000</ele>
        <time>2009-06-28T18:56:51Z</time>
      </trkpt>
      <trkpt lat="44.5093440" lon="-91.6832690">
        <ele>268.3500000</ele>
        <time>2009-06-28T18:56:52Z</time>
      </trkpt>
      <trkpt lat="44.5094960" lon="-91.6834760">
        <ele>268.8300000</ele>
        <time>2009-06-28T18:56:53Z</time>
      </trkpt>
      <trkpt lat="44.5096160" lon="-91.6837170">
        <ele>269.3100000</ele>
        <time>2009-06-28T18:56:54Z</time>
      </trkpt>
      <trkpt lat="44.5097360" lon="-91.6839570">
        <ele>269.7900000</ele>
        <time>2009-06-28T18:56:55Z</time>
      </trkpt>
      <trkpt lat="44.5100070" lon="-91.6844110">
        <ele>268.3500000</ele>
        <time>2009-06-28T18:56:57Z</time>
      </trkpt>
      <trkpt lat="44.5101770" lon="-91.6846030">
        <ele>268.3500000</ele>
        <time>2009-06-28T18:56:58Z</time>
      </trkpt>
      <trkpt lat="44.5103730" lon="-91.6847530">
        <ele>268.8300000</ele>
        <time>2009-06-28T18:56:59Z</time>
      </trkpt>
      <trkpt lat="44.5105890" lon="-91.6848720">
        <ele>268.8300000</ele>
        <time>2009-06-28T18:57:00Z</time>
      </trkpt>
      <trkpt lat="44.5108050" lon="-91.6849920">
        <ele>269.3100000</ele>
        <time>2009-06-28T18:57:01Z</time>
      </trkpt>
      <trkpt lat="44.5128830" lon="-91.6859370">
        <ele>275.0700000</ele>
        <time>2009-06-28T18:57:11Z</time>
      </trkpt>
      <trkpt lat="44.5145260" lon="-91.6866920">
        <ele>283.2500000</ele>
        <time>2009-06-28T18:57:19Z</time>
      </trkpt>
      <trkpt lat="44.5146850" lon="-91.6869170">
        <ele>285.1700000</ele>
        <time>2009-06-28T18:57:20Z</time>
      </trkpt>
      <trkpt lat="44.5148070" lon="-91.6871080">
        <ele>286.6100000</ele>
        <time>2009-06-28T18:57:21Z</time>
      </trkpt>
      <trkpt lat="44.5149150" lon="-91.6873840">
        <ele>288.5300000</ele>
        <time>2009-06-28T18:57:22Z</time>
      </trkpt>
      <trkpt lat="44.5150290" lon="-91.6876760">
        <ele>289.9700000</ele>
        <time>2009-06-28T18:57:23Z</time>
      </trkpt>
      <trkpt lat="44.5151450" lon="-91.6879710">
        <ele>290.9400000</ele>
        <time>2009-06-28T18:57:24Z</time>
      </trkpt>
      <trkpt lat="44.5161090" lon="-91.6887670">
        <ele>294.7800000</ele>
        <time>2009-06-28T18:57:29Z</time>
      </trkpt>
      <trkpt lat="44.5163400" lon="-91.6888270">
        <ele>293.3400000</ele>
        <time>2009-06-28T18:57:30Z</time>
      </trkpt>
      <trkpt lat="44.5165880" lon="-91.6888690">
        <ele>291.9000000</ele>
        <time>2009-06-28T18:57:31Z</time>
      </trkpt>
      <trkpt lat="44.5168360" lon="-91.6889110">
        <ele>290.4600000</ele>
        <time>2009-06-28T18:57:32Z</time>
      </trkpt>
      <trkpt lat="44.5170810" lon="-91.6889530">
        <ele>288.5300000</ele>
        <time>2009-06-28T18:57:33Z</time>
      </trkpt>
      <trkpt lat="44.5173250" lon="-91.6889940">
        <ele>286.6100000</ele>
        <time>2009-06-28T18:57:34Z</time>
      </trkpt>
      <trkpt lat="44.5191720" lon="-91.6895790">
        <ele>266.9000000</ele>
        <time>2009-06-28T18:57:42Z</time>
      </trkpt>
      <trkpt lat="44.5204610" lon="-91.6902710">
        <ele>259.6900000</ele>
        <time>2009-06-28T18:57:48Z</time>
      </trkpt>
      <trkpt lat="44.5206880" lon="-91.6903060">
        <ele>258.7300000</ele>
        <time>2009-06-28T18:57:49Z</time>
      </trkpt>
      <trkpt lat="44.5209190" lon="-91.6903410">
        <ele>257.2900000</ele>
        <time>2009-06-28T18:57:50Z</time>
      </trkpt>
      <trkpt lat="44.5231450" lon="-91.6904160">
        <ele>249.6000000</ele>
        <time>2009-06-28T18:58:00Z</time>
      </trkpt>
      <trkpt lat="44.5241320" lon="-91.6905530">
        <ele>247.2000000</ele>
        <time>2009-06-28T18:58:05Z</time>
      </trkpt>
      <trkpt lat="44.5243130" lon="-91.6906370">
        <ele>247.2000000</ele>
        <time>2009-06-28T18:58:06Z</time>
      </trkpt>
      <trkpt lat="44.5244720" lon="-91.6907960">
        <ele>246.7200000</ele>
        <time>2009-06-28T18:58:07Z</time>
      </trkpt>
      <trkpt lat="44.5245830" lon="-91.6910080">
        <ele>245.7500000</ele>
        <time>2009-06-28T18:58:08Z</time>
      </trkpt>
      <trkpt lat="44.5246850" lon="-91.6912330">
        <ele>245.2700000</ele>
        <time>2009-06-28T18:58:09Z</time>
      </trkpt>
      <trkpt lat="44.5247720" lon="-91.6914670">
        <ele>244.7900000</ele>
        <time>2009-06-28T18:58:10Z</time>
      </trkpt>
      <trkpt lat="44.5248580" lon="-91.6917200">
        <ele>244.3100000</ele>
        <time>2009-06-28T18:58:11Z</time>
      </trkpt>
      <trkpt lat="44.5249440" lon="-91.6919740">
        <ele>243.8300000</ele>
        <time>2009-06-28T18:58:12Z</time>
      </trkpt>
      <trkpt lat="44.5256330" lon="-91.6939980">
        <ele>236.1400000</ele>
        <time>2009-06-28T18:58:21Z</time>
      </trkpt>
      <trkpt lat="44.5263680" lon="-91.6961620">
        <ele>234.2200000</ele>
        <time>2009-06-28T18:58:33Z</time>
      </trkpt>
      <trkpt lat="44.5264790" lon="-91.6964870">
        <ele>233.7400000</ele>
        <time>2009-06-28T18:58:38Z</time>
      </trkpt>
      <trkpt lat="44.5266110" lon="-91.6968750">
        <ele>234.2200000</ele>
        <time>2009-06-28T18:58:48Z</time>
      </trkpt>
      <trkpt lat="44.5267800" lon="-91.6973730">
        <ele>233.7400000</ele>
        <time>2009-06-28T18:58:56Z</time>
      </trkpt>
      <trkpt lat="44.5268790" lon="-91.6976660">
        <ele>234.2200000</ele>
        <time>2009-06-28T18:59:04Z</time>
      </trkpt>
      <trkpt lat="44.5268990" lon="-91.6977240">
        <ele>234.2200000</ele>
        <time>2009-06-28T18:59:05Z</time>
      </trkpt>
      <trkpt lat="44.5267920" lon="-91.6978050">
        <ele>234.2200000</ele>
        <time>2009-06-28T18:59:06Z</time>
      </trkpt>
      <trkpt lat="44.5266940" lon="-91.6978690">
        <ele>233.2600000</ele>
        <time>2009-06-28T18:59:07Z</time>
      </trkpt>
      <trkpt lat="44.5265950" lon="-91.6979340">
        <ele>232.7800000</ele>
        <time>2009-06-28T18:59:08Z</time>
      </trkpt>
      <trkpt lat="44.5264850" lon="-91.6980070">
        <ele>232.3000000</ele>
        <time>2009-06-28T18:59:09Z</time>
      </trkpt>
      <trkpt lat="44.5255100" lon="-91.6986490">
        <ele>230.3700000</ele>
        <time>2009-06-28T18:59:15Z</time>
      </trkpt>
      <trkpt lat="44.5233920" lon="-91.7000460">
        <ele>229.8900000</ele>
        <time>2009-06-28T18:59:25Z</time>
      </trkpt>
      <trkpt lat="44.5218140" lon="-91.7015600">
        <ele>231.8100000</ele>
        <time>2009-06-28T18:59:33Z</time>
      </trkpt>
      <trkpt lat="44.5206330" lon="-91.7035900">
        <ele>232.3000000</ele>
        <time>2009-06-28T18:59:41Z</time>
      </trkpt>
      <trkpt lat="44.5178930" lon="-91.7088550">
        <ele>230.8500000</ele>
        <time>2009-06-28T19:00:01Z</time>
      </trkpt>
      <trkpt lat="44.5162640" lon="-91.7114460">
        <ele>230.3700000</ele>
        <time>2009-06-28T19:00:11Z</time>
      </trkpt>
      <trkpt lat="44.5147470" lon="-91.7126620">
        <ele>229.8900000</ele>
        <time>2009-06-28T19:00:18Z</time>
      </trkpt>
      <trkpt lat="44.5110590" lon="-91.7150560">
        <ele>232.7800000</ele>
        <time>2009-06-28T19:00:35Z</time>
      </trkpt>
      <trkpt lat="44.5089580" lon="-91.7160880">
        <ele>234.7000000</ele>
        <time>2009-06-28T19:00:45Z</time>
      </trkpt>
      <trkpt lat="44.5055990" lon="-91.7172330">
        <ele>231.8100000</ele>
        <time>2009-06-28T19:01:01Z</time>
      </trkpt>
      <trkpt lat="44.5021590" lon="-91.7186890">
        <ele>231.3300000</ele>
        <time>2009-06-28T19:01:17Z</time>
      </trkpt>
      <trkpt lat="44.4974710" lon="-91.7208370">
        <ele>230.3700000</ele>
        <time>2009-06-28T19:01:39Z</time>
      </trkpt>
      <trkpt lat="44.4932570" lon="-91.7227420">
        <ele>229.4100000</ele>
        <time>2009-06-28T19:01:57Z</time>
      </trkpt>
      <trkpt lat="44.4909010" lon="-91.7234290">
        <ele>229.8900000</ele>
        <time>2009-06-28T19:02:07Z</time>
      </trkpt>
      <trkpt lat="44.4892320" lon="-91.7231240">
        <ele>228.9300000</ele>
        <time>2009-06-28T19:02:14Z</time>
      </trkpt>
      <trkpt lat="44.4852850" lon="-91.7221380">
        <ele>227.9700000</ele>
        <time>2009-06-28T19:02:31Z</time>
      </trkpt>
      <trkpt lat="44.4837060" lon="-91.7222050">
        <ele>228.4500000</ele>
        <time>2009-06-28T19:02:39Z</time>
      </trkpt>
      <trkpt lat="44.4821010" lon="-91.7228870">
        <ele>228.4500000</ele>
        <time>2009-06-28T19:02:48Z</time>
      </trkpt>
      <trkpt lat="44.4806610" lon="-91.7240520">
        <ele>229.8900000</ele>
        <time>2009-06-28T19:02:58Z</time>
      </trkpt>
      <trkpt lat="44.4781770" lon="-91.7260050">
        <ele>228.9300000</ele>
        <time>2009-06-28T19:03:14Z</time>
      </trkpt>
      <trkpt lat="44.4764020" lon="-91.7267530">
        <ele>228.4500000</ele>
        <time>2009-06-28T19:03:25Z</time>
      </trkpt>
      <trkpt lat="44.4740950" lon="-91.7274630">
        <ele>227.4900000</ele>
        <time>2009-06-28T19:03:38Z</time>
      </trkpt>
      <trkpt lat="44.4716740" lon="-91.7282070">
        <ele>226.5300000</ele>
        <time>2009-06-28T19:03:50Z</time>
      </trkpt>
      <trkpt lat="44.4697900" lon="-91.7291670">
        <ele>229.4100000</ele>
        <time>2009-06-28T19:04:00Z</time>
      </trkpt>
      <trkpt lat="44.4684220" lon="-91.7304480">
        <ele>235.6600000</ele>
        <time>2009-06-28T19:04:08Z</time>
      </trkpt>
      <trkpt lat="44.4670150" lon="-91.7327790">
        <ele>243.3500000</ele>
        <time>2009-06-28T19:04:18Z</time>
      </trkpt>
      <trkpt lat="44.4659470" lon="-91.7357490">
        <ele>244.3100000</ele>
        <time>2009-06-28T19:04:28Z</time>
      </trkpt>
      <trkpt lat="44.4640030" lon="-91.7412840">
        <ele>232.7800000</ele>
        <time>2009-06-28T19:04:47Z</time>
      </trkpt>
      <trkpt lat="44.4620210" lon="-91.7469950">
        <ele>229.4100000</ele>
        <time>2009-06-28T19:05:07Z</time>
      </trkpt>
      <trkpt lat="44.4617750" lon="-91.7488260">
        <ele>228.4500000</ele>
        <time>2009-06-28T19:05:13Z</time>
      </trkpt>
      <trkpt lat="44.4618930" lon="-91.7509360">
        <ele>228.9300000</ele>
        <time>2009-06-28T19:05:20Z</time>
      </trkpt>
      <trkpt lat="44.4618590" lon="-91.7512270">
        <ele>229.4100000</ele>
        <time>2009-06-28T19:05:21Z</time>
      </trkpt>
      <trkpt lat="44.4617930" lon="-91.7515060">
        <ele>228.9300000</ele>
        <time>2009-06-28T19:05:22Z</time>
      </trkpt>
      <trkpt lat="44.4617260" lon="-91.7517860">
        <ele>229.4100000</ele>
        <time>2009-06-28T19:05:23Z</time>
      </trkpt>
      <trkpt lat="44.4616560" lon="-91.7520630">
        <ele>229.4100000</ele>
        <time>2009-06-28T19:05:24Z</time>
      </trkpt>
      <trkpt lat="44.4607230" lon="-91.7554830">
        <ele>230.3700000</ele>
        <time>2009-06-28T19:05:36Z</time>
      </trkpt>
      <trkpt lat="44.4606860" lon="-91.7578160">
        <ele>230.3700000</ele>
        <time>2009-06-28T19:05:43Z</time>
      </trkpt>
      <trkpt lat="44.4607100" lon="-91.7625840">
        <ele>232.7800000</ele>
        <time>2009-06-28T19:05:57Z</time>
      </trkpt>
      <trkpt lat="44.4605660" lon="-91.7628840">
        <ele>232.3000000</ele>
        <time>2009-06-28T19:05:58Z</time>
      </trkpt>
      <trkpt lat="44.4604220" lon="-91.7631540">
        <ele>232.3000000</ele>
        <time>2009-06-28T19:05:59Z</time>
      </trkpt>
      <trkpt lat="44.4602620" lon="-91.7633850">
        <ele>231.3300000</ele>
        <time>2009-06-28T19:06:00Z</time>
      </trkpt>
      <trkpt lat="44.4600650" lon="-91.7635740">
        <ele>230.8500000</ele>
        <time>2009-06-28T19:06:01Z</time>
      </trkpt>
      <trkpt lat="44.4598350" lon="-91.7637060">
        <ele>230.3700000</ele>
        <time>2009-06-28T19:06:02Z</time>
      </trkpt>
      <trkpt lat="44.4596050" lon="-91.7638370">
        <ele>230.3700000</ele>
        <time>2009-06-28T19:06:03Z</time>
      </trkpt>
      <trkpt lat="44.4593700" lon="-91.7639570">
        <ele>229.8900000</ele>
        <time>2009-06-28T19:06:04Z</time>
      </trkpt>
      <trkpt lat="44.4591240" lon="-91.7640660">
        <ele>229.4100000</ele>
        <time>2009-06-28T19:06:05Z</time>
      </trkpt>
      <trkpt lat="44.4574520" lon="-91.7649300">
        <ele>227.4900000</ele>
        <time>2009-06-28T19:06:12Z</time>
      </trkpt>
      <trkpt lat="44.4572530" lon="-91.7651280">
        <ele>227.0100000</ele>
        <time>2009-06-28T19:06:13Z</time>
      </trkpt>
      <trkpt lat="44.4570740" lon="-91.7653620">
        <ele>227.4900000</ele>
        <time>2009-06-28T19:06:14Z</time>
      </trkpt>
      <trkpt lat="44.4569210" lon="-91.7656220">
        <ele>227.0100000</ele>
        <time>2009-06-28T19:06:15Z</time>
      </trkpt>
      <trkpt lat="44.4567690" lon="-91.7658810">
        <ele>227.0100000</ele>
        <time>2009-06-28T19:06:16Z</time>
      </trkpt>
      <trkpt lat="44.4566370" lon="-91.7661500">
        <ele>227.0100000</ele>
        <time>2009-06-28T19:06:17Z</time>
      </trkpt>
      <trkpt lat="44.4565210" lon="-91.7664400">
        <ele>227.0100000</ele>
        <time>2009-06-28T19:06:18Z</time>
      </trkpt>
      <trkpt lat="44.4564540" lon="-91.7667540">
        <ele>227.0100000</ele>
        <time>2009-06-28T19:06:19Z</time>
      </trkpt>
      <trkpt lat="44.4563880" lon="-91.7670700">
        <ele>226.0500000</ele>
        <time>2009-06-28T19:06:20Z</time>
      </trkpt>
      <trkpt lat="44.4563420" lon="-91.7673760">
        <ele>226.0500000</ele>
        <time>2009-06-28T19:06:21Z</time>
      </trkpt>
      <trkpt lat="44.4563220" lon="-91.7677080">
        <ele>226.0500000</ele>
        <time>2009-06-28T19:06:22Z</time>
      </trkpt>
      <trkpt lat="44.4562970" lon="-91.7680540">
        <ele>226.0500000</ele>
        <time>2009-06-28T19:06:23Z</time>
      </trkpt>
      <trkpt lat="44.4558620" lon="-91.7700180">
        <ele>225.5700000</ele>
        <time>2009-06-28T19:06:29Z</time>
      </trkpt>
      <trkpt lat="44.4551560" lon="-91.7718050">
        <ele>226.5300000</ele>
        <time>2009-06-28T19:06:35Z</time>
      </trkpt>
      <trkpt lat="44.4550130" lon="-91.7720770">
        <ele>226.5300000</ele>
        <time>2009-06-28T19:06:36Z</time>
      </trkpt>
      <trkpt lat="44.4548360" lon="-91.7722870">
        <ele>226.0500000</ele>
        <time>2009-06-28T19:06:37Z</time>
      </trkpt>
      <trkpt lat="44.4546380" lon="-91.7724850">
        <ele>226.0500000</ele>
        <time>2009-06-28T19:06:38Z</time>
      </trkpt>
      <trkpt lat="44.4544380" lon="-91.7726850">
        <ele>225.5700000</ele>
        <time>2009-06-28T19:06:39Z</time>
      </trkpt>
      <trkpt lat="44.4542370" lon="-91.7728720">
        <ele>225.5700000</ele>
        <time>2009-06-28T19:06:40Z</time>
      </trkpt>
      <trkpt lat="44.4540320" lon="-91.7730490">
        <ele>225.0900000</ele>
        <time>2009-06-28T19:06:41Z</time>
      </trkpt>
      <trkpt lat="44.4538000" lon="-91.7731340">
        <ele>225.5700000</ele>
        <time>2009-06-28T19:06:42Z</time>
      </trkpt>
      <trkpt lat="44.4535620" lon="-91.7732210">
        <ele>225.0900000</ele>
        <time>2009-06-28T19:06:43Z</time>
      </trkpt>
      <trkpt lat="44.4533230" lon="-91.7733100">
        <ele>225.5700000</ele>
        <time>2009-06-28T19:06:44Z</time>
      </trkpt>
      <trkpt lat="44.4530900" lon="-91.7733630">
        <ele>225.5700000</ele>
        <time>2009-06-28T19:06:45Z</time>
      </trkpt>
      <trkpt lat="44.4528430" lon="-91.7733880">
        <ele>226.0500000</ele>
        <time>2009-06-28T19:06:46Z</time>
      </trkpt>
      <trkpt lat="44.4492170" lon="-91.7739240">
        <ele>227.9700000</ele>
        <time>2009-06-28T19:07:01Z</time>
      </trkpt>
      <trkpt lat="44.4490080" lon="-91.7740690">
        <ele>227.9700000</ele>
        <time>2009-06-28T19:07:02Z</time>
      </trkpt>
      <trkpt lat="44.4488130" lon="-91.7742350">
        <ele>227.9700000</ele>
        <time>2009-06-28T19:07:03Z</time>
      </trkpt>
      <trkpt lat="44.4486390" lon="-91.7744460">
        <ele>227.9700000</ele>
        <time>2009-06-28T19:07:04Z</time>
      </trkpt>
      <trkpt lat="44.4484610" lon="-91.7746680">
        <ele>227.9700000</ele>
        <time>2009-06-28T19:07:05Z</time>
      </trkpt>
      <trkpt lat="44.4482840" lon="-91.7748910">
        <ele>227.9700000</ele>
        <time>2009-06-28T19:07:06Z</time>
      </trkpt>
      <trkpt lat="44.4480860" lon="-91.7750890">
        <ele>227.9700000</ele>
        <time>2009-06-28T19:07:07Z</time>
      </trkpt>
      <trkpt lat="44.4478880" lon="-91.7752870">
        <ele>227.9700000</ele>
        <time>2009-06-28T19:07:08Z</time>
      </trkpt>
      <trkpt lat="44.4476730" lon="-91.7754440">
        <ele>227.4900000</ele>
        <time>2009-06-28T19:07:09Z</time>
      </trkpt>
      <trkpt lat="44.4474270" lon="-91.7755360">
        <ele>227.9700000</ele>
        <time>2009-06-28T19:07:10Z</time>
      </trkpt>
      <trkpt lat="44.4471740" lon="-91.7755570">
        <ele>227.9700000</ele>
        <time>2009-06-28T19:07:11Z</time>
      </trkpt>
      <trkpt lat="44.4469250" lon="-91.7755760">
        <ele>227.4900000</ele>
        <time>2009-06-28T19:07:12Z</time>
      </trkpt>
      <trkpt lat="44.4466630" lon="-91.7755340">
        <ele>227.0100000</ele>
        <time>2009-06-28T19:07:13Z</time>
      </trkpt>
      <trkpt lat="44.4464000" lon="-91.7754730">
        <ele>227.4900000</ele>
        <time>2009-06-28T19:07:14Z</time>
      </trkpt>
      <trkpt lat="44.4461350" lon="-91.7754120">
        <ele>227.4900000</ele>
        <time>2009-06-28T19:07:15Z</time>
      </trkpt>
      <trkpt lat="44.4458750" lon="-91.7753520">
        <ele>227.9700000</ele>
        <time>2009-06-28T19:07:16Z</time>
      </trkpt>
      <trkpt lat="44.4434960" lon="-91.7753120">
        <ele>227.4900000</ele>
        <time>2009-06-28T19:07:25Z</time>
      </trkpt>
      <trkpt lat="44.4399380" lon="-91.7763010">
        <ele>227.9700000</ele>
        <time>2009-06-28T19:07:39Z</time>
      </trkpt>
      <trkpt lat="44.4378700" lon="-91.7771780">
        <ele>228.9300000</ele>
        <time>2009-06-28T19:07:48Z</time>
      </trkpt>
      <trkpt lat="44.4363150" lon="-91.7788710">
        <ele>227.0100000</ele>
        <time>2009-06-28T19:07:56Z</time>
      </trkpt>
      <trkpt lat="44.4335250" lon="-91.7820590">
        <ele>225.0900000</ele>
        <time>2009-06-28T19:08:11Z</time>
      </trkpt>
      <trkpt lat="44.4302670" lon="-91.7860760">
        <ele>227.0100000</ele>
        <time>2009-06-28T19:08:29Z</time>
      </trkpt>
      <trkpt lat="44.4276940" lon="-91.7896360">
        <ele>232.3000000</ele>
        <time>2009-06-28T19:08:44Z</time>
      </trkpt>
      <trkpt lat="44.4253140" lon="-91.7929080">
        <ele>232.3000000</ele>
        <time>2009-06-28T19:08:59Z</time>
      </trkpt>
      <trkpt lat="44.4244420" lon="-91.7950410">
        <ele>226.5300000</ele>
        <time>2009-06-28T19:09:07Z</time>
      </trkpt>
      <trkpt lat="44.4238470" lon="-91.7975190">
        <ele>220.7600000</ele>
        <time>2009-06-28T19:09:16Z</time>
      </trkpt>
      <trkpt lat="44.4236390" lon="-91.7999120">
        <ele>218.8400000</ele>
        <time>2009-06-28T19:09:24Z</time>
      </trkpt>
      <trkpt lat="44.4235560" lon="-91.8001810">
        <ele>218.8400000</ele>
        <time>2009-06-28T19:09:25Z</time>
      </trkpt>
      <trkpt lat="44.4234320" lon="-91.8004140">
        <ele>219.8000000</ele>
        <time>2009-06-28T19:09:26Z</time>
      </trkpt>
      <trkpt lat="44.4233080" lon="-91.8006460">
        <ele>219.8000000</ele>
        <time>2009-06-28T19:09:27Z</time>
      </trkpt>
      <trkpt lat="44.4231760" lon="-91.8008570">
        <ele>219.8000000</ele>
        <time>2009-06-28T19:09:28Z</time>
      </trkpt>
      <trkpt lat="44.4230050" lon="-91.8010280">
        <ele>219.8000000</ele>
        <time>2009-06-28T19:09:29Z</time>
      </trkpt>
      <trkpt lat="44.4228330" lon="-91.8011830">
        <ele>219.8000000</ele>
        <time>2009-06-28T19:09:30Z</time>
      </trkpt>
      <trkpt lat="44.4226490" lon="-91.8013320">
        <ele>220.2800000</ele>
        <time>2009-06-28T19:09:31Z</time>
      </trkpt>
      <trkpt lat="44.4224630" lon="-91.8014830">
        <ele>219.8000000</ele>
        <time>2009-06-28T19:09:32Z</time>
      </trkpt>
      <trkpt lat="44.4201620" lon="-91.8029950">
        <ele>221.2400000</ele>
        <time>2009-06-28T19:09:44Z</time>
      </trkpt>
      <trkpt lat="44.4181160" lon="-91.8034650">
        <ele>222.6800000</ele>
        <time>2009-06-28T19:09:53Z</time>
      </trkpt>
      <trkpt lat="44.4157770" lon="-91.8033170">
        <ele>225.5700000</ele>
        <time>2009-06-28T19:10:03Z</time>
      </trkpt>
      <trkpt lat="44.4133380" lon="-91.8033470">
        <ele>224.1200000</ele>
        <time>2009-06-28T19:10:13Z</time>
      </trkpt>
      <trkpt lat="44.4126700" lon="-91.8031780">
        <ele>224.1200000</ele>
        <time>2009-06-28T19:10:16Z</time>
      </trkpt>
      <trkpt lat="44.4124710" lon="-91.8030400">
        <ele>224.1200000</ele>
        <time>2009-06-28T19:10:17Z</time>
      </trkpt>
      <trkpt lat="44.4122690" lon="-91.8029000">
        <ele>224.6100000</ele>
        <time>2009-06-28T19:10:18Z</time>
      </trkpt>
      <trkpt lat="44.4099440" lon="-91.8016620">
        <ele>226.5300000</ele>
        <time>2009-06-28T19:10:29Z</time>
      </trkpt>
      <trkpt lat="44.4083320" lon="-91.8017260">
        <ele>226.0500000</ele>
        <time>2009-06-28T19:10:36Z</time>
      </trkpt>
      <trkpt lat="44.4063270" lon="-91.8024310">
        <ele>225.5700000</ele>
        <time>2009-06-28T19:10:45Z</time>
      </trkpt>
      <trkpt lat="44.4035470" lon="-91.8041970">
        <ele>224.6100000</ele>
        <time>2009-06-28T19:10:58Z</time>
      </trkpt>
      <trkpt lat="44.4000570" lon="-91.8063570">
        <ele>222.2000000</ele>
        <time>2009-06-28T19:11:13Z</time>
      </trkpt>
      <trkpt lat="44.3982960" lon="-91.8068570">
        <ele>221.7200000</ele>
        <time>2009-06-28T19:11:20Z</time>
      </trkpt>
      <trkpt lat="44.3952650" lon="-91.8071860">
        <ele>219.8000000</ele>
        <time>2009-06-28T19:11:32Z</time>
      </trkpt>
      <trkpt lat="44.3948160" lon="-91.8074620">
        <ele>218.8400000</ele>
        <time>2009-06-28T19:11:34Z</time>
      </trkpt>
      <trkpt lat="44.3946010" lon="-91.8076310">
        <ele>218.3600000</ele>
        <time>2009-06-28T19:11:35Z</time>
      </trkpt>
      <trkpt lat="44.3943900" lon="-91.8078420">
        <ele>218.3600000</ele>
        <time>2009-06-28T19:11:36Z</time>
      </trkpt>
      <trkpt lat="44.3942020" lon="-91.8080880">
        <ele>218.8400000</ele>
        <time>2009-06-28T19:11:37Z</time>
      </trkpt>
      <trkpt lat="44.3940270" lon="-91.8083420">
        <ele>218.8400000</ele>
        <time>2009-06-28T19:11:38Z</time>
      </trkpt>
      <trkpt lat="44.3938710" lon="-91.8086260">
        <ele>218.8400000</ele>
        <time>2009-06-28T19:11:39Z</time>
      </trkpt>
      <trkpt lat="44.3937140" lon="-91.8089120">
        <ele>218.3600000</ele>
        <time>2009-06-28T19:11:40Z</time>
      </trkpt>
      <trkpt lat="44.3915930" lon="-91.8133400">
        <ele>218.8400000</ele>
        <time>2009-06-28T19:11:55Z</time>
      </trkpt>
      <trkpt lat="44.3903180" lon="-91.8158810">
        <ele>221.7200000</ele>
        <time>2009-06-28T19:12:04Z</time>
      </trkpt>
      <trkpt lat="44.3882110" lon="-91.8185380">
        <ele>222.6800000</ele>
        <time>2009-06-28T19:12:15Z</time>
      </trkpt>
      <trkpt lat="44.3874750" lon="-91.8204250">
        <ele>223.6400000</ele>
        <time>2009-06-28T19:12:21Z</time>
      </trkpt>
      <trkpt lat="44.3872980" lon="-91.8225350">
        <ele>224.1200000</ele>
        <time>2009-06-28T19:12:27Z</time>
      </trkpt>
      <trkpt lat="44.3876880" lon="-91.8245920">
        <ele>228.4500000</ele>
        <time>2009-06-28T19:12:33Z</time>
      </trkpt>
      <trkpt lat="44.3886760" lon="-91.8283210">
        <ele>230.8500000</ele>
        <time>2009-06-28T19:12:44Z</time>
      </trkpt>
      <trkpt lat="44.3888560" lon="-91.8314630">
        <ele>244.3100000</ele>
        <time>2009-06-28T19:12:53Z</time>
      </trkpt>
      <trkpt lat="44.3890020" lon="-91.8351690">
        <ele>262.5800000</ele>
        <time>2009-06-28T19:13:05Z</time>
      </trkpt>
      <trkpt lat="44.3888030" lon="-91.8384380">
        <ele>257.7700000</ele>
        <time>2009-06-28T19:13:16Z</time>
      </trkpt>
      <trkpt lat="44.3881050" lon="-91.8406960">
        <ele>250.5600000</ele>
        <time>2009-06-28T19:13:24Z</time>
      </trkpt>
      <trkpt lat="44.3866080" lon="-91.8451160">
        <ele>238.5400000</ele>
        <time>2009-06-28T19:13:39Z</time>
      </trkpt>
      <trkpt lat="44.3852040" lon="-91.8493760">
        <ele>223.6400000</ele>
        <time>2009-06-28T19:13:53Z</time>
      </trkpt>
      <trkpt lat="44.3851320" lon="-91.8513150">
        <ele>218.3600000</ele>
        <time>2009-06-28T19:13:59Z</time>
      </trkpt>
      <trkpt lat="44.3852170" lon="-91.8535090">
        <ele>218.3600000</ele>
        <time>2009-06-28T19:14:05Z</time>
      </trkpt>
      <trkpt lat="44.3840000" lon="-91.8553960">
        <ele>217.8800000</ele>
        <time>2009-06-28T19:14:11Z</time>
      </trkpt>
      <trkpt lat="44.3830610" lon="-91.8573660">
        <ele>213.0700000</ele>
        <time>2009-06-28T19:14:18Z</time>
      </trkpt>
      <trkpt lat="44.3828010" lon="-91.8593810">
        <ele>210.1900000</ele>
        <time>2009-06-28T19:14:25Z</time>
      </trkpt>
      <trkpt lat="44.3826540" lon="-91.8604710">
        <ele>208.7400000</ele>
        <time>2009-06-28T19:14:31Z</time>
      </trkpt>
      <trkpt lat="44.3822670" lon="-91.8621470">
        <ele>208.7400000</ele>
        <time>2009-06-28T19:14:42Z</time>
      </trkpt>
      <trkpt lat="44.3816180" lon="-91.8637100">
        <ele>213.5500000</ele>
        <time>2009-06-28T19:14:53Z</time>
      </trkpt>
      <trkpt lat="44.3806570" lon="-91.8651210">
        <ele>218.3600000</ele>
        <time>2009-06-28T19:15:07Z</time>
      </trkpt>
      <trkpt lat="44.3802420" lon="-91.8657120">
        <ele>222.2000000</ele>
        <time>2009-06-28T19:15:16Z</time>
      </trkpt>
      <trkpt lat="44.3800720" lon="-91.8659530">
        <ele>222.2000000</ele>
        <time>2009-06-28T19:15:20Z</time>
      </trkpt>
      <trkpt lat="44.3800220" lon="-91.8660250">
        <ele>222.2000000</ele>
        <time>2009-06-28T19:15:21Z</time>
      </trkpt>
      <trkpt lat="44.3799790" lon="-91.8660860">
        <ele>221.2400000</ele>
        <time>2009-06-28T19:15:22Z</time>
      </trkpt>
      <trkpt lat="44.3800710" lon="-91.8662910">
        <ele>220.7600000</ele>
        <time>2009-06-28T19:15:23Z</time>
      </trkpt>
      <trkpt lat="44.3801590" lon="-91.8663560">
        <ele>220.2800000</ele>
        <time>2009-06-28T19:15:24Z</time>
      </trkpt>
      <trkpt lat="44.3802580" lon="-91.8664310">
        <ele>219.8000000</ele>
        <time>2009-06-28T19:15:25Z</time>
      </trkpt>
      <trkpt lat="44.3803680" lon="-91.8665140">
        <ele>219.3200000</ele>
        <time>2009-06-28T19:15:26Z</time>
      </trkpt>
      <trkpt lat="44.3804840" lon="-91.8665910">
        <ele>218.8400000</ele>
        <time>2009-06-28T19:15:27Z</time>
      </trkpt>
      <trkpt lat="44.3815630" lon="-91.8672050">
        <ele>218.8400000</ele>
        <time>2009-06-28T19:15:35Z</time>
      </trkpt>
      <trkpt lat="44.3825190" lon="-91.8677500">
        <ele>218.8400000</ele>
        <time>2009-06-28T19:15:43Z</time>
      </trkpt>
      <trkpt lat="44.3838300" lon="-91.8684980">
        <ele>218.3600000</ele>
        <time>2009-06-28T19:15:54Z</time>
      </trkpt>
      <trkpt lat="44.3846530" lon="-91.8694060">
        <ele>217.4000000</ele>
        <time>2009-06-28T19:16:02Z</time>
      </trkpt>
      <trkpt lat="44.3853050" lon="-91.8708540">
        <ele>217.4000000</ele>
        <time>2009-06-28T19:16:09Z</time>
      </trkpt>
      <trkpt lat="44.3861980" lon="-91.8730860">
        <ele>221.7200000</ele>
        <time>2009-06-28T19:16:18Z</time>
      </trkpt>
      <trkpt lat="44.3871970" lon="-91.8747880">
        <ele>236.1400000</ele>
        <time>2009-06-28T19:16:27Z</time>
      </trkpt>
      <trkpt lat="44.3879380" lon="-91.8757450">
        <ele>240.9500000</ele>
        <time>2009-06-28T19:16:35Z</time>
      </trkpt>
      <trkpt lat="44.3883390" lon="-91.8762510">
        <ele>240.9500000</ele>
        <time>2009-06-28T19:16:45Z</time>
      </trkpt>
      <trkpt lat="44.3891210" lon="-91.8768560">
        <ele>240.4700000</ele>
        <time>2009-06-28T19:16:51Z</time>
      </trkpt>
      <trkpt lat="44.3905680" lon="-91.8775940">
        <ele>239.9900000</ele>
        <time>2009-06-28T19:16:59Z</time>
      </trkpt>
      <trkpt lat="44.3911520" lon="-91.8778150">
        <ele>240.9500000</ele>
        <time>2009-06-28T19:17:02Z</time>
      </trkpt>
      <trkpt lat="44.3913570" lon="-91.8778590">
        <ele>241.4300000</ele>
        <time>2009-06-28T19:17:03Z</time>
      </trkpt>
      <trkpt lat="44.3915630" lon="-91.8778910">
        <ele>241.9100000</ele>
        <time>2009-06-28T19:17:04Z</time>
      </trkpt>
      <trkpt lat="44.3917700" lon="-91.8778520">
        <ele>241.9100000</ele>
        <time>2009-06-28T19:17:05Z</time>
      </trkpt>
      <trkpt lat="44.3919830" lon="-91.8777930">
        <ele>242.3900000</ele>
        <time>2009-06-28T19:17:06Z</time>
      </trkpt>
      <trkpt lat="44.3922010" lon="-91.8777320">
        <ele>243.3500000</ele>
        <time>2009-06-28T19:17:07Z</time>
      </trkpt>
      <trkpt lat="44.3924250" lon="-91.8776690">
        <ele>243.8300000</ele>
        <time>2009-06-28T19:17:08Z</time>
      </trkpt>
      <trkpt lat="44.3940370" lon="-91.8775610">
        <ele>246.7200000</ele>
        <time>2009-06-28T19:17:15Z</time>
      </trkpt>
      <trkpt lat="44.3957840" lon="-91.8775890">
        <ele>245.7500000</ele>
        <time>2009-06-28T19:17:24Z</time>
      </trkpt>
      <trkpt lat="44.3959820" lon="-91.8776410">
        <ele>245.7500000</ele>
        <time>2009-06-28T19:17:25Z</time>
      </trkpt>
      <trkpt lat="44.3961820" lon="-91.8779300">
        <ele>245.2700000</ele>
        <time>2009-06-28T19:17:26Z</time>
      </trkpt>
      <trkpt lat="44.3961850" lon="-91.8781690">
        <ele>244.7900000</ele>
        <time>2009-06-28T19:17:27Z</time>
      </trkpt>
      <trkpt lat="44.3961870" lon="-91.8784290">
        <ele>244.7900000</ele>
        <time>2009-06-28T19:17:28Z</time>
      </trkpt>
      <trkpt lat="44.3961900" lon="-91.8787500">
        <ele>243.8300000</ele>
        <time>2009-06-28T19:17:29Z</time>
      </trkpt>
      <trkpt lat="44.3961930" lon="-91.8790690">
        <ele>244.3100000</ele>
        <time>2009-06-28T19:17:30Z</time>
      </trkpt>
      <trkpt lat="44.3961970" lon="-91.8794160">
        <ele>244.7900000</ele>
        <time>2009-06-28T19:17:31Z</time>
      </trkpt>
      <trkpt lat="44.3962000" lon="-91.8797760">
        <ele>244.7900000</ele>
        <time>2009-06-28T19:17:32Z</time>
      </trkpt>
      <trkpt lat="44.3962040" lon="-91.8801300">
        <ele>245.2700000</ele>
        <time>2009-06-28T19:17:33Z</time>
      </trkpt>
      <trkpt lat="44.3962880" lon="-91.8836070">
        <ele>248.6400000</ele>
        <time>2009-06-28T19:17:44Z</time>
      </trkpt>
      <trkpt lat="44.3964670" lon="-91.8847120">
        <ele>247.2000000</ele>
        <time>2009-06-28T19:17:48Z</time>
      </trkpt>
      <trkpt lat="44.3965820" lon="-91.8848910">
        <ele>246.7200000</ele>
        <time>2009-06-28T19:17:49Z</time>
      </trkpt>
      <trkpt lat="44.3967360" lon="-91.8850960">
        <ele>246.7200000</ele>
        <time>2009-06-28T19:17:50Z</time>
      </trkpt>
      <trkpt lat="44.3969180" lon="-91.8852670">
        <ele>246.7200000</ele>
        <time>2009-06-28T19:17:51Z</time>
      </trkpt>
      <trkpt lat="44.3971200" lon="-91.8854540">
        <ele>247.2000000</ele>
        <time>2009-06-28T19:17:52Z</time>
      </trkpt>
      <trkpt lat="44.3973200" lon="-91.8856410">
        <ele>248.1600000</ele>
        <time>2009-06-28T19:17:53Z</time>
      </trkpt>
      <trkpt lat="44.4000120" lon="-91.8881820">
        <ele>252.0000000</ele>
        <time>2009-06-28T19:18:07Z</time>
      </trkpt>
      <trkpt lat="44.4036010" lon="-91.8919280">
        <ele>244.3100000</ele>
        <time>2009-06-28T19:18:26Z</time>
      </trkpt>
      <trkpt lat="44.4042210" lon="-91.8924690">
        <ele>239.5100000</ele>
        <time>2009-06-28T19:18:29Z</time>
      </trkpt>
      <trkpt lat="44.4044340" lon="-91.8926310">
        <ele>238.0600000</ele>
        <time>2009-06-28T19:18:30Z</time>
      </trkpt>
      <trkpt lat="44.4054360" lon="-91.8937450">
        <ele>237.1000000</ele>
        <time>2009-06-28T19:18:36Z</time>
      </trkpt>
      <trkpt lat="44.4055230" lon="-91.8939860">
        <ele>237.5800000</ele>
        <time>2009-06-28T19:18:37Z</time>
      </trkpt>
      <trkpt lat="44.4055770" lon="-91.8942290">
        <ele>238.0600000</ele>
        <time>2009-06-28T19:18:38Z</time>
      </trkpt>
      <trkpt lat="44.4055820" lon="-91.8944650">
        <ele>239.0200000</ele>
        <time>2009-06-28T19:18:39Z</time>
      </trkpt>
      <trkpt lat="44.4055840" lon="-91.8947420">
        <ele>239.5100000</ele>
        <time>2009-06-28T19:18:40Z</time>
      </trkpt>
      <trkpt lat="44.4055860" lon="-91.8950320">
        <ele>240.4700000</ele>
        <time>2009-06-28T19:18:41Z</time>
      </trkpt>
      <trkpt lat="44.4055890" lon="-91.8953220">
        <ele>240.4700000</ele>
        <time>2009-06-28T19:18:42Z</time>
      </trkpt>
      <trkpt lat="44.4056120" lon="-91.8981920">
        <ele>240.4700000</ele>
        <time>2009-06-28T19:18:53Z</time>
      </trkpt>
      <trkpt lat="44.4056930" lon="-91.9000870">
        <ele>239.0200000</ele>
        <time>2009-06-28T19:19:02Z</time>
      </trkpt>
      <trkpt lat="44.4057690" lon="-91.9002750">
        <ele>238.5400000</ele>
        <time>2009-06-28T19:19:03Z</time>
      </trkpt>
      <trkpt lat="44.4059080" lon="-91.9004350">
        <ele>238.5400000</ele>
        <time>2009-06-28T19:19:04Z</time>
      </trkpt>
      <trkpt lat="44.4060620" lon="-91.9005910">
        <ele>238.5400000</ele>
        <time>2009-06-28T19:19:05Z</time>
      </trkpt>
      <trkpt lat="44.4062340" lon="-91.9007250">
        <ele>238.5400000</ele>
        <time>2009-06-28T19:19:06Z</time>
      </trkpt>
      <trkpt lat="44.4063990" lon="-91.9008540">
        <ele>239.0200000</ele>
        <time>2009-06-28T19:19:07Z</time>
      </trkpt>
      <trkpt lat="44.4075740" lon="-91.9016990">
        <ele>241.4300000</ele>
        <time>2009-06-28T19:19:14Z</time>
      </trkpt>
      <trkpt lat="44.4077640" lon="-91.9017760">
        <ele>241.9100000</ele>
        <time>2009-06-28T19:19:15Z</time>
      </trkpt>
      <trkpt lat="44.4084870" lon="-91.9021140">
        <ele>244.3100000</ele>
        <time>2009-06-28T19:19:19Z</time>
      </trkpt>
      <trkpt lat="44.4086630" lon="-91.9022200">
        <ele>244.7900000</ele>
        <time>2009-06-28T19:19:20Z</time>
      </trkpt>
      <trkpt lat="44.4088050" lon="-91.9023990">
        <ele>245.7500000</ele>
        <time>2009-06-28T19:19:21Z</time>
      </trkpt>
      <trkpt lat="44.4089540" lon="-91.9025930">
        <ele>245.7500000</ele>
        <time>2009-06-28T19:19:22Z</time>
      </trkpt>
      <trkpt lat="44.4091070" lon="-91.9027920">
        <ele>246.2300000</ele>
        <time>2009-06-28T19:19:23Z</time>
      </trkpt>
      <trkpt lat="44.4112060" lon="-91.9056180">
        <ele>244.3100000</ele>
        <time>2009-06-28T19:19:37Z</time>
      </trkpt>
      <trkpt lat="44.4127100" lon="-91.9075350">
        <ele>244.3100000</ele>
        <time>2009-06-28T19:19:48Z</time>
      </trkpt>
      <trkpt lat="44.4140320" lon="-91.9096330">
        <ele>247.6800000</ele>
        <time>2009-06-28T19:19:58Z</time>
      </trkpt>
      <trkpt lat="44.4154790" lon="-91.9121930">
        <ele>252.4800000</ele>
        <time>2009-06-28T19:20:10Z</time>
      </trkpt>
      <trkpt lat="44.4167560" lon="-91.9141080">
        <ele>257.2900000</ele>
        <time>2009-06-28T19:20:20Z</time>
      </trkpt>
      <trkpt lat="44.4182250" lon="-91.9149430">
        <ele>264.9800000</ele>
        <time>2009-06-28T19:20:28Z</time>
      </trkpt>
      <trkpt lat="44.4197340" lon="-91.9153680">
        <ele>268.3500000</ele>
        <time>2009-06-28T19:20:36Z</time>
      </trkpt>
      <trkpt lat="44.4219280" lon="-91.9163720">
        <ele>271.7100000</ele>
        <time>2009-06-28T19:20:47Z</time>
      </trkpt>
      <trkpt lat="44.4246620" lon="-91.9176440">
        <ele>271.7100000</ele>
        <time>2009-06-28T19:21:00Z</time>
      </trkpt>
      <trkpt lat="44.4252740" lon="-91.9180550">
        <ele>270.2700000</ele>
        <time>2009-06-28T19:21:03Z</time>
      </trkpt>
      <trkpt lat="44.4254120" lon="-91.9182840">
        <ele>270.7500000</ele>
        <time>2009-06-28T19:21:04Z</time>
      </trkpt>
      <trkpt lat="44.4255350" lon="-91.9185300">
        <ele>270.7500000</ele>
        <time>2009-06-28T19:21:05Z</time>
      </trkpt>
      <trkpt lat="44.4256580" lon="-91.9187750">
        <ele>271.7100000</ele>
        <time>2009-06-28T19:21:06Z</time>
      </trkpt>
      <trkpt lat="44.4257810" lon="-91.9190220">
        <ele>272.6700000</ele>
        <time>2009-06-28T19:21:07Z</time>
      </trkpt>
      <trkpt lat="44.4259310" lon="-91.9192600">
        <ele>274.1100000</ele>
        <time>2009-06-28T19:21:08Z</time>
      </trkpt>
      <trkpt lat="44.4274620" lon="-91.9212010">
        <ele>273.1500000</ele>
        <time>2009-06-28T19:21:18Z</time>
      </trkpt>
      <trkpt lat="44.4283450" lon="-91.9222780">
        <ele>271.7100000</ele>
        <time>2009-06-28T19:21:24Z</time>
      </trkpt>
      <trkpt lat="44.4284220" lon="-91.9225000">
        <ele>271.7100000</ele>
        <time>2009-06-28T19:21:25Z</time>
      </trkpt>
      <trkpt lat="44.4285000" lon="-91.9227210">
        <ele>272.1900000</ele>
        <time>2009-06-28T19:21:26Z</time>
      </trkpt>
      <trkpt lat="44.4285780" lon="-91.9229430">
        <ele>272.6700000</ele>
        <time>2009-06-28T19:21:27Z</time>
      </trkpt>
      <trkpt lat="44.4287020" lon="-91.9231570">
        <ele>273.1500000</ele>
        <time>2009-06-28T19:21:28Z</time>
      </trkpt>
      <trkpt lat="44.4288530" lon="-91.9233080">
        <ele>273.6300000</ele>
        <time>2009-06-28T19:21:29Z</time>
      </trkpt>
      <trkpt lat="44.4290080" lon="-91.9234630">
        <ele>274.5900000</ele>
        <time>2009-06-28T19:21:30Z</time>
      </trkpt>
      <trkpt lat="44.4291680" lon="-91.9236230">
        <ele>275.5600000</ele>
        <time>2009-06-28T19:21:31Z</time>
      </trkpt>
      <trkpt lat="44.4293300" lon="-91.9237850">
        <ele>276.0400000</ele>
        <time>2009-06-28T19:21:32Z</time>
      </trkpt>
      <trkpt lat="44.4295030" lon="-91.9239030">
        <ele>277.0000000</ele>
        <time>2009-06-28T19:21:33Z</time>
      </trkpt>
      <trkpt lat="44.4296970" lon="-91.9239950">
        <ele>277.9600000</ele>
        <time>2009-06-28T19:21:34Z</time>
      </trkpt>
      <trkpt lat="44.4298940" lon="-91.9240880">
        <ele>278.9200000</ele>
        <time>2009-06-28T19:21:35Z</time>
      </trkpt>
      <trkpt lat="44.4319930" lon="-91.9253570">
        <ele>285.1700000</ele>
        <time>2009-06-28T19:21:46Z</time>
      </trkpt>
      <trkpt lat="44.4334830" lon="-91.9264850">
        <ele>291.4200000</ele>
        <time>2009-06-28T19:21:54Z</time>
      </trkpt>
      <trkpt lat="44.4347420" lon="-91.9282130">
        <ele>298.1500000</ele>
        <time>2009-06-28T19:22:02Z</time>
      </trkpt>
      <trkpt lat="44.4358820" lon="-91.9304070">
        <ele>299.5900000</ele>
        <time>2009-06-28T19:22:11Z</time>
      </trkpt>
      <trkpt lat="44.4368240" lon="-91.9338310">
        <ele>301.5100000</ele>
        <time>2009-06-28T19:22:24Z</time>
      </trkpt>
      <trkpt lat="44.4374080" lon="-91.9353200">
        <ele>302.9500000</ele>
        <time>2009-06-28T19:22:30Z</time>
      </trkpt>
      <trkpt lat="44.4378300" lon="-91.9372020">
        <ele>307.2800000</ele>
        <time>2009-06-28T19:22:37Z</time>
      </trkpt>
      <trkpt lat="44.4379350" lon="-91.9391130">
        <ele>308.7200000</ele>
        <time>2009-06-28T19:22:44Z</time>
      </trkpt>
      <trkpt lat="44.4375950" lon="-91.9414040">
        <ele>304.8800000</ele>
        <time>2009-06-28T19:22:53Z</time>
      </trkpt>
      <trkpt lat="44.4375950" lon="-91.9416680">
        <ele>304.8800000</ele>
        <time>2009-06-28T19:22:54Z</time>
      </trkpt>
      <trkpt lat="44.4376440" lon="-91.9419650">
        <ele>304.8800000</ele>
        <time>2009-06-28T19:22:55Z</time>
      </trkpt>
      <trkpt lat="44.4377420" lon="-91.9422270">
        <ele>305.3600000</ele>
        <time>2009-06-28T19:22:56Z</time>
      </trkpt>
      <trkpt lat="44.4378380" lon="-91.9424830">
        <ele>305.3600000</ele>
        <time>2009-06-28T19:22:57Z</time>
      </trkpt>
      <trkpt lat="44.4379780" lon="-91.9426850">
        <ele>306.3200000</ele>
        <time>2009-06-28T19:22:58Z</time>
      </trkpt>
      <trkpt lat="44.4381350" lon="-91.9428880">
        <ele>307.2800000</ele>
        <time>2009-06-28T19:22:59Z</time>
      </trkpt>
      <trkpt lat="44.4382930" lon="-91.9430910">
        <ele>308.7200000</ele>
        <time>2009-06-28T19:23:00Z</time>
      </trkpt>
      <trkpt lat="44.4384650" lon="-91.9432750">
        <ele>309.6800000</ele>
        <time>2009-06-28T19:23:01Z</time>
      </trkpt>
      <trkpt lat="44.4405200" lon="-91.9458520">
        <ele>318.8100000</ele>
        <time>2009-06-28T19:23:14Z</time>
      </trkpt>
      <trkpt lat="44.4408530" lon="-91.9461710">
        <ele>320.7400000</ele>
        <time>2009-06-28T19:23:16Z</time>
      </trkpt>
      <trkpt lat="44.4410430" lon="-91.9462760">
        <ele>321.2200000</ele>
        <time>2009-06-28T19:23:17Z</time>
      </trkpt>
      <trkpt lat="44.4412380" lon="-91.9463830">
        <ele>322.1800000</ele>
        <time>2009-06-28T19:23:18Z</time>
      </trkpt>
      <trkpt lat="44.4417980" lon="-91.9467340">
        <ele>323.6200000</ele>
        <time>2009-06-28T19:23:21Z</time>
      </trkpt>
      <trkpt lat="44.4419210" lon="-91.9469160">
        <ele>323.6200000</ele>
        <time>2009-06-28T19:23:22Z</time>
      </trkpt>
      <trkpt lat="44.4420310" lon="-91.9471220">
        <ele>324.1000000</ele>
        <time>2009-06-28T19:23:23Z</time>
      </trkpt>
      <trkpt lat="44.4421410" lon="-91.9473290">
        <ele>324.5800000</ele>
        <time>2009-06-28T19:23:24Z</time>
      </trkpt>
      <trkpt lat="44.4422480" lon="-91.9475310">
        <ele>325.5400000</ele>
        <time>2009-06-28T19:23:25Z</time>
      </trkpt>
      <trkpt lat="44.4423520" lon="-91.9477260">
        <ele>326.0200000</ele>
        <time>2009-06-28T19:23:26Z</time>
      </trkpt>
      <trkpt lat="44.4430210" lon="-91.9495120">
        <ele>330.3500000</ele>
        <time>2009-06-28T19:23:34Z</time>
      </trkpt>
      <trkpt lat="44.4438020" lon="-91.9508370">
        <ele>334.6800000</ele>
        <time>2009-06-28T19:23:41Z</time>
      </trkpt>
      <trkpt lat="44.4445750" lon="-91.9517140">
        <ele>337.0800000</ele>
        <time>2009-06-28T19:23:49Z</time>
      </trkpt>
      <trkpt lat="44.4455080" lon="-91.9522000">
        <ele>334.6800000</ele>
        <time>2009-06-28T19:23:58Z</time>
      </trkpt>
      <trkpt lat="44.4458280" lon="-91.9522710">
        <ele>333.2300000</ele>
        <time>2009-06-28T19:24:04Z</time>
      </trkpt>
      <trkpt lat="44.4461590" lon="-91.9523450">
        <ele>329.8700000</ele>
        <time>2009-06-28T19:24:18Z</time>
      </trkpt>
      <trkpt lat="44.4461780" lon="-91.9523490">
        <ele>329.8700000</ele>
        <time>2009-06-28T19:24:19Z</time>
      </trkpt>
      <trkpt lat="44.4461470" lon="-91.9524900">
        <ele>329.8700000</ele>
        <time>2009-06-28T19:24:20Z</time>
      </trkpt>
      <trkpt lat="44.4461190" lon="-91.9526160">
        <ele>329.8700000</ele>
        <time>2009-06-28T19:24:21Z</time>
      </trkpt>
      <trkpt lat="44.4460880" lon="-91.9527520">
        <ele>329.8700000</ele>
        <time>2009-06-28T19:24:22Z</time>
      </trkpt>
      <trkpt lat="44.4460520" lon="-91.9529150">
        <ele>329.8700000</ele>
        <time>2009-06-28T19:24:23Z</time>
      </trkpt>
      <trkpt lat="44.4460110" lon="-91.9531020">
        <ele>329.8700000</ele>
        <time>2009-06-28T19:24:24Z</time>
      </trkpt>
      <trkpt lat="44.4458970" lon="-91.9535220">
        <ele>330.3500000</ele>
        <time>2009-06-28T19:24:26Z</time>
      </trkpt>
      <trkpt lat="44.4458070" lon="-91.9537280">
        <ele>330.8300000</ele>
        <time>2009-06-28T19:24:27Z</time>
      </trkpt>
      <trkpt lat="44.4456960" lon="-91.9539420">
        <ele>330.8300000</ele>
        <time>2009-06-28T19:24:28Z</time>
      </trkpt>
      <trkpt lat="44.4448960" lon="-91.9556020">
        <ele>325.5400000</ele>
        <time>2009-06-28T19:24:35Z</time>
      </trkpt>
      <trkpt lat="44.4441010" lon="-91.9577150">
        <ele>310.6400000</ele>
        <time>2009-06-28T19:24:43Z</time>
      </trkpt>
      <trkpt lat="44.4438980" lon="-91.9582080">
        <ele>306.8000000</ele>
        <time>2009-06-28T19:24:45Z</time>
      </trkpt>
      <trkpt lat="44.4437610" lon="-91.9583950">
        <ele>304.3900000</ele>
        <time>2009-06-28T19:24:46Z</time>
      </trkpt>
      <trkpt lat="44.4436230" lon="-91.9585840">
        <ele>302.4700000</ele>
        <time>2009-06-28T19:24:47Z</time>
      </trkpt>
      <trkpt lat="44.4434820" lon="-91.9587750">
        <ele>301.0300000</ele>
        <time>2009-06-28T19:24:48Z</time>
      </trkpt>
      <trkpt lat="44.4433280" lon="-91.9589430">
        <ele>299.1100000</ele>
        <time>2009-06-28T19:24:49Z</time>
      </trkpt>
      <trkpt lat="44.4412900" lon="-91.9611190">
        <ele>282.2800000</ele>
        <time>2009-06-28T19:25:01Z</time>
      </trkpt>
      <trkpt lat="44.4399150" lon="-91.9625500">
        <ele>273.6300000</ele>
        <time>2009-06-28T19:25:09Z</time>
      </trkpt>
      <trkpt lat="44.4397950" lon="-91.9627860">
        <ele>273.1500000</ele>
        <time>2009-06-28T19:25:10Z</time>
      </trkpt>
      <trkpt lat="44.4396980" lon="-91.9630780">
        <ele>272.1900000</ele>
        <time>2009-06-28T19:25:11Z</time>
      </trkpt>
      <trkpt lat="44.4396120" lon="-91.9633780">
        <ele>271.2300000</ele>
        <time>2009-06-28T19:25:12Z</time>
      </trkpt>
      <trkpt lat="44.4395250" lon="-91.9636820">
        <ele>270.2700000</ele>
        <time>2009-06-28T19:25:13Z</time>
      </trkpt>
      <trkpt lat="44.4393560" lon="-91.9656040">
        <ele>268.8300000</ele>
        <time>2009-06-28T19:25:19Z</time>
      </trkpt>
      <trkpt lat="44.4392840" lon="-91.9696010">
        <ele>260.1700000</ele>
        <time>2009-06-28T19:25:32Z</time>
      </trkpt>
      <trkpt lat="44.4389690" lon="-91.9730410">
        <ele>252.4800000</ele>
        <time>2009-06-28T19:25:44Z</time>
      </trkpt>
      <trkpt lat="44.4391960" lon="-91.9751080">
        <ele>252.0000000</ele>
        <time>2009-06-28T19:25:51Z</time>
      </trkpt>
      <trkpt lat="44.4394320" lon="-91.9772090">
        <ele>252.4800000</ele>
        <time>2009-06-28T19:25:58Z</time>
      </trkpt>
      <trkpt lat="44.4394080" lon="-91.9774940">
        <ele>253.4400000</ele>
        <time>2009-06-28T19:25:59Z</time>
      </trkpt>
      <trkpt lat="44.4393620" lon="-91.9777560">
        <ele>254.8900000</ele>
        <time>2009-06-28T19:26:00Z</time>
      </trkpt>
      <trkpt lat="44.4392840" lon="-91.9780400">
        <ele>255.8500000</ele>
        <time>2009-06-28T19:26:01Z</time>
      </trkpt>
      <trkpt lat="44.4391770" lon="-91.9782940">
        <ele>257.2900000</ele>
        <time>2009-06-28T19:26:02Z</time>
      </trkpt>
      <trkpt lat="44.4390480" lon="-91.9785740">
        <ele>258.2500000</ele>
        <time>2009-06-28T19:26:03Z</time>
      </trkpt>
      <trkpt lat="44.4389210" lon="-91.9788460">
        <ele>259.6900000</ele>
        <time>2009-06-28T19:26:04Z</time>
      </trkpt>
      <trkpt lat="44.4387950" lon="-91.9791190">
        <ele>260.6500000</ele>
        <time>2009-06-28T19:26:05Z</time>
      </trkpt>
      <trkpt lat="44.4386700" lon="-91.9794010">
        <ele>261.6200000</ele>
        <time>2009-06-28T19:26:06Z</time>
      </trkpt>
      <trkpt lat="44.4385550" lon="-91.9796890">
        <ele>262.5800000</ele>
        <time>2009-06-28T19:26:07Z</time>
      </trkpt>
      <trkpt lat="44.4385190" lon="-91.9800460">
        <ele>263.0600000</ele>
        <time>2009-06-28T19:26:08Z</time>
      </trkpt>
      <trkpt lat="44.4384970" lon="-91.9803890">
        <ele>263.5400000</ele>
        <time>2009-06-28T19:26:09Z</time>
      </trkpt>
      <trkpt lat="44.4384750" lon="-91.9807390">
        <ele>264.0200000</ele>
        <time>2009-06-28T19:26:10Z</time>
      </trkpt>
      <trkpt lat="44.4383480" lon="-91.9820860">
        <ele>264.0200000</ele>
        <time>2009-06-28T19:26:14Z</time>
      </trkpt>
      <trkpt lat="44.4382580" lon="-91.9823830">
        <ele>264.5000000</ele>
        <time>2009-06-28T19:26:15Z</time>
      </trkpt>
      <trkpt lat="44.4381430" lon="-91.9826670">
        <ele>264.5000000</ele>
        <time>2009-06-28T19:26:16Z</time>
      </trkpt>
      <trkpt lat="44.4380270" lon="-91.9829540">
        <ele>264.5000000</ele>
        <time>2009-06-28T19:26:17Z</time>
      </trkpt>
      <trkpt lat="44.4379090" lon="-91.9832450">
        <ele>263.5400000</ele>
        <time>2009-06-28T19:26:18Z</time>
      </trkpt>
      <trkpt lat="44.4376750" lon="-91.9838220">
        <ele>262.5800000</ele>
        <time>2009-06-28T19:26:20Z</time>
      </trkpt>
      <trkpt lat="44.4375770" lon="-91.9841390">
        <ele>262.5800000</ele>
        <time>2009-06-28T19:26:21Z</time>
      </trkpt>
      <trkpt lat="44.4375250" lon="-91.9844720">
        <ele>261.6200000</ele>
        <time>2009-06-28T19:26:22Z</time>
      </trkpt>
      <trkpt lat="44.4375090" lon="-91.9848180">
        <ele>261.1400000</ele>
        <time>2009-06-28T19:26:23Z</time>
      </trkpt>
      <trkpt lat="44.4375090" lon="-91.9851720">
        <ele>260.6500000</ele>
        <time>2009-06-28T19:26:24Z</time>
      </trkpt>
      <trkpt lat="44.4375090" lon="-91.9855220">
        <ele>260.6500000</ele>
        <time>2009-06-28T19:26:25Z</time>
      </trkpt>
      <trkpt lat="44.4373170" lon="-91.9877080">
        <ele>258.7300000</ele>
        <time>2009-06-28T19:26:32Z</time>
      </trkpt>
      <trkpt lat="44.4366650" lon="-91.9894460">
        <ele>254.8900000</ele>
        <time>2009-06-28T19:26:39Z</time>
      </trkpt>
      <trkpt lat="44.4355090" lon="-91.9919450">
        <ele>249.1200000</ele>
        <time>2009-06-28T19:26:51Z</time>
      </trkpt>
      <trkpt lat="44.4345390" lon="-91.9941830">
        <ele>250.5600000</ele>
        <time>2009-06-28T19:27:04Z</time>
      </trkpt>
      <trkpt lat="44.4339920" lon="-91.9959760">
        <ele>246.2300000</ele>
        <time>2009-06-28T19:27:12Z</time>
      </trkpt>
      <trkpt lat="44.4331800" lon="-91.9987430">
        <ele>247.6800000</ele>
        <time>2009-06-28T19:27:23Z</time>
      </trkpt>
      <trkpt lat="44.4323700" lon="-92.0015610">
        <ele>246.2300000</ele>
        <time>2009-06-28T19:27:36Z</time>
      </trkpt>
      <trkpt lat="44.4313770" lon="-92.0043610">
        <ele>241.9100000</ele>
        <time>2009-06-28T19:27:50Z</time>
      </trkpt>
      <trkpt lat="44.4306630" lon="-92.0054900">
        <ele>237.5800000</ele>
        <time>2009-06-28T19:27:57Z</time>
      </trkpt>
      <trkpt lat="44.4304790" lon="-92.0058210">
        <ele>237.1000000</ele>
        <time>2009-06-28T19:27:59Z</time>
      </trkpt>
      <trkpt lat="44.4303900" lon="-92.0059850">
        <ele>236.6200000</ele>
        <time>2009-06-28T19:28:00Z</time>
      </trkpt>
      <trkpt lat="44.4303450" lon="-92.0061730">
        <ele>236.6200000</ele>
        <time>2009-06-28T19:28:01Z</time>
      </trkpt>
      <trkpt lat="44.4303030" lon="-92.0063620">
        <ele>236.1400000</ele>
        <time>2009-06-28T19:28:02Z</time>
      </trkpt>
      <trkpt lat="44.4302990" lon="-92.0065430">
        <ele>235.6600000</ele>
        <time>2009-06-28T19:28:03Z</time>
      </trkpt>
      <trkpt lat="44.4302990" lon="-92.0067290">
        <ele>235.6600000</ele>
        <time>2009-06-28T19:28:04Z</time>
      </trkpt>
      <trkpt lat="44.4302990" lon="-92.0068970">
        <ele>235.6600000</ele>
        <time>2009-06-28T19:28:05Z</time>
      </trkpt>
      <trkpt lat="44.4302990" lon="-92.0074970">
        <ele>235.1800000</ele>
        <time>2009-06-28T19:28:11Z</time>
      </trkpt>
      <trkpt lat="44.4302990" lon="-92.0076790">
        <ele>234.7000000</ele>
        <time>2009-06-28T19:28:19Z</time>
      </trkpt>
      <trkpt lat="44.4302990" lon="-92.0079900">
        <ele>235.1800000</ele>
        <time>2009-06-28T19:28:45Z</time>
      </trkpt>
      <trkpt lat="44.4302990" lon="-92.0082930">
        <ele>234.7000000</ele>
        <time>2009-06-28T19:28:55Z</time>
      </trkpt>
      <trkpt lat="44.4302990" lon="-92.0086510">
        <ele>234.2200000</ele>
        <time>2009-06-28T19:29:12Z</time>
      </trkpt>
      <trkpt lat="44.4302990" lon="-92.0088990">
        <ele>233.7400000</ele>
        <time>2009-06-28T19:29:20Z</time>
      </trkpt>
      <trkpt lat="44.4302990" lon="-92.0090400">
        <ele>231.3300000</ele>
        <time>2009-06-28T19:29:41Z</time>
      </trkpt>
      <trkpt lat="44.4302990" lon="-92.0091020">
        <ele>231.3300000</ele>
        <time>2009-06-28T19:29:42Z</time>
      </trkpt>
      <trkpt lat="44.4301590" lon="-92.0091140">
        <ele>231.3300000</ele>
        <time>2009-06-28T19:29:43Z</time>
      </trkpt>
      <trkpt lat="44.4300770" lon="-92.0091070">
        <ele>231.3300000</ele>
        <time>2009-06-28T19:29:44Z</time>
      </trkpt>
      <trkpt lat="44.4299820" lon="-92.0090990">
        <ele>231.3300000</ele>
        <time>2009-06-28T19:29:45Z</time>
      </trkpt>
      <trkpt lat="44.4298690" lon="-92.0090900">
        <ele>231.3300000</ele>
        <time>2009-06-28T19:29:46Z</time>
      </trkpt>
      <trkpt lat="44.4288500" lon="-92.0090970">
        <ele>230.3700000</ele>
        <time>2009-06-28T19:29:52Z</time>
      </trkpt>
      <trkpt lat="44.4270620" lon="-92.0091250">
        <ele>228.4500000</ele>
        <time>2009-06-28T19:30:01Z</time>
      </trkpt>
      <trkpt lat="44.4259750" lon="-92.0091560">
        <ele>227.9700000</ele>
        <time>2009-06-28T19:30:10Z</time>
      </trkpt>
      <trkpt lat="44.4233910" lon="-92.0092120">
        <ele>219.3200000</ele>
        <time>2009-06-28T19:30:33Z</time>
      </trkpt>
      <trkpt lat="44.4214810" lon="-92.0089870">
        <ele>215.4700000</ele>
        <time>2009-06-28T19:30:49Z</time>
      </trkpt>
      <trkpt lat="44.4202540" lon="-92.0088320">
        <ele>213.5500000</ele>
        <time>2009-06-28T19:31:02Z</time>
      </trkpt>
      <trkpt lat="44.4201530" lon="-92.0088260">
        <ele>213.5500000</ele>
        <time>2009-06-28T19:31:05Z</time>
      </trkpt>
      <trkpt lat="44.4201120" lon="-92.0088280">
        <ele>213.5500000</ele>
        <time>2009-06-28T19:31:06Z</time>
      </trkpt>
      <trkpt lat="44.4201610" lon="-92.0087540">
        <ele>214.0300000</ele>
        <time>2009-06-28T19:31:07Z</time>
      </trkpt>
      <trkpt lat="44.4201480" lon="-92.0086610">
        <ele>213.5500000</ele>
        <time>2009-06-28T19:31:08Z</time>
      </trkpt>
      <trkpt lat="44.4201320" lon="-92.0085490">
        <ele>213.0700000</ele>
        <time>2009-06-28T19:31:09Z</time>
      </trkpt>
      <trkpt lat="44.4201140" lon="-92.0084220">
        <ele>213.0700000</ele>
        <time>2009-06-28T19:31:10Z</time>
      </trkpt>
      <trkpt lat="44.4200910" lon="-92.0082660">
        <ele>213.0700000</ele>
        <time>2009-06-28T19:31:11Z</time>
      </trkpt>
      <trkpt lat="44.4200560" lon="-92.0081450">
        <ele>213.0700000</ele>
        <time>2009-06-28T19:31:12Z</time>
      </trkpt>
      <trkpt lat="44.4200120" lon="-92.0080280">
        <ele>213.5500000</ele>
        <time>2009-06-28T19:31:13Z</time>
      </trkpt>
      <trkpt lat="44.4199740" lon="-92.0079270">
        <ele>213.5500000</ele>
        <time>2009-06-28T19:31:14Z</time>
      </trkpt>
      <trkpt lat="44.4199340" lon="-92.0078490">
        <ele>213.0700000</ele>
        <time>2009-06-28T19:31:15Z</time>
      </trkpt>
      <trkpt lat="44.4198950" lon="-92.0077920">
        <ele>213.5500000</ele>
        <time>2009-06-28T19:31:16Z</time>
      </trkpt>
      <trkpt lat="44.4198280" lon="-92.0076960">
        <ele>213.5500000</ele>
        <time>2009-06-28T19:31:24Z</time>
      </trkpt>
      <trkpt lat="44.4198090" lon="-92.0076680">
        <ele>214.0300000</ele>
        <time>2009-06-28T19:31:25Z</time>
      </trkpt>
      <trkpt lat="44.4196090" lon="-92.0073810">
        <ele>214.0300000</ele>
        <time>2009-06-28T19:31:34Z</time>
      </trkpt>
      <trkpt lat="44.4195920" lon="-92.0073560">
        <ele>214.0300000</ele>
        <time>2009-06-28T19:31:35Z</time>
      </trkpt>
      <trkpt lat="44.4196700" lon="-92.0073130">
        <ele>213.5500000</ele>
        <time>2009-06-28T19:31:38Z</time>
      </trkpt>
      <trkpt lat="44.4197540" lon="-92.0074130">
        <ele>213.0700000</ele>
        <time>2009-06-28T19:31:49Z</time>
      </trkpt>
      <trkpt lat="44.4197380" lon="-92.0074190">
        <ele>215.9500000</ele>
        <time>2009-06-28T19:32:25Z</time>
      </trkpt>
      <trkpt lat="44.4197150" lon="-92.0075980">
        <ele>239.0200000</ele>
        <time>2009-06-28T20:13:33Z</time>
      </trkpt>
      <trkpt lat="44.4197500" lon="-92.0075450">
        <ele>238.5400000</ele>
        <time>2009-06-28T20:13:47Z</time>
      </trkpt>
      <trkpt lat="44.4197800" lon="-92.0076270">
        <ele>237.1000000</ele>
        <time>2009-06-28T20:13:50Z</time>
      </trkpt>
      <trkpt lat="44.4198130" lon="-92.0076740">
        <ele>236.1400000</ele>
        <time>2009-06-28T20:13:51Z</time>
      </trkpt>
      <trkpt lat="44.4198550" lon="-92.0077350">
        <ele>235.1800000</ele>
        <time>2009-06-28T20:13:52Z</time>
      </trkpt>
      <trkpt lat="44.4200690" lon="-92.0081800">
        <ele>230.8500000</ele>
        <time>2009-06-28T20:13:57Z</time>
      </trkpt>
      <trkpt lat="44.4200920" lon="-92.0082670">
        <ele>230.3700000</ele>
        <time>2009-06-28T20:13:58Z</time>
      </trkpt>
      <trkpt lat="44.4201090" lon="-92.0083880">
        <ele>229.8900000</ele>
        <time>2009-06-28T20:13:59Z</time>
      </trkpt>
      <trkpt lat="44.4201240" lon="-92.0084930">
        <ele>229.4100000</ele>
        <time>2009-06-28T20:14:00Z</time>
      </trkpt>
      <trkpt lat="44.4201360" lon="-92.0085780">
        <ele>228.4500000</ele>
        <time>2009-06-28T20:14:01Z</time>
      </trkpt>
      <trkpt lat="44.4201460" lon="-92.0086480">
        <ele>227.9700000</ele>
        <time>2009-06-28T20:14:02Z</time>
      </trkpt>
      <trkpt lat="44.4202320" lon="-92.0088300">
        <ele>226.0500000</ele>
        <time>2009-06-28T20:14:08Z</time>
      </trkpt>
      <trkpt lat="44.4202900" lon="-92.0088340">
        <ele>225.5700000</ele>
        <time>2009-06-28T20:14:09Z</time>
      </trkpt>
      <trkpt lat="44.4203580" lon="-92.0088400">
        <ele>225.0900000</ele>
        <time>2009-06-28T20:14:10Z</time>
      </trkpt>
      <trkpt lat="44.4212840" lon="-92.0089560">
        <ele>223.1600000</ele>
        <time>2009-06-28T20:14:20Z</time>
      </trkpt>
      <trkpt lat="44.4232480" lon="-92.0092030">
        <ele>225.5700000</ele>
        <time>2009-06-28T20:14:37Z</time>
      </trkpt>
      <trkpt lat="44.4255380" lon="-92.0091680">
        <ele>230.3700000</ele>
        <time>2009-06-28T20:14:57Z</time>
      </trkpt>
      <trkpt lat="44.4267310" lon="-92.0091340">
        <ele>232.7800000</ele>
        <time>2009-06-28T20:15:05Z</time>
      </trkpt>
      <trkpt lat="44.4293540" lon="-92.0090900">
        <ele>234.2200000</ele>
        <time>2009-06-28T20:15:18Z</time>
      </trkpt>
      <trkpt lat="44.4310850" lon="-92.0094150">
        <ele>231.3300000</ele>
        <time>2009-06-28T20:15:27Z</time>
      </trkpt>
      <trkpt lat="44.4323750" lon="-92.0104770">
        <ele>225.0900000</ele>
        <time>2009-06-28T20:15:35Z</time>
      </trkpt>
      <trkpt lat="44.4332720" lon="-92.0120210">
        <ele>225.0900000</ele>
        <time>2009-06-28T20:15:42Z</time>
      </trkpt>
      <trkpt lat="44.4337150" lon="-92.0139170">
        <ele>226.0500000</ele>
        <time>2009-06-28T20:15:49Z</time>
      </trkpt>
      <trkpt lat="44.4338340" lon="-92.0165140">
        <ele>226.0500000</ele>
        <time>2009-06-28T20:15:58Z</time>
      </trkpt>
      <trkpt lat="44.4339630" lon="-92.0213900">
        <ele>222.2000000</ele>
        <time>2009-06-28T20:16:14Z</time>
      </trkpt>
      <trkpt lat="44.4341580" lon="-92.0278870">
        <ele>212.1100000</ele>
        <time>2009-06-28T20:16:35Z</time>
      </trkpt>
      <trkpt lat="44.4343920" lon="-92.0356630">
        <ele>213.0700000</ele>
        <time>2009-06-28T20:16:59Z</time>
      </trkpt>
      <trkpt lat="44.4345460" lon="-92.0407980">
        <ele>212.5900000</ele>
        <time>2009-06-28T20:17:15Z</time>
      </trkpt>
      <trkpt lat="44.4347040" lon="-92.0460570">
        <ele>213.5500000</ele>
        <time>2009-06-28T20:17:32Z</time>
      </trkpt>
      <trkpt lat="44.4348810" lon="-92.0519520">
        <ele>213.0700000</ele>
        <time>2009-06-28T20:17:52Z</time>
      </trkpt>
      <trkpt lat="44.4350520" lon="-92.0576410">
        <ele>213.5500000</ele>
        <time>2009-06-28T20:18:11Z</time>
      </trkpt>
      <trkpt lat="44.4352100" lon="-92.0628980">
        <ele>214.0300000</ele>
        <time>2009-06-28T20:18:28Z</time>
      </trkpt>
      <trkpt lat="44.4354350" lon="-92.0698240">
        <ele>214.0300000</ele>
        <time>2009-06-28T20:18:50Z</time>
      </trkpt>
      <trkpt lat="44.4359050" lon="-92.0715490">
        <ele>215.4700000</ele>
        <time>2009-06-28T20:18:56Z</time>
      </trkpt>
      <trkpt lat="44.4373210" lon="-92.0755160">
        <ele>219.3200000</ele>
        <time>2009-06-28T20:19:11Z</time>
      </trkpt>
      <trkpt lat="44.4382620" lon="-92.0785650">
        <ele>218.8400000</ele>
        <time>2009-06-28T20:19:24Z</time>
      </trkpt>
      <trkpt lat="44.4383760" lon="-92.0808780">
        <ele>218.3600000</ele>
        <time>2009-06-28T20:19:32Z</time>
      </trkpt>
      <trkpt lat="44.4384090" lon="-92.0868110">
        <ele>217.4000000</ele>
        <time>2009-06-28T20:19:51Z</time>
      </trkpt>
      <trkpt lat="44.4384360" lon="-92.0918850">
        <ele>217.8800000</ele>
        <time>2009-06-28T20:20:07Z</time>
      </trkpt>
      <trkpt lat="44.4384810" lon="-92.1001640">
        <ele>222.2000000</ele>
        <time>2009-06-28T20:20:32Z</time>
      </trkpt>
      <trkpt lat="44.4385020" lon="-92.1045430">
        <ele>221.2400000</ele>
        <time>2009-06-28T20:20:46Z</time>
      </trkpt>
      <trkpt lat="44.4385190" lon="-92.1093500">
        <ele>226.0500000</ele>
        <time>2009-06-28T20:21:02Z</time>
      </trkpt>
      <trkpt lat="44.4385480" lon="-92.1158230">
        <ele>227.4900000</ele>
        <time>2009-06-28T20:21:23Z</time>
      </trkpt>
      <trkpt lat="44.4386180" lon="-92.1211470">
        <ele>226.0500000</ele>
        <time>2009-06-28T20:21:42Z</time>
      </trkpt>
      <trkpt lat="44.4387360" lon="-92.1269880">
        <ele>225.0900000</ele>
        <time>2009-06-28T20:22:04Z</time>
      </trkpt>
      <trkpt lat="44.4388180" lon="-92.1318540">
        <ele>226.0500000</ele>
        <time>2009-06-28T20:22:23Z</time>
      </trkpt>
      <trkpt lat="44.4389230" lon="-92.1376870">
        <ele>227.0100000</ele>
        <time>2009-06-28T20:22:44Z</time>
      </trkpt>
      <trkpt lat="44.4392410" lon="-92.1397150">
        <ele>228.4500000</ele>
        <time>2009-06-28T20:22:52Z</time>
      </trkpt>
      <trkpt lat="44.4397420" lon="-92.1418280">
        <ele>229.4100000</ele>
        <time>2009-06-28T20:23:03Z</time>
      </trkpt>
      <trkpt lat="44.4402560" lon="-92.1441760">
        <ele>231.3300000</ele>
        <time>2009-06-28T20:23:19Z</time>
      </trkpt>
      <trkpt lat="44.4407310" lon="-92.1462540">
        <ele>230.8500000</ele>
        <time>2009-06-28T20:23:36Z</time>
      </trkpt>
      <trkpt lat="44.4413570" lon="-92.1490550">
        <ele>234.2200000</ele>
        <time>2009-06-28T20:23:57Z</time>
      </trkpt>
      <trkpt lat="44.4419790" lon="-92.1516530">
        <ele>238.5400000</ele>
        <time>2009-06-28T20:24:14Z</time>
      </trkpt>
      <trkpt lat="44.4428080" lon="-92.1553420">
        <ele>241.4300000</ele>
        <time>2009-06-28T20:24:35Z</time>
      </trkpt>
      <trkpt lat="44.4437320" lon="-92.1594580">
        <ele>242.3900000</ele>
        <time>2009-06-28T20:24:58Z</time>
      </trkpt>
      <trkpt lat="44.4439080" lon="-92.1619170">
        <ele>240.4700000</ele>
        <time>2009-06-28T20:25:08Z</time>
      </trkpt>
      <trkpt lat="44.4443080" lon="-92.1665540">
        <ele>239.0200000</ele>
        <time>2009-06-28T20:25:26Z</time>
      </trkpt>
      <trkpt lat="44.4452630" lon="-92.1705630">
        <ele>239.5100000</ele>
        <time>2009-06-28T20:25:43Z</time>
      </trkpt>
      <trkpt lat="44.4460710" lon="-92.1733490">
        <ele>239.5100000</ele>
        <time>2009-06-28T20:25:55Z</time>
      </trkpt>
      <trkpt lat="44.4467520" lon="-92.1750200">
        <ele>237.5800000</ele>
        <time>2009-06-28T20:26:04Z</time>
      </trkpt>
      <trkpt lat="44.4472650" lon="-92.1762780">
        <ele>235.6600000</ele>
        <time>2009-06-28T20:26:12Z</time>
      </trkpt>
      <trkpt lat="44.4480130" lon="-92.1781140">
        <ele>234.7000000</ele>
        <time>2009-06-28T20:26:19Z</time>
      </trkpt>
      <trkpt lat="44.4501000" lon="-92.1831390">
        <ele>233.7400000</ele>
        <time>2009-06-28T20:26:37Z</time>
      </trkpt>
      <trkpt lat="44.4520250" lon="-92.1871820">
        <ele>229.4100000</ele>
        <time>2009-06-28T20:26:52Z</time>
      </trkpt>
      <trkpt lat="44.4557110" lon="-92.1941830">
        <ele>226.0500000</ele>
        <time>2009-06-28T20:27:19Z</time>
      </trkpt>
      <trkpt lat="44.4580240" lon="-92.1989740">
        <ele>230.3700000</ele>
        <time>2009-06-28T20:27:37Z</time>
      </trkpt>
      <trkpt lat="44.4589110" lon="-92.2023170">
        <ele>227.0100000</ele>
        <time>2009-06-28T20:27:48Z</time>
      </trkpt>
      <trkpt lat="44.4599010" lon="-92.2083190">
        <ele>231.3300000</ele>
        <time>2009-06-28T20:28:07Z</time>
      </trkpt>
      <trkpt lat="44.4610730" lon="-92.2145220">
        <ele>229.4100000</ele>
        <time>2009-06-28T20:28:27Z</time>
      </trkpt>
      <trkpt lat="44.4624590" lon="-92.2185570">
        <ele>234.7000000</ele>
        <time>2009-06-28T20:28:41Z</time>
      </trkpt>
      <trkpt lat="44.4646300" lon="-92.2226840">
        <ele>251.5200000</ele>
        <time>2009-06-28T20:28:57Z</time>
      </trkpt>
      <trkpt lat="44.4675850" lon="-92.2280200">
        <ele>250.5600000</ele>
        <time>2009-06-28T20:29:18Z</time>
      </trkpt>
      <trkpt lat="44.4717850" lon="-92.2340250">
        <ele>254.8900000</ele>
        <time>2009-06-28T20:29:44Z</time>
      </trkpt>
      <trkpt lat="44.4733200" lon="-92.2368100">
        <ele>245.2700000</ele>
        <time>2009-06-28T20:29:55Z</time>
      </trkpt>
      <trkpt lat="44.4760090" lon="-92.2439680">
        <ele>237.1000000</ele>
        <time>2009-06-28T20:30:20Z</time>
      </trkpt>
      <trkpt lat="44.4785170" lon="-92.2508540">
        <ele>231.8100000</ele>
        <time>2009-06-28T20:30:44Z</time>
      </trkpt>
      <trkpt lat="44.4796670" lon="-92.2540180">
        <ele>231.3300000</ele>
        <time>2009-06-28T20:30:56Z</time>
      </trkpt>
      <trkpt lat="44.4803930" lon="-92.2559950">
        <ele>229.8900000</ele>
        <time>2009-06-28T20:31:06Z</time>
      </trkpt>
      <trkpt lat="44.4812580" lon="-92.2581790">
        <ele>231.3300000</ele>
        <time>2009-06-28T20:31:20Z</time>
      </trkpt>
      <trkpt lat="44.4823890" lon="-92.2608870">
        <ele>231.3300000</ele>
        <time>2009-06-28T20:31:38Z</time>
      </trkpt>
      <trkpt lat="44.4830530" lon="-92.2622780">
        <ele>230.8500000</ele>
        <time>2009-06-28T20:31:51Z</time>
      </trkpt>
      <trkpt lat="44.4834990" lon="-92.2633090">
        <ele>233.7400000</ele>
        <time>2009-06-28T20:32:01Z</time>
      </trkpt>
      <trkpt lat="44.4842630" lon="-92.2650620">
        <ele>238.5400000</ele>
        <time>2009-06-28T20:32:12Z</time>
      </trkpt>
      <trkpt lat="44.4851930" lon="-92.2674640">
        <ele>242.8700000</ele>
        <time>2009-06-28T20:32:25Z</time>
      </trkpt>
      <trkpt lat="44.4859140" lon="-92.2696460">
        <ele>241.4300000</ele>
        <time>2009-06-28T20:32:34Z</time>
      </trkpt>
      <trkpt lat="44.4867480" lon="-92.2715120">
        <ele>240.4700000</ele>
        <time>2009-06-28T20:32:41Z</time>
      </trkpt>
      <trkpt lat="44.4882410" lon="-92.2735290">
        <ele>240.9500000</ele>
        <time>2009-06-28T20:32:50Z</time>
      </trkpt>
      <trkpt lat="44.4903590" lon="-92.2766300">
        <ele>239.9900000</ele>
        <time>2009-06-28T20:33:03Z</time>
      </trkpt>
      <trkpt lat="44.4925640" lon="-92.2803610">
        <ele>240.9500000</ele>
        <time>2009-06-28T20:33:18Z</time>
      </trkpt>
      <trkpt lat="44.4946470" lon="-92.2828980">
        <ele>244.7900000</ele>
        <time>2009-06-28T20:33:30Z</time>
      </trkpt>
      <trkpt lat="44.4973660" lon="-92.2852770">
        <ele>247.2000000</ele>
        <time>2009-06-28T20:33:44Z</time>
      </trkpt>
      <trkpt lat="44.4991790" lon="-92.2865410">
        <ele>239.5100000</ele>
        <time>2009-06-28T20:33:53Z</time>
      </trkpt>
      <trkpt lat="44.5002460" lon="-92.2879640">
        <ele>235.6600000</ele>
        <time>2009-06-28T20:34:00Z</time>
      </trkpt>
      <trkpt lat="44.5013270" lon="-92.2891500">
        <ele>235.1800000</ele>
        <time>2009-06-28T20:34:07Z</time>
      </trkpt>
      <trkpt lat="44.5027130" lon="-92.2896160">
        <ele>235.6600000</ele>
        <time>2009-06-28T20:34:14Z</time>
      </trkpt>
      <trkpt lat="44.5048930" lon="-92.2896810">
        <ele>239.9900000</ele>
        <time>2009-06-28T20:34:24Z</time>
      </trkpt>
      <trkpt lat="44.5093950" lon="-92.2893420">
        <ele>240.4700000</ele>
        <time>2009-06-28T20:34:44Z</time>
      </trkpt>
      <trkpt lat="44.5115130" lon="-92.2896090">
        <ele>234.2200000</ele>
        <time>2009-06-28T20:34:54Z</time>
      </trkpt>
      <trkpt lat="44.5131790" lon="-92.2903500">
        <ele>237.5800000</ele>
        <time>2009-06-28T20:35:03Z</time>
      </trkpt>
      <trkpt lat="44.5149860" lon="-92.2908990">
        <ele>243.8300000</ele>
        <time>2009-06-28T20:35:12Z</time>
      </trkpt>
      <trkpt lat="44.5185920" lon="-92.2916920">
        <ele>245.7500000</ele>
        <time>2009-06-28T20:35:28Z</time>
      </trkpt>
      <trkpt lat="44.5210570" lon="-92.2924380">
        <ele>246.7200000</ele>
        <time>2009-06-28T20:35:39Z</time>
      </trkpt>
      <trkpt lat="44.5250920" lon="-92.2938370">
        <ele>241.9100000</ele>
        <time>2009-06-28T20:35:57Z</time>
      </trkpt>
      <trkpt lat="44.5288420" lon="-92.2952260">
        <ele>243.3500000</ele>
        <time>2009-06-28T20:36:14Z</time>
      </trkpt>
      <trkpt lat="44.5314590" lon="-92.2963080">
        <ele>231.8100000</ele>
        <time>2009-06-28T20:36:27Z</time>
      </trkpt>
      <trkpt lat="44.5330840" lon="-92.2963710">
        <ele>233.2600000</ele>
        <time>2009-06-28T20:36:35Z</time>
      </trkpt>
      <trkpt lat="44.5349330" lon="-92.2960400">
        <ele>233.7400000</ele>
        <time>2009-06-28T20:36:44Z</time>
      </trkpt>
      <trkpt lat="44.5363850" lon="-92.2964450">
        <ele>232.7800000</ele>
        <time>2009-06-28T20:36:51Z</time>
      </trkpt>
      <trkpt lat="44.5377850" lon="-92.2967380">
        <ele>234.2200000</ele>
        <time>2009-06-28T20:36:58Z</time>
      </trkpt>
      <trkpt lat="44.5389310" lon="-92.2962710">
        <ele>234.2200000</ele>
        <time>2009-06-28T20:37:04Z</time>
      </trkpt>
      <trkpt lat="44.5403080" lon="-92.2953160">
        <ele>226.0500000</ele>
        <time>2009-06-28T20:37:11Z</time>
      </trkpt>
      <trkpt lat="44.5418840" lon="-92.2949110">
        <ele>218.8400000</ele>
        <time>2009-06-28T20:37:18Z</time>
      </trkpt>
      <trkpt lat="44.5434080" lon="-92.2952970">
        <ele>220.7600000</ele>
        <time>2009-06-28T20:37:25Z</time>
      </trkpt>
      <trkpt lat="44.5447540" lon="-92.2963790">
        <ele>228.9300000</ele>
        <time>2009-06-28T20:37:32Z</time>
      </trkpt>
      <trkpt lat="44.5465300" lon="-92.2983630">
        <ele>237.5800000</ele>
        <time>2009-06-28T20:37:43Z</time>
      </trkpt>
      <trkpt lat="44.5478730" lon="-92.2990480">
        <ele>240.4700000</ele>
        <time>2009-06-28T20:37:50Z</time>
      </trkpt>
      <trkpt lat="44.5506060" lon="-92.2998990">
        <ele>246.7200000</ele>
        <time>2009-06-28T20:38:03Z</time>
      </trkpt>
      <trkpt lat="44.5525970" lon="-92.3010530">
        <ele>238.5400000</ele>
        <time>2009-06-28T20:38:13Z</time>
      </trkpt>
      <trkpt lat="44.5555110" lon="-92.3033180">
        <ele>218.3600000</ele>
        <time>2009-06-28T20:38:28Z</time>
      </trkpt>
      <trkpt lat="44.5566080" lon="-92.3047880">
        <ele>220.7600000</ele>
        <time>2009-06-28T20:38:36Z</time>
      </trkpt>
      <trkpt lat="44.5576550" lon="-92.3060080">
        <ele>225.0900000</ele>
        <time>2009-06-28T20:38:46Z</time>
      </trkpt>
      <trkpt lat="44.5590110" lon="-92.3075470">
        <ele>224.1200000</ele>
        <time>2009-06-28T20:39:01Z</time>
      </trkpt>
      <trkpt lat="44.5601150" lon="-92.3090070">
        <ele>216.9100000</ele>
        <time>2009-06-28T20:39:14Z</time>
      </trkpt>
      <trkpt lat="44.5610700" lon="-92.3103590">
        <ele>215.9500000</ele>
        <time>2009-06-28T20:39:27Z</time>
      </trkpt>
      <trkpt lat="44.5619510" lon="-92.3115930">
        <ele>227.0100000</ele>
        <time>2009-06-28T20:39:39Z</time>
      </trkpt>
      <trkpt lat="44.5630740" lon="-92.3131940">
        <ele>230.3700000</ele>
        <time>2009-06-28T20:39:51Z</time>
      </trkpt>
      <trkpt lat="44.5640450" lon="-92.3147720">
        <ele>231.8100000</ele>
        <time>2009-06-28T20:40:03Z</time>
      </trkpt>
      <trkpt lat="44.5651740" lon="-92.3165920">
        <ele>238.5400000</ele>
        <time>2009-06-28T20:40:15Z</time>
      </trkpt>
      <trkpt lat="44.5670650" lon="-92.3195090">
        <ele>229.8900000</ele>
        <time>2009-06-28T20:40:30Z</time>
      </trkpt>
      <trkpt lat="44.5682480" lon="-92.3216580">
        <ele>229.4100000</ele>
        <time>2009-06-28T20:40:39Z</time>
      </trkpt>
      <trkpt lat="44.5690880" lon="-92.3239100">
        <ele>229.4100000</ele>
        <time>2009-06-28T20:40:48Z</time>
      </trkpt>
      <trkpt lat="44.5699870" lon="-92.3281910">
        <ele>228.4500000</ele>
        <time>2009-06-28T20:41:01Z</time>
      </trkpt>
      <trkpt lat="44.5714830" lon="-92.3355080">
        <ele>233.2600000</ele>
        <time>2009-06-28T20:41:25Z</time>
      </trkpt>
      <trkpt lat="44.5728510" lon="-92.3422450">
        <ele>239.9900000</ele>
        <time>2009-06-28T20:41:47Z</time>
      </trkpt>
      <trkpt lat="44.5740400" lon="-92.3483670">
        <ele>233.2600000</ele>
        <time>2009-06-28T20:42:07Z</time>
      </trkpt>
      <trkpt lat="44.5750200" lon="-92.3534680">
        <ele>233.2600000</ele>
        <time>2009-06-28T20:42:24Z</time>
      </trkpt>
      <trkpt lat="44.5755960" lon="-92.3579800">
        <ele>239.0200000</ele>
        <time>2009-06-28T20:42:39Z</time>
      </trkpt>
      <trkpt lat="44.5757190" lon="-92.3617670">
        <ele>236.1400000</ele>
        <time>2009-06-28T20:42:52Z</time>
      </trkpt>
      <trkpt lat="44.5755380" lon="-92.3656100">
        <ele>237.1000000</ele>
        <time>2009-06-28T20:43:06Z</time>
      </trkpt>
      <trkpt lat="44.5753120" lon="-92.3701270">
        <ele>246.2300000</ele>
        <time>2009-06-28T20:43:23Z</time>
      </trkpt>
      <trkpt lat="44.5756010" lon="-92.3722580">
        <ele>242.3900000</ele>
        <time>2009-06-28T20:43:31Z</time>
      </trkpt>
      <trkpt lat="44.5763930" lon="-92.3743480">
        <ele>239.9900000</ele>
        <time>2009-06-28T20:43:40Z</time>
      </trkpt>
      <trkpt lat="44.5775530" lon="-92.3767670">
        <ele>242.3900000</ele>
        <time>2009-06-28T20:43:51Z</time>
      </trkpt>
      <trkpt lat="44.5786890" lon="-92.3778960">
        <ele>249.1200000</ele>
        <time>2009-06-28T20:43:58Z</time>
      </trkpt>
      <trkpt lat="44.5800830" lon="-92.3783550">
        <ele>256.8100000</ele>
        <time>2009-06-28T20:44:05Z</time>
      </trkpt>
      <trkpt lat="44.5829810" lon="-92.3786140">
        <ele>276.5200000</ele>
        <time>2009-06-28T20:44:19Z</time>
      </trkpt>
      <trkpt lat="44.5847110" lon="-92.3791590">
        <ele>291.4200000</ele>
        <time>2009-06-28T20:44:28Z</time>
      </trkpt>
      <trkpt lat="44.5858650" lon="-92.3802460">
        <ele>300.0700000</ele>
        <time>2009-06-28T20:44:35Z</time>
      </trkpt>
      <trkpt lat="44.5866630" lon="-92.3818730">
        <ele>307.2800000</ele>
        <time>2009-06-28T20:44:42Z</time>
      </trkpt>
      <trkpt lat="44.5869700" lon="-92.3837930">
        <ele>314.9700000</ele>
        <time>2009-06-28T20:44:49Z</time>
      </trkpt>
      <trkpt lat="44.5870960" lon="-92.3877170">
        <ele>333.2300000</ele>
        <time>2009-06-28T20:45:02Z</time>
      </trkpt>
      <trkpt lat="44.5873610" lon="-92.3926930">
        <ele>351.0200000</ele>
        <time>2009-06-28T20:45:18Z</time>
      </trkpt>
      <trkpt lat="44.5879160" lon="-92.3952380">
        <ele>357.2700000</ele>
        <time>2009-06-28T20:45:26Z</time>
      </trkpt>
      <trkpt lat="44.5897820" lon="-92.4020820">
        <ele>353.4200000</ele>
        <time>2009-06-28T20:45:48Z</time>
      </trkpt>
      <trkpt lat="44.5911320" lon="-92.4077740">
        <ele>338.5200000</ele>
        <time>2009-06-28T20:46:07Z</time>
      </trkpt>
      <trkpt lat="44.5924280" lon="-92.4141780">
        <ele>326.9900000</ele>
        <time>2009-06-28T20:46:28Z</time>
      </trkpt>
      <trkpt lat="44.5934670" lon="-92.4176180">
        <ele>314.4900000</ele>
        <time>2009-06-28T20:46:40Z</time>
      </trkpt>
      <trkpt lat="44.5945840" lon="-92.4203640">
        <ele>302.9500000</ele>
        <time>2009-06-28T20:46:50Z</time>
      </trkpt>
      <trkpt lat="44.5946550" lon="-92.4222060">
        <ele>295.7400000</ele>
        <time>2009-06-28T20:46:56Z</time>
      </trkpt>
      <trkpt lat="44.5942440" lon="-92.4240070">
        <ele>289.0100000</ele>
        <time>2009-06-28T20:47:02Z</time>
      </trkpt>
      <trkpt lat="44.5925650" lon="-92.4298600">
        <ele>265.4600000</ele>
        <time>2009-06-28T20:47:22Z</time>
      </trkpt>
      <trkpt lat="44.5918310" lon="-92.4333630">
        <ele>252.4800000</ele>
        <time>2009-06-28T20:47:34Z</time>
      </trkpt>
      <trkpt lat="44.5907950" lon="-92.4376570">
        <ele>239.9900000</ele>
        <time>2009-06-28T20:47:49Z</time>
      </trkpt>
      <trkpt lat="44.5897760" lon="-92.4395670">
        <ele>234.7000000</ele>
        <time>2009-06-28T20:47:57Z</time>
      </trkpt>
      <trkpt lat="44.5884090" lon="-92.4410140">
        <ele>229.4100000</ele>
        <time>2009-06-28T20:48:05Z</time>
      </trkpt>
      <trkpt lat="44.5866340" lon="-92.4427370">
        <ele>227.9700000</ele>
        <time>2009-06-28T20:48:16Z</time>
      </trkpt>
      <trkpt lat="44.5860070" lon="-92.4440610">
        <ele>227.0100000</ele>
        <time>2009-06-28T20:48:22Z</time>
      </trkpt>
      <trkpt lat="44.5857320" lon="-92.4457760">
        <ele>226.5300000</ele>
        <time>2009-06-28T20:48:29Z</time>
      </trkpt>
      <trkpt lat="44.5854870" lon="-92.4497150">
        <ele>228.4500000</ele>
        <time>2009-06-28T20:48:45Z</time>
      </trkpt>
      <trkpt lat="44.5853530" lon="-92.4521260">
        <ele>228.9300000</ele>
        <time>2009-06-28T20:48:58Z</time>
      </trkpt>
      <trkpt lat="44.5851500" lon="-92.4558830">
        <ele>228.4500000</ele>
        <time>2009-06-28T20:49:15Z</time>
      </trkpt>
      <trkpt lat="44.5850090" lon="-92.4587920">
        <ele>229.8900000</ele>
        <time>2009-06-28T20:49:26Z</time>
      </trkpt>
      <trkpt lat="44.5852180" lon="-92.4617000">
        <ele>235.1800000</ele>
        <time>2009-06-28T20:49:36Z</time>
      </trkpt>
      <trkpt lat="44.5860060" lon="-92.4644310">
        <ele>243.3500000</ele>
        <time>2009-06-28T20:49:46Z</time>
      </trkpt>
      <trkpt lat="44.5871520" lon="-92.4666830">
        <ele>246.2300000</ele>
        <time>2009-06-28T20:49:55Z</time>
      </trkpt>
      <trkpt lat="44.5894630" lon="-92.4701040">
        <ele>251.0400000</ele>
        <time>2009-06-28T20:50:10Z</time>
      </trkpt>
      <trkpt lat="44.5928100" lon="-92.4752950">
        <ele>257.2900000</ele>
        <time>2009-06-28T20:50:33Z</time>
      </trkpt>
      <trkpt lat="44.5937130" lon="-92.4777140">
        <ele>256.3300000</ele>
        <time>2009-06-28T20:50:42Z</time>
      </trkpt>
      <trkpt lat="44.5941190" lon="-92.4806700">
        <ele>253.9300000</ele>
        <time>2009-06-28T20:50:52Z</time>
      </trkpt>
      <trkpt lat="44.5941500" lon="-92.4849460">
        <ele>256.3300000</ele>
        <time>2009-06-28T20:51:06Z</time>
      </trkpt>
      <trkpt lat="44.5941500" lon="-92.4931830">
        <ele>257.7700000</ele>
        <time>2009-06-28T20:51:33Z</time>
      </trkpt>
      <trkpt lat="44.5941070" lon="-92.5010980">
        <ele>252.4800000</ele>
        <time>2009-06-28T20:51:59Z</time>
      </trkpt>
      <trkpt lat="44.5941030" lon="-92.5105120">
        <ele>252.0000000</ele>
        <time>2009-06-28T20:52:30Z</time>
      </trkpt>
      <trkpt lat="44.5942990" lon="-92.5156520">
        <ele>250.5600000</ele>
        <time>2009-06-28T20:52:47Z</time>
      </trkpt>
      <trkpt lat="44.5950640" lon="-92.5181440">
        <ele>249.6000000</ele>
        <time>2009-06-28T20:52:56Z</time>
      </trkpt>
      <trkpt lat="44.5961490" lon="-92.5200480">
        <ele>248.1600000</ele>
        <time>2009-06-28T20:53:04Z</time>
      </trkpt>
      <trkpt lat="44.5993770" lon="-92.5247580">
        <ele>243.8300000</ele>
        <time>2009-06-28T20:53:26Z</time>
      </trkpt>
      <trkpt lat="44.6005420" lon="-92.5266410">
        <ele>239.5100000</ele>
        <time>2009-06-28T20:53:37Z</time>
      </trkpt>
      <trkpt lat="44.6011050" lon="-92.5276330">
        <ele>236.6200000</ele>
        <time>2009-06-28T20:53:46Z</time>
      </trkpt>
      <trkpt lat="44.6012630" lon="-92.5278860">
        <ele>236.6200000</ele>
        <time>2009-06-28T20:53:55Z</time>
      </trkpt>
      <trkpt lat="44.6014430" lon="-92.5282230">
        <ele>235.6600000</ele>
        <time>2009-06-28T20:54:02Z</time>
      </trkpt>
      <trkpt lat="44.6018230" lon="-92.5290110">
        <ele>234.2200000</ele>
        <time>2009-06-28T20:54:07Z</time>
      </trkpt>
      <trkpt lat="44.6025930" lon="-92.5306520">
        <ele>231.8100000</ele>
        <time>2009-06-28T20:54:14Z</time>
      </trkpt>
      <trkpt lat="44.6043720" lon="-92.5344410">
        <ele>227.4900000</ele>
        <time>2009-06-28T20:54:28Z</time>
      </trkpt>
      <trkpt lat="44.6049930" lon="-92.5365030">
        <ele>226.5300000</ele>
        <time>2009-06-28T20:54:35Z</time>
      </trkpt>
      <trkpt lat="44.6050590" lon="-92.5386250">
        <ele>225.5700000</ele>
        <time>2009-06-28T20:54:42Z</time>
      </trkpt>
      <trkpt lat="44.6052680" lon="-92.5420600">
        <ele>225.5700000</ele>
        <time>2009-06-28T20:54:53Z</time>
      </trkpt>
      <trkpt lat="44.6058770" lon="-92.5435050">
        <ele>226.0500000</ele>
        <time>2009-06-28T20:54:58Z</time>
      </trkpt>
      <trkpt lat="44.6077030" lon="-92.5468390">
        <ele>228.4500000</ele>
        <time>2009-06-28T20:55:11Z</time>
      </trkpt>
      <trkpt lat="44.6102830" lon="-92.5515250">
        <ele>229.4100000</ele>
        <time>2009-06-28T20:55:31Z</time>
      </trkpt>
      <trkpt lat="44.6135910" lon="-92.5575230">
        <ele>229.4100000</ele>
        <time>2009-06-28T20:55:56Z</time>
      </trkpt>
      <trkpt lat="44.6175320" lon="-92.5646660">
        <ele>229.4100000</ele>
        <time>2009-06-28T20:56:26Z</time>
      </trkpt>
      <trkpt lat="44.6194790" lon="-92.5681970">
        <ele>229.4100000</ele>
        <time>2009-06-28T20:56:42Z</time>
      </trkpt>
      <trkpt lat="44.6215150" lon="-92.5718870">
        <ele>231.3300000</ele>
        <time>2009-06-28T20:56:59Z</time>
      </trkpt>
      <trkpt lat="44.6223410" lon="-92.5733840">
        <ele>231.3300000</ele>
        <time>2009-06-28T20:57:08Z</time>
      </trkpt>
      <trkpt lat="44.6224740" lon="-92.5736270">
        <ele>231.8100000</ele>
        <time>2009-06-28T20:57:10Z</time>
      </trkpt>
      <trkpt lat="44.6225300" lon="-92.5737300">
        <ele>231.8100000</ele>
        <time>2009-06-28T20:57:11Z</time>
      </trkpt>
      <trkpt lat="44.6226820" lon="-92.5735540">
        <ele>231.8100000</ele>
        <time>2009-06-28T20:57:12Z</time>
      </trkpt>
      <trkpt lat="44.6227980" lon="-92.5735570">
        <ele>231.8100000</ele>
        <time>2009-06-28T20:57:13Z</time>
      </trkpt>
      <trkpt lat="44.6229320" lon="-92.5735600">
        <ele>233.2600000</ele>
        <time>2009-06-28T20:57:14Z</time>
      </trkpt>
      <trkpt lat="44.6230770" lon="-92.5735630">
        <ele>232.3000000</ele>
        <time>2009-06-28T20:57:15Z</time>
      </trkpt>
      <trkpt lat="44.6245210" lon="-92.5735940">
        <ele>229.8900000</ele>
        <time>2009-06-28T20:57:23Z</time>
      </trkpt>
      <trkpt lat="44.6269040" lon="-92.5734710">
        <ele>246.7200000</ele>
        <time>2009-06-28T20:57:35Z</time>
      </trkpt>
      <trkpt lat="44.6270910" lon="-92.5733460">
        <ele>249.1200000</ele>
        <time>2009-06-28T20:57:36Z</time>
      </trkpt>
      <trkpt lat="44.6272810" lon="-92.5732200">
        <ele>251.5200000</ele>
        <time>2009-06-28T20:57:37Z</time>
      </trkpt>
      <trkpt lat="44.6274610" lon="-92.5730760">
        <ele>252.9600000</ele>
        <time>2009-06-28T20:57:38Z</time>
      </trkpt>
      <trkpt lat="44.6276400" lon="-92.5729120">
        <ele>254.4100000</ele>
        <time>2009-06-28T20:57:39Z</time>
      </trkpt>
      <trkpt lat="44.6289890" lon="-92.5718400">
        <ele>262.1000000</ele>
        <time>2009-06-28T20:57:46Z</time>
      </trkpt>
      <trkpt lat="44.6292100" lon="-92.5717570">
        <ele>263.0600000</ele>
        <time>2009-06-28T20:57:47Z</time>
      </trkpt>
      <trkpt lat="44.6294320" lon="-92.5716740">
        <ele>264.0200000</ele>
        <time>2009-06-28T20:57:48Z</time>
      </trkpt>
      <trkpt lat="44.6312410" lon="-92.5709620">
        <ele>267.3800000</ele>
        <time>2009-06-28T20:57:56Z</time>
      </trkpt>
      <trkpt lat="44.6314420" lon="-92.5707600">
        <ele>267.3800000</ele>
        <time>2009-06-28T20:57:57Z</time>
      </trkpt>
      <trkpt lat="44.6316410" lon="-92.5705610">
        <ele>266.9000000</ele>
        <time>2009-06-28T20:57:58Z</time>
      </trkpt>
      <trkpt lat="44.6331610" lon="-92.5688920">
        <ele>257.7700000</ele>
        <time>2009-06-28T20:58:06Z</time>
      </trkpt>
      <trkpt lat="44.6333800" lon="-92.5687820">
        <ele>255.8500000</ele>
        <time>2009-06-28T20:58:07Z</time>
      </trkpt>
      <trkpt lat="44.6335980" lon="-92.5687300">
        <ele>253.9300000</ele>
        <time>2009-06-28T20:58:08Z</time>
      </trkpt>
      <trkpt lat="44.6338380" lon="-92.5687080">
        <ele>252.0000000</ele>
        <time>2009-06-28T20:58:09Z</time>
      </trkpt>
      <trkpt lat="44.6340820" lon="-92.5686870">
        <ele>250.5600000</ele>
        <time>2009-06-28T20:58:10Z</time>
      </trkpt>
      <trkpt lat="44.6343240" lon="-92.5686650">
        <ele>250.5600000</ele>
        <time>2009-06-28T20:58:11Z</time>
      </trkpt>
      <trkpt lat="44.6383280" lon="-92.5688480">
        <ele>251.5200000</ele>
        <time>2009-06-28T20:58:29Z</time>
      </trkpt>
      <trkpt lat="44.6429070" lon="-92.5680830">
        <ele>262.5800000</ele>
        <time>2009-06-28T20:58:48Z</time>
      </trkpt>
      <trkpt lat="44.6447550" lon="-92.5682050">
        <ele>254.8900000</ele>
        <time>2009-06-28T20:58:57Z</time>
      </trkpt>
      <trkpt lat="44.6449630" lon="-92.5681410">
        <ele>253.9300000</ele>
        <time>2009-06-28T20:58:58Z</time>
      </trkpt>
      <trkpt lat="44.6476980" lon="-92.5677080">
        <ele>256.3300000</ele>
        <time>2009-06-28T20:59:10Z</time>
      </trkpt>
      <trkpt lat="44.6513830" lon="-92.5674710">
        <ele>265.4600000</ele>
        <time>2009-06-28T20:59:26Z</time>
      </trkpt>
      <trkpt lat="44.6529280" lon="-92.5669390">
        <ele>268.3500000</ele>
        <time>2009-06-28T20:59:33Z</time>
      </trkpt>
      <trkpt lat="44.6531590" lon="-92.5670250">
        <ele>269.3100000</ele>
        <time>2009-06-28T20:59:34Z</time>
      </trkpt>
      <trkpt lat="44.6554740" lon="-92.5669690">
        <ele>293.3400000</ele>
        <time>2009-06-28T20:59:44Z</time>
      </trkpt>
      <trkpt lat="44.6557160" lon="-92.5667660">
        <ele>294.7800000</ele>
        <time>2009-06-28T20:59:45Z</time>
      </trkpt>
      <trkpt lat="44.6559010" lon="-92.5665580">
        <ele>297.1800000</ele>
        <time>2009-06-28T20:59:46Z</time>
      </trkpt>
      <trkpt lat="44.6577640" lon="-92.5650380">
        <ele>313.0500000</ele>
        <time>2009-06-28T20:59:55Z</time>
      </trkpt>
      <trkpt lat="44.6591110" lon="-92.5633340">
        <ele>332.2700000</ele>
        <time>2009-06-28T21:00:03Z</time>
      </trkpt>
      <trkpt lat="44.6593450" lon="-92.5631920">
        <ele>334.2000000</ele>
        <time>2009-06-28T21:00:04Z</time>
      </trkpt>
      <trkpt lat="44.6595540" lon="-92.5631590">
        <ele>336.1200000</ele>
        <time>2009-06-28T21:00:05Z</time>
      </trkpt>
      <trkpt lat="44.6597680" lon="-92.5631270">
        <ele>338.0400000</ele>
        <time>2009-06-28T21:00:06Z</time>
      </trkpt>
      <trkpt lat="44.6599840" lon="-92.5631200">
        <ele>341.4100000</ele>
        <time>2009-06-28T21:00:07Z</time>
      </trkpt>
      <trkpt lat="44.6601990" lon="-92.5631200">
        <ele>341.4100000</ele>
        <time>2009-06-28T21:00:08Z</time>
      </trkpt>
      <trkpt lat="44.6604180" lon="-92.5631200">
        <ele>342.3700000</ele>
        <time>2009-06-28T21:00:09Z</time>
      </trkpt>
      <trkpt lat="44.6635100" lon="-92.5631200">
        <ele>342.3700000</ele>
        <time>2009-06-28T21:00:22Z</time>
      </trkpt>
      <trkpt lat="44.6683090" lon="-92.5630970">
        <ele>349.1000000</ele>
        <time>2009-06-28T21:00:42Z</time>
      </trkpt>
      <trkpt lat="44.6722150" lon="-92.5630770">
        <ele>351.0200000</ele>
        <time>2009-06-28T21:00:58Z</time>
      </trkpt>
      <trkpt lat="44.6761010" lon="-92.5630950">
        <ele>342.3700000</ele>
        <time>2009-06-28T21:01:14Z</time>
      </trkpt>
      <trkpt lat="44.6792360" lon="-92.5631180">
        <ele>335.1600000</ele>
        <time>2009-06-28T21:01:27Z</time>
      </trkpt>
      <trkpt lat="44.6798910" lon="-92.5630060">
        <ele>339.0000000</ele>
        <time>2009-06-28T21:01:30Z</time>
      </trkpt>
      <trkpt lat="44.6800920" lon="-92.5628630">
        <ele>339.9600000</ele>
        <time>2009-06-28T21:01:31Z</time>
      </trkpt>
      <trkpt lat="44.6802810" lon="-92.5626910">
        <ele>340.4400000</ele>
        <time>2009-06-28T21:01:32Z</time>
      </trkpt>
      <trkpt lat="44.6804420" lon="-92.5624490">
        <ele>340.9200000</ele>
        <time>2009-06-28T21:01:33Z</time>
      </trkpt>
      <trkpt lat="44.6805870" lon="-92.5622320">
        <ele>339.0000000</ele>
        <time>2009-06-28T21:01:34Z</time>
      </trkpt>
      <trkpt lat="44.6807310" lon="-92.5619360">
        <ele>339.4800000</ele>
        <time>2009-06-28T21:01:35Z</time>
      </trkpt>
      <trkpt lat="44.6808340" lon="-92.5616520">
        <ele>337.0800000</ele>
        <time>2009-06-28T21:01:36Z</time>
      </trkpt>
      <trkpt lat="44.6809170" lon="-92.5613460">
        <ele>335.1600000</ele>
        <time>2009-06-28T21:01:37Z</time>
      </trkpt>
      <trkpt lat="44.6809250" lon="-92.5610090">
        <ele>333.2300000</ele>
        <time>2009-06-28T21:01:38Z</time>
      </trkpt>
      <trkpt lat="44.6809250" lon="-92.5606710">
        <ele>331.3100000</ele>
        <time>2009-06-28T21:01:39Z</time>
      </trkpt>
      <trkpt lat="44.6809250" lon="-92.5603310">
        <ele>330.3500000</ele>
        <time>2009-06-28T21:01:40Z</time>
      </trkpt>
      <trkpt lat="44.6809480" lon="-92.5599980">
        <ele>330.3500000</ele>
        <time>2009-06-28T21:01:41Z</time>
      </trkpt>
      <trkpt lat="44.6809940" lon="-92.5596770">
        <ele>330.8300000</ele>
        <time>2009-06-28T21:01:42Z</time>
      </trkpt>
      <trkpt lat="44.6810470" lon="-92.5593750">
        <ele>329.8700000</ele>
        <time>2009-06-28T21:01:43Z</time>
      </trkpt>
      <trkpt lat="44.6811700" lon="-92.5591100">
        <ele>328.9100000</ele>
        <time>2009-06-28T21:01:44Z</time>
      </trkpt>
      <trkpt lat="44.6813010" lon="-92.5588490">
        <ele>327.9500000</ele>
        <time>2009-06-28T21:01:45Z</time>
      </trkpt>
      <trkpt lat="44.6814730" lon="-92.5586350">
        <ele>327.9500000</ele>
        <time>2009-06-28T21:01:46Z</time>
      </trkpt>
      <trkpt lat="44.6816520" lon="-92.5584200">
        <ele>328.4300000</ele>
        <time>2009-06-28T21:01:47Z</time>
      </trkpt>
      <trkpt lat="44.6818650" lon="-92.5582610">
        <ele>328.9100000</ele>
        <time>2009-06-28T21:01:48Z</time>
      </trkpt>
      <trkpt lat="44.6820940" lon="-92.5581660">
        <ele>329.3900000</ele>
        <time>2009-06-28T21:01:49Z</time>
      </trkpt>
      <trkpt lat="44.6823270" lon="-92.5580990">
        <ele>330.3500000</ele>
        <time>2009-06-28T21:01:50Z</time>
      </trkpt>
      <trkpt lat="44.6825600" lon="-92.5580990">
        <ele>331.3100000</ele>
        <time>2009-06-28T21:01:51Z</time>
      </trkpt>
      <trkpt lat="44.6828010" lon="-92.5580990">
        <ele>331.7900000</ele>
        <time>2009-06-28T21:01:52Z</time>
      </trkpt>
      <trkpt lat="44.6830320" lon="-92.5580990">
        <ele>329.8700000</ele>
        <time>2009-06-28T21:01:53Z</time>
      </trkpt>
      <trkpt lat="44.6874660" lon="-92.5580990">
        <ele>322.1800000</ele>
        <time>2009-06-28T21:02:11Z</time>
      </trkpt>
      <trkpt lat="44.6915590" lon="-92.5580990">
        <ele>315.9300000</ele>
        <time>2009-06-28T21:02:28Z</time>
      </trkpt>
      <trkpt lat="44.6954900" lon="-92.5581350">
        <ele>325.0600000</ele>
        <time>2009-06-28T21:02:45Z</time>
      </trkpt>
      <trkpt lat="44.6989630" lon="-92.5581420">
        <ele>319.3000000</ele>
        <time>2009-06-28T21:03:00Z</time>
      </trkpt>
      <trkpt lat="44.7026140" lon="-92.5581420">
        <ele>320.7400000</ele>
        <time>2009-06-28T21:03:16Z</time>
      </trkpt>
      <trkpt lat="44.7052610" lon="-92.5580650">
        <ele>304.3900000</ele>
        <time>2009-06-28T21:03:28Z</time>
      </trkpt>
      <trkpt lat="44.7054490" lon="-92.5579670">
        <ele>304.3900000</ele>
        <time>2009-06-28T21:03:29Z</time>
      </trkpt>
      <trkpt lat="44.7056040" lon="-92.5578170">
        <ele>304.3900000</ele>
        <time>2009-06-28T21:03:30Z</time>
      </trkpt>
      <trkpt lat="44.7057020" lon="-92.5576600">
        <ele>301.5100000</ele>
        <time>2009-06-28T21:03:31Z</time>
      </trkpt>
      <trkpt lat="44.7057600" lon="-92.5574570">
        <ele>299.1100000</ele>
        <time>2009-06-28T21:03:32Z</time>
      </trkpt>
      <trkpt lat="44.7057730" lon="-92.5572560">
        <ele>296.2200000</ele>
        <time>2009-06-28T21:03:33Z</time>
      </trkpt>
      <trkpt lat="44.7057260" lon="-92.5570050">
        <ele>297.1800000</ele>
        <time>2009-06-28T21:03:34Z</time>
      </trkpt>
      <trkpt lat="44.7056710" lon="-92.5567760">
        <ele>295.7400000</ele>
        <time>2009-06-28T21:03:35Z</time>
      </trkpt>
      <trkpt lat="44.7056140" lon="-92.5565380">
        <ele>295.7400000</ele>
        <time>2009-06-28T21:03:36Z</time>
      </trkpt>
      <trkpt lat="44.7055560" lon="-92.5562980">
        <ele>296.2200000</ele>
        <time>2009-06-28T21:03:37Z</time>
      </trkpt>
      <trkpt lat="44.7051600" lon="-92.5551720">
        <ele>297.1800000</ele>
        <time>2009-06-28T21:03:43Z</time>
      </trkpt>
      <trkpt lat="44.7051240" lon="-92.5550860">
        <ele>297.1800000</ele>
        <time>2009-06-28T21:03:44Z</time>
      </trkpt>
      <trkpt lat="44.7051970" lon="-92.5550040">
        <ele>296.7000000</ele>
        <time>2009-06-28T21:03:45Z</time>
      </trkpt>
      <trkpt lat="44.7052780" lon="-92.5548680">
        <ele>296.7000000</ele>
        <time>2009-06-28T21:03:46Z</time>
      </trkpt>
      <trkpt lat="44.7053260" lon="-92.5547340">
        <ele>295.7400000</ele>
        <time>2009-06-28T21:03:47Z</time>
      </trkpt>
      <trkpt lat="44.7053770" lon="-92.5545930">
        <ele>295.2600000</ele>
        <time>2009-06-28T21:03:48Z</time>
      </trkpt>
      <trkpt lat="44.7054300" lon="-92.5544440">
        <ele>295.2600000</ele>
        <time>2009-06-28T21:03:49Z</time>
      </trkpt>
      <trkpt lat="44.7057550" lon="-92.5536740">
        <ele>298.1500000</ele>
        <time>2009-06-28T21:03:54Z</time>
      </trkpt>
      <trkpt lat="44.7058430" lon="-92.5535330">
        <ele>298.6300000</ele>
        <time>2009-06-28T21:03:55Z</time>
      </trkpt>
      <trkpt lat="44.7059410" lon="-92.5534080">
        <ele>298.6300000</ele>
        <time>2009-06-28T21:03:56Z</time>
      </trkpt>
      <trkpt lat="44.7060460" lon="-92.5532820">
        <ele>298.6300000</ele>
        <time>2009-06-28T21:03:57Z</time>
      </trkpt>
      <trkpt lat="44.7061680" lon="-92.5532090">
        <ele>298.6300000</ele>
        <time>2009-06-28T21:03:58Z</time>
      </trkpt>
      <trkpt lat="44.7063030" lon="-92.5531510">
        <ele>298.6300000</ele>
        <time>2009-06-28T21:03:59Z</time>
      </trkpt>
      <trkpt lat="44.7064390" lon="-92.5531210">
        <ele>300.0700000</ele>
        <time>2009-06-28T21:04:00Z</time>
      </trkpt>
      <trkpt lat="44.7065930" lon="-92.5531210">
        <ele>301.5100000</ele>
        <time>2009-06-28T21:04:01Z</time>
      </trkpt>
      <trkpt lat="44.7067530" lon="-92.5531210">
        <ele>302.9500000</ele>
        <time>2009-06-28T21:04:02Z</time>
      </trkpt>
      <trkpt lat="44.7069140" lon="-92.5531210">
        <ele>304.8800000</ele>
        <time>2009-06-28T21:04:03Z</time>
      </trkpt>
      <trkpt lat="44.7095390" lon="-92.5531210">
        <ele>335.1600000</ele>
        <time>2009-06-28T21:04:18Z</time>
      </trkpt>
      <trkpt lat="44.7123750" lon="-92.5531210">
        <ele>334.6800000</ele>
        <time>2009-06-28T21:04:33Z</time>
      </trkpt>
      <trkpt lat="44.7137560" lon="-92.5531210">
        <ele>324.5800000</ele>
        <time>2009-06-28T21:04:42Z</time>
      </trkpt>
      <trkpt lat="44.7138840" lon="-92.5531210">
        <ele>318.3300000</ele>
        <time>2009-06-28T21:04:47Z</time>
      </trkpt>
      <trkpt lat="44.7138830" lon="-92.5532100">
        <ele>318.3300000</ele>
        <time>2009-06-28T21:04:48Z</time>
      </trkpt>
      <trkpt lat="44.7138820" lon="-92.5532800">
        <ele>318.3300000</ele>
        <time>2009-06-28T21:04:49Z</time>
      </trkpt>
      <trkpt lat="44.7138810" lon="-92.5533800">
        <ele>317.3700000</ele>
        <time>2009-06-28T21:04:50Z</time>
      </trkpt>
      <trkpt lat="44.7138720" lon="-92.5543590">
        <ele>314.4900000</ele>
        <time>2009-06-28T21:04:56Z</time>
      </trkpt>
      <trkpt lat="44.7138500" lon="-92.5564870">
        <ele>314.0100000</ele>
        <time>2009-06-28T21:05:04Z</time>
      </trkpt>
      <trkpt lat="44.7137980" lon="-92.5617000">
        <ele>321.2200000</ele>
        <time>2009-06-28T21:05:22Z</time>
      </trkpt>
      <trkpt lat="44.7138570" lon="-92.5625520">
        <ele>320.7400000</ele>
        <time>2009-06-28T21:05:25Z</time>
      </trkpt>
      <trkpt lat="44.7139390" lon="-92.5628140">
        <ele>321.2200000</ele>
        <time>2009-06-28T21:05:26Z</time>
      </trkpt>
      <trkpt lat="44.7140200" lon="-92.5630440">
        <ele>321.2200000</ele>
        <time>2009-06-28T21:05:27Z</time>
      </trkpt>
      <trkpt lat="44.7141730" lon="-92.5632350">
        <ele>320.7400000</ele>
        <time>2009-06-28T21:05:28Z</time>
      </trkpt>
      <trkpt lat="44.7143380" lon="-92.5633720">
        <ele>320.2600000</ele>
        <time>2009-06-28T21:05:29Z</time>
      </trkpt>
      <trkpt lat="44.7145280" lon="-92.5635240">
        <ele>319.3000000</ele>
        <time>2009-06-28T21:05:30Z</time>
      </trkpt>
      <trkpt lat="44.7147200" lon="-92.5636770">
        <ele>318.3300000</ele>
        <time>2009-06-28T21:05:31Z</time>
      </trkpt>
      <trkpt lat="44.7149140" lon="-92.5638320">
        <ele>316.8900000</ele>
        <time>2009-06-28T21:05:32Z</time>
      </trkpt>
      <trkpt lat="44.7166500" lon="-92.5657120">
        <ele>300.0700000</ele>
        <time>2009-06-28T21:05:42Z</time>
      </trkpt>
      <trkpt lat="44.7176250" lon="-92.5677180">
        <ele>286.1300000</ele>
        <time>2009-06-28T21:05:50Z</time>
      </trkpt>
      <trkpt lat="44.7184280" lon="-92.5708430">
        <ele>272.6700000</ele>
        <time>2009-06-28T21:06:02Z</time>
      </trkpt>
      <trkpt lat="44.7184720" lon="-92.5714730">
        <ele>271.2300000</ele>
        <time>2009-06-28T21:06:06Z</time>
      </trkpt>
      <trkpt lat="44.7184760" lon="-92.5715310">
        <ele>271.2300000</ele>
        <time>2009-06-28T21:06:07Z</time>
      </trkpt>
      <trkpt lat="44.7184350" lon="-92.5715390">
        <ele>271.7100000</ele>
        <time>2009-06-28T21:06:08Z</time>
      </trkpt>
      <trkpt lat="44.7184040" lon="-92.5715450">
        <ele>271.7100000</ele>
        <time>2009-06-28T21:06:09Z</time>
      </trkpt>
      <trkpt lat="44.7183850" lon="-92.5715480">
        <ele>272.1900000</ele>
        <time>2009-06-28T21:06:10Z</time>
      </trkpt>
      <trkpt lat="44.7183530" lon="-92.5715540">
        <ele>270.2700000</ele>
        <time>2009-06-28T21:06:11Z</time>
      </trkpt>
      <trkpt lat="44.7183070" lon="-92.5715620">
        <ele>268.3500000</ele>
        <time>2009-06-28T21:06:12Z</time>
      </trkpt>
      <trkpt lat="44.7182420" lon="-92.5715740">
        <ele>266.4200000</ele>
        <time>2009-06-28T21:06:13Z</time>
      </trkpt>
      <trkpt lat="44.7181690" lon="-92.5715870">
        <ele>266.9000000</ele>
        <time>2009-06-28T21:06:14Z</time>
      </trkpt>
      <trkpt lat="44.7179580" lon="-92.5716520">
        <ele>267.3800000</ele>
        <time>2009-06-28T21:06:16Z</time>
      </trkpt>
      <trkpt lat="44.7178600" lon="-92.5717250">
        <ele>267.8600000</ele>
        <time>2009-06-28T21:06:17Z</time>
      </trkpt>
      <trkpt lat="44.7177580" lon="-92.5718630">
        <ele>267.8600000</ele>
        <time>2009-06-28T21:06:18Z</time>
      </trkpt>
      <trkpt lat="44.7176750" lon="-92.5719930">
        <ele>267.3800000</ele>
        <time>2009-06-28T21:06:19Z</time>
      </trkpt>
      <trkpt lat="44.7175860" lon="-92.5721330">
        <ele>267.8600000</ele>
        <time>2009-06-28T21:06:20Z</time>
      </trkpt>
      <trkpt lat="44.7174840" lon="-92.5722410">
        <ele>268.3500000</ele>
        <time>2009-06-28T21:06:21Z</time>
      </trkpt>
      <trkpt lat="44.7173310" lon="-92.5723130">
        <ele>268.8300000</ele>
        <time>2009-06-28T21:06:22Z</time>
      </trkpt>
      <trkpt lat="44.7171440" lon="-92.5724010">
        <ele>266.9000000</ele>
        <time>2009-06-28T21:06:23Z</time>
      </trkpt>
      <trkpt lat="44.7167950" lon="-92.5725690">
        <ele>267.3800000</ele>
        <time>2009-06-28T21:06:25Z</time>
      </trkpt>
      <trkpt lat="44.7166490" lon="-92.5727150">
        <ele>267.8600000</ele>
        <time>2009-06-28T21:06:26Z</time>
      </trkpt>
      <trkpt lat="44.7164910" lon="-92.5728730">
        <ele>268.8300000</ele>
        <time>2009-06-28T21:06:27Z</time>
      </trkpt>
      <trkpt lat="44.7161900" lon="-92.5731130">
        <ele>270.2700000</ele>
        <time>2009-06-28T21:06:29Z</time>
      </trkpt>
      <trkpt lat="44.7160320" lon="-92.5731970">
        <ele>271.2300000</ele>
        <time>2009-06-28T21:06:30Z</time>
      </trkpt>
      <trkpt lat="44.7158350" lon="-92.5732770">
        <ele>270.7500000</ele>
        <time>2009-06-28T21:06:31Z</time>
      </trkpt>
      <trkpt lat="44.7143520" lon="-92.5738850">
        <ele>271.7100000</ele>
        <time>2009-06-28T21:06:39Z</time>
      </trkpt>
      <trkpt lat="44.7134190" lon="-92.5742970">
        <ele>268.8300000</ele>
        <time>2009-06-28T21:06:44Z</time>
      </trkpt>
      <trkpt lat="44.7132470" lon="-92.5744320">
        <ele>268.8300000</ele>
        <time>2009-06-28T21:06:45Z</time>
      </trkpt>
      <trkpt lat="44.7119600" lon="-92.5756810">
        <ele>266.9000000</ele>
        <time>2009-06-28T21:06:53Z</time>
      </trkpt>
      <trkpt lat="44.7118210" lon="-92.5757490">
        <ele>267.3800000</ele>
        <time>2009-06-28T21:06:54Z</time>
      </trkpt>
      <trkpt lat="44.7116810" lon="-92.5757840">
        <ele>267.8600000</ele>
        <time>2009-06-28T21:06:55Z</time>
      </trkpt>
      <trkpt lat="44.7104260" lon="-92.5763440">
        <ele>268.3500000</ele>
        <time>2009-06-28T21:07:03Z</time>
      </trkpt>
      <trkpt lat="44.7097530" lon="-92.5767440">
        <ele>267.3800000</ele>
        <time>2009-06-28T21:07:07Z</time>
      </trkpt>
      <trkpt lat="44.7095960" lon="-92.5769000">
        <ele>266.4200000</ele>
        <time>2009-06-28T21:07:08Z</time>
      </trkpt>
      <trkpt lat="44.7094390" lon="-92.5770660">
        <ele>266.9000000</ele>
        <time>2009-06-28T21:07:09Z</time>
      </trkpt>
      <trkpt lat="44.7089400" lon="-92.5775400">
        <ele>265.9400000</ele>
        <time>2009-06-28T21:07:12Z</time>
      </trkpt>
      <trkpt lat="44.7087340" lon="-92.5775400">
        <ele>265.4600000</ele>
        <time>2009-06-28T21:07:13Z</time>
      </trkpt>
      <trkpt lat="44.7086000" lon="-92.5774760">
        <ele>265.9400000</ele>
        <time>2009-06-28T21:07:14Z</time>
      </trkpt>
      <trkpt lat="44.7084260" lon="-92.5773560">
        <ele>264.9800000</ele>
        <time>2009-06-28T21:07:15Z</time>
      </trkpt>
      <trkpt lat="44.7082510" lon="-92.5772350">
        <ele>264.5000000</ele>
        <time>2009-06-28T21:07:16Z</time>
      </trkpt>
      <trkpt lat="44.7079930" lon="-92.5771270">
        <ele>264.0200000</ele>
        <time>2009-06-28T21:07:17Z</time>
      </trkpt>
      <trkpt lat="44.7055720" lon="-92.5763760">
        <ele>259.6900000</ele>
        <time>2009-06-28T21:07:28Z</time>
      </trkpt>
      <trkpt lat="44.7045810" lon="-92.5758900">
        <ele>259.6900000</ele>
        <time>2009-06-28T21:07:33Z</time>
      </trkpt>
      <trkpt lat="44.7044270" lon="-92.5758150">
        <ele>259.6900000</ele>
        <time>2009-06-28T21:07:34Z</time>
      </trkpt>
      <trkpt lat="44.7042070" lon="-92.5759050">
        <ele>259.6900000</ele>
        <time>2009-06-28T21:07:35Z</time>
      </trkpt>
      <trkpt lat="44.7040330" lon="-92.5760500">
        <ele>259.6900000</ele>
        <time>2009-06-28T21:07:36Z</time>
      </trkpt>
      <trkpt lat="44.7038570" lon="-92.5761960">
        <ele>259.6900000</ele>
        <time>2009-06-28T21:07:37Z</time>
      </trkpt>
      <trkpt lat="44.7020790" lon="-92.5775510">
        <ele>255.8500000</ele>
        <time>2009-06-28T21:07:48Z</time>
      </trkpt>
      <trkpt lat="44.7012060" lon="-92.5781620">
        <ele>254.4100000</ele>
        <time>2009-06-28T21:07:53Z</time>
      </trkpt>
      <trkpt lat="44.7010520" lon="-92.5781830">
        <ele>253.4400000</ele>
        <time>2009-06-28T21:07:54Z</time>
      </trkpt>
      <trkpt lat="44.7008230" lon="-92.5781660">
        <ele>252.9600000</ele>
        <time>2009-06-28T21:07:55Z</time>
      </trkpt>
      <trkpt lat="44.7005970" lon="-92.5781480">
        <ele>252.4800000</ele>
        <time>2009-06-28T21:07:56Z</time>
      </trkpt>
      <trkpt lat="44.7004050" lon="-92.5780890">
        <ele>252.0000000</ele>
        <time>2009-06-28T21:07:57Z</time>
      </trkpt>
      <trkpt lat="44.7002200" lon="-92.5779840">
        <ele>251.0400000</ele>
        <time>2009-06-28T21:07:58Z</time>
      </trkpt>
      <trkpt lat="44.7000600" lon="-92.5778540">
        <ele>249.6000000</ele>
        <time>2009-06-28T21:07:59Z</time>
      </trkpt>
      <trkpt lat="44.6998680" lon="-92.5776960">
        <ele>249.1200000</ele>
        <time>2009-06-28T21:08:00Z</time>
      </trkpt>
      <trkpt lat="44.6996850" lon="-92.5775920">
        <ele>248.6400000</ele>
        <time>2009-06-28T21:08:01Z</time>
      </trkpt>
      <trkpt lat="44.6994840" lon="-92.5775080">
        <ele>247.6800000</ele>
        <time>2009-06-28T21:08:02Z</time>
      </trkpt>
      <trkpt lat="44.6992860" lon="-92.5774520">
        <ele>247.2000000</ele>
        <time>2009-06-28T21:08:03Z</time>
      </trkpt>
      <trkpt lat="44.6990910" lon="-92.5773960">
        <ele>246.7200000</ele>
        <time>2009-06-28T21:08:04Z</time>
      </trkpt>
      <trkpt lat="44.6988880" lon="-92.5773680">
        <ele>245.7500000</ele>
        <time>2009-06-28T21:08:05Z</time>
      </trkpt>
      <trkpt lat="44.6986790" lon="-92.5773740">
        <ele>245.2700000</ele>
        <time>2009-06-28T21:08:06Z</time>
      </trkpt>
      <trkpt lat="44.6985020" lon="-92.5774710">
        <ele>244.7900000</ele>
        <time>2009-06-28T21:08:07Z</time>
      </trkpt>
      <trkpt lat="44.6983580" lon="-92.5776000">
        <ele>244.3100000</ele>
        <time>2009-06-28T21:08:08Z</time>
      </trkpt>
      <trkpt lat="44.6982120" lon="-92.5777330">
        <ele>243.3500000</ele>
        <time>2009-06-28T21:08:09Z</time>
      </trkpt>
      <trkpt lat="44.6980370" lon="-92.5778910">
        <ele>242.8700000</ele>
        <time>2009-06-28T21:08:10Z</time>
      </trkpt>
      <trkpt lat="44.6978590" lon="-92.5780520">
        <ele>242.8700000</ele>
        <time>2009-06-28T21:08:11Z</time>
      </trkpt>
      <trkpt lat="44.6976820" lon="-92.5782120">
        <ele>242.8700000</ele>
        <time>2009-06-28T21:08:12Z</time>
      </trkpt>
      <trkpt lat="44.6974940" lon="-92.5783000">
        <ele>243.8300000</ele>
        <time>2009-06-28T21:08:13Z</time>
      </trkpt>
      <trkpt lat="44.6973040" lon="-92.5783460">
        <ele>244.3100000</ele>
        <time>2009-06-28T21:08:14Z</time>
      </trkpt>
      <trkpt lat="44.6970930" lon="-92.5783980">
        <ele>244.7900000</ele>
        <time>2009-06-28T21:08:15Z</time>
      </trkpt>
      <trkpt lat="44.6945680" lon="-92.5789540">
        <ele>251.5200000</ele>
        <time>2009-06-28T21:08:27Z</time>
      </trkpt>
      <trkpt lat="44.6941820" lon="-92.5788260">
        <ele>253.4400000</ele>
        <time>2009-06-28T21:08:29Z</time>
      </trkpt>
      <trkpt lat="44.6939900" lon="-92.5787620">
        <ele>254.8900000</ele>
        <time>2009-06-28T21:08:30Z</time>
      </trkpt>
      <trkpt lat="44.6925210" lon="-92.5786020">
        <ele>253.9300000</ele>
        <time>2009-06-28T21:08:37Z</time>
      </trkpt>
      <trkpt lat="44.6909830" lon="-92.5782300">
        <ele>249.6000000</ele>
        <time>2009-06-28T21:08:44Z</time>
      </trkpt>
      <trkpt lat="44.6901210" lon="-92.5778260">
        <ele>244.7900000</ele>
        <time>2009-06-28T21:08:48Z</time>
      </trkpt>
      <trkpt lat="44.6899020" lon="-92.5778120">
        <ele>244.3100000</ele>
        <time>2009-06-28T21:08:49Z</time>
      </trkpt>
      <trkpt lat="44.6896850" lon="-92.5777970">
        <ele>243.8300000</ele>
        <time>2009-06-28T21:08:50Z</time>
      </trkpt>
      <trkpt lat="44.6894740" lon="-92.5779260">
        <ele>243.3500000</ele>
        <time>2009-06-28T21:08:51Z</time>
      </trkpt>
      <trkpt lat="44.6892710" lon="-92.5780920">
        <ele>242.3900000</ele>
        <time>2009-06-28T21:08:52Z</time>
      </trkpt>
      <trkpt lat="44.6890920" lon="-92.5783130">
        <ele>243.3500000</ele>
        <time>2009-06-28T21:08:53Z</time>
      </trkpt>
      <trkpt lat="44.6889040" lon="-92.5785440">
        <ele>243.3500000</ele>
        <time>2009-06-28T21:08:54Z</time>
      </trkpt>
      <trkpt lat="44.6887760" lon="-92.5787080">
        <ele>242.8700000</ele>
        <time>2009-06-28T21:08:55Z</time>
      </trkpt>
      <trkpt lat="44.6887100" lon="-92.5790060">
        <ele>245.2700000</ele>
        <time>2009-06-28T21:08:56Z</time>
      </trkpt>
      <trkpt lat="44.6886480" lon="-92.5792850">
        <ele>247.2000000</ele>
        <time>2009-06-28T21:08:57Z</time>
      </trkpt>
      <trkpt lat="44.6886070" lon="-92.5795380">
        <ele>246.7200000</ele>
        <time>2009-06-28T21:08:58Z</time>
      </trkpt>
      <trkpt lat="44.6886070" lon="-92.5798380">
        <ele>247.2000000</ele>
        <time>2009-06-28T21:08:59Z</time>
      </trkpt>
      <trkpt lat="44.6886070" lon="-92.5801530">
        <ele>248.1600000</ele>
        <time>2009-06-28T21:09:00Z</time>
      </trkpt>
      <trkpt lat="44.6886070" lon="-92.5804660">
        <ele>248.6400000</ele>
        <time>2009-06-28T21:09:01Z</time>
      </trkpt>
      <trkpt lat="44.6883690" lon="-92.5826880">
        <ele>248.1600000</ele>
        <time>2009-06-28T21:09:08Z</time>
      </trkpt>
      <trkpt lat="44.6877180" lon="-92.5845530">
        <ele>248.1600000</ele>
        <time>2009-06-28T21:09:15Z</time>
      </trkpt>
      <trkpt lat="44.6875990" lon="-92.5847370">
        <ele>248.6400000</ele>
        <time>2009-06-28T21:09:16Z</time>
      </trkpt>
      <trkpt lat="44.6874430" lon="-92.5849200">
        <ele>250.5600000</ele>
        <time>2009-06-28T21:09:17Z</time>
      </trkpt>
      <trkpt lat="44.6872460" lon="-92.5850940">
        <ele>248.1600000</ele>
        <time>2009-06-28T21:09:18Z</time>
      </trkpt>
      <trkpt lat="44.6870530" lon="-92.5852520">
        <ele>247.2000000</ele>
        <time>2009-06-28T21:09:19Z</time>
      </trkpt>
      <trkpt lat="44.6868540" lon="-92.5854150">
        <ele>245.7500000</ele>
        <time>2009-06-28T21:09:20Z</time>
      </trkpt>
      <trkpt lat="44.6857470" lon="-92.5867540">
        <ele>243.8300000</ele>
        <time>2009-06-28T21:09:27Z</time>
      </trkpt>
      <trkpt lat="44.6849910" lon="-92.5885420">
        <ele>244.7900000</ele>
        <time>2009-06-28T21:09:34Z</time>
      </trkpt>
      <trkpt lat="44.6838400" lon="-92.5905750">
        <ele>244.7900000</ele>
        <time>2009-06-28T21:09:43Z</time>
      </trkpt>
      <trkpt lat="44.6833050" lon="-92.5910020">
        <ele>242.8700000</ele>
        <time>2009-06-28T21:09:46Z</time>
      </trkpt>
      <trkpt lat="44.6831280" lon="-92.5911080">
        <ele>242.8700000</ele>
        <time>2009-06-28T21:09:47Z</time>
      </trkpt>
      <trkpt lat="44.6829060" lon="-92.5911630">
        <ele>242.3900000</ele>
        <time>2009-06-28T21:09:48Z</time>
      </trkpt>
      <trkpt lat="44.6826800" lon="-92.5912200">
        <ele>242.3900000</ele>
        <time>2009-06-28T21:09:49Z</time>
      </trkpt>
      <trkpt lat="44.6824800" lon="-92.5912130">
        <ele>240.4700000</ele>
        <time>2009-06-28T21:09:50Z</time>
      </trkpt>
      <trkpt lat="44.6819120" lon="-92.5910250">
        <ele>237.1000000</ele>
        <time>2009-06-28T21:09:53Z</time>
      </trkpt>
      <trkpt lat="44.6817020" lon="-92.5909120">
        <ele>235.6600000</ele>
        <time>2009-06-28T21:09:54Z</time>
      </trkpt>
      <trkpt lat="44.6814940" lon="-92.5908000">
        <ele>234.2200000</ele>
        <time>2009-06-28T21:09:55Z</time>
      </trkpt>
      <trkpt lat="44.6795800" lon="-92.5899660">
        <ele>228.4500000</ele>
        <time>2009-06-28T21:10:04Z</time>
      </trkpt>
      <trkpt lat="44.6777130" lon="-92.5894230">
        <ele>228.4500000</ele>
        <time>2009-06-28T21:10:13Z</time>
      </trkpt>
      <trkpt lat="44.6775080" lon="-92.5893970">
        <ele>228.4500000</ele>
        <time>2009-06-28T21:10:14Z</time>
      </trkpt>
      <trkpt lat="44.6768900" lon="-92.5894800">
        <ele>228.4500000</ele>
        <time>2009-06-28T21:10:17Z</time>
      </trkpt>
      <trkpt lat="44.6766990" lon="-92.5895960">
        <ele>227.9700000</ele>
        <time>2009-06-28T21:10:18Z</time>
      </trkpt>
      <trkpt lat="44.6764940" lon="-92.5897220">
        <ele>229.4100000</ele>
        <time>2009-06-28T21:10:19Z</time>
      </trkpt>
      <trkpt lat="44.6762910" lon="-92.5898450">
        <ele>227.9700000</ele>
        <time>2009-06-28T21:10:20Z</time>
      </trkpt>
      <trkpt lat="44.6760860" lon="-92.5899710">
        <ele>226.5300000</ele>
        <time>2009-06-28T21:10:21Z</time>
      </trkpt>
      <trkpt lat="44.6750740" lon="-92.5905480">
        <ele>223.1600000</ele>
        <time>2009-06-28T21:10:26Z</time>
      </trkpt>
      <trkpt lat="44.6748880" lon="-92.5905620">
        <ele>223.6400000</ele>
        <time>2009-06-28T21:10:27Z</time>
      </trkpt>
      <trkpt lat="44.6746830" lon="-92.5904910">
        <ele>224.1200000</ele>
        <time>2009-06-28T21:10:28Z</time>
      </trkpt>
      <trkpt lat="44.6745040" lon="-92.5904010">
        <ele>224.6100000</ele>
        <time>2009-06-28T21:10:29Z</time>
      </trkpt>
      <trkpt lat="44.6743100" lon="-92.5902810">
        <ele>225.0900000</ele>
        <time>2009-06-28T21:10:30Z</time>
      </trkpt>
      <trkpt lat="44.6741160" lon="-92.5901520">
        <ele>225.0900000</ele>
        <time>2009-06-28T21:10:31Z</time>
      </trkpt>
      <trkpt lat="44.6739080" lon="-92.5900680">
        <ele>225.5700000</ele>
        <time>2009-06-28T21:10:32Z</time>
      </trkpt>
      <trkpt lat="44.6736990" lon="-92.5900060">
        <ele>226.0500000</ele>
        <time>2009-06-28T21:10:33Z</time>
      </trkpt>
      <trkpt lat="44.6734910" lon="-92.5899980">
        <ele>225.5700000</ele>
        <time>2009-06-28T21:10:34Z</time>
      </trkpt>
      <trkpt lat="44.6732640" lon="-92.5900200">
        <ele>225.0900000</ele>
        <time>2009-06-28T21:10:35Z</time>
      </trkpt>
      <trkpt lat="44.6730310" lon="-92.5900420">
        <ele>225.0900000</ele>
        <time>2009-06-28T21:10:36Z</time>
      </trkpt>
      <trkpt lat="44.6712540" lon="-92.5901320">
        <ele>228.4500000</ele>
        <time>2009-06-28T21:10:44Z</time>
      </trkpt>
      <trkpt lat="44.6710780" lon="-92.5900090">
        <ele>227.9700000</ele>
        <time>2009-06-28T21:10:45Z</time>
      </trkpt>
      <trkpt lat="44.6709250" lon="-92.5898560">
        <ele>227.0100000</ele>
        <time>2009-06-28T21:10:46Z</time>
      </trkpt>
      <trkpt lat="44.6707650" lon="-92.5896960">
        <ele>227.0100000</ele>
        <time>2009-06-28T21:10:47Z</time>
      </trkpt>
      <trkpt lat="44.6705890" lon="-92.5895190">
        <ele>226.0500000</ele>
        <time>2009-06-28T21:10:48Z</time>
      </trkpt>
      <trkpt lat="44.6704110" lon="-92.5893410">
        <ele>225.5700000</ele>
        <time>2009-06-28T21:10:49Z</time>
      </trkpt>
      <trkpt lat="44.6690230" lon="-92.5883830">
        <ele>221.7200000</ele>
        <time>2009-06-28T21:10:56Z</time>
      </trkpt>
      <trkpt lat="44.6688170" lon="-92.5883050">
        <ele>221.7200000</ele>
        <time>2009-06-28T21:10:57Z</time>
      </trkpt>
      <trkpt lat="44.6685990" lon="-92.5882780">
        <ele>221.2400000</ele>
        <time>2009-06-28T21:10:58Z</time>
      </trkpt>
      <trkpt lat="44.6683940" lon="-92.5883050">
        <ele>220.7600000</ele>
        <time>2009-06-28T21:10:59Z</time>
      </trkpt>
      <trkpt lat="44.6681920" lon="-92.5883630">
        <ele>220.2800000</ele>
        <time>2009-06-28T21:11:00Z</time>
      </trkpt>
      <trkpt lat="44.6679980" lon="-92.5884180">
        <ele>220.2800000</ele>
        <time>2009-06-28T21:11:01Z</time>
      </trkpt>
      <trkpt lat="44.6678220" lon="-92.5884960">
        <ele>220.2800000</ele>
        <time>2009-06-28T21:11:02Z</time>
      </trkpt>
      <trkpt lat="44.6676400" lon="-92.5885960">
        <ele>220.2800000</ele>
        <time>2009-06-28T21:11:03Z</time>
      </trkpt>
      <trkpt lat="44.6674960" lon="-92.5887010">
        <ele>220.2800000</ele>
        <time>2009-06-28T21:11:04Z</time>
      </trkpt>
      <trkpt lat="44.6673580" lon="-92.5888640">
        <ele>222.2000000</ele>
        <time>2009-06-28T21:11:05Z</time>
      </trkpt>
      <trkpt lat="44.6672170" lon="-92.5890300">
        <ele>222.6800000</ele>
        <time>2009-06-28T21:11:06Z</time>
      </trkpt>
      <trkpt lat="44.6670750" lon="-92.5891960">
        <ele>223.1600000</ele>
        <time>2009-06-28T21:11:07Z</time>
      </trkpt>
      <trkpt lat="44.6669290" lon="-92.5893680">
        <ele>224.1200000</ele>
        <time>2009-06-28T21:11:08Z</time>
      </trkpt>
      <trkpt lat="44.6656340" lon="-92.5911870">
        <ele>235.6600000</ele>
        <time>2009-06-28T21:11:17Z</time>
      </trkpt>
      <trkpt lat="44.6649270" lon="-92.5917820">
        <ele>235.1800000</ele>
        <time>2009-06-28T21:11:21Z</time>
      </trkpt>
      <trkpt lat="44.6647410" lon="-92.5918880">
        <ele>236.1400000</ele>
        <time>2009-06-28T21:11:22Z</time>
      </trkpt>
      <trkpt lat="44.6645560" lon="-92.5919820">
        <ele>236.6200000</ele>
        <time>2009-06-28T21:11:23Z</time>
      </trkpt>
      <trkpt lat="44.6624290" lon="-92.5925600">
        <ele>234.2200000</ele>
        <time>2009-06-28T21:11:33Z</time>
      </trkpt>
      <trkpt lat="44.6593750" lon="-92.5927130">
        <ele>228.9300000</ele>
        <time>2009-06-28T21:11:47Z</time>
      </trkpt>
      <trkpt lat="44.6578420" lon="-92.5926900">
        <ele>226.5300000</ele>
        <time>2009-06-28T21:11:54Z</time>
      </trkpt>
      <trkpt lat="44.6576390" lon="-92.5926130">
        <ele>224.6100000</ele>
        <time>2009-06-28T21:11:55Z</time>
      </trkpt>
      <trkpt lat="44.6574460" lon="-92.5924830">
        <ele>223.1600000</ele>
        <time>2009-06-28T21:11:56Z</time>
      </trkpt>
      <trkpt lat="44.6572380" lon="-92.5923410">
        <ele>221.7200000</ele>
        <time>2009-06-28T21:11:57Z</time>
      </trkpt>
      <trkpt lat="44.6570180" lon="-92.5921930">
        <ele>222.2000000</ele>
        <time>2009-06-28T21:11:58Z</time>
      </trkpt>
      <trkpt lat="44.6550650" lon="-92.5912650">
        <ele>220.2800000</ele>
        <time>2009-06-28T21:12:07Z</time>
      </trkpt>
      <trkpt lat="44.6504030" lon="-92.5900200">
        <ele>217.8800000</ele>
        <time>2009-06-28T21:12:28Z</time>
      </trkpt>
      <trkpt lat="44.6469570" lon="-92.5896430">
        <ele>219.3200000</ele>
        <time>2009-06-28T21:12:43Z</time>
      </trkpt>
      <trkpt lat="44.6454090" lon="-92.5890500">
        <ele>216.9100000</ele>
        <time>2009-06-28T21:12:50Z</time>
      </trkpt>
      <trkpt lat="44.6441520" lon="-92.5877700">
        <ele>213.5500000</ele>
        <time>2009-06-28T21:12:57Z</time>
      </trkpt>
      <trkpt lat="44.6422710" lon="-92.5850680">
        <ele>213.0700000</ele>
        <time>2009-06-28T21:13:09Z</time>
      </trkpt>
      <trkpt lat="44.6417340" lon="-92.5845800">
        <ele>213.5500000</ele>
        <time>2009-06-28T21:13:12Z</time>
      </trkpt>
      <trkpt lat="44.6415330" lon="-92.5844520">
        <ele>214.0300000</ele>
        <time>2009-06-28T21:13:13Z</time>
      </trkpt>
      <trkpt lat="44.6413240" lon="-92.5843690">
        <ele>214.0300000</ele>
        <time>2009-06-28T21:13:14Z</time>
      </trkpt>
      <trkpt lat="44.6390850" lon="-92.5836660">
        <ele>217.4000000</ele>
        <time>2009-06-28T21:13:24Z</time>
      </trkpt>
      <trkpt lat="44.6366750" lon="-92.5831590">
        <ele>225.0900000</ele>
        <time>2009-06-28T21:13:35Z</time>
      </trkpt>
      <trkpt lat="44.6364740" lon="-92.5830490">
        <ele>224.6100000</ele>
        <time>2009-06-28T21:13:36Z</time>
      </trkpt>
      <trkpt lat="44.6362790" lon="-92.5828930">
        <ele>224.6100000</ele>
        <time>2009-06-28T21:13:37Z</time>
      </trkpt>
      <trkpt lat="44.6360820" lon="-92.5827350">
        <ele>223.6400000</ele>
        <time>2009-06-28T21:13:38Z</time>
      </trkpt>
      <trkpt lat="44.6359030" lon="-92.5825430">
        <ele>223.1600000</ele>
        <time>2009-06-28T21:13:39Z</time>
      </trkpt>
      <trkpt lat="44.6357200" lon="-92.5823450">
        <ele>222.2000000</ele>
        <time>2009-06-28T21:13:40Z</time>
      </trkpt>
      <trkpt lat="44.6327010" lon="-92.5791240">
        <ele>212.5900000</ele>
        <time>2009-06-28T21:13:57Z</time>
      </trkpt>
      <trkpt lat="44.6325110" lon="-92.5790080">
        <ele>212.5900000</ele>
        <time>2009-06-28T21:13:58Z</time>
      </trkpt>
      <trkpt lat="44.6323010" lon="-92.5789320">
        <ele>213.5500000</ele>
        <time>2009-06-28T21:13:59Z</time>
      </trkpt>
      <trkpt lat="44.6320950" lon="-92.5788660">
        <ele>214.0300000</ele>
        <time>2009-06-28T21:14:00Z</time>
      </trkpt>
      <trkpt lat="44.6318750" lon="-92.5788380">
        <ele>214.0300000</ele>
        <time>2009-06-28T21:14:01Z</time>
      </trkpt>
      <trkpt lat="44.6316700" lon="-92.5788620">
        <ele>214.5100000</ele>
        <time>2009-06-28T21:14:02Z</time>
      </trkpt>
      <trkpt lat="44.6314450" lon="-92.5789300">
        <ele>215.4700000</ele>
        <time>2009-06-28T21:14:03Z</time>
      </trkpt>
      <trkpt lat="44.6312330" lon="-92.5790620">
        <ele>216.9100000</ele>
        <time>2009-06-28T21:14:04Z</time>
      </trkpt>
      <trkpt lat="44.6310110" lon="-92.5792500">
        <ele>216.4300000</ele>
        <time>2009-06-28T21:14:05Z</time>
      </trkpt>
      <trkpt lat="44.6307990" lon="-92.5794300">
        <ele>215.9500000</ele>
        <time>2009-06-28T21:14:06Z</time>
      </trkpt>
      <trkpt lat="44.6281700" lon="-92.5817270">
        <ele>215.9500000</ele>
        <time>2009-06-28T21:14:20Z</time>
      </trkpt>
      <trkpt lat="44.6273390" lon="-92.5825880">
        <ele>218.3600000</ele>
        <time>2009-06-28T21:14:27Z</time>
      </trkpt>
      <trkpt lat="44.6273600" lon="-92.5826710">
        <ele>222.2000000</ele>
        <time>2009-06-28T21:14:31Z</time>
      </trkpt>
      <trkpt lat="44.6274050" lon="-92.5827530">
        <ele>222.6800000</ele>
        <time>2009-06-28T21:14:32Z</time>
      </trkpt>
      <trkpt lat="44.6274600" lon="-92.5828530">
        <ele>222.6800000</ele>
        <time>2009-06-28T21:14:33Z</time>
      </trkpt>
      <trkpt lat="44.6275220" lon="-92.5829680">
        <ele>222.6800000</ele>
        <time>2009-06-28T21:14:34Z</time>
      </trkpt>
      <trkpt lat="44.6275900" lon="-92.5830920">
        <ele>223.1600000</ele>
        <time>2009-06-28T21:14:35Z</time>
      </trkpt>
      <trkpt lat="44.6281790" lon="-92.5841710">
        <ele>228.9300000</ele>
        <time>2009-06-28T21:14:41Z</time>
      </trkpt>
      <trkpt lat="44.6292790" lon="-92.5860460">
        <ele>233.7400000</ele>
        <time>2009-06-28T21:14:49Z</time>
      </trkpt>
      <trkpt lat="44.6311210" lon="-92.5885440">
        <ele>231.8100000</ele>
        <time>2009-06-28T21:15:00Z</time>
      </trkpt>
      <trkpt lat="44.6334020" lon="-92.5907780">
        <ele>232.3000000</ele>
        <time>2009-06-28T21:15:12Z</time>
      </trkpt>
      <trkpt lat="44.6367740" lon="-92.5942020">
        <ele>232.3000000</ele>
        <time>2009-06-28T21:15:30Z</time>
      </trkpt>
      <trkpt lat="44.6385170" lon="-92.5967720">
        <ele>230.3700000</ele>
        <time>2009-06-28T21:15:41Z</time>
      </trkpt>
      <trkpt lat="44.6415540" lon="-92.6016680">
        <ele>235.1800000</ele>
        <time>2009-06-28T21:16:01Z</time>
      </trkpt>
      <trkpt lat="44.6427900" lon="-92.6048140">
        <ele>229.8900000</ele>
        <time>2009-06-28T21:16:12Z</time>
      </trkpt>
      <trkpt lat="44.6446480" lon="-92.6107590">
        <ele>224.1200000</ele>
        <time>2009-06-28T21:16:32Z</time>
      </trkpt>
      <trkpt lat="44.6454850" lon="-92.6144360">
        <ele>227.0100000</ele>
        <time>2009-06-28T21:16:44Z</time>
      </trkpt>
      <trkpt lat="44.6473490" lon="-92.6202210">
        <ele>226.5300000</ele>
        <time>2009-06-28T21:17:04Z</time>
      </trkpt>
      <trkpt lat="44.6488130" lon="-92.6246830">
        <ele>224.1200000</ele>
        <time>2009-06-28T21:17:22Z</time>
      </trkpt>
      <trkpt lat="44.6503130" lon="-92.6290360">
        <ele>224.1200000</ele>
        <time>2009-06-28T21:17:39Z</time>
      </trkpt>
      <trkpt lat="44.6515710" lon="-92.6321710">
        <ele>223.6400000</ele>
        <time>2009-06-28T21:17:54Z</time>
      </trkpt>
      <trkpt lat="44.6528470" lon="-92.6344420">
        <ele>226.0500000</ele>
        <time>2009-06-28T21:18:05Z</time>
      </trkpt>
      <trkpt lat="44.6540430" lon="-92.6353930">
        <ele>229.8900000</ele>
        <time>2009-06-28T21:18:13Z</time>
      </trkpt>
      <trkpt lat="44.6554280" lon="-92.6356900">
        <ele>234.7000000</ele>
        <time>2009-06-28T21:18:21Z</time>
      </trkpt>
      <trkpt lat="44.6584250" lon="-92.6356900">
        <ele>232.7800000</ele>
        <time>2009-06-28T21:18:36Z</time>
      </trkpt>
      <trkpt lat="44.6601060" lon="-92.6358010">
        <ele>236.1400000</ele>
        <time>2009-06-28T21:18:43Z</time>
      </trkpt>
      <trkpt lat="44.6612630" lon="-92.6366110">
        <ele>232.3000000</ele>
        <time>2009-06-28T21:18:48Z</time>
      </trkpt>
      <trkpt lat="44.6632970" lon="-92.6384840">
        <ele>238.5400000</ele>
        <time>2009-06-28T21:18:58Z</time>
      </trkpt>
      <trkpt lat="44.6671720" lon="-92.6419580">
        <ele>251.0400000</ele>
        <time>2009-06-28T21:19:18Z</time>
      </trkpt>
      <trkpt lat="44.6704350" lon="-92.6449920">
        <ele>276.5200000</ele>
        <time>2009-06-28T21:19:35Z</time>
      </trkpt>
      <trkpt lat="44.6723020" lon="-92.6461960">
        <ele>290.4600000</ele>
        <time>2009-06-28T21:19:44Z</time>
      </trkpt>
      <trkpt lat="44.6731960" lon="-92.6464980">
        <ele>299.5900000</ele>
        <time>2009-06-28T21:19:48Z</time>
      </trkpt>
      <trkpt lat="44.6734280" lon="-92.6464810">
        <ele>302.4700000</ele>
        <time>2009-06-28T21:19:49Z</time>
      </trkpt>
      <trkpt lat="44.6736560" lon="-92.6464630">
        <ele>305.3600000</ele>
        <time>2009-06-28T21:19:50Z</time>
      </trkpt>
      <trkpt lat="44.6738800" lon="-92.6464100">
        <ele>308.2400000</ele>
        <time>2009-06-28T21:19:51Z</time>
      </trkpt>
      <trkpt lat="44.6741010" lon="-92.6463380">
        <ele>310.1600000</ele>
        <time>2009-06-28T21:19:52Z</time>
      </trkpt>
      <trkpt lat="44.6743240" lon="-92.6462390">
        <ele>312.0900000</ele>
        <time>2009-06-28T21:19:53Z</time>
      </trkpt>
      <trkpt lat="44.6745370" lon="-92.6461160">
        <ele>313.5300000</ele>
        <time>2009-06-28T21:19:54Z</time>
      </trkpt>
      <trkpt lat="44.6747480" lon="-92.6459770">
        <ele>314.9700000</ele>
        <time>2009-06-28T21:19:55Z</time>
      </trkpt>
      <trkpt lat="44.6769320" lon="-92.6449880">
        <ele>322.6600000</ele>
        <time>2009-06-28T21:20:05Z</time>
      </trkpt>
      <trkpt lat="44.6813220" lon="-92.6443130">
        <ele>318.3300000</ele>
        <time>2009-06-28T21:20:24Z</time>
      </trkpt>
      <trkpt lat="44.6857370" lon="-92.6440720">
        <ele>328.9100000</ele>
        <time>2009-06-28T21:20:43Z</time>
      </trkpt>
      <trkpt lat="44.6870170" lon="-92.6433520">
        <ele>319.3000000</ele>
        <time>2009-06-28T21:20:49Z</time>
      </trkpt>
      <trkpt lat="44.6886930" lon="-92.6425990">
        <ele>314.9700000</ele>
        <time>2009-06-28T21:20:57Z</time>
      </trkpt>
      <trkpt lat="44.6901220" lon="-92.6427880">
        <ele>317.3700000</ele>
        <time>2009-06-28T21:21:03Z</time>
      </trkpt>
      <trkpt lat="44.6916410" lon="-92.6436380">
        <ele>319.3000000</ele>
        <time>2009-06-28T21:21:10Z</time>
      </trkpt>
      <trkpt lat="44.6932160" lon="-92.6441050">
        <ele>317.3700000</ele>
        <time>2009-06-28T21:21:17Z</time>
      </trkpt>
      <trkpt lat="44.6969150" lon="-92.6441600">
        <ele>333.7100000</ele>
        <time>2009-06-28T21:21:33Z</time>
      </trkpt>
      <trkpt lat="44.7024830" lon="-92.6443380">
        <ele>338.5200000</ele>
        <time>2009-06-28T21:21:57Z</time>
      </trkpt>
      <trkpt lat="44.7040160" lon="-92.6449660">
        <ele>338.5200000</ele>
        <time>2009-06-28T21:22:04Z</time>
      </trkpt>
      <trkpt lat="44.7053340" lon="-92.6462180">
        <ele>338.5200000</ele>
        <time>2009-06-28T21:22:11Z</time>
      </trkpt>
      <trkpt lat="44.7063630" lon="-92.6479170">
        <ele>336.1200000</ele>
        <time>2009-06-28T21:22:18Z</time>
      </trkpt>
      <trkpt lat="44.7069590" lon="-92.6500350">
        <ele>332.2700000</ele>
        <time>2009-06-28T21:22:25Z</time>
      </trkpt>
      <trkpt lat="44.7070760" lon="-92.6526360">
        <ele>333.7100000</ele>
        <time>2009-06-28T21:22:33Z</time>
      </trkpt>
      <trkpt lat="44.7072540" lon="-92.6594750">
        <ele>324.1000000</ele>
        <time>2009-06-28T21:22:54Z</time>
      </trkpt>
      <trkpt lat="44.7073070" lon="-92.6597760">
        <ele>323.1400000</ele>
        <time>2009-06-28T21:22:55Z</time>
      </trkpt>
      <trkpt lat="44.7074050" lon="-92.6600690">
        <ele>321.7000000</ele>
        <time>2009-06-28T21:22:56Z</time>
      </trkpt>
      <trkpt lat="44.7075030" lon="-92.6603630">
        <ele>320.7400000</ele>
        <time>2009-06-28T21:22:57Z</time>
      </trkpt>
      <trkpt lat="44.7076220" lon="-92.6606220">
        <ele>319.3000000</ele>
        <time>2009-06-28T21:22:58Z</time>
      </trkpt>
      <trkpt lat="44.7077590" lon="-92.6608850">
        <ele>318.3300000</ele>
        <time>2009-06-28T21:22:59Z</time>
      </trkpt>
      <trkpt lat="44.7078970" lon="-92.6611480">
        <ele>316.8900000</ele>
        <time>2009-06-28T21:23:00Z</time>
      </trkpt>
      <trkpt lat="44.7080340" lon="-92.6614090">
        <ele>315.4500000</ele>
        <time>2009-06-28T21:23:01Z</time>
      </trkpt>
      <trkpt lat="44.7088260" lon="-92.6633950">
        <ele>304.8800000</ele>
        <time>2009-06-28T21:23:08Z</time>
      </trkpt>
      <trkpt lat="44.7091860" lon="-92.6645960">
        <ele>298.6300000</ele>
        <time>2009-06-28T21:23:12Z</time>
      </trkpt>
      <trkpt lat="44.7093170" lon="-92.6648470">
        <ele>297.1800000</ele>
        <time>2009-06-28T21:23:13Z</time>
      </trkpt>
      <trkpt lat="44.7094640" lon="-92.6651000">
        <ele>295.2600000</ele>
        <time>2009-06-28T21:23:14Z</time>
      </trkpt>
      <trkpt lat="44.7096290" lon="-92.6653080">
        <ele>293.3400000</ele>
        <time>2009-06-28T21:23:15Z</time>
      </trkpt>
      <trkpt lat="44.7098150" lon="-92.6655120">
        <ele>291.4200000</ele>
        <time>2009-06-28T21:23:16Z</time>
      </trkpt>
      <trkpt lat="44.7100020" lon="-92.6657030">
        <ele>289.4900000</ele>
        <time>2009-06-28T21:23:17Z</time>
      </trkpt>
      <trkpt lat="44.7102000" lon="-92.6658760">
        <ele>288.0500000</ele>
        <time>2009-06-28T21:23:18Z</time>
      </trkpt>
      <trkpt lat="44.7120720" lon="-92.6672940">
        <ele>271.2300000</ele>
        <time>2009-06-28T21:23:27Z</time>
      </trkpt>
      <trkpt lat="44.7127000" lon="-92.6677650">
        <ele>265.9400000</ele>
        <time>2009-06-28T21:23:30Z</time>
      </trkpt>
      <trkpt lat="44.7128770" lon="-92.6679650">
        <ele>264.5000000</ele>
        <time>2009-06-28T21:23:31Z</time>
      </trkpt>
      <trkpt lat="44.7130120" lon="-92.6682340">
        <ele>262.5800000</ele>
        <time>2009-06-28T21:23:32Z</time>
      </trkpt>
      <trkpt lat="44.7131500" lon="-92.6685020">
        <ele>261.1400000</ele>
        <time>2009-06-28T21:23:33Z</time>
      </trkpt>
      <trkpt lat="44.7132880" lon="-92.6687680">
        <ele>259.6900000</ele>
        <time>2009-06-28T21:23:34Z</time>
      </trkpt>
      <trkpt lat="44.7134250" lon="-92.6690330">
        <ele>258.2500000</ele>
        <time>2009-06-28T21:23:35Z</time>
      </trkpt>
      <trkpt lat="44.7145730" lon="-92.6706230">
        <ele>249.1200000</ele>
        <time>2009-06-28T21:23:42Z</time>
      </trkpt>
      <trkpt lat="44.7161460" lon="-92.6719910">
        <ele>245.7500000</ele>
        <time>2009-06-28T21:23:50Z</time>
      </trkpt>
      <trkpt lat="44.7194600" lon="-92.6742240">
        <ele>243.3500000</ele>
        <time>2009-06-28T21:24:06Z</time>
      </trkpt>
      <trkpt lat="44.7196210" lon="-92.6744540">
        <ele>244.3100000</ele>
        <time>2009-06-28T21:24:07Z</time>
      </trkpt>
      <trkpt lat="44.7197790" lon="-92.6746850">
        <ele>245.2700000</ele>
        <time>2009-06-28T21:24:08Z</time>
      </trkpt>
      <trkpt lat="44.7199190" lon="-92.6749420">
        <ele>247.2000000</ele>
        <time>2009-06-28T21:24:09Z</time>
      </trkpt>
      <trkpt lat="44.7200450" lon="-92.6752010">
        <ele>249.6000000</ele>
        <time>2009-06-28T21:24:10Z</time>
      </trkpt>
      <trkpt lat="44.7201420" lon="-92.6754930">
        <ele>250.5600000</ele>
        <time>2009-06-28T21:24:11Z</time>
      </trkpt>
      <trkpt lat="44.7202140" lon="-92.6757860">
        <ele>251.5200000</ele>
        <time>2009-06-28T21:24:12Z</time>
      </trkpt>
      <trkpt lat="44.7202630" lon="-92.6761060">
        <ele>252.4800000</ele>
        <time>2009-06-28T21:24:13Z</time>
      </trkpt>
      <trkpt lat="44.7203130" lon="-92.6764270">
        <ele>253.4400000</ele>
        <time>2009-06-28T21:24:14Z</time>
      </trkpt>
      <trkpt lat="44.7203620" lon="-92.6767450">
        <ele>254.8900000</ele>
        <time>2009-06-28T21:24:15Z</time>
      </trkpt>
      <trkpt lat="44.7203700" lon="-92.6770610">
        <ele>255.8500000</ele>
        <time>2009-06-28T21:24:16Z</time>
      </trkpt>
      <trkpt lat="44.7203760" lon="-92.6773900">
        <ele>257.2900000</ele>
        <time>2009-06-28T21:24:17Z</time>
      </trkpt>
      <trkpt lat="44.7207480" lon="-92.6818950">
        <ele>281.3200000</ele>
        <time>2009-06-28T21:24:31Z</time>
      </trkpt>
      <trkpt lat="44.7216940" lon="-92.6858540">
        <ele>305.3600000</ele>
        <time>2009-06-28T21:24:44Z</time>
      </trkpt>
      <trkpt lat="44.7230010" lon="-92.6900580">
        <ele>304.3900000</ele>
        <time>2009-06-28T21:24:58Z</time>
      </trkpt>
      <trkpt lat="44.7246290" lon="-92.6932090">
        <ele>301.5100000</ele>
        <time>2009-06-28T21:25:10Z</time>
      </trkpt>
      <trkpt lat="44.7260900" lon="-92.6964920">
        <ele>307.2800000</ele>
        <time>2009-06-28T21:25:22Z</time>
      </trkpt>
      <trkpt lat="44.7271530" lon="-92.6993560">
        <ele>297.1800000</ele>
        <time>2009-06-28T21:25:32Z</time>
      </trkpt>
      <trkpt lat="44.7282320" lon="-92.7010130">
        <ele>296.2200000</ele>
        <time>2009-06-28T21:25:39Z</time>
      </trkpt>
      <trkpt lat="44.7287030" lon="-92.7028120">
        <ele>301.5100000</ele>
        <time>2009-06-28T21:25:45Z</time>
      </trkpt>
      <trkpt lat="44.7287330" lon="-92.7050870">
        <ele>309.2000000</ele>
        <time>2009-06-28T21:25:52Z</time>
      </trkpt>
      <trkpt lat="44.7287330" lon="-92.7139110">
        <ele>298.1500000</ele>
        <time>2009-06-28T21:26:19Z</time>
      </trkpt>
      <trkpt lat="44.7286950" lon="-92.7220440">
        <ele>292.3800000</ele>
        <time>2009-06-28T21:26:44Z</time>
      </trkpt>
      <trkpt lat="44.7283770" lon="-92.7252320">
        <ele>281.3200000</ele>
        <time>2009-06-28T21:26:54Z</time>
      </trkpt>
      <trkpt lat="44.7275310" lon="-92.7292980">
        <ele>254.8900000</ele>
        <time>2009-06-28T21:27:07Z</time>
      </trkpt>
      <trkpt lat="44.7276470" lon="-92.7315650">
        <ele>244.3100000</ele>
        <time>2009-06-28T21:27:14Z</time>
      </trkpt>
      <trkpt lat="44.7284320" lon="-92.7366310">
        <ele>233.2600000</ele>
        <time>2009-06-28T21:27:30Z</time>
      </trkpt>
      <trkpt lat="44.7282330" lon="-92.7385410">
        <ele>232.3000000</ele>
        <time>2009-06-28T21:27:36Z</time>
      </trkpt>
      <trkpt lat="44.7275670" lon="-92.7402200">
        <ele>230.3700000</ele>
        <time>2009-06-28T21:27:42Z</time>
      </trkpt>
      <trkpt lat="44.7258010" lon="-92.7428250">
        <ele>226.5300000</ele>
        <time>2009-06-28T21:27:53Z</time>
      </trkpt>
      <trkpt lat="44.7246000" lon="-92.7443430">
        <ele>227.0100000</ele>
        <time>2009-06-28T21:28:00Z</time>
      </trkpt>
      <trkpt lat="44.7244740" lon="-92.7446120">
        <ele>227.4900000</ele>
        <time>2009-06-28T21:28:01Z</time>
      </trkpt>
      <trkpt lat="44.7243610" lon="-92.7448950">
        <ele>227.9700000</ele>
        <time>2009-06-28T21:28:02Z</time>
      </trkpt>
      <trkpt lat="44.7243170" lon="-92.7451930">
        <ele>227.9700000</ele>
        <time>2009-06-28T21:28:03Z</time>
      </trkpt>
      <trkpt lat="44.7242730" lon="-92.7455100">
        <ele>227.9700000</ele>
        <time>2009-06-28T21:28:04Z</time>
      </trkpt>
      <trkpt lat="44.7242290" lon="-92.7458350">
        <ele>227.9700000</ele>
        <time>2009-06-28T21:28:05Z</time>
      </trkpt>
      <trkpt lat="44.7242400" lon="-92.7461440">
        <ele>227.0100000</ele>
        <time>2009-06-28T21:28:06Z</time>
      </trkpt>
      <trkpt lat="44.7242550" lon="-92.7464790">
        <ele>226.5300000</ele>
        <time>2009-06-28T21:28:07Z</time>
      </trkpt>
      <trkpt lat="44.7242690" lon="-92.7467980">
        <ele>225.0900000</ele>
        <time>2009-06-28T21:28:08Z</time>
      </trkpt>
      <trkpt lat="44.7243540" lon="-92.7470940">
        <ele>224.6100000</ele>
        <time>2009-06-28T21:28:09Z</time>
      </trkpt>
      <trkpt lat="44.7244420" lon="-92.7474000">
        <ele>223.6400000</ele>
        <time>2009-06-28T21:28:10Z</time>
      </trkpt>
      <trkpt lat="44.7245270" lon="-92.7476990">
        <ele>221.7200000</ele>
        <time>2009-06-28T21:28:11Z</time>
      </trkpt>
      <trkpt lat="44.7246460" lon="-92.7479670">
        <ele>220.7600000</ele>
        <time>2009-06-28T21:28:12Z</time>
      </trkpt>
      <trkpt lat="44.7247890" lon="-92.7482000">
        <ele>219.3200000</ele>
        <time>2009-06-28T21:28:13Z</time>
      </trkpt>
      <trkpt lat="44.7249670" lon="-92.7484290">
        <ele>219.8000000</ele>
        <time>2009-06-28T21:28:14Z</time>
      </trkpt>
      <trkpt lat="44.7251430" lon="-92.7486530">
        <ele>219.3200000</ele>
        <time>2009-06-28T21:28:15Z</time>
      </trkpt>
      <trkpt lat="44.7253180" lon="-92.7488760">
        <ele>218.8400000</ele>
        <time>2009-06-28T21:28:16Z</time>
      </trkpt>
      <trkpt lat="44.7259820" lon="-92.7501860">
        <ele>218.8400000</ele>
        <time>2009-06-28T21:28:21Z</time>
      </trkpt>
      <trkpt lat="44.7260510" lon="-92.7504900">
        <ele>218.3600000</ele>
        <time>2009-06-28T21:28:22Z</time>
      </trkpt>
      <trkpt lat="44.7261050" lon="-92.7508140">
        <ele>218.3600000</ele>
        <time>2009-06-28T21:28:23Z</time>
      </trkpt>
      <trkpt lat="44.7261150" lon="-92.7511280">
        <ele>217.8800000</ele>
        <time>2009-06-28T21:28:24Z</time>
      </trkpt>
      <trkpt lat="44.7261140" lon="-92.7514470">
        <ele>218.3600000</ele>
        <time>2009-06-28T21:28:25Z</time>
      </trkpt>
      <trkpt lat="44.7260870" lon="-92.7517740">
        <ele>218.3600000</ele>
        <time>2009-06-28T21:28:26Z</time>
      </trkpt>
      <trkpt lat="44.7260610" lon="-92.7521000">
        <ele>218.3600000</ele>
        <time>2009-06-28T21:28:27Z</time>
      </trkpt>
      <trkpt lat="44.7260340" lon="-92.7524280">
        <ele>218.3600000</ele>
        <time>2009-06-28T21:28:28Z</time>
      </trkpt>
      <trkpt lat="44.7260190" lon="-92.7534160">
        <ele>219.8000000</ele>
        <time>2009-06-28T21:28:31Z</time>
      </trkpt>
      <trkpt lat="44.7260630" lon="-92.7537390">
        <ele>219.8000000</ele>
        <time>2009-06-28T21:28:32Z</time>
      </trkpt>
      <trkpt lat="44.7261190" lon="-92.7540600">
        <ele>219.8000000</ele>
        <time>2009-06-28T21:28:33Z</time>
      </trkpt>
      <trkpt lat="44.7262380" lon="-92.7543370">
        <ele>219.8000000</ele>
        <time>2009-06-28T21:28:34Z</time>
      </trkpt>
      <trkpt lat="44.7263580" lon="-92.7546180">
        <ele>219.8000000</ele>
        <time>2009-06-28T21:28:35Z</time>
      </trkpt>
      <trkpt lat="44.7264780" lon="-92.7548980">
        <ele>219.3200000</ele>
        <time>2009-06-28T21:28:36Z</time>
      </trkpt>
      <trkpt lat="44.7266080" lon="-92.7551650">
        <ele>218.3600000</ele>
        <time>2009-06-28T21:28:37Z</time>
      </trkpt>
      <trkpt lat="44.7284630" lon="-92.7585090">
        <ele>219.8000000</ele>
        <time>2009-06-28T21:28:50Z</time>
      </trkpt>
      <trkpt lat="44.7302370" lon="-92.7612710">
        <ele>236.1400000</ele>
        <time>2009-06-28T21:29:02Z</time>
      </trkpt>
      <trkpt lat="44.7317230" lon="-92.7639650">
        <ele>248.6400000</ele>
        <time>2009-06-28T21:29:15Z</time>
      </trkpt>
      <trkpt lat="44.7335290" lon="-92.7664350">
        <ele>255.8500000</ele>
        <time>2009-06-28T21:29:28Z</time>
      </trkpt>
      <trkpt lat="44.7352000" lon="-92.7685860">
        <ele>256.8100000</ele>
        <time>2009-06-28T21:29:38Z</time>
      </trkpt>
      <trkpt lat="44.7364500" lon="-92.7693840">
        <ele>251.5200000</ele>
        <time>2009-06-28T21:29:44Z</time>
      </trkpt>
      <trkpt lat="44.7383960" lon="-92.7703610">
        <ele>242.8700000</ele>
        <time>2009-06-28T21:29:53Z</time>
      </trkpt>
      <trkpt lat="44.7396010" lon="-92.7718540">
        <ele>238.5400000</ele>
        <time>2009-06-28T21:30:00Z</time>
      </trkpt>
      <trkpt lat="44.7413880" lon="-92.7739060">
        <ele>245.2700000</ele>
        <time>2009-06-28T21:30:10Z</time>
      </trkpt>
      <trkpt lat="44.7425470" lon="-92.7759210">
        <ele>248.6400000</ele>
        <time>2009-06-28T21:30:18Z</time>
      </trkpt>
      <trkpt lat="44.7431240" lon="-92.7779700">
        <ele>245.7500000</ele>
        <time>2009-06-28T21:30:25Z</time>
      </trkpt>
      <trkpt lat="44.7434440" lon="-92.7807510">
        <ele>239.9900000</ele>
        <time>2009-06-28T21:30:35Z</time>
      </trkpt>
      <trkpt lat="44.7438390" lon="-92.7849200">
        <ele>244.3100000</ele>
        <time>2009-06-28T21:30:51Z</time>
      </trkpt>
      <trkpt lat="44.7437960" lon="-92.7864700">
        <ele>249.6000000</ele>
        <time>2009-06-28T21:30:59Z</time>
      </trkpt>
      <trkpt lat="44.7437760" lon="-92.7894870">
        <ele>252.9600000</ele>
        <time>2009-06-28T21:31:17Z</time>
      </trkpt>
      <trkpt lat="44.7437580" lon="-92.7928310">
        <ele>250.5600000</ele>
        <time>2009-06-28T21:31:36Z</time>
      </trkpt>
      <trkpt lat="44.7440930" lon="-92.7946100">
        <ele>239.9900000</ele>
        <time>2009-06-28T21:31:45Z</time>
      </trkpt>
      <trkpt lat="44.7449210" lon="-92.7962140">
        <ele>233.2600000</ele>
        <time>2009-06-28T21:31:54Z</time>
      </trkpt>
      <trkpt lat="44.7461770" lon="-92.7981880">
        <ele>231.3300000</ele>
        <time>2009-06-28T21:32:07Z</time>
      </trkpt>
      <trkpt lat="44.7473780" lon="-92.7999210">
        <ele>229.8900000</ele>
        <time>2009-06-28T21:32:21Z</time>
      </trkpt>
      <trkpt lat="44.7481160" lon="-92.8009650">
        <ele>227.0100000</ele>
        <time>2009-06-28T21:32:32Z</time>
      </trkpt>
      <trkpt lat="44.7486310" lon="-92.8016920">
        <ele>225.5700000</ele>
        <time>2009-06-28T21:32:45Z</time>
      </trkpt>
      <trkpt lat="44.7493370" lon="-92.8026800">
        <ele>224.6100000</ele>
        <time>2009-06-28T21:32:58Z</time>
      </trkpt>
      <trkpt lat="44.7494300" lon="-92.8028110">
        <ele>222.6800000</ele>
        <time>2009-06-28T21:33:05Z</time>
      </trkpt>
      <trkpt lat="44.7495230" lon="-92.8029410">
        <ele>223.6400000</ele>
        <time>2009-06-28T21:34:24Z</time>
      </trkpt>
      <trkpt lat="44.7495540" lon="-92.8029890">
        <ele>223.1600000</ele>
        <time>2009-06-28T21:34:25Z</time>
      </trkpt>
      <trkpt lat="44.7495790" lon="-92.8030390">
        <ele>222.6800000</ele>
        <time>2009-06-28T21:34:26Z</time>
      </trkpt>
      <trkpt lat="44.7494650" lon="-92.8030760">
        <ele>222.2000000</ele>
        <time>2009-06-28T21:34:27Z</time>
      </trkpt>
      <trkpt lat="44.7493930" lon="-92.8031660">
        <ele>222.6800000</ele>
        <time>2009-06-28T21:34:28Z</time>
      </trkpt>
      <trkpt lat="44.7493160" lon="-92.8032920">
        <ele>222.6800000</ele>
        <time>2009-06-28T21:34:29Z</time>
      </trkpt>
      <trkpt lat="44.7492410" lon="-92.8034220">
        <ele>223.1600000</ele>
        <time>2009-06-28T21:34:30Z</time>
      </trkpt>
      <trkpt lat="44.7491710" lon="-92.8035770">
        <ele>223.1600000</ele>
        <time>2009-06-28T21:34:31Z</time>
      </trkpt>
      <trkpt lat="44.7491150" lon="-92.8037320">
        <ele>223.6400000</ele>
        <time>2009-06-28T21:34:32Z</time>
      </trkpt>
      <trkpt lat="44.7490550" lon="-92.8038960">
        <ele>223.6400000</ele>
        <time>2009-06-28T21:34:33Z</time>
      </trkpt>
      <trkpt lat="44.7482730" lon="-92.8063470">
        <ele>219.3200000</ele>
        <time>2009-06-28T21:34:46Z</time>
      </trkpt>
      <trkpt lat="44.7482350" lon="-92.8065870">
        <ele>218.8400000</ele>
        <time>2009-06-28T21:34:47Z</time>
      </trkpt>
      <trkpt lat="44.7482230" lon="-92.8068380">
        <ele>218.3600000</ele>
        <time>2009-06-28T21:34:48Z</time>
      </trkpt>
      <trkpt lat="44.7482360" lon="-92.8070940">
        <ele>218.3600000</ele>
        <time>2009-06-28T21:34:49Z</time>
      </trkpt>
      <trkpt lat="44.7482500" lon="-92.8073580">
        <ele>217.8800000</ele>
        <time>2009-06-28T21:34:50Z</time>
      </trkpt>
      <trkpt lat="44.7482790" lon="-92.8076180">
        <ele>217.8800000</ele>
        <time>2009-06-28T21:34:51Z</time>
      </trkpt>
      <trkpt lat="44.7483350" lon="-92.8078790">
        <ele>217.8800000</ele>
        <time>2009-06-28T21:34:52Z</time>
      </trkpt>
      <trkpt lat="44.7483920" lon="-92.8081420">
        <ele>217.8800000</ele>
        <time>2009-06-28T21:34:53Z</time>
      </trkpt>
      <trkpt lat="44.7491250" lon="-92.8115590">
        <ele>218.8400000</ele>
        <time>2009-06-28T21:35:07Z</time>
      </trkpt>
      <trkpt lat="44.7498410" lon="-92.8149280">
        <ele>222.6800000</ele>
        <time>2009-06-28T21:35:20Z</time>
      </trkpt>
      <trkpt lat="44.7506140" lon="-92.8176680">
        <ele>227.9700000</ele>
        <time>2009-06-28T21:35:31Z</time>
      </trkpt>
      <trkpt lat="44.7507400" lon="-92.8181120">
        <ele>227.4900000</ele>
        <time>2009-06-28T21:35:34Z</time>
      </trkpt>
      <trkpt lat="44.7507690" lon="-92.8182150">
        <ele>227.0100000</ele>
        <time>2009-06-28T21:35:35Z</time>
      </trkpt>
      <trkpt lat="44.7507820" lon="-92.8182640">
        <ele>226.5300000</ele>
        <time>2009-06-28T21:35:36Z</time>
      </trkpt>
      <trkpt lat="44.7510140" lon="-92.8181530">
        <ele>226.0500000</ele>
        <time>2009-06-28T21:35:37Z</time>
      </trkpt>
      <trkpt lat="44.7511230" lon="-92.8180870">
        <ele>226.0500000</ele>
        <time>2009-06-28T21:35:38Z</time>
      </trkpt>
      <trkpt lat="44.7511970" lon="-92.8179860">
        <ele>225.5700000</ele>
        <time>2009-06-28T21:35:39Z</time>
      </trkpt>
      <trkpt lat="44.7512200" lon="-92.8178750">
        <ele>225.0900000</ele>
        <time>2009-06-28T21:35:40Z</time>
      </trkpt>
      <trkpt lat="44.7512200" lon="-92.8176730">
        <ele>224.6100000</ele>
        <time>2009-06-28T21:35:41Z</time>
      </trkpt>
      <trkpt lat="44.7511940" lon="-92.8174990">
        <ele>224.1200000</ele>
        <time>2009-06-28T21:35:42Z</time>
      </trkpt>
      <trkpt lat="44.7511440" lon="-92.8172880">
        <ele>223.6400000</ele>
        <time>2009-06-28T21:35:43Z</time>
      </trkpt>
      <trkpt lat="44.7510910" lon="-92.8170670">
        <ele>223.6400000</ele>
        <time>2009-06-28T21:35:44Z</time>
      </trkpt>
      <trkpt lat="44.7510400" lon="-92.8168530">
        <ele>223.1600000</ele>
        <time>2009-06-28T21:35:45Z</time>
      </trkpt>
      <trkpt lat="44.7510150" lon="-92.8166320">
        <ele>223.1600000</ele>
        <time>2009-06-28T21:35:46Z</time>
      </trkpt>
      <trkpt lat="44.7510440" lon="-92.8164130">
        <ele>223.6400000</ele>
        <time>2009-06-28T21:35:47Z</time>
      </trkpt>
      <trkpt lat="44.7510740" lon="-92.8161870">
        <ele>223.1600000</ele>
        <time>2009-06-28T21:35:48Z</time>
      </trkpt>
      <trkpt lat="44.7511030" lon="-92.8159650">
        <ele>222.6800000</ele>
        <time>2009-06-28T21:35:49Z</time>
      </trkpt>
      <trkpt lat="44.7511310" lon="-92.8157460">
        <ele>222.6800000</ele>
        <time>2009-06-28T21:35:50Z</time>
      </trkpt>
      <trkpt lat="44.7512310" lon="-92.8155750">
        <ele>222.2000000</ele>
        <time>2009-06-28T21:35:51Z</time>
      </trkpt>
      <trkpt lat="44.7513260" lon="-92.8154510">
        <ele>221.7200000</ele>
        <time>2009-06-28T21:35:52Z</time>
      </trkpt>
      <trkpt lat="44.7514730" lon="-92.8153670">
        <ele>221.7200000</ele>
        <time>2009-06-28T21:35:53Z</time>
      </trkpt>
      <trkpt lat="44.7516170" lon="-92.8152870">
        <ele>221.7200000</ele>
        <time>2009-06-28T21:35:54Z</time>
      </trkpt>
      <trkpt lat="44.7517850" lon="-92.8152270">
        <ele>223.6400000</ele>
        <time>2009-06-28T21:35:55Z</time>
      </trkpt>
      <trkpt lat="44.7519490" lon="-92.8151680">
        <ele>223.6400000</ele>
        <time>2009-06-28T21:35:56Z</time>
      </trkpt>
      <trkpt lat="44.7521030" lon="-92.8151130">
        <ele>224.6100000</ele>
        <time>2009-06-28T21:35:57Z</time>
      </trkpt>
      <trkpt lat="44.7522610" lon="-92.8150800">
        <ele>226.0500000</ele>
        <time>2009-06-28T21:35:58Z</time>
      </trkpt>
      <trkpt lat="44.7524310" lon="-92.8150910">
        <ele>226.5300000</ele>
        <time>2009-06-28T21:35:59Z</time>
      </trkpt>
      <trkpt lat="44.7526010" lon="-92.8151020">
        <ele>226.0500000</ele>
        <time>2009-06-28T21:36:00Z</time>
      </trkpt>
      <trkpt lat="44.7531080" lon="-92.8151560">
        <ele>227.4900000</ele>
        <time>2009-06-28T21:36:03Z</time>
      </trkpt>
      <trkpt lat="44.7532530" lon="-92.8153400">
        <ele>229.4100000</ele>
        <time>2009-06-28T21:36:04Z</time>
      </trkpt>
      <trkpt lat="44.7533380" lon="-92.8155140">
        <ele>231.3300000</ele>
        <time>2009-06-28T21:36:05Z</time>
      </trkpt>
      <trkpt lat="44.7534020" lon="-92.8157310">
        <ele>233.2600000</ele>
        <time>2009-06-28T21:36:06Z</time>
      </trkpt>
      <trkpt lat="44.7534710" lon="-92.8159650">
        <ele>235.6600000</ele>
        <time>2009-06-28T21:36:07Z</time>
      </trkpt>
      <trkpt lat="44.7535450" lon="-92.8162170">
        <ele>238.0600000</ele>
        <time>2009-06-28T21:36:08Z</time>
      </trkpt>
      <trkpt lat="44.7536180" lon="-92.8164660">
        <ele>239.5100000</ele>
        <time>2009-06-28T21:36:09Z</time>
      </trkpt>
      <trkpt lat="44.7537640" lon="-92.8169330">
        <ele>242.8700000</ele>
        <time>2009-06-28T21:36:11Z</time>
      </trkpt>
      <trkpt lat="44.7538950" lon="-92.8170640">
        <ele>243.8300000</ele>
        <time>2009-06-28T21:36:12Z</time>
      </trkpt>
      <trkpt lat="44.7540430" lon="-92.8171230">
        <ele>244.3100000</ele>
        <time>2009-06-28T21:36:13Z</time>
      </trkpt>
      <trkpt lat="44.7542330" lon="-92.8171360">
        <ele>243.8300000</ele>
        <time>2009-06-28T21:36:14Z</time>
      </trkpt>
      <trkpt lat="44.7544410" lon="-92.8171360">
        <ele>243.3500000</ele>
        <time>2009-06-28T21:36:15Z</time>
      </trkpt>
      <trkpt lat="44.7567280" lon="-92.8171500">
        <ele>247.6800000</ele>
        <time>2009-06-28T21:36:25Z</time>
      </trkpt>
      <trkpt lat="44.7608800" lon="-92.8172510">
        <ele>253.4400000</ele>
        <time>2009-06-28T21:36:43Z</time>
      </trkpt>
      <trkpt lat="44.7657400" lon="-92.8173690">
        <ele>248.6400000</ele>
        <time>2009-06-28T21:37:04Z</time>
      </trkpt>
      <trkpt lat="44.7696860" lon="-92.8174220">
        <ele>249.1200000</ele>
        <time>2009-06-28T21:37:21Z</time>
      </trkpt>
      <trkpt lat="44.7738540" lon="-92.8174310">
        <ele>258.2500000</ele>
        <time>2009-06-28T21:37:39Z</time>
      </trkpt>
      <trkpt lat="44.7772780" lon="-92.8171880">
        <ele>260.1700000</ele>
        <time>2009-06-28T21:37:54Z</time>
      </trkpt>
      <trkpt lat="44.7784400" lon="-92.8161800">
        <ele>262.5800000</ele>
        <time>2009-06-28T21:38:00Z</time>
      </trkpt>
      <trkpt lat="44.7810120" lon="-92.8128570">
        <ele>249.1200000</ele>
        <time>2009-06-28T21:38:15Z</time>
      </trkpt>
      <trkpt lat="44.7834050" lon="-92.8103140">
        <ele>247.2000000</ele>
        <time>2009-06-28T21:38:28Z</time>
      </trkpt>
      <trkpt lat="44.7865880" lon="-92.8074040">
        <ele>249.6000000</ele>
        <time>2009-06-28T21:38:45Z</time>
      </trkpt>
      <trkpt lat="44.7877590" lon="-92.8070440">
        <ele>249.6000000</ele>
        <time>2009-06-28T21:38:52Z</time>
      </trkpt>
      <trkpt lat="44.7905300" lon="-92.8067680">
        <ele>253.9300000</ele>
        <time>2009-06-28T21:39:08Z</time>
      </trkpt>
      <trkpt lat="44.7920140" lon="-92.8066820">
        <ele>251.5200000</ele>
        <time>2009-06-28T21:39:15Z</time>
      </trkpt>
      <trkpt lat="44.7940540" lon="-92.8065630">
        <ele>252.0000000</ele>
        <time>2009-06-28T21:39:22Z</time>
      </trkpt>
      <trkpt lat="44.7966270" lon="-92.8064380">
        <ele>255.3700000</ele>
        <time>2009-06-28T21:39:32Z</time>
      </trkpt>
      <trkpt lat="44.8003710" lon="-92.8063150">
        <ele>255.3700000</ele>
        <time>2009-06-28T21:39:48Z</time>
      </trkpt>
      <trkpt lat="44.8047500" lon="-92.8061130">
        <ele>266.9000000</ele>
        <time>2009-06-28T21:40:07Z</time>
      </trkpt>
      <trkpt lat="44.8093640" lon="-92.8057780">
        <ele>272.1900000</ele>
        <time>2009-06-28T21:40:27Z</time>
      </trkpt>
      <trkpt lat="44.8106390" lon="-92.8050200">
        <ele>270.7500000</ele>
        <time>2009-06-28T21:40:33Z</time>
      </trkpt>
      <trkpt lat="44.8136790" lon="-92.8027290">
        <ele>273.6300000</ele>
        <time>2009-06-28T21:40:48Z</time>
      </trkpt>
      <trkpt lat="44.8152540" lon="-92.8022100">
        <ele>273.1500000</ele>
        <time>2009-06-28T21:40:55Z</time>
      </trkpt>
      <trkpt lat="44.8197980" lon="-92.8011210">
        <ele>270.7500000</ele>
        <time>2009-06-28T21:41:15Z</time>
      </trkpt>
      <trkpt lat="44.8245880" lon="-92.8000120">
        <ele>286.6100000</ele>
        <time>2009-06-28T21:41:36Z</time>
      </trkpt>
      <trkpt lat="44.8287220" lon="-92.7990690">
        <ele>287.0900000</ele>
        <time>2009-06-28T21:41:54Z</time>
      </trkpt>
      <trkpt lat="44.8303730" lon="-92.7990960">
        <ele>278.4400000</ele>
        <time>2009-06-28T21:42:01Z</time>
      </trkpt>
      <trkpt lat="44.8310710" lon="-92.7988460">
        <ele>274.5900000</ele>
        <time>2009-06-28T21:42:04Z</time>
      </trkpt>
      <trkpt lat="44.8313060" lon="-92.7986630">
        <ele>271.7100000</ele>
        <time>2009-06-28T21:42:05Z</time>
      </trkpt>
      <trkpt lat="44.8315310" lon="-92.7984890">
        <ele>268.3500000</ele>
        <time>2009-06-28T21:42:06Z</time>
      </trkpt>
      <trkpt lat="44.8317550" lon="-92.7983150">
        <ele>264.0200000</ele>
        <time>2009-06-28T21:42:07Z</time>
      </trkpt>
      <trkpt lat="44.8319780" lon="-92.7981410">
        <ele>260.1700000</ele>
        <time>2009-06-28T21:42:08Z</time>
      </trkpt>
      <trkpt lat="44.8326690" lon="-92.7977260">
        <ele>252.0000000</ele>
        <time>2009-06-28T21:42:11Z</time>
      </trkpt>
      <trkpt lat="44.8329040" lon="-92.7976410">
        <ele>250.0800000</ele>
        <time>2009-06-28T21:42:12Z</time>
      </trkpt>
      <trkpt lat="44.8351770" lon="-92.7971420">
        <ele>244.7900000</ele>
        <time>2009-06-28T21:42:22Z</time>
      </trkpt>
      <trkpt lat="44.8369850" lon="-92.7971220">
        <ele>253.4400000</ele>
        <time>2009-06-28T21:42:30Z</time>
      </trkpt>
      <trkpt lat="44.8411280" lon="-92.7974600">
        <ele>279.8800000</ele>
        <time>2009-06-28T21:42:48Z</time>
      </trkpt>
      <trkpt lat="44.8452740" lon="-92.7977170">
        <ele>296.2200000</ele>
        <time>2009-06-28T21:43:06Z</time>
      </trkpt>
      <trkpt lat="44.8469190" lon="-92.7977100">
        <ele>298.1500000</ele>
        <time>2009-06-28T21:43:14Z</time>
      </trkpt>
      <trkpt lat="44.8477010" lon="-92.7976230">
        <ele>297.1800000</ele>
        <time>2009-06-28T21:43:20Z</time>
      </trkpt>
      <trkpt lat="44.8478520" lon="-92.7976070">
        <ele>298.1500000</ele>
        <time>2009-06-28T21:43:25Z</time>
      </trkpt>
      <trkpt lat="44.8484710" lon="-92.7975430">
        <ele>298.6300000</ele>
        <time>2009-06-28T21:43:31Z</time>
      </trkpt>
      <trkpt lat="44.8498830" lon="-92.7973980">
        <ele>301.9900000</ele>
        <time>2009-06-28T21:43:39Z</time>
      </trkpt>
      <trkpt lat="44.8517690" lon="-92.7974620">
        <ele>304.3900000</ele>
        <time>2009-06-28T21:43:48Z</time>
      </trkpt>
      <trkpt lat="44.8546150" lon="-92.7980080">
        <ele>299.1100000</ele>
        <time>2009-06-28T21:44:01Z</time>
      </trkpt>
      <trkpt lat="44.8582860" lon="-92.7987750">
        <ele>279.8800000</ele>
        <time>2009-06-28T21:44:17Z</time>
      </trkpt>
      <trkpt lat="44.8604220" lon="-92.7994800">
        <ele>267.3800000</ele>
        <time>2009-06-28T21:44:27Z</time>
      </trkpt>
      <trkpt lat="44.8606050" lon="-92.7996330">
        <ele>265.9400000</ele>
        <time>2009-06-28T21:44:28Z</time>
      </trkpt>
      <trkpt lat="44.8607560" lon="-92.7998100">
        <ele>264.5000000</ele>
        <time>2009-06-28T21:44:29Z</time>
      </trkpt>
      <trkpt lat="44.8608920" lon="-92.8000520">
        <ele>263.5400000</ele>
        <time>2009-06-28T21:44:30Z</time>
      </trkpt>
      <trkpt lat="44.8610190" lon="-92.8002950">
        <ele>262.5800000</ele>
        <time>2009-06-28T21:44:31Z</time>
      </trkpt>
      <trkpt lat="44.8611430" lon="-92.8005360">
        <ele>261.6200000</ele>
        <time>2009-06-28T21:44:32Z</time>
      </trkpt>
      <trkpt lat="44.8612700" lon="-92.8007790">
        <ele>259.6900000</ele>
        <time>2009-06-28T21:44:33Z</time>
      </trkpt>
      <trkpt lat="44.8614010" lon="-92.8010230">
        <ele>257.2900000</ele>
        <time>2009-06-28T21:44:34Z</time>
      </trkpt>
      <trkpt lat="44.8615520" lon="-92.8012230">
        <ele>254.8900000</ele>
        <time>2009-06-28T21:44:35Z</time>
      </trkpt>
      <trkpt lat="44.8617020" lon="-92.8013950">
        <ele>253.4400000</ele>
        <time>2009-06-28T21:44:36Z</time>
      </trkpt>
      <trkpt lat="44.8618680" lon="-92.8015370">
        <ele>251.0400000</ele>
        <time>2009-06-28T21:44:37Z</time>
      </trkpt>
      <trkpt lat="44.8620340" lon="-92.8016370">
        <ele>249.1200000</ele>
        <time>2009-06-28T21:44:38Z</time>
      </trkpt>
      <trkpt lat="44.8622160" lon="-92.8016950">
        <ele>247.2000000</ele>
        <time>2009-06-28T21:44:39Z</time>
      </trkpt>
      <trkpt lat="44.8624330" lon="-92.8017260">
        <ele>243.3500000</ele>
        <time>2009-06-28T21:44:40Z</time>
      </trkpt>
      <trkpt lat="44.8626440" lon="-92.8016700">
        <ele>240.9500000</ele>
        <time>2009-06-28T21:44:41Z</time>
      </trkpt>
      <trkpt lat="44.8628520" lon="-92.8016040">
        <ele>239.0200000</ele>
        <time>2009-06-28T21:44:42Z</time>
      </trkpt>
      <trkpt lat="44.8630720" lon="-92.8015340">
        <ele>238.5400000</ele>
        <time>2009-06-28T21:44:43Z</time>
      </trkpt>
      <trkpt lat="44.8649730" lon="-92.8012030">
        <ele>234.7000000</ele>
        <time>2009-06-28T21:44:52Z</time>
      </trkpt>
      <trkpt lat="44.8651800" lon="-92.8012670">
        <ele>234.2200000</ele>
        <time>2009-06-28T21:44:53Z</time>
      </trkpt>
      <trkpt lat="44.8668270" lon="-92.8016540">
        <ele>236.6200000</ele>
        <time>2009-06-28T21:45:01Z</time>
      </trkpt>
      <trkpt lat="44.8696610" lon="-92.8018280">
        <ele>251.0400000</ele>
        <time>2009-06-28T21:45:15Z</time>
      </trkpt>
      <trkpt lat="44.8723300" lon="-92.8018390">
        <ele>256.3300000</ele>
        <time>2009-06-28T21:45:28Z</time>
      </trkpt>
      <trkpt lat="44.8746310" lon="-92.8019310">
        <ele>263.5400000</ele>
        <time>2009-06-28T21:45:40Z</time>
      </trkpt>
      <trkpt lat="44.8763070" lon="-92.8013940">
        <ele>270.2700000</ele>
        <time>2009-06-28T21:45:49Z</time>
      </trkpt>
      <trkpt lat="44.8777680" lon="-92.8005850">
        <ele>277.0000000</ele>
        <time>2009-06-28T21:45:58Z</time>
      </trkpt>
      <trkpt lat="44.8791590" lon="-92.7995250">
        <ele>283.2500000</ele>
        <time>2009-06-28T21:46:07Z</time>
      </trkpt>
      <trkpt lat="44.8809710" lon="-92.7980460">
        <ele>287.0900000</ele>
        <time>2009-06-28T21:46:18Z</time>
      </trkpt>
      <trkpt lat="44.8832350" lon="-92.7961570">
        <ele>296.7000000</ele>
        <time>2009-06-28T21:46:32Z</time>
      </trkpt>
      <trkpt lat="44.8845040" lon="-92.7950390">
        <ele>287.0900000</ele>
        <time>2009-06-28T21:46:41Z</time>
      </trkpt>
      <trkpt lat="44.8846450" lon="-92.7949830">
        <ele>286.1300000</ele>
        <time>2009-06-28T21:46:42Z</time>
      </trkpt>
      <trkpt lat="44.8847850" lon="-92.7949490">
        <ele>285.1700000</ele>
        <time>2009-06-28T21:46:43Z</time>
      </trkpt>
      <trkpt lat="44.8849310" lon="-92.7949490">
        <ele>283.7300000</ele>
        <time>2009-06-28T21:46:44Z</time>
      </trkpt>
      <trkpt lat="44.8850750" lon="-92.7949490">
        <ele>282.7700000</ele>
        <time>2009-06-28T21:46:45Z</time>
      </trkpt>
      <trkpt lat="44.8854940" lon="-92.7948760">
        <ele>278.9200000</ele>
        <time>2009-06-28T21:46:48Z</time>
      </trkpt>
      <trkpt lat="44.8856330" lon="-92.7948150">
        <ele>278.4400000</ele>
        <time>2009-06-28T21:46:49Z</time>
      </trkpt>
      <trkpt lat="44.8857630" lon="-92.7947440">
        <ele>277.4800000</ele>
        <time>2009-06-28T21:46:50Z</time>
      </trkpt>
      <trkpt lat="44.8870790" lon="-92.7937980">
        <ele>266.9000000</ele>
        <time>2009-06-28T21:47:00Z</time>
      </trkpt>
      <trkpt lat="44.8871910" lon="-92.7936500">
        <ele>265.4600000</ele>
        <time>2009-06-28T21:47:01Z</time>
      </trkpt>
      <trkpt lat="44.8872970" lon="-92.7935000">
        <ele>264.5000000</ele>
        <time>2009-06-28T21:47:02Z</time>
      </trkpt>
      <trkpt lat="44.8873680" lon="-92.7933150">
        <ele>263.0600000</ele>
        <time>2009-06-28T21:47:03Z</time>
      </trkpt>
      <trkpt lat="44.8874380" lon="-92.7931250">
        <ele>262.5800000</ele>
        <time>2009-06-28T21:47:04Z</time>
      </trkpt>
      <trkpt lat="44.8874820" lon="-92.7929250">
        <ele>261.6200000</ele>
        <time>2009-06-28T21:47:05Z</time>
      </trkpt>
      <trkpt lat="44.8874950" lon="-92.7927130">
        <ele>260.6500000</ele>
        <time>2009-06-28T21:47:06Z</time>
      </trkpt>
      <trkpt lat="44.8875080" lon="-92.7924980">
        <ele>259.6900000</ele>
        <time>2009-06-28T21:47:07Z</time>
      </trkpt>
      <trkpt lat="44.8875210" lon="-92.7922840">
        <ele>258.2500000</ele>
        <time>2009-06-28T21:47:08Z</time>
      </trkpt>
      <trkpt lat="44.8875600" lon="-92.7916460">
        <ele>255.8500000</ele>
        <time>2009-06-28T21:47:11Z</time>
      </trkpt>
      <trkpt lat="44.8876060" lon="-92.7914470">
        <ele>254.8900000</ele>
        <time>2009-06-28T21:47:12Z</time>
      </trkpt>
      <trkpt lat="44.8876620" lon="-92.7912480">
        <ele>253.9300000</ele>
        <time>2009-06-28T21:47:13Z</time>
      </trkpt>
      <trkpt lat="44.8884660" lon="-92.7888410">
        <ele>246.2300000</ele>
        <time>2009-06-28T21:47:26Z</time>
      </trkpt>
      <trkpt lat="44.8895360" lon="-92.7876330">
        <ele>241.9100000</ele>
        <time>2009-06-28T21:47:36Z</time>
      </trkpt>
      <trkpt lat="44.8902410" lon="-92.7869420">
        <ele>235.6600000</ele>
        <time>2009-06-28T21:47:42Z</time>
      </trkpt>
      <trkpt lat="44.8903830" lon="-92.7868850">
        <ele>235.1800000</ele>
        <time>2009-06-28T21:47:43Z</time>
      </trkpt>
      <trkpt lat="44.8905280" lon="-92.7868280">
        <ele>234.2200000</ele>
        <time>2009-06-28T21:47:44Z</time>
      </trkpt>
      <trkpt lat="44.8916060" lon="-92.7864790">
        <ele>226.5300000</ele>
        <time>2009-06-28T21:47:51Z</time>
      </trkpt>
      <trkpt lat="44.8917570" lon="-92.7863980">
        <ele>225.5700000</ele>
        <time>2009-06-28T21:47:52Z</time>
      </trkpt>
      <trkpt lat="44.8919120" lon="-92.7862980">
        <ele>224.1200000</ele>
        <time>2009-06-28T21:47:53Z</time>
      </trkpt>
      <trkpt lat="44.8920200" lon="-92.7861260">
        <ele>223.1600000</ele>
        <time>2009-06-28T21:47:54Z</time>
      </trkpt>
      <trkpt lat="44.8921250" lon="-92.7859530">
        <ele>221.7200000</ele>
        <time>2009-06-28T21:47:55Z</time>
      </trkpt>
      <trkpt lat="44.8922200" lon="-92.7857720">
        <ele>220.2800000</ele>
        <time>2009-06-28T21:47:56Z</time>
      </trkpt>
      <trkpt lat="44.8923140" lon="-92.7855920">
        <ele>219.3200000</ele>
        <time>2009-06-28T21:47:57Z</time>
      </trkpt>
      <trkpt lat="44.8925760" lon="-92.7850930">
        <ele>216.9100000</ele>
        <time>2009-06-28T21:48:00Z</time>
      </trkpt>
      <trkpt lat="44.8926940" lon="-92.7849830">
        <ele>215.9500000</ele>
        <time>2009-06-28T21:48:01Z</time>
      </trkpt>
      <trkpt lat="44.8928120" lon="-92.7848820">
        <ele>214.9900000</ele>
        <time>2009-06-28T21:48:02Z</time>
      </trkpt>
      <trkpt lat="44.8929310" lon="-92.7847880">
        <ele>213.5500000</ele>
        <time>2009-06-28T21:48:03Z</time>
      </trkpt>
      <trkpt lat="44.8930550" lon="-92.7847010">
        <ele>212.5900000</ele>
        <time>2009-06-28T21:48:04Z</time>
      </trkpt>
      <trkpt lat="44.8931820" lon="-92.7846120">
        <ele>211.6300000</ele>
        <time>2009-06-28T21:48:05Z</time>
      </trkpt>
      <trkpt lat="44.8943920" lon="-92.7835950">
        <ele>204.4200000</ele>
        <time>2009-06-28T21:48:15Z</time>
      </trkpt>
      <trkpt lat="44.8945130" lon="-92.7835070">
        <ele>203.9400000</ele>
        <time>2009-06-28T21:48:16Z</time>
      </trkpt>
      <trkpt lat="44.8946310" lon="-92.7834220">
        <ele>203.9400000</ele>
        <time>2009-06-28T21:48:17Z</time>
      </trkpt>
      <trkpt lat="44.8947470" lon="-92.7833370">
        <ele>203.9400000</ele>
        <time>2009-06-28T21:48:18Z</time>
      </trkpt>
      <trkpt lat="44.8948770" lon="-92.7833130">
        <ele>203.4600000</ele>
        <time>2009-06-28T21:48:19Z</time>
      </trkpt>
      <trkpt lat="44.8950040" lon="-92.7833060">
        <ele>202.9800000</ele>
        <time>2009-06-28T21:48:20Z</time>
      </trkpt>
      <trkpt lat="44.8951340" lon="-92.7832990">
        <ele>202.0100000</ele>
        <time>2009-06-28T21:48:21Z</time>
      </trkpt>
      <trkpt lat="44.8974230" lon="-92.7832330">
        <ele>198.1700000</ele>
        <time>2009-06-28T21:48:39Z</time>
      </trkpt>
      <trkpt lat="44.8993310" lon="-92.7832330">
        <ele>192.8800000</ele>
        <time>2009-06-28T21:48:56Z</time>
      </trkpt>
      <trkpt lat="44.9012240" lon="-92.7832090">
        <ele>202.4900000</ele>
        <time>2009-06-28T21:49:12Z</time>
      </trkpt>
      <trkpt lat="44.9035050" lon="-92.7832330">
        <ele>211.1500000</ele>
        <time>2009-06-28T21:49:30Z</time>
      </trkpt>
      <trkpt lat="44.9051420" lon="-92.7831570">
        <ele>216.9100000</ele>
        <time>2009-06-28T21:49:43Z</time>
      </trkpt>
      <trkpt lat="44.9052720" lon="-92.7831730">
        <ele>217.8800000</ele>
        <time>2009-06-28T21:49:44Z</time>
      </trkpt>
      <trkpt lat="44.9054080" lon="-92.7832220">
        <ele>217.8800000</ele>
        <time>2009-06-28T21:49:45Z</time>
      </trkpt>
      <trkpt lat="44.9067710" lon="-92.7837160">
        <ele>221.7200000</ele>
        <time>2009-06-28T21:49:53Z</time>
      </trkpt>
      <trkpt lat="44.9091700" lon="-92.7845950">
        <ele>227.0100000</ele>
        <time>2009-06-28T21:50:06Z</time>
      </trkpt>
      <trkpt lat="44.9114500" lon="-92.7854580">
        <ele>226.5300000</ele>
        <time>2009-06-28T21:50:19Z</time>
      </trkpt>
      <trkpt lat="44.9119060" lon="-92.7857760">
        <ele>227.0100000</ele>
        <time>2009-06-28T21:50:22Z</time>
      </trkpt>
      <trkpt lat="44.9120480" lon="-92.7859330">
        <ele>227.0100000</ele>
        <time>2009-06-28T21:50:23Z</time>
      </trkpt>
      <trkpt lat="44.9135280" lon="-92.7878790">
        <ele>231.3300000</ele>
        <time>2009-06-28T21:50:34Z</time>
      </trkpt>
      <trkpt lat="44.9136200" lon="-92.7880840">
        <ele>231.8100000</ele>
        <time>2009-06-28T21:50:35Z</time>
      </trkpt>
      <trkpt lat="44.9140430" lon="-92.7892140">
        <ele>231.8100000</ele>
        <time>2009-06-28T21:50:40Z</time>
      </trkpt>
      <trkpt lat="44.9140510" lon="-92.7894660">
        <ele>232.3000000</ele>
        <time>2009-06-28T21:50:41Z</time>
      </trkpt>
      <trkpt lat="44.9140600" lon="-92.7897290">
        <ele>232.3000000</ele>
        <time>2009-06-28T21:50:42Z</time>
      </trkpt>
      <trkpt lat="44.9140690" lon="-92.7899920">
        <ele>232.7800000</ele>
        <time>2009-06-28T21:50:43Z</time>
      </trkpt>
      <trkpt lat="44.9140780" lon="-92.7902630">
        <ele>232.7800000</ele>
        <time>2009-06-28T21:50:44Z</time>
      </trkpt>
      <trkpt lat="44.9143920" lon="-92.7915250">
        <ele>230.8500000</ele>
        <time>2009-06-28T21:50:49Z</time>
      </trkpt>
      <trkpt lat="44.9144950" lon="-92.7917580">
        <ele>230.3700000</ele>
        <time>2009-06-28T21:50:50Z</time>
      </trkpt>
      <trkpt lat="44.9155560" lon="-92.7939770">
        <ele>231.3300000</ele>
        <time>2009-06-28T21:51:00Z</time>
      </trkpt>
      <trkpt lat="44.9168740" lon="-92.7961350">
        <ele>236.1400000</ele>
        <time>2009-06-28T21:51:11Z</time>
      </trkpt>
      <trkpt lat="44.9179030" lon="-92.7985110">
        <ele>238.5400000</ele>
        <time>2009-06-28T21:51:22Z</time>
      </trkpt>
      <trkpt lat="44.9178900" lon="-92.7987730">
        <ele>238.5400000</ele>
        <time>2009-06-28T21:51:23Z</time>
      </trkpt>
      <trkpt lat="44.9178760" lon="-92.7990330">
        <ele>238.0600000</ele>
        <time>2009-06-28T21:51:24Z</time>
      </trkpt>
      <trkpt lat="44.9178620" lon="-92.7993030">
        <ele>239.0200000</ele>
        <time>2009-06-28T21:51:25Z</time>
      </trkpt>
      <trkpt lat="44.9178360" lon="-92.7995500">
        <ele>238.5400000</ele>
        <time>2009-06-28T21:51:26Z</time>
      </trkpt>
      <trkpt lat="44.9177880" lon="-92.8007960">
        <ele>234.2200000</ele>
        <time>2009-06-28T21:51:31Z</time>
      </trkpt>
      <trkpt lat="44.9178410" lon="-92.8009850">
        <ele>233.2600000</ele>
        <time>2009-06-28T21:51:32Z</time>
      </trkpt>
      <trkpt lat="44.9179740" lon="-92.8011450">
        <ele>231.8100000</ele>
        <time>2009-06-28T21:51:33Z</time>
      </trkpt>
      <trkpt lat="44.9181130" lon="-92.8012550">
        <ele>230.8500000</ele>
        <time>2009-06-28T21:51:34Z</time>
      </trkpt>
      <trkpt lat="44.9182820" lon="-92.8013000">
        <ele>229.8900000</ele>
        <time>2009-06-28T21:51:35Z</time>
      </trkpt>
      <trkpt lat="44.9185000" lon="-92.8013000">
        <ele>226.5300000</ele>
        <time>2009-06-28T21:51:36Z</time>
      </trkpt>
      <trkpt lat="44.9186910" lon="-92.8013000">
        <ele>224.6100000</ele>
        <time>2009-06-28T21:51:37Z</time>
      </trkpt>
      <trkpt lat="44.9188790" lon="-92.8013000">
        <ele>223.1600000</ele>
        <time>2009-06-28T21:51:38Z</time>
      </trkpt>
      <trkpt lat="44.9207720" lon="-92.8013320">
        <ele>221.2400000</ele>
        <time>2009-06-28T21:51:48Z</time>
      </trkpt>
      <trkpt lat="44.9209390" lon="-92.8014120">
        <ele>221.7200000</ele>
        <time>2009-06-28T21:51:49Z</time>
      </trkpt>
      <trkpt lat="44.9210890" lon="-92.8015350">
        <ele>222.2000000</ele>
        <time>2009-06-28T21:51:50Z</time>
      </trkpt>
      <trkpt lat="44.9212410" lon="-92.8016610">
        <ele>222.6800000</ele>
        <time>2009-06-28T21:51:51Z</time>
      </trkpt>
      <trkpt lat="44.9214000" lon="-92.8017920">
        <ele>223.1600000</ele>
        <time>2009-06-28T21:51:52Z</time>
      </trkpt>
      <trkpt lat="44.9215530" lon="-92.8019170">
        <ele>222.6800000</ele>
        <time>2009-06-28T21:51:53Z</time>
      </trkpt>
      <trkpt lat="44.9217290" lon="-92.8020100">
        <ele>222.2000000</ele>
        <time>2009-06-28T21:51:54Z</time>
      </trkpt>
      <trkpt lat="44.9219070" lon="-92.8020540">
        <ele>222.6800000</ele>
        <time>2009-06-28T21:51:55Z</time>
      </trkpt>
      <trkpt lat="44.9220900" lon="-92.8020700">
        <ele>223.6400000</ele>
        <time>2009-06-28T21:51:56Z</time>
      </trkpt>
      <trkpt lat="44.9222720" lon="-92.8020660">
        <ele>224.1200000</ele>
        <time>2009-06-28T21:51:57Z</time>
      </trkpt>
      <trkpt lat="44.9224600" lon="-92.8020610">
        <ele>224.1200000</ele>
        <time>2009-06-28T21:51:58Z</time>
      </trkpt>
      <trkpt lat="44.9246830" lon="-92.8019870">
        <ele>226.0500000</ele>
        <time>2009-06-28T21:52:10Z</time>
      </trkpt>
      <trkpt lat="44.9267710" lon="-92.8018890">
        <ele>225.0900000</ele>
        <time>2009-06-28T21:52:22Z</time>
      </trkpt>
      <trkpt lat="44.9274920" lon="-92.8017660">
        <ele>227.9700000</ele>
        <time>2009-06-28T21:52:26Z</time>
      </trkpt>
      <trkpt lat="44.9276610" lon="-92.8016760">
        <ele>227.9700000</ele>
        <time>2009-06-28T21:52:27Z</time>
      </trkpt>
      <trkpt lat="44.9278180" lon="-92.8015350">
        <ele>227.9700000</ele>
        <time>2009-06-28T21:52:28Z</time>
      </trkpt>
      <trkpt lat="44.9279730" lon="-92.8013950">
        <ele>227.4900000</ele>
        <time>2009-06-28T21:52:29Z</time>
      </trkpt>
      <trkpt lat="44.9281280" lon="-92.8012550">
        <ele>227.4900000</ele>
        <time>2009-06-28T21:52:30Z</time>
      </trkpt>
      <trkpt lat="44.9294750" lon="-92.8000910">
        <ele>232.3000000</ele>
        <time>2009-06-28T21:52:39Z</time>
      </trkpt>
      <trkpt lat="44.9296390" lon="-92.8000160">
        <ele>232.7800000</ele>
        <time>2009-06-28T21:52:40Z</time>
      </trkpt>
      <trkpt lat="44.9298040" lon="-92.7999420">
        <ele>234.2200000</ele>
        <time>2009-06-28T21:52:41Z</time>
      </trkpt>
      <trkpt lat="44.9316990" lon="-92.7990130">
        <ele>243.3500000</ele>
        <time>2009-06-28T21:52:52Z</time>
      </trkpt>
      <trkpt lat="44.9329640" lon="-92.7980660">
        <ele>244.3100000</ele>
        <time>2009-06-28T21:53:00Z</time>
      </trkpt>
      <trkpt lat="44.9349410" lon="-92.7973210">
        <ele>256.3300000</ele>
        <time>2009-06-28T21:53:11Z</time>
      </trkpt>
      <trkpt lat="44.9380440" lon="-92.7965750">
        <ele>256.3300000</ele>
        <time>2009-06-28T21:53:27Z</time>
      </trkpt>
      <trkpt lat="44.9398770" lon="-92.7962150">
        <ele>254.8900000</ele>
        <time>2009-06-28T21:53:36Z</time>
      </trkpt>
      <trkpt lat="44.9400850" lon="-92.7962760">
        <ele>254.8900000</ele>
        <time>2009-06-28T21:53:37Z</time>
      </trkpt>
      <trkpt lat="44.9402790" lon="-92.7963880">
        <ele>254.4100000</ele>
        <time>2009-06-28T21:53:38Z</time>
      </trkpt>
      <trkpt lat="44.9404270" lon="-92.7965860">
        <ele>254.4100000</ele>
        <time>2009-06-28T21:53:39Z</time>
      </trkpt>
      <trkpt lat="44.9405770" lon="-92.7967930">
        <ele>253.9300000</ele>
        <time>2009-06-28T21:53:40Z</time>
      </trkpt>
      <trkpt lat="44.9407310" lon="-92.7970060">
        <ele>253.4400000</ele>
        <time>2009-06-28T21:53:41Z</time>
      </trkpt>
      <trkpt lat="44.9408860" lon="-92.7972200">
        <ele>252.4800000</ele>
        <time>2009-06-28T21:53:42Z</time>
      </trkpt>
      <trkpt lat="44.9410420" lon="-92.7974350">
        <ele>251.0400000</ele>
        <time>2009-06-28T21:53:43Z</time>
      </trkpt>
      <trkpt lat="44.9415590" lon="-92.7978950">
        <ele>249.6000000</ele>
        <time>2009-06-28T21:53:46Z</time>
      </trkpt>
      <trkpt lat="44.9417500" lon="-92.7979100">
        <ele>249.6000000</ele>
        <time>2009-06-28T21:53:47Z</time>
      </trkpt>
      <trkpt lat="44.9419210" lon="-92.7979100">
        <ele>248.6400000</ele>
        <time>2009-06-28T21:53:48Z</time>
      </trkpt>
      <trkpt lat="44.9421220" lon="-92.7979100">
        <ele>248.1600000</ele>
        <time>2009-06-28T21:53:49Z</time>
      </trkpt>
      <trkpt lat="44.9423140" lon="-92.7979100">
        <ele>247.2000000</ele>
        <time>2009-06-28T21:53:50Z</time>
      </trkpt>
      <trkpt lat="44.9425090" lon="-92.7978990">
        <ele>246.7200000</ele>
        <time>2009-06-28T21:53:51Z</time>
      </trkpt>
      <trkpt lat="44.9442210" lon="-92.7975010">
        <ele>252.9600000</ele>
        <time>2009-06-28T21:54:00Z</time>
      </trkpt>
      <trkpt lat="44.9471030" lon="-92.7967120">
        <ele>258.2500000</ele>
        <time>2009-06-28T21:54:14Z</time>
      </trkpt>
      <trkpt lat="44.9485980" lon="-92.7966980">
        <ele>259.2100000</ele>
        <time>2009-06-28T21:54:21Z</time>
      </trkpt>
      <trkpt lat="44.9513830" lon="-92.7967330">
        <ele>261.6200000</ele>
        <time>2009-06-28T21:54:34Z</time>
      </trkpt>
      <trkpt lat="44.9548320" lon="-92.7967510">
        <ele>263.0600000</ele>
        <time>2009-06-28T21:54:51Z</time>
      </trkpt>
      <trkpt lat="44.9591180" lon="-92.7967510">
        <ele>261.6200000</ele>
        <time>2009-06-28T21:55:10Z</time>
      </trkpt>
      <trkpt lat="44.9641650" lon="-92.7966270">
        <ele>268.3500000</ele>
        <time>2009-06-28T21:55:32Z</time>
      </trkpt>
      <trkpt lat="44.9670270" lon="-92.7960070">
        <ele>272.1900000</ele>
        <time>2009-06-28T21:55:45Z</time>
      </trkpt>
      <trkpt lat="44.9708720" lon="-92.7941170">
        <ele>269.7900000</ele>
        <time>2009-06-28T21:56:02Z</time>
      </trkpt>
      <trkpt lat="44.9736260" lon="-92.7932040">
        <ele>271.2300000</ele>
        <time>2009-06-28T21:56:14Z</time>
      </trkpt>
      <trkpt lat="44.9760500" lon="-92.7921290">
        <ele>270.7500000</ele>
        <time>2009-06-28T21:56:25Z</time>
      </trkpt>
      <trkpt lat="44.9788690" lon="-92.7914730">
        <ele>269.3100000</ele>
        <time>2009-06-28T21:56:38Z</time>
      </trkpt>
      <trkpt lat="44.9837910" lon="-92.7905720">
        <ele>266.4200000</ele>
        <time>2009-06-28T21:57:00Z</time>
      </trkpt>
      <trkpt lat="44.9873950" lon="-92.7901850">
        <ele>265.9400000</ele>
        <time>2009-06-28T21:57:16Z</time>
      </trkpt>
      <trkpt lat="44.9902940" lon="-92.7905620">
        <ele>264.5000000</ele>
        <time>2009-06-28T21:57:29Z</time>
      </trkpt>
      <trkpt lat="44.9951420" lon="-92.7912460">
        <ele>262.5800000</ele>
        <time>2009-06-28T21:57:51Z</time>
      </trkpt>
      <trkpt lat="44.9997840" lon="-92.7920370">
        <ele>259.2100000</ele>
        <time>2009-06-28T21:58:11Z</time>
      </trkpt>
      <trkpt lat="45.0036760" lon="-92.7932820">
        <ele>255.8500000</ele>
        <time>2009-06-28T21:58:29Z</time>
      </trkpt>
      <trkpt lat="45.0079360" lon="-92.7946660">
        <ele>254.4100000</ele>
        <time>2009-06-28T21:58:48Z</time>
      </trkpt>
      <trkpt lat="45.0120850" lon="-92.7959870">
        <ele>253.9300000</ele>
        <time>2009-06-28T21:59:06Z</time>
      </trkpt>
      <trkpt lat="45.0158680" lon="-92.7971570">
        <ele>254.4100000</ele>
        <time>2009-06-28T21:59:23Z</time>
      </trkpt>
      <trkpt lat="45.0175060" lon="-92.7974360">
        <ele>253.9300000</ele>
        <time>2009-06-28T21:59:33Z</time>
      </trkpt>
      <trkpt lat="45.0176950" lon="-92.7974640">
        <ele>253.4400000</ele>
        <time>2009-06-28T21:59:35Z</time>
      </trkpt>
      <trkpt lat="45.0177730" lon="-92.7974750">
        <ele>253.4400000</ele>
        <time>2009-06-28T21:59:36Z</time>
      </trkpt>
      <trkpt lat="45.0178170" lon="-92.7974810">
        <ele>253.4400000</ele>
        <time>2009-06-28T21:59:37Z</time>
      </trkpt>
      <trkpt lat="45.0178170" lon="-92.7977930">
        <ele>253.4400000</ele>
        <time>2009-06-28T21:59:38Z</time>
      </trkpt>
      <trkpt lat="45.0178240" lon="-92.7979530">
        <ele>253.4400000</ele>
        <time>2009-06-28T21:59:39Z</time>
      </trkpt>
      <trkpt lat="45.0178320" lon="-92.7981250">
        <ele>254.4100000</ele>
        <time>2009-06-28T21:59:40Z</time>
      </trkpt>
      <trkpt lat="45.0178400" lon="-92.7983100">
        <ele>255.3700000</ele>
        <time>2009-06-28T21:59:41Z</time>
      </trkpt>
      <trkpt lat="45.0179280" lon="-92.8002830">
        <ele>266.4200000</ele>
        <time>2009-06-28T21:59:50Z</time>
      </trkpt>
      <trkpt lat="45.0177050" lon="-92.8020100">
        <ele>270.2700000</ele>
        <time>2009-06-28T21:59:57Z</time>
      </trkpt>
      <trkpt lat="45.0170170" lon="-92.8038650">
        <ele>271.7100000</ele>
        <time>2009-06-28T22:00:05Z</time>
      </trkpt>
      <trkpt lat="45.0161890" lon="-92.8061390">
        <ele>279.4000000</ele>
        <time>2009-06-28T22:00:16Z</time>
      </trkpt>
      <trkpt lat="45.0159780" lon="-92.8068590">
        <ele>280.8400000</ele>
        <time>2009-06-28T22:00:22Z</time>
      </trkpt>
      <trkpt lat="45.0160230" lon="-92.8070510">
        <ele>280.3600000</ele>
        <time>2009-06-28T22:00:27Z</time>
      </trkpt>
      <trkpt lat="45.0160620" lon="-92.8070510">
        <ele>280.3600000</ele>
        <time>2009-06-28T22:00:28Z</time>
      </trkpt>
      <trkpt lat="45.0161200" lon="-92.8070510">
        <ele>279.8800000</ele>
        <time>2009-06-28T22:00:29Z</time>
      </trkpt>
      <trkpt lat="45.0161890" lon="-92.8070510">
        <ele>279.8800000</ele>
        <time>2009-06-28T22:00:30Z</time>
      </trkpt>
      <trkpt lat="45.0162720" lon="-92.8070510">
        <ele>278.9200000</ele>
        <time>2009-06-28T22:00:31Z</time>
      </trkpt>
      <trkpt lat="45.0163730" lon="-92.8070510">
        <ele>278.4400000</ele>
        <time>2009-06-28T22:00:32Z</time>
      </trkpt>
      <trkpt lat="45.0172660" lon="-92.8070510">
        <ele>277.4800000</ele>
        <time>2009-06-28T22:00:38Z</time>
      </trkpt>
      <trkpt lat="45.0196600" lon="-92.8070760">
        <ele>291.9000000</ele>
        <time>2009-06-28T22:00:52Z</time>
      </trkpt>
      <trkpt lat="45.0227330" lon="-92.8071610">
        <ele>286.6100000</ele>
        <time>2009-06-28T22:01:09Z</time>
      </trkpt>
      <trkpt lat="45.0260940" lon="-92.8072590">
        <ele>269.7900000</ele>
        <time>2009-06-28T22:01:27Z</time>
      </trkpt>
      <trkpt lat="45.0287210" lon="-92.8073080">
        <ele>277.0000000</ele>
        <time>2009-06-28T22:01:44Z</time>
      </trkpt>
      <trkpt lat="45.0313790" lon="-92.8074030">
        <ele>275.5600000</ele>
        <time>2009-06-28T22:02:05Z</time>
      </trkpt>
      <trkpt lat="45.0332420" lon="-92.8074570">
        <ele>277.0000000</ele>
        <time>2009-06-28T22:02:19Z</time>
      </trkpt>
      <trkpt lat="45.0353870" lon="-92.8075230">
        <ele>277.0000000</ele>
        <time>2009-06-28T22:02:37Z</time>
      </trkpt>
      <trkpt lat="45.0356010" lon="-92.8075230">
        <ele>276.0400000</ele>
        <time>2009-06-28T22:02:43Z</time>
      </trkpt>
      <trkpt lat="45.0356010" lon="-92.8075230">
        <ele>275.0700000</ele>
        <time>2009-06-28T22:03:54Z</time>
      </trkpt>
      <trkpt lat="45.0356540" lon="-92.8075230">
        <ele>274.1100000</ele>
        <time>2009-06-28T22:04:25Z</time>
      </trkpt>
      <trkpt lat="45.0362780" lon="-92.8075230">
        <ele>274.5900000</ele>
        <time>2009-06-28T22:04:32Z</time>
      </trkpt>
      <trkpt lat="45.0380070" lon="-92.8075660">
        <ele>277.0000000</ele>
        <time>2009-06-28T22:04:46Z</time>
      </trkpt>
      <trkpt lat="45.0404700" lon="-92.8075880">
        <ele>278.9200000</ele>
        <time>2009-06-28T22:05:04Z</time>
      </trkpt>
      <trkpt lat="45.0425650" lon="-92.8075790">
        <ele>279.8800000</ele>
        <time>2009-06-28T22:05:20Z</time>
      </trkpt>
      <trkpt lat="45.0427880" lon="-92.8075660">
        <ele>280.3600000</ele>
        <time>2009-06-28T22:05:26Z</time>
      </trkpt>
      <trkpt lat="45.0428300" lon="-92.8075660">
        <ele>280.8400000</ele>
        <time>2009-06-28T22:05:27Z</time>
      </trkpt>
      <trkpt lat="45.0428300" lon="-92.8076510">
        <ele>281.3200000</ele>
        <time>2009-06-28T22:05:28Z</time>
      </trkpt>
      <trkpt lat="45.0428300" lon="-92.8077180">
        <ele>281.8000000</ele>
        <time>2009-06-28T22:05:29Z</time>
      </trkpt>
      <trkpt lat="45.0428300" lon="-92.8078110">
        <ele>281.8000000</ele>
        <time>2009-06-28T22:05:30Z</time>
      </trkpt>
      <trkpt lat="45.0428300" lon="-92.8079270">
        <ele>282.2800000</ele>
        <time>2009-06-28T22:05:31Z</time>
      </trkpt>
      <trkpt lat="45.0428300" lon="-92.8080640">
        <ele>282.7700000</ele>
        <time>2009-06-28T22:05:32Z</time>
      </trkpt>
      <trkpt lat="45.0428300" lon="-92.8099010">
        <ele>286.1300000</ele>
        <time>2009-06-28T22:05:43Z</time>
      </trkpt>
      <trkpt lat="45.0428730" lon="-92.8128810">
        <ele>282.2800000</ele>
        <time>2009-06-28T22:05:59Z</time>
      </trkpt>
      <trkpt lat="45.0428730" lon="-92.8163790">
        <ele>269.7900000</ele>
        <time>2009-06-28T22:06:18Z</time>
      </trkpt>
      <trkpt lat="45.0428730" lon="-92.8165780">
        <ele>266.9000000</ele>
        <time>2009-06-28T22:06:23Z</time>
      </trkpt>
      <trkpt lat="45.0428730" lon="-92.8165780">
        <ele>266.9000000</ele>
        <time>2009-06-28T22:06:24Z</time>
      </trkpt>
      <trkpt lat="45.0429520" lon="-92.8165790">
        <ele>266.9000000</ele>
        <time>2009-06-28T22:06:25Z</time>
      </trkpt>
      <trkpt lat="45.0430040" lon="-92.8165800">
        <ele>266.9000000</ele>
        <time>2009-06-28T22:06:26Z</time>
      </trkpt>
      <trkpt lat="45.0430570" lon="-92.8165810">
        <ele>267.3800000</ele>
        <time>2009-06-28T22:06:27Z</time>
      </trkpt>
      <trkpt lat="45.0431210" lon="-92.8165820">
        <ele>267.3800000</ele>
        <time>2009-06-28T22:06:28Z</time>
      </trkpt>
      <trkpt lat="45.0439880" lon="-92.8165980">
        <ele>270.2700000</ele>
        <time>2009-06-28T22:06:37Z</time>
      </trkpt>
      <trkpt lat="45.0452220" lon="-92.8166210">
        <ele>270.7500000</ele>
        <time>2009-06-28T22:06:48Z</time>
      </trkpt>
      <trkpt lat="45.0455370" lon="-92.8167310">
        <ele>272.6700000</ele>
        <time>2009-06-28T22:06:51Z</time>
      </trkpt>
      <trkpt lat="45.0456320" lon="-92.8168020">
        <ele>273.1500000</ele>
        <time>2009-06-28T22:06:52Z</time>
      </trkpt>
      <trkpt lat="45.0458260" lon="-92.8169240">
        <ele>273.6300000</ele>
        <time>2009-06-28T22:06:54Z</time>
      </trkpt>
      <trkpt lat="45.0459250" lon="-92.8169300">
        <ele>274.5900000</ele>
        <time>2009-06-28T22:06:55Z</time>
      </trkpt>
      <trkpt lat="45.0460310" lon="-92.8169370">
        <ele>274.5900000</ele>
        <time>2009-06-28T22:06:56Z</time>
      </trkpt>
      <trkpt lat="45.0470220" lon="-92.8169640">
        <ele>277.4800000</ele>
        <time>2009-06-28T22:07:06Z</time>
      </trkpt>
      <trkpt lat="45.0479950" lon="-92.8169640">
        <ele>273.6300000</ele>
        <time>2009-06-28T22:07:17Z</time>
      </trkpt>
      <trkpt lat="45.0481000" lon="-92.8169640">
        <ele>274.1100000</ele>
        <time>2009-06-28T22:07:23Z</time>
      </trkpt>
      <trkpt lat="45.0481260" lon="-92.8169640">
        <ele>274.1100000</ele>
        <time>2009-06-28T22:07:24Z</time>
      </trkpt>
      <trkpt lat="45.0481520" lon="-92.8170600">
        <ele>273.6300000</ele>
        <time>2009-06-28T22:07:25Z</time>
      </trkpt>
      <trkpt lat="45.0481520" lon="-92.8171380">
        <ele>273.6300000</ele>
        <time>2009-06-28T22:07:26Z</time>
      </trkpt>
      <trkpt lat="45.0481520" lon="-92.8172340">
        <ele>273.6300000</ele>
        <time>2009-06-28T22:07:27Z</time>
      </trkpt>
      <trkpt lat="45.0481520" lon="-92.8173520">
        <ele>274.1100000</ele>
        <time>2009-06-28T22:07:28Z</time>
      </trkpt>
      <trkpt lat="45.0481520" lon="-92.8188000">
        <ele>274.5900000</ele>
        <time>2009-06-28T22:07:37Z</time>
      </trkpt>
      <trkpt lat="45.0481520" lon="-92.8191540">
        <ele>275.0700000</ele>
        <time>2009-06-28T22:07:42Z</time>
      </trkpt>
      <trkpt lat="45.0481520" lon="-92.8192320">
        <ele>275.0700000</ele>
        <time>2009-06-28T22:07:44Z</time>
      </trkpt>
      <trkpt lat="45.0482070" lon="-92.8192390">
        <ele>274.5900000</ele>
        <time>2009-06-28T22:07:45Z</time>
      </trkpt>
      <trkpt lat="45.0482670" lon="-92.8192390">
        <ele>274.1100000</ele>
        <time>2009-06-28T22:07:46Z</time>
      </trkpt>
      <trkpt lat="45.0483370" lon="-92.8192390">
        <ele>274.1100000</ele>
        <time>2009-06-28T22:07:47Z</time>
      </trkpt>
      <trkpt lat="45.0484160" lon="-92.8192390">
        <ele>274.1100000</ele>
        <time>2009-06-28T22:07:48Z</time>
      </trkpt>
      <trkpt lat="45.0492200" lon="-92.8192320">
        <ele>273.6300000</ele>
        <time>2009-06-28T22:07:55Z</time>
      </trkpt>
      <trkpt lat="45.0507730" lon="-92.8191530">
        <ele>275.5600000</ele>
        <time>2009-06-28T22:08:08Z</time>
      </trkpt>
      <trkpt lat="45.0509550" lon="-92.8191530">
        <ele>276.5200000</ele>
        <time>2009-06-28T22:08:13Z</time>
      </trkpt>
      <trkpt lat="45.0513360" lon="-92.8191530">
        <ele>275.5600000</ele>
        <time>2009-06-28T22:08:19Z</time>
      </trkpt>
      <trkpt lat="45.0527900" lon="-92.8191530">
        <ele>275.0700000</ele>
        <time>2009-06-28T22:08:32Z</time>
      </trkpt>
      <trkpt lat="45.0539620" lon="-92.8191530">
        <ele>272.1900000</ele>
        <time>2009-06-28T22:08:45Z</time>
      </trkpt>
      <trkpt lat="45.0546900" lon="-92.8191530">
        <ele>273.6300000</ele>
        <time>2009-06-28T22:08:55Z</time>
      </trkpt>
      <trkpt lat="45.0547420" lon="-92.8191530">
        <ele>274.5900000</ele>
        <time>2009-06-28T22:09:06Z</time>
      </trkpt>
      <trkpt lat="45.0548460" lon="-92.8191530">
        <ele>273.1500000</ele>
        <time>2009-06-28T22:09:41Z</time>
      </trkpt>
      <trkpt lat="45.0548460" lon="-92.8193050">
        <ele>272.6700000</ele>
        <time>2009-06-28T22:09:42Z</time>
      </trkpt>
      <trkpt lat="45.0548460" lon="-92.8193880">
        <ele>273.6300000</ele>
        <time>2009-06-28T22:09:43Z</time>
      </trkpt>
      <trkpt lat="45.0548460" lon="-92.8194850">
        <ele>274.5900000</ele>
        <time>2009-06-28T22:09:44Z</time>
      </trkpt>
      <trkpt lat="45.0548460" lon="-92.8195980">
        <ele>274.5900000</ele>
        <time>2009-06-28T22:09:45Z</time>
      </trkpt>
      <trkpt lat="45.0548460" lon="-92.8197190">
        <ele>274.5900000</ele>
        <time>2009-06-28T22:09:46Z</time>
      </trkpt>
      <trkpt lat="45.0548460" lon="-92.8201690">
        <ele>277.0000000</ele>
        <time>2009-06-28T22:09:53Z</time>
      </trkpt>
      <trkpt lat="45.0548460" lon="-92.8202790">
        <ele>280.3600000</ele>
        <time>2009-06-28T22:10:03Z</time>
      </trkpt>
      <trkpt lat="45.0548460" lon="-92.8206400">
        <ele>282.7700000</ele>
        <time>2009-06-28T22:10:11Z</time>
      </trkpt>
      <trkpt lat="45.0548460" lon="-92.8218640">
        <ele>284.6900000</ele>
        <time>2009-06-28T22:10:20Z</time>
      </trkpt>
      <trkpt lat="45.0548460" lon="-92.8246680">
        <ele>276.0400000</ele>
        <time>2009-06-28T22:10:36Z</time>
      </trkpt>
      <trkpt lat="45.0550040" lon="-92.8268950">
        <ele>277.4800000</ele>
        <time>2009-06-28T22:10:48Z</time>
      </trkpt>
      <trkpt lat="45.0555330" lon="-92.8281650">
        <ele>276.5200000</ele>
        <time>2009-06-28T22:10:56Z</time>
      </trkpt>
      <trkpt lat="45.0564280" lon="-92.8302520">
        <ele>275.5600000</ele>
        <time>2009-06-28T22:11:05Z</time>
      </trkpt>
      <trkpt lat="45.0568690" lon="-92.8327840">
        <ele>274.5900000</ele>
        <time>2009-06-28T22:11:14Z</time>
      </trkpt>
      <trkpt lat="45.0572150" lon="-92.8348590">
        <ele>280.8400000</ele>
        <time>2009-06-28T22:11:23Z</time>
      </trkpt>
      <trkpt lat="45.0572520" lon="-92.8350900">
        <ele>282.2800000</ele>
        <time>2009-06-28T22:11:25Z</time>
      </trkpt>
      <trkpt lat="45.0572600" lon="-92.8351410">
        <ele>282.7700000</ele>
        <time>2009-06-28T22:11:26Z</time>
      </trkpt>
      <trkpt lat="45.0574430" lon="-92.8350920">
        <ele>283.7300000</ele>
        <time>2009-06-28T22:11:27Z</time>
      </trkpt>
      <trkpt lat="45.0575260" lon="-92.8351000">
        <ele>284.2100000</ele>
        <time>2009-06-28T22:11:28Z</time>
      </trkpt>
      <trkpt lat="45.0576250" lon="-92.8351090">
        <ele>284.6900000</ele>
        <time>2009-06-28T22:11:29Z</time>
      </trkpt>
      <trkpt lat="45.0577500" lon="-92.8351340">
        <ele>286.6100000</ele>
        <time>2009-06-28T22:11:30Z</time>
      </trkpt>
      <trkpt lat="45.0578650" lon="-92.8352020">
        <ele>287.0900000</ele>
        <time>2009-06-28T22:11:31Z</time>
      </trkpt>
      <trkpt lat="45.0579860" lon="-92.8352740">
        <ele>288.0500000</ele>
        <time>2009-06-28T22:11:32Z</time>
      </trkpt>
      <trkpt lat="45.0594200" lon="-92.8363540">
        <ele>292.8600000</ele>
        <time>2009-06-28T22:11:44Z</time>
      </trkpt>
      <trkpt lat="45.0604340" lon="-92.8378100">
        <ele>295.7400000</ele>
        <time>2009-06-28T22:11:54Z</time>
      </trkpt>
      <trkpt lat="45.0616760" lon="-92.8403000">
        <ele>290.4600000</ele>
        <time>2009-06-28T22:12:08Z</time>
      </trkpt>
      <trkpt lat="45.0630930" lon="-92.8440770">
        <ele>285.6500000</ele>
        <time>2009-06-28T22:12:27Z</time>
      </trkpt>
      <trkpt lat="45.0642490" lon="-92.8470320">
        <ele>277.9600000</ele>
        <time>2009-06-28T22:12:42Z</time>
      </trkpt>
      <trkpt lat="45.0649440" lon="-92.8487390">
        <ele>279.8800000</ele>
        <time>2009-06-28T22:12:51Z</time>
      </trkpt>
      <trkpt lat="45.0649720" lon="-92.8489570">
        <ele>279.8800000</ele>
        <time>2009-06-28T22:12:52Z</time>
      </trkpt>
      <trkpt lat="45.0649910" lon="-92.8491800">
        <ele>280.3600000</ele>
        <time>2009-06-28T22:12:53Z</time>
      </trkpt>
      <trkpt lat="45.0650100" lon="-92.8494070">
        <ele>280.8400000</ele>
        <time>2009-06-28T22:12:54Z</time>
      </trkpt>
      <trkpt lat="45.0650120" lon="-92.8496340">
        <ele>281.3200000</ele>
        <time>2009-06-28T22:12:55Z</time>
      </trkpt>
      <trkpt lat="45.0648930" lon="-92.8516400">
        <ele>283.2500000</ele>
        <time>2009-06-28T22:13:04Z</time>
      </trkpt>
      <trkpt lat="45.0649160" lon="-92.8518690">
        <ele>282.7700000</ele>
        <time>2009-06-28T22:13:05Z</time>
      </trkpt>
      <trkpt lat="45.0649540" lon="-92.8520890">
        <ele>282.2800000</ele>
        <time>2009-06-28T22:13:06Z</time>
      </trkpt>
      <trkpt lat="45.0650300" lon="-92.8522930">
        <ele>281.3200000</ele>
        <time>2009-06-28T22:13:07Z</time>
      </trkpt>
      <trkpt lat="45.0651060" lon="-92.8525000">
        <ele>281.3200000</ele>
        <time>2009-06-28T22:13:08Z</time>
      </trkpt>
      <trkpt lat="45.0651820" lon="-92.8527070">
        <ele>280.8400000</ele>
        <time>2009-06-28T22:13:09Z</time>
      </trkpt>
      <trkpt lat="45.0655650" lon="-92.8539550">
        <ele>281.3200000</ele>
        <time>2009-06-28T22:13:15Z</time>
      </trkpt>
      <trkpt lat="45.0655750" lon="-92.8540430">
        <ele>281.3200000</ele>
        <time>2009-06-28T22:13:16Z</time>
      </trkpt>
      <trkpt lat="45.0655750" lon="-92.8540430">
        <ele>282.2800000</ele>
        <time>2009-06-28T22:13:17Z</time>
      </trkpt>
      <trkpt lat="45.0656430" lon="-92.8576150">
        <ele>289.4900000</ele>
        <time>2009-06-28T22:13:31Z</time>
      </trkpt>
      <trkpt lat="45.0657240" lon="-92.8614880">
        <ele>291.4200000</ele>
        <time>2009-06-28T22:13:48Z</time>
      </trkpt>
      <trkpt lat="45.0657430" lon="-92.8627250">
        <ele>294.3000000</ele>
        <time>2009-06-28T22:13:56Z</time>
      </trkpt>
      <trkpt lat="45.0657430" lon="-92.8627580">
        <ele>295.2600000</ele>
        <time>2009-06-28T22:14:05Z</time>
      </trkpt>
      <trkpt lat="45.0657450" lon="-92.8628430">
        <ele>296.7000000</ele>
        <time>2009-06-28T22:14:19Z</time>
      </trkpt>
      <trkpt lat="45.0657460" lon="-92.8629110">
        <ele>296.7000000</ele>
        <time>2009-06-28T22:14:20Z</time>
      </trkpt>
      <trkpt lat="45.0656620" lon="-92.8629660">
        <ele>296.2200000</ele>
        <time>2009-06-28T22:14:21Z</time>
      </trkpt>
      <trkpt lat="45.0655590" lon="-92.8629620">
        <ele>295.7400000</ele>
        <time>2009-06-28T22:14:22Z</time>
      </trkpt>
      <trkpt lat="45.0654340" lon="-92.8629570">
        <ele>295.2600000</ele>
        <time>2009-06-28T22:14:23Z</time>
      </trkpt>
      <trkpt lat="45.0652980" lon="-92.8629520">
        <ele>294.3000000</ele>
        <time>2009-06-28T22:14:24Z</time>
      </trkpt>
      <trkpt lat="45.0651440" lon="-92.8629460">
        <ele>293.3400000</ele>
        <time>2009-06-28T22:14:25Z</time>
      </trkpt>
      <trkpt lat="45.0634570" lon="-92.8628790">
        <ele>293.3400000</ele>
        <time>2009-06-28T22:14:34Z</time>
      </trkpt>
      <trkpt lat="45.0612490" lon="-92.8629960">
        <ele>293.8200000</ele>
        <time>2009-06-28T22:14:45Z</time>
      </trkpt>
      <trkpt lat="45.0588820" lon="-92.8630880">
        <ele>292.3800000</ele>
        <time>2009-06-28T22:14:58Z</time>
      </trkpt>
      <trkpt lat="45.0578720" lon="-92.8629850">
        <ele>293.8200000</ele>
        <time>2009-06-28T22:15:06Z</time>
      </trkpt>
      <trkpt lat="45.0578090" lon="-92.8629780">
        <ele>293.3400000</ele>
        <time>2009-06-28T22:15:07Z</time>
      </trkpt>
      <trkpt lat="45.0577590" lon="-92.8629730">
        <ele>293.8200000</ele>
        <time>2009-06-28T22:15:08Z</time>
      </trkpt>
      <trkpt lat="45.0577410" lon="-92.8632700">
        <ele>293.8200000</ele>
        <time>2009-06-28T22:15:09Z</time>
      </trkpt>
      <trkpt lat="45.0577490" lon="-92.8633820">
        <ele>293.8200000</ele>
        <time>2009-06-28T22:15:10Z</time>
      </trkpt>
      <trkpt lat="45.0577570" lon="-92.8635160">
        <ele>292.8600000</ele>
        <time>2009-06-28T22:15:11Z</time>
      </trkpt>
      <trkpt lat="45.0577670" lon="-92.8636670">
        <ele>292.3800000</ele>
        <time>2009-06-28T22:15:12Z</time>
      </trkpt>
      <trkpt lat="45.0578570" lon="-92.8650960">
        <ele>290.9400000</ele>
        <time>2009-06-28T22:15:19Z</time>
      </trkpt>
      <trkpt lat="45.0578880" lon="-92.8672450">
        <ele>293.3400000</ele>
        <time>2009-06-28T22:15:27Z</time>
      </trkpt>
      <trkpt lat="45.0578680" lon="-92.8718260">
        <ele>303.9100000</ele>
        <time>2009-06-28T22:15:42Z</time>
      </trkpt>
      <trkpt lat="45.0578500" lon="-92.8774400">
        <ele>305.8400000</ele>
        <time>2009-06-28T22:16:00Z</time>
      </trkpt>
      <trkpt lat="45.0576700" lon="-92.8817730">
        <ele>311.6000000</ele>
        <time>2009-06-28T22:16:14Z</time>
      </trkpt>
      <trkpt lat="45.0576660" lon="-92.8849190">
        <ele>312.5700000</ele>
        <time>2009-06-28T22:16:24Z</time>
      </trkpt>
      <trkpt lat="45.0578500" lon="-92.8903000">
        <ele>306.3200000</ele>
        <time>2009-06-28T22:16:40Z</time>
      </trkpt>
      <trkpt lat="45.0578500" lon="-92.8985680">
        <ele>322.1800000</ele>
        <time>2009-06-28T22:17:05Z</time>
      </trkpt>
      <trkpt lat="45.0578040" lon="-92.9055520">
        <ele>327.4700000</ele>
        <time>2009-06-28T22:17:26Z</time>
      </trkpt>
      <trkpt lat="45.0577220" lon="-92.9111990">
        <ele>328.4300000</ele>
        <time>2009-06-28T22:17:43Z</time>
      </trkpt>
      <trkpt lat="45.0577220" lon="-92.9188430">
        <ele>325.0600000</ele>
        <time>2009-06-28T22:18:06Z</time>
      </trkpt>
      <trkpt lat="45.0576980" lon="-92.9274530">
        <ele>335.1600000</ele>
        <time>2009-06-28T22:18:32Z</time>
      </trkpt>
      <trkpt lat="45.0576520" lon="-92.9334280">
        <ele>343.3300000</ele>
        <time>2009-06-28T22:18:50Z</time>
      </trkpt>
      <trkpt lat="45.0574850" lon="-92.9392790">
        <ele>340.4400000</ele>
        <time>2009-06-28T22:19:08Z</time>
      </trkpt>
      <trkpt lat="45.0572690" lon="-92.9424690">
        <ele>337.5600000</ele>
        <time>2009-06-28T22:19:20Z</time>
      </trkpt>
      <trkpt lat="45.0571640" lon="-92.9458820">
        <ele>333.2300000</ele>
        <time>2009-06-28T22:19:35Z</time>
      </trkpt>
      <trkpt lat="45.0571640" lon="-92.9473580">
        <ele>332.7500000</ele>
        <time>2009-06-28T22:19:44Z</time>
      </trkpt>
      <trkpt lat="45.0571210" lon="-92.9486920">
        <ele>331.3100000</ele>
        <time>2009-06-28T22:19:52Z</time>
      </trkpt>
      <trkpt lat="45.0571210" lon="-92.9523380">
        <ele>320.7400000</ele>
        <time>2009-06-28T22:20:10Z</time>
      </trkpt>
      <trkpt lat="45.0571210" lon="-92.9546930">
        <ele>316.4100000</ele>
        <time>2009-06-28T22:20:24Z</time>
      </trkpt>
      <trkpt lat="45.0571180" lon="-92.9549550">
        <ele>317.3700000</ele>
        <time>2009-06-28T22:20:30Z</time>
      </trkpt>
      <trkpt lat="45.0570950" lon="-92.9559050">
        <ele>316.8900000</ele>
        <time>2009-06-28T22:20:37Z</time>
      </trkpt>
      <trkpt lat="45.0569660" lon="-92.9582060">
        <ele>315.9300000</ele>
        <time>2009-06-28T22:20:51Z</time>
      </trkpt>
      <trkpt lat="45.0569090" lon="-92.9585240">
        <ele>316.8900000</ele>
        <time>2009-06-28T22:20:57Z</time>
      </trkpt>
      <trkpt lat="45.0567470" lon="-92.9590250">
        <ele>318.3300000</ele>
        <time>2009-06-28T22:21:03Z</time>
      </trkpt>
      <trkpt lat="45.0563210" lon="-92.9605020">
        <ele>319.3000000</ele>
        <time>2009-06-28T22:21:14Z</time>
      </trkpt>
      <trkpt lat="45.0563540" lon="-92.9607000">
        <ele>318.8100000</ele>
        <time>2009-06-28T22:21:20Z</time>
      </trkpt>
      <trkpt lat="45.0563550" lon="-92.9608350">
        <ele>317.8500000</ele>
        <time>2009-06-28T22:21:24Z</time>
      </trkpt>
      <trkpt lat="45.0563080" lon="-92.9609150">
        <ele>317.3700000</ele>
        <time>2009-06-28T22:21:25Z</time>
      </trkpt>
      <trkpt lat="45.0562160" lon="-92.9610710">
        <ele>317.8500000</ele>
        <time>2009-06-28T22:21:26Z</time>
      </trkpt>
      <trkpt lat="45.0555670" lon="-92.9621760">
        <ele>317.3700000</ele>
        <time>2009-06-28T22:21:32Z</time>
      </trkpt>
      <trkpt lat="45.0544010" lon="-92.9640950">
        <ele>316.8900000</ele>
        <time>2009-06-28T22:21:43Z</time>
      </trkpt>
      <trkpt lat="45.0544330" lon="-92.9643770">
        <ele>317.3700000</ele>
        <time>2009-06-28T22:21:44Z</time>
      </trkpt>
      <trkpt lat="45.0544600" lon="-92.9644210">
        <ele>316.4100000</ele>
        <time>2009-06-28T22:21:45Z</time>
      </trkpt>
      <trkpt lat="45.0544600" lon="-92.9645310">
        <ele>315.9300000</ele>
        <time>2009-06-28T22:21:46Z</time>
      </trkpt>
      <trkpt lat="45.0544600" lon="-92.9646460">
        <ele>315.4500000</ele>
        <time>2009-06-28T22:21:47Z</time>
      </trkpt>
      <trkpt lat="45.0544540" lon="-92.9647770">
        <ele>314.4900000</ele>
        <time>2009-06-28T22:21:48Z</time>
      </trkpt>
      <trkpt lat="45.0544480" lon="-92.9649200">
        <ele>314.0100000</ele>
        <time>2009-06-28T22:21:49Z</time>
      </trkpt>
      <trkpt lat="45.0543740" lon="-92.9670540">
        <ele>306.3200000</ele>
        <time>2009-06-28T22:22:02Z</time>
      </trkpt>
      <trkpt lat="45.0547540" lon="-92.9686820">
        <ele>302.9500000</ele>
        <time>2009-06-28T22:22:12Z</time>
      </trkpt>
      <trkpt lat="45.0557480" lon="-92.9716300">
        <ele>303.4300000</ele>
        <time>2009-06-28T22:22:30Z</time>
      </trkpt>
      <trkpt lat="45.0564710" lon="-92.9732090">
        <ele>302.9500000</ele>
        <time>2009-06-28T22:22:41Z</time>
      </trkpt>
      <trkpt lat="45.0574080" lon="-92.9742690">
        <ele>302.4700000</ele>
        <time>2009-06-28T22:22:51Z</time>
      </trkpt>
      <trkpt lat="45.0588230" lon="-92.9756460">
        <ele>304.3900000</ele>
        <time>2009-06-28T22:23:05Z</time>
      </trkpt>
      <trkpt lat="45.0600310" lon="-92.9768150">
        <ele>304.3900000</ele>
        <time>2009-06-28T22:23:17Z</time>
      </trkpt>
      <trkpt lat="45.0607990" lon="-92.9778800">
        <ele>305.3600000</ele>
        <time>2009-06-28T22:23:26Z</time>
      </trkpt>
      <trkpt lat="45.0608510" lon="-92.9780240">
        <ele>305.8400000</ele>
        <time>2009-06-28T22:23:27Z</time>
      </trkpt>
      <trkpt lat="45.0608970" lon="-92.9781540">
        <ele>305.8400000</ele>
        <time>2009-06-28T22:23:28Z</time>
      </trkpt>
      <trkpt lat="45.0609180" lon="-92.9783010">
        <ele>306.3200000</ele>
        <time>2009-06-28T22:23:29Z</time>
      </trkpt>
      <trkpt lat="45.0609380" lon="-92.9784500">
        <ele>305.3600000</ele>
        <time>2009-06-28T22:23:30Z</time>
      </trkpt>
      <trkpt lat="45.0609580" lon="-92.9785920">
        <ele>304.8800000</ele>
        <time>2009-06-28T22:23:31Z</time>
      </trkpt>
      <trkpt lat="45.0611120" lon="-92.9798620">
        <ele>304.8800000</ele>
        <time>2009-06-28T22:23:40Z</time>
      </trkpt>
      <trkpt lat="45.0611040" lon="-92.9818540">
        <ele>308.7200000</ele>
        <time>2009-06-28T22:23:53Z</time>
      </trkpt>
      <trkpt lat="45.0610740" lon="-92.9843880">
        <ele>311.6000000</ele>
        <time>2009-06-28T22:24:07Z</time>
      </trkpt>
      <trkpt lat="45.0610690" lon="-92.9847630">
        <ele>312.5700000</ele>
        <time>2009-06-28T22:24:13Z</time>
      </trkpt>
      <trkpt lat="45.0611120" lon="-92.9847640">
        <ele>312.0900000</ele>
        <time>2009-06-28T22:24:14Z</time>
      </trkpt>
      <trkpt lat="45.0611540" lon="-92.9847650">
        <ele>312.5700000</ele>
        <time>2009-06-28T22:24:15Z</time>
      </trkpt>
      <trkpt lat="45.0612190" lon="-92.9847660">
        <ele>312.0900000</ele>
        <time>2009-06-28T22:24:16Z</time>
      </trkpt>
      <trkpt lat="45.0619740" lon="-92.9847780">
        <ele>311.6000000</ele>
        <time>2009-06-28T22:24:23Z</time>
      </trkpt>
      <trkpt lat="45.0636150" lon="-92.9848060">
        <ele>306.8000000</ele>
        <time>2009-06-28T22:24:34Z</time>
      </trkpt>
      <trkpt lat="45.0654510" lon="-92.9848060">
        <ele>294.3000000</ele>
        <time>2009-06-28T22:24:47Z</time>
      </trkpt>
      <trkpt lat="45.0655790" lon="-92.9848740">
        <ele>293.3400000</ele>
        <time>2009-06-28T22:24:48Z</time>
      </trkpt>
      <trkpt lat="45.0656920" lon="-92.9850170">
        <ele>291.9000000</ele>
        <time>2009-06-28T22:24:49Z</time>
      </trkpt>
      <trkpt lat="45.0657540" lon="-92.9851800">
        <ele>291.4200000</ele>
        <time>2009-06-28T22:24:50Z</time>
      </trkpt>
      <trkpt lat="45.0658160" lon="-92.9853420">
        <ele>290.9400000</ele>
        <time>2009-06-28T22:24:51Z</time>
      </trkpt>
      <trkpt lat="45.0658820" lon="-92.9855140">
        <ele>290.9400000</ele>
        <time>2009-06-28T22:24:52Z</time>
      </trkpt>
      <trkpt lat="45.0659460" lon="-92.9856840">
        <ele>291.4200000</ele>
        <time>2009-06-28T22:24:53Z</time>
      </trkpt>
      <trkpt lat="45.0660100" lon="-92.9858480">
        <ele>291.9000000</ele>
        <time>2009-06-28T22:24:54Z</time>
      </trkpt>
      <trkpt lat="45.0660850" lon="-92.9859980">
        <ele>292.3800000</ele>
        <time>2009-06-28T22:24:55Z</time>
      </trkpt>
      <trkpt lat="45.0661660" lon="-92.9861310">
        <ele>292.3800000</ele>
        <time>2009-06-28T22:24:56Z</time>
      </trkpt>
      <trkpt lat="45.0662640" lon="-92.9862400">
        <ele>292.3800000</ele>
        <time>2009-06-28T22:24:57Z</time>
      </trkpt>
      <trkpt lat="45.0663590" lon="-92.9863460">
        <ele>292.3800000</ele>
        <time>2009-06-28T22:24:58Z</time>
      </trkpt>
      <trkpt lat="45.0664530" lon="-92.9864510">
        <ele>292.3800000</ele>
        <time>2009-06-28T22:24:59Z</time>
      </trkpt>
      <trkpt lat="45.0665470" lon="-92.9865560">
        <ele>292.3800000</ele>
        <time>2009-06-28T22:25:00Z</time>
      </trkpt>
      <trkpt lat="45.0672380" lon="-92.9876970">
        <ele>296.7000000</ele>
        <time>2009-06-28T22:25:09Z</time>
      </trkpt>
      <trkpt lat="45.0674240" lon="-92.9879440">
        <ele>297.1800000</ele>
        <time>2009-06-28T22:25:11Z</time>
      </trkpt>
      <trkpt lat="45.0675160" lon="-92.9880590">
        <ele>297.6700000</ele>
        <time>2009-06-28T22:25:12Z</time>
      </trkpt>
      <trkpt lat="45.0676130" lon="-92.9881680">
        <ele>297.6700000</ele>
        <time>2009-06-28T22:25:13Z</time>
      </trkpt>
      <trkpt lat="45.0677240" lon="-92.9882450">
        <ele>297.6700000</ele>
        <time>2009-06-28T22:25:14Z</time>
      </trkpt>
      <trkpt lat="45.0678370" lon="-92.9883230">
        <ele>298.1500000</ele>
        <time>2009-06-28T22:25:15Z</time>
      </trkpt>
      <trkpt lat="45.0685730" lon="-92.9889690">
        <ele>299.1100000</ele>
        <time>2009-06-28T22:25:22Z</time>
      </trkpt>
      <trkpt lat="45.0686590" lon="-92.9890890">
        <ele>299.1100000</ele>
        <time>2009-06-28T22:25:23Z</time>
      </trkpt>
      <trkpt lat="45.0686930" lon="-92.9892190">
        <ele>299.1100000</ele>
        <time>2009-06-28T22:25:24Z</time>
      </trkpt>
      <trkpt lat="45.0687300" lon="-92.9893770">
        <ele>299.1100000</ele>
        <time>2009-06-28T22:25:25Z</time>
      </trkpt>
      <trkpt lat="45.0687660" lon="-92.9895370">
        <ele>299.1100000</ele>
        <time>2009-06-28T22:25:26Z</time>
      </trkpt>
      <trkpt lat="45.0687960" lon="-92.9896810">
        <ele>299.1100000</ele>
        <time>2009-06-28T22:25:27Z</time>
      </trkpt>
      <trkpt lat="45.0688130" lon="-92.9898520">
        <ele>299.1100000</ele>
        <time>2009-06-28T22:25:28Z</time>
      </trkpt>
      <trkpt lat="45.0688310" lon="-92.9900240">
        <ele>299.1100000</ele>
        <time>2009-06-28T22:25:29Z</time>
      </trkpt>
      <trkpt lat="45.0688480" lon="-92.9902000">
        <ele>299.1100000</ele>
        <time>2009-06-28T22:25:30Z</time>
      </trkpt>
      <trkpt lat="45.0691060" lon="-92.9922570">
        <ele>301.5100000</ele>
        <time>2009-06-28T22:25:42Z</time>
      </trkpt>
      <trkpt lat="45.0691610" lon="-92.9924140">
        <ele>301.5100000</ele>
        <time>2009-06-28T22:25:43Z</time>
      </trkpt>
      <trkpt lat="45.0696730" lon="-92.9940480">
        <ele>301.0300000</ele>
        <time>2009-06-28T22:25:53Z</time>
      </trkpt>
      <trkpt lat="45.0696920" lon="-92.9942180">
        <ele>300.5500000</ele>
        <time>2009-06-28T22:25:54Z</time>
      </trkpt>
      <trkpt lat="45.0696780" lon="-92.9944020">
        <ele>300.5500000</ele>
        <time>2009-06-28T22:25:55Z</time>
      </trkpt>
      <trkpt lat="45.0696610" lon="-92.9945570">
        <ele>300.5500000</ele>
        <time>2009-06-28T22:25:56Z</time>
      </trkpt>
      <trkpt lat="45.0696460" lon="-92.9946910">
        <ele>300.5500000</ele>
        <time>2009-06-28T22:25:57Z</time>
      </trkpt>
      <trkpt lat="45.0696100" lon="-92.9950110">
        <ele>300.0700000</ele>
        <time>2009-06-28T22:26:03Z</time>
      </trkpt>
      <trkpt lat="45.0695480" lon="-92.9955770">
        <ele>300.5500000</ele>
        <time>2009-06-28T22:26:09Z</time>
      </trkpt>
      <trkpt lat="45.0693770" lon="-92.9971470">
        <ele>301.5100000</ele>
        <time>2009-06-28T22:26:18Z</time>
      </trkpt>
      <trkpt lat="45.0690330" lon="-93.0003180">
        <ele>297.1800000</ele>
        <time>2009-06-28T22:26:34Z</time>
      </trkpt>
      <trkpt lat="45.0687470" lon="-93.0030320">
        <ele>298.1500000</ele>
        <time>2009-06-28T22:26:48Z</time>
      </trkpt>
      <trkpt lat="45.0687700" lon="-93.0032320">
        <ele>298.6300000</ele>
        <time>2009-06-28T22:26:49Z</time>
      </trkpt>
      <trkpt lat="45.0687930" lon="-93.0034260">
        <ele>299.1100000</ele>
        <time>2009-06-28T22:26:50Z</time>
      </trkpt>
      <trkpt lat="45.0688550" lon="-93.0035580">
        <ele>299.5900000</ele>
        <time>2009-06-28T22:26:51Z</time>
      </trkpt>
      <trkpt lat="45.0689310" lon="-93.0037170">
        <ele>299.5900000</ele>
        <time>2009-06-28T22:26:52Z</time>
      </trkpt>
      <trkpt lat="45.0690070" lon="-93.0038740">
        <ele>300.0700000</ele>
        <time>2009-06-28T22:26:53Z</time>
      </trkpt>
      <trkpt lat="45.0690810" lon="-93.0040290">
        <ele>300.5500000</ele>
        <time>2009-06-28T22:26:54Z</time>
      </trkpt>
      <trkpt lat="45.0691560" lon="-93.0041840">
        <ele>301.0300000</ele>
        <time>2009-06-28T22:26:55Z</time>
      </trkpt>
      <trkpt lat="45.0693720" lon="-93.0046410">
        <ele>301.9900000</ele>
        <time>2009-06-28T22:26:58Z</time>
      </trkpt>
      <trkpt lat="45.0694320" lon="-93.0047920">
        <ele>302.4700000</ele>
        <time>2009-06-28T22:26:59Z</time>
      </trkpt>
      <trkpt lat="45.0694380" lon="-93.0049300">
        <ele>302.9500000</ele>
        <time>2009-06-28T22:27:00Z</time>
      </trkpt>
      <trkpt lat="45.0694380" lon="-93.0050490">
        <ele>303.4300000</ele>
        <time>2009-06-28T22:27:01Z</time>
      </trkpt>
      <trkpt lat="45.0694380" lon="-93.0051140">
        <ele>303.4300000</ele>
        <time>2009-06-28T22:27:02Z</time>
      </trkpt>
      <trkpt lat="45.0694380" lon="-93.0051470">
        <ele>303.9100000</ele>
        <time>2009-06-28T22:27:03Z</time>
      </trkpt>
      <trkpt lat="45.0694380" lon="-93.0051640">
        <ele>303.9100000</ele>
        <time>2009-06-28T22:27:04Z</time>
      </trkpt>
      <trkpt lat="45.0694430" lon="-93.0056710">
        <ele>303.9100000</ele>
        <time>2009-06-28T22:27:10Z</time>
      </trkpt>
      <trkpt lat="45.0694590" lon="-93.0070650">
        <ele>301.5100000</ele>
        <time>2009-06-28T22:27:18Z</time>
      </trkpt>
      <trkpt lat="45.0694800" lon="-93.0101420">
        <ele>295.7400000</ele>
        <time>2009-06-28T22:27:34Z</time>
      </trkpt>
      <trkpt lat="45.0694800" lon="-93.0114270">
        <ele>292.8600000</ele>
        <time>2009-06-28T22:27:43Z</time>
      </trkpt>
      <trkpt lat="45.0695710" lon="-93.0115420">
        <ele>293.3400000</ele>
        <time>2009-06-28T22:27:46Z</time>
      </trkpt>
      <trkpt lat="45.0696260" lon="-93.0115420">
        <ele>292.8600000</ele>
        <time>2009-06-28T22:27:47Z</time>
      </trkpt>
      <trkpt lat="45.0702510" lon="-93.0116740">
        <ele>292.8600000</ele>
        <time>2009-06-28T22:27:53Z</time>
      </trkpt>
      <trkpt lat="45.0712500" lon="-93.0123520">
        <ele>291.4200000</ele>
        <time>2009-06-28T22:28:00Z</time>
      </trkpt>
      <trkpt lat="45.0728640" lon="-93.0140080">
        <ele>291.9000000</ele>
        <time>2009-06-28T22:28:12Z</time>
      </trkpt>
      <trkpt lat="45.0734910" lon="-93.0155440">
        <ele>292.3800000</ele>
        <time>2009-06-28T22:28:20Z</time>
      </trkpt>
      <trkpt lat="45.0735810" lon="-93.0169790">
        <ele>291.9000000</ele>
        <time>2009-06-28T22:28:27Z</time>
      </trkpt>
      <trkpt lat="45.0732870" lon="-93.0189440">
        <ele>293.8200000</ele>
        <time>2009-06-28T22:28:37Z</time>
      </trkpt>
      <trkpt lat="45.0732640" lon="-93.0191250">
        <ele>294.3000000</ele>
        <time>2009-06-28T22:28:38Z</time>
      </trkpt>
      <trkpt lat="45.0732710" lon="-93.0193030">
        <ele>294.7800000</ele>
        <time>2009-06-28T22:28:39Z</time>
      </trkpt>
      <trkpt lat="45.0732880" lon="-93.0194630">
        <ele>294.7800000</ele>
        <time>2009-06-28T22:28:40Z</time>
      </trkpt>
      <trkpt lat="45.0733150" lon="-93.0196060">
        <ele>295.2600000</ele>
        <time>2009-06-28T22:28:41Z</time>
      </trkpt>
      <trkpt lat="45.0733540" lon="-93.0197040">
        <ele>295.2600000</ele>
        <time>2009-06-28T22:28:42Z</time>
      </trkpt>
      <trkpt lat="45.0733750" lon="-93.0197540">
        <ele>295.7400000</ele>
        <time>2009-06-28T22:28:43Z</time>
      </trkpt>
      <trkpt lat="45.0734520" lon="-93.0197380">
        <ele>295.7400000</ele>
        <time>2009-06-28T22:28:48Z</time>
      </trkpt>
      <trkpt lat="45.0734990" lon="-93.0197070">
        <ele>295.7400000</ele>
        <time>2009-06-28T22:28:49Z</time>
      </trkpt>
      <trkpt lat="45.0735640" lon="-93.0196640">
        <ele>295.7400000</ele>
        <time>2009-06-28T22:28:50Z</time>
      </trkpt>
      <trkpt lat="45.0736410" lon="-93.0196120">
        <ele>296.2200000</ele>
        <time>2009-06-28T22:28:51Z</time>
      </trkpt>
      <trkpt lat="45.0737260" lon="-93.0195560">
        <ele>296.2200000</ele>
        <time>2009-06-28T22:28:52Z</time>
      </trkpt>
      <trkpt lat="45.0743820" lon="-93.0190850">
        <ele>296.2200000</ele>
        <time>2009-06-28T22:28:57Z</time>
      </trkpt>
      <trkpt lat="45.0764430" lon="-93.0175840">
        <ele>296.7000000</ele>
        <time>2009-06-28T22:29:11Z</time>
      </trkpt>
      <trkpt lat="45.0783650" lon="-93.0161640">
        <ele>298.1500000</ele>
        <time>2009-06-28T22:29:25Z</time>
      </trkpt>
      <trkpt lat="45.0789430" lon="-93.0157100">
        <ele>298.1500000</ele>
        <time>2009-06-28T22:29:32Z</time>
      </trkpt>
      <trkpt lat="45.0789920" lon="-93.0156710">
        <ele>298.6300000</ele>
        <time>2009-06-28T22:29:39Z</time>
      </trkpt>
      <trkpt lat="45.0790810" lon="-93.0156020">
        <ele>300.5500000</ele>
        <time>2009-06-28T22:29:47Z</time>
      </trkpt>
      <trkpt lat="45.0791230" lon="-93.0155690">
        <ele>300.5500000</ele>
        <time>2009-06-28T22:29:48Z</time>
      </trkpt>
      <trkpt lat="45.0791430" lon="-93.0155530">
        <ele>300.5500000</ele>
        <time>2009-06-28T22:29:49Z</time>
      </trkpt>
      <trkpt lat="45.0792650" lon="-93.0156620">
        <ele>300.5500000</ele>
        <time>2009-06-28T22:29:50Z</time>
      </trkpt>
      <trkpt lat="45.0792650" lon="-93.0158770">
        <ele>300.5500000</ele>
        <time>2009-06-28T22:29:51Z</time>
      </trkpt>
      <trkpt lat="45.0792650" lon="-93.0160080">
        <ele>300.0700000</ele>
        <time>2009-06-28T22:29:52Z</time>
      </trkpt>
      <trkpt lat="45.0792650" lon="-93.0161050">
        <ele>300.5500000</ele>
        <time>2009-06-28T22:29:53Z</time>
      </trkpt>
      <trkpt lat="45.0792650" lon="-93.0162110">
        <ele>300.5500000</ele>
        <time>2009-06-28T22:29:54Z</time>
      </trkpt>
      <trkpt lat="45.0792310" lon="-93.0177310">
        <ele>298.1500000</ele>
        <time>2009-06-28T22:30:05Z</time>
      </trkpt>
      <trkpt lat="45.0792220" lon="-93.0200510">
        <ele>296.7000000</ele>
        <time>2009-06-28T22:30:17Z</time>
      </trkpt>
      <trkpt lat="45.0792220" lon="-93.0251190">
        <ele>301.5100000</ele>
        <time>2009-06-28T22:30:41Z</time>
      </trkpt>
      <trkpt lat="45.0792220" lon="-93.0291140">
        <ele>301.0300000</ele>
        <time>2009-06-28T22:30:58Z</time>
      </trkpt>
      <trkpt lat="45.0792220" lon="-93.0353720">
        <ele>300.0700000</ele>
        <time>2009-06-28T22:31:24Z</time>
      </trkpt>
      <trkpt lat="45.0793080" lon="-93.0403690">
        <ele>298.6300000</ele>
        <time>2009-06-28T22:31:44Z</time>
      </trkpt>
      <trkpt lat="45.0793580" lon="-93.0464330">
        <ele>301.5100000</ele>
        <time>2009-06-28T22:32:09Z</time>
      </trkpt>
      <trkpt lat="45.0793710" lon="-93.0502010">
        <ele>298.6300000</ele>
        <time>2009-06-28T22:32:25Z</time>
      </trkpt>
      <trkpt lat="45.0793510" lon="-93.0530690">
        <ele>301.9900000</ele>
        <time>2009-06-28T22:32:38Z</time>
      </trkpt>
      <trkpt lat="45.0793510" lon="-93.0570140">
        <ele>304.8800000</ele>
        <time>2009-06-28T22:32:55Z</time>
      </trkpt>
      <trkpt lat="45.0793510" lon="-93.0610530">
        <ele>303.4300000</ele>
        <time>2009-06-28T22:33:11Z</time>
      </trkpt>
      <trkpt lat="45.0793510" lon="-93.0651560">
        <ele>301.9900000</ele>
        <time>2009-06-28T22:33:28Z</time>
      </trkpt>
      <trkpt lat="45.0793510" lon="-93.0681750">
        <ele>298.6300000</ele>
        <time>2009-06-28T22:33:39Z</time>
      </trkpt>
      <trkpt lat="45.0793510" lon="-93.0732490">
        <ele>291.9000000</ele>
        <time>2009-06-28T22:33:59Z</time>
      </trkpt>
      <trkpt lat="45.0793430" lon="-93.0781220">
        <ele>290.9400000</ele>
        <time>2009-06-28T22:34:17Z</time>
      </trkpt>
      <trkpt lat="45.0793080" lon="-93.0842780">
        <ele>291.4200000</ele>
        <time>2009-06-28T22:34:39Z</time>
      </trkpt>
      <trkpt lat="45.0792900" lon="-93.0894860">
        <ele>294.7800000</ele>
        <time>2009-06-28T22:34:59Z</time>
      </trkpt>
      <trkpt lat="45.0792500" lon="-93.0954150">
        <ele>287.5700000</ele>
        <time>2009-06-28T22:35:20Z</time>
      </trkpt>
      <trkpt lat="45.0792220" lon="-93.1013740">
        <ele>285.1700000</ele>
        <time>2009-06-28T22:35:41Z</time>
      </trkpt>
      <trkpt lat="45.0792750" lon="-93.1070810">
        <ele>291.4200000</ele>
        <time>2009-06-28T22:36:01Z</time>
      </trkpt>
      <trkpt lat="45.0794800" lon="-93.1143680">
        <ele>298.6300000</ele>
        <time>2009-06-28T22:36:27Z</time>
      </trkpt>
      <trkpt lat="45.0794800" lon="-93.1167410">
        <ele>298.1500000</ele>
        <time>2009-06-28T22:36:37Z</time>
      </trkpt>
      <trkpt lat="45.0794800" lon="-93.1171570">
        <ele>297.1800000</ele>
        <time>2009-06-28T22:36:40Z</time>
      </trkpt>
      <trkpt lat="45.0796020" lon="-93.1172100">
        <ele>297.1800000</ele>
        <time>2009-06-28T22:36:41Z</time>
      </trkpt>
      <trkpt lat="45.0796880" lon="-93.1172470">
        <ele>296.7000000</ele>
        <time>2009-06-28T22:36:42Z</time>
      </trkpt>
      <trkpt lat="45.0797600" lon="-93.1172790">
        <ele>296.2200000</ele>
        <time>2009-06-28T22:36:43Z</time>
      </trkpt>
      <trkpt lat="45.0798500" lon="-93.1173170">
        <ele>296.2200000</ele>
        <time>2009-06-28T22:36:44Z</time>
      </trkpt>
      <trkpt lat="45.0799460" lon="-93.1173590">
        <ele>296.2200000</ele>
        <time>2009-06-28T22:36:45Z</time>
      </trkpt>
      <trkpt lat="45.0802010" lon="-93.1174700">
        <ele>295.7400000</ele>
        <time>2009-06-28T22:36:48Z</time>
      </trkpt>
      <trkpt lat="45.0802360" lon="-93.1174850">
        <ele>296.2200000</ele>
        <time>2009-06-28T22:36:49Z</time>
      </trkpt>
      <trkpt lat="45.0802470" lon="-93.1174890">
        <ele>296.2200000</ele>
        <time>2009-06-28T22:36:50Z</time>
      </trkpt>
      <trkpt lat="45.0803190" lon="-93.1175210">
        <ele>297.1800000</ele>
        <time>2009-06-28T22:36:54Z</time>
      </trkpt>
      <trkpt lat="45.0803610" lon="-93.1175390">
        <ele>296.7000000</ele>
        <time>2009-06-28T22:36:55Z</time>
      </trkpt>
      <trkpt lat="45.0804090" lon="-93.1175600">
        <ele>296.2200000</ele>
        <time>2009-06-28T22:36:56Z</time>
      </trkpt>
      <trkpt lat="45.0807720" lon="-93.1177170">
        <ele>295.2600000</ele>
        <time>2009-06-28T22:37:03Z</time>
      </trkpt>
      <trkpt lat="45.0808010" lon="-93.1177300">
        <ele>295.2600000</ele>
        <time>2009-06-28T22:37:04Z</time>
      </trkpt>
      <trkpt lat="45.0809140" lon="-93.1173320">
        <ele>294.7800000</ele>
        <time>2009-06-28T22:37:12Z</time>
      </trkpt>
      <trkpt lat="45.0809310" lon="-93.1172340">
        <ele>291.9000000</ele>
        <time>2009-06-28T22:45:21Z</time>
      </trkpt>
      <trkpt lat="45.0811530" lon="-93.1178870">
        <ele>294.3000000</ele>
        <time>2009-06-28T22:45:32Z</time>
      </trkpt>
      <trkpt lat="45.0814320" lon="-93.1175050">
        <ele>294.3000000</ele>
        <time>2009-06-28T22:45:37Z</time>
      </trkpt>
      <trkpt lat="45.0814260" lon="-93.1175380">
        <ele>294.7800000</ele>
        <time>2009-06-28T22:45:38Z</time>
      </trkpt>
      <trkpt lat="45.0814160" lon="-93.1175950">
        <ele>294.7800000</ele>
        <time>2009-06-28T22:45:39Z</time>
      </trkpt>
      <trkpt lat="45.0814030" lon="-93.1176630">
        <ele>294.7800000</ele>
        <time>2009-06-28T22:45:40Z</time>
      </trkpt>
      <trkpt lat="45.0813920" lon="-93.1177290">
        <ele>294.7800000</ele>
        <time>2009-06-28T22:45:41Z</time>
      </trkpt>
      <trkpt lat="45.0813730" lon="-93.1178310">
        <ele>296.7000000</ele>
        <time>2009-06-28T22:45:48Z</time>
      </trkpt>
      <trkpt lat="45.0813370" lon="-93.1180360">
        <ele>301.9900000</ele>
        <time>2009-06-28T22:46:02Z</time>
      </trkpt>
      <trkpt lat="45.0813250" lon="-93.1181010">
        <ele>302.4700000</ele>
        <time>2009-06-28T22:46:03Z</time>
      </trkpt>
      <trkpt lat="45.0812330" lon="-93.1180780">
        <ele>302.9500000</ele>
        <time>2009-06-28T22:46:04Z</time>
      </trkpt>
      <trkpt lat="45.0811490" lon="-93.1180570">
        <ele>302.4700000</ele>
        <time>2009-06-28T22:46:05Z</time>
      </trkpt>
      <trkpt lat="45.0810550" lon="-93.1180340">
        <ele>302.9500000</ele>
        <time>2009-06-28T22:46:06Z</time>
      </trkpt>
      <trkpt lat="45.0809550" lon="-93.1180040">
        <ele>302.9500000</ele>
        <time>2009-06-28T22:46:07Z</time>
      </trkpt>
      <trkpt lat="45.0797300" lon="-93.1174470">
        <ele>296.7000000</ele>
        <time>2009-06-28T22:46:18Z</time>
      </trkpt>
      <trkpt lat="45.0795370" lon="-93.1173560">
        <ele>296.7000000</ele>
        <time>2009-06-28T22:46:24Z</time>
      </trkpt>
      <trkpt lat="45.0794260" lon="-93.1173020">
        <ele>296.2200000</ele>
        <time>2009-06-28T22:47:21Z</time>
      </trkpt>
      <trkpt lat="45.0786650" lon="-93.1169720">
        <ele>295.7400000</ele>
        <time>2009-06-28T22:47:28Z</time>
      </trkpt>
      <trkpt lat="45.0769080" lon="-93.1160380">
        <ele>294.3000000</ele>
        <time>2009-06-28T22:47:40Z</time>
      </trkpt>
      <trkpt lat="45.0741240" lon="-93.1147450">
        <ele>292.8600000</ele>
        <time>2009-06-28T22:47:58Z</time>
      </trkpt>
      <trkpt lat="45.0738740" lon="-93.1146290">
        <ele>291.4200000</ele>
        <time>2009-06-28T22:48:01Z</time>
      </trkpt>
      <trkpt lat="45.0738290" lon="-93.1146090">
        <ele>291.4200000</ele>
        <time>2009-06-28T22:48:02Z</time>
      </trkpt>
      <trkpt lat="45.0738220" lon="-93.1146050">
        <ele>290.9400000</ele>
        <time>2009-06-28T22:48:03Z</time>
      </trkpt>
      <trkpt lat="45.0737800" lon="-93.1148590">
        <ele>290.9400000</ele>
        <time>2009-06-28T22:48:04Z</time>
      </trkpt>
      <trkpt lat="45.0737840" lon="-93.1149830">
        <ele>291.4200000</ele>
        <time>2009-06-28T22:48:05Z</time>
      </trkpt>
      <trkpt lat="45.0737890" lon="-93.1151270">
        <ele>291.4200000</ele>
        <time>2009-06-28T22:48:06Z</time>
      </trkpt>
      <trkpt lat="45.0737930" lon="-93.1152870">
        <ele>291.4200000</ele>
        <time>2009-06-28T22:48:07Z</time>
      </trkpt>
      <trkpt lat="45.0738150" lon="-93.1166750">
        <ele>293.8200000</ele>
        <time>2009-06-28T22:48:16Z</time>
      </trkpt>
      <trkpt lat="45.0738150" lon="-93.1167450">
        <ele>293.3400000</ele>
        <time>2009-06-28T22:48:17Z</time>
      </trkpt>
      <trkpt lat="45.0738150" lon="-93.1167830">
        <ele>294.3000000</ele>
        <time>2009-06-28T22:48:18Z</time>
      </trkpt>
      <trkpt lat="45.0740010" lon="-93.1167710">
        <ele>294.3000000</ele>
        <time>2009-06-28T22:48:19Z</time>
      </trkpt>
      <trkpt lat="45.0740620" lon="-93.1167710">
        <ele>293.8200000</ele>
        <time>2009-06-28T22:48:20Z</time>
      </trkpt>
      <trkpt lat="45.0741200" lon="-93.1167710">
        <ele>293.8200000</ele>
        <time>2009-06-28T22:48:21Z</time>
      </trkpt>
      <trkpt lat="45.0741780" lon="-93.1167710">
        <ele>294.3000000</ele>
        <time>2009-06-28T22:48:22Z</time>
      </trkpt>
      <trkpt lat="45.0743240" lon="-93.1167710">
        <ele>294.7800000</ele>
        <time>2009-06-28T22:48:29Z</time>
      </trkpt>
      <trkpt lat="45.0743370" lon="-93.1167710">
        <ele>295.7400000</ele>
        <time>2009-06-28T22:48:31Z</time>
      </trkpt>
      <trkpt lat="45.0743370" lon="-93.1167710">
        <ele>296.7000000</ele>
        <time>2009-06-28T22:48:32Z</time>
      </trkpt>
      <trkpt lat="45.0738150" lon="-93.1168100">
        <ele>295.2600000</ele>
        <time>2009-06-28T22:48:37Z</time>
      </trkpt>
      <trkpt lat="45.0738150" lon="-93.1168350">
        <ele>294.7800000</ele>
        <time>2009-06-28T22:48:38Z</time>
      </trkpt>
      <trkpt lat="45.0738150" lon="-93.1169200">
        <ele>289.4900000</ele>
        <time>2009-06-28T22:48:52Z</time>
      </trkpt>
      <trkpt lat="45.0738150" lon="-93.1169200">
        <ele>289.4900000</ele>
        <time>2009-06-28T22:49:14Z</time>
      </trkpt>
      <trkpt lat="45.0738150" lon="-93.1169200">
        <ele>290.4600000</ele>
        <time>2009-06-28T22:49:17Z</time>
      </trkpt>
    </trkseg>
  </trk>

</gpx>
